<?xml version="1.0" encoding="UTF-8" standalone="no" ?>
<gpx xmlns="http://www.topografix.com/GPX/1/1" xmlns:xsi="http://www.w3.org/2001/XMLSchema-instance" xsi:schemaLocation="http://www.topografix.com/GPX/1/1 http://www.topografix.com/GPX/1/1/gpx.xsd" version="1.1" creator="VisuGPX - https://www.visugpx.com">
  <metadata>
    <name>boucle vergt</name>
  </metadata>
  <trk>
    <name><![CDATA[boucle vergt]]></name>
    <extensions>
      <line xmlns="http://www.topografix.com/GPX/gpx_style/0/2">
        <color>0000FF</color>
        <width>4</width>
      </line>
    </extensions>
    <trkseg>
      <trkpt lat="45.02492" lon="0.71713">
        <ele>125.59999847412</ele>
        <time>2020-12-27T07:59:23Z</time>
      </trkpt>
      <trkpt lat="45.02505" lon="0.71735">
        <ele>126</ele>
        <time>2020-12-27T07:59:31Z</time>
      </trkpt>
      <trkpt lat="45.02522" lon="0.71763">
        <ele>125.40000152588</ele>
        <time>2020-12-27T07:59:40Z</time>
      </trkpt>
      <trkpt lat="45.0254" lon="0.71794">
        <ele>126</ele>
        <time>2020-12-27T07:59:50Z</time>
      </trkpt>
      <trkpt lat="45.02554" lon="0.7182">
        <ele>126</ele>
        <time>2020-12-27T07:59:58Z</time>
      </trkpt>
      <trkpt lat="45.02567" lon="0.71844">
        <ele>125.80000305176</ele>
        <time>2020-12-27T08:00:06Z</time>
      </trkpt>
      <trkpt lat="45.02581" lon="0.71866">
        <ele>125.80000305176</ele>
        <time>2020-12-27T08:00:14Z</time>
      </trkpt>
      <trkpt lat="45.02589" lon="0.71883">
        <ele>125.59999847412</ele>
        <time>2020-12-27T08:00:21Z</time>
      </trkpt>
      <trkpt lat="45.02601" lon="0.71895">
        <ele>126.40000152588</ele>
        <time>2020-12-27T08:00:27Z</time>
      </trkpt>
      <trkpt lat="45.02602" lon="0.71897">
        <ele>126.59999847412</ele>
        <time>2020-12-27T08:00:28Z</time>
      </trkpt>
      <trkpt lat="45.02613" lon="0.71906">
        <ele>126.19999694824</ele>
        <time>2020-12-27T08:00:33Z</time>
      </trkpt>
      <trkpt lat="45.02629" lon="0.71919">
        <ele>126</ele>
        <time>2020-12-27T08:00:41Z</time>
      </trkpt>
      <trkpt lat="45.02644" lon="0.71938">
        <ele>125.80000305176</ele>
        <time>2020-12-27T08:00:49Z</time>
      </trkpt>
      <trkpt lat="45.02643" lon="0.71957">
        <ele>126</ele>
        <time>2020-12-27T08:00:54Z</time>
      </trkpt>
      <trkpt lat="45.02642" lon="0.71968">
        <ele>125.59999847412</ele>
        <time>2020-12-27T08:00:57Z</time>
      </trkpt>
      <trkpt lat="45.02639" lon="0.71983">
        <ele>125.59999847412</ele>
        <time>2020-12-27T08:01:01Z</time>
      </trkpt>
      <trkpt lat="45.02634" lon="0.72022">
        <ele>125</ele>
        <time>2020-12-27T08:01:11Z</time>
      </trkpt>
      <trkpt lat="45.02637" lon="0.72049">
        <ele>124.80000305176</ele>
        <time>2020-12-27T08:01:18Z</time>
      </trkpt>
      <trkpt lat="45.02654" lon="0.72073">
        <ele>125.40000152588</ele>
        <time>2020-12-27T08:01:26Z</time>
      </trkpt>
      <trkpt lat="45.02672" lon="0.72102">
        <ele>125.80000305176</ele>
        <time>2020-12-27T08:01:35Z</time>
      </trkpt>
      <trkpt lat="45.02685" lon="0.72122">
        <ele>126.19999694824</ele>
        <time>2020-12-27T08:01:42Z</time>
      </trkpt>
      <trkpt lat="45.02705" lon="0.7215">
        <ele>126.40000152588</ele>
        <time>2020-12-27T08:01:51Z</time>
      </trkpt>
      <trkpt lat="45.02718" lon="0.72171">
        <ele>126.80000305176</ele>
        <time>2020-12-27T08:01:58Z</time>
      </trkpt>
      <trkpt lat="45.02722" lon="0.72176">
        <ele>127</ele>
        <time>2020-12-27T08:02:00Z</time>
      </trkpt>
      <trkpt lat="45.0273" lon="0.72197">
        <ele>126.80000305176</ele>
        <time>2020-12-27T08:02:07Z</time>
      </trkpt>
      <trkpt lat="45.02733" lon="0.7223">
        <ele>126.19999694824</ele>
        <time>2020-12-27T08:02:14Z</time>
      </trkpt>
      <trkpt lat="45.02738" lon="0.72269">
        <ele>126.59999847412</ele>
        <time>2020-12-27T08:02:22Z</time>
      </trkpt>
      <trkpt lat="45.0274" lon="0.72303">
        <ele>126.40000152588</ele>
        <time>2020-12-27T08:02:30Z</time>
      </trkpt>
      <trkpt lat="45.02745" lon="0.72337">
        <ele>126.19999694824</ele>
        <time>2020-12-27T08:02:38Z</time>
      </trkpt>
      <trkpt lat="45.02753" lon="0.72367">
        <ele>126.80000305176</ele>
        <time>2020-12-27T08:02:45Z</time>
      </trkpt>
      <trkpt lat="45.0276" lon="0.72393">
        <ele>126.19999694824</ele>
        <time>2020-12-27T08:02:52Z</time>
      </trkpt>
      <trkpt lat="45.02764" lon="0.72409">
        <ele>125.59999847412</ele>
        <time>2020-12-27T08:02:56Z</time>
      </trkpt>
      <trkpt lat="45.0277" lon="0.72428">
        <ele>125.80000305176</ele>
        <time>2020-12-27T08:03:01Z</time>
      </trkpt>
      <trkpt lat="45.02774" lon="0.72443">
        <ele>127</ele>
        <time>2020-12-27T08:03:05Z</time>
      </trkpt>
      <trkpt lat="45.02779" lon="0.72458">
        <ele>128</ele>
        <time>2020-12-27T08:03:09Z</time>
      </trkpt>
      <trkpt lat="45.0278" lon="0.72462">
        <ele>128.39999389648</ele>
        <time>2020-12-27T08:03:10Z</time>
      </trkpt>
      <trkpt lat="45.02787" lon="0.72483">
        <ele>129.19999694824</ele>
        <time>2020-12-27T08:03:16Z</time>
      </trkpt>
      <trkpt lat="45.02792" lon="0.72501">
        <ele>129.60000610352</ele>
        <time>2020-12-27T08:03:20Z</time>
      </trkpt>
      <trkpt lat="45.02805" lon="0.72543">
        <ele>129.80000305176</ele>
        <time>2020-12-27T08:03:30Z</time>
      </trkpt>
      <trkpt lat="45.0281" lon="0.72559">
        <ele>130.19999694824</ele>
        <time>2020-12-27T08:03:34Z</time>
      </trkpt>
      <trkpt lat="45.02817" lon="0.72579">
        <ele>130.80000305176</ele>
        <time>2020-12-27T08:03:39Z</time>
      </trkpt>
      <trkpt lat="45.0282" lon="0.72586">
        <ele>131.19999694824</ele>
        <time>2020-12-27T08:03:41Z</time>
      </trkpt>
      <trkpt lat="45.02822" lon="0.72595">
        <ele>131.19999694824</ele>
        <time>2020-12-27T08:03:44Z</time>
      </trkpt>
      <trkpt lat="45.02833" lon="0.72624">
        <ele>130.19999694824</ele>
        <time>2020-12-27T08:03:52Z</time>
      </trkpt>
      <trkpt lat="45.02838" lon="0.72645">
        <ele>129.80000305176</ele>
        <time>2020-12-27T08:03:58Z</time>
      </trkpt>
      <trkpt lat="45.02841" lon="0.72664">
        <ele>129.19999694824</ele>
        <time>2020-12-27T08:04:03Z</time>
      </trkpt>
      <trkpt lat="45.02842" lon="0.72671">
        <ele>129</ele>
        <time>2020-12-27T08:04:05Z</time>
      </trkpt>
      <trkpt lat="45.02845" lon="0.72696">
        <ele>128.80000305176</ele>
        <time>2020-12-27T08:04:12Z</time>
      </trkpt>
      <trkpt lat="45.02849" lon="0.72719">
        <ele>129.80000305176</ele>
        <time>2020-12-27T08:04:19Z</time>
      </trkpt>
      <trkpt lat="45.0285" lon="0.72726">
        <ele>130.39999389648</ele>
        <time>2020-12-27T08:04:21Z</time>
      </trkpt>
      <trkpt lat="45.02853" lon="0.72739">
        <ele>131</ele>
        <time>2020-12-27T08:04:25Z</time>
      </trkpt>
      <trkpt lat="45.02856" lon="0.7275">
        <ele>131.60000610352</ele>
        <time>2020-12-27T08:04:28Z</time>
      </trkpt>
      <trkpt lat="45.02861" lon="0.72761">
        <ele>131.39999389648</ele>
        <time>2020-12-27T08:04:31Z</time>
      </trkpt>
      <trkpt lat="45.02867" lon="0.72778">
        <ele>130.60000610352</ele>
        <time>2020-12-27T08:04:35Z</time>
      </trkpt>
      <trkpt lat="45.02872" lon="0.72799">
        <ele>130</ele>
        <time>2020-12-27T08:04:40Z</time>
      </trkpt>
      <trkpt lat="45.02875" lon="0.72808">
        <ele>129.80000305176</ele>
        <time>2020-12-27T08:04:43Z</time>
      </trkpt>
      <trkpt lat="45.0288" lon="0.72809">
        <ele>129.39999389648</ele>
        <time>2020-12-27T08:04:45Z</time>
      </trkpt>
      <trkpt lat="45.02886" lon="0.72804">
        <ele>129</ele>
        <time>2020-12-27T08:04:47Z</time>
      </trkpt>
      <trkpt lat="45.02894" lon="0.72797">
        <ele>128.39999389648</ele>
        <time>2020-12-27T08:04:49Z</time>
      </trkpt>
      <trkpt lat="45.02902" lon="0.72788">
        <ele>128</ele>
        <time>2020-12-27T08:04:51Z</time>
      </trkpt>
      <trkpt lat="45.02916" lon="0.72775">
        <ele>127.59999847412</ele>
        <time>2020-12-27T08:04:54Z</time>
      </trkpt>
      <trkpt lat="45.02927" lon="0.72767">
        <ele>127</ele>
        <time>2020-12-27T08:04:56Z</time>
      </trkpt>
      <trkpt lat="45.02937" lon="0.72759">
        <ele>125.80000305176</ele>
        <time>2020-12-27T08:04:58Z</time>
      </trkpt>
      <trkpt lat="45.02942" lon="0.72756">
        <ele>125.59999847412</ele>
        <time>2020-12-27T08:04:59Z</time>
      </trkpt>
      <trkpt lat="45.02947" lon="0.72755">
        <ele>125.40000152588</ele>
        <time>2020-12-27T08:05:00Z</time>
      </trkpt>
      <trkpt lat="45.02957" lon="0.72762">
        <ele>124.59999847412</ele>
        <time>2020-12-27T08:05:02Z</time>
      </trkpt>
      <trkpt lat="45.02959" lon="0.72769">
        <ele>124.40000152588</ele>
        <time>2020-12-27T08:05:03Z</time>
      </trkpt>
      <trkpt lat="45.02964" lon="0.72788">
        <ele>123.40000152588</ele>
        <time>2020-12-27T08:05:06Z</time>
      </trkpt>
      <trkpt lat="45.02965" lon="0.728">
        <ele>123</ele>
        <time>2020-12-27T08:05:08Z</time>
      </trkpt>
      <trkpt lat="45.02968" lon="0.72821">
        <ele>122.40000152588</ele>
        <time>2020-12-27T08:05:12Z</time>
      </trkpt>
      <trkpt lat="45.02968" lon="0.72842">
        <ele>122.80000305176</ele>
        <time>2020-12-27T08:05:16Z</time>
      </trkpt>
      <trkpt lat="45.02972" lon="0.72887">
        <ele>122.80000305176</ele>
        <time>2020-12-27T08:05:25Z</time>
      </trkpt>
      <trkpt lat="45.02979" lon="0.72932">
        <ele>122.59999847412</ele>
        <time>2020-12-27T08:05:34Z</time>
      </trkpt>
      <trkpt lat="45.02983" lon="0.72979">
        <ele>123</ele>
        <time>2020-12-27T08:05:43Z</time>
      </trkpt>
      <trkpt lat="45.02984" lon="0.72994">
        <ele>123.59999847412</ele>
        <time>2020-12-27T08:05:46Z</time>
      </trkpt>
      <trkpt lat="45.02987" lon="0.73025">
        <ele>124.19999694824</ele>
        <time>2020-12-27T08:05:52Z</time>
      </trkpt>
      <trkpt lat="45.02989" lon="0.73045">
        <ele>124.80000305176</ele>
        <time>2020-12-27T08:05:56Z</time>
      </trkpt>
      <trkpt lat="45.02991" lon="0.73065">
        <ele>124.80000305176</ele>
        <time>2020-12-27T08:06:00Z</time>
      </trkpt>
      <trkpt lat="45.02996" lon="0.7311">
        <ele>124.59999847412</ele>
        <time>2020-12-27T08:06:09Z</time>
      </trkpt>
      <trkpt lat="45.02999" lon="0.73148">
        <ele>126.19999694824</ele>
        <time>2020-12-27T08:06:16Z</time>
      </trkpt>
      <trkpt lat="45.02999" lon="0.73159">
        <ele>126.80000305176</ele>
        <time>2020-12-27T08:06:18Z</time>
      </trkpt>
      <trkpt lat="45.03" lon="0.73169">
        <ele>127.19999694824</ele>
        <time>2020-12-27T08:06:20Z</time>
      </trkpt>
      <trkpt lat="45.03003" lon="0.73206">
        <ele>128</ele>
        <time>2020-12-27T08:06:27Z</time>
      </trkpt>
      <trkpt lat="45.03005" lon="0.73231">
        <ele>128.39999389648</ele>
        <time>2020-12-27T08:06:32Z</time>
      </trkpt>
      <trkpt lat="45.03008" lon="0.73256">
        <ele>128.39999389648</ele>
        <time>2020-12-27T08:06:37Z</time>
      </trkpt>
      <trkpt lat="45.03014" lon="0.73302">
        <ele>128.80000305176</ele>
        <time>2020-12-27T08:06:46Z</time>
      </trkpt>
      <trkpt lat="45.03016" lon="0.73324">
        <ele>129.39999389648</ele>
        <time>2020-12-27T08:06:51Z</time>
      </trkpt>
      <trkpt lat="45.03019" lon="0.73344">
        <ele>129.80000305176</ele>
        <time>2020-12-27T08:06:55Z</time>
      </trkpt>
      <trkpt lat="45.03023" lon="0.73388">
        <ele>129.80000305176</ele>
        <time>2020-12-27T08:07:04Z</time>
      </trkpt>
      <trkpt lat="45.03027" lon="0.73433">
        <ele>130</ele>
        <time>2020-12-27T08:07:13Z</time>
      </trkpt>
      <trkpt lat="45.03029" lon="0.73451">
        <ele>130.39999389648</ele>
        <time>2020-12-27T08:07:17Z</time>
      </trkpt>
      <trkpt lat="45.03033" lon="0.73487">
        <ele>130.60000610352</ele>
        <time>2020-12-27T08:07:25Z</time>
      </trkpt>
      <trkpt lat="45.0304" lon="0.7351">
        <ele>130.60000610352</ele>
        <time>2020-12-27T08:07:32Z</time>
      </trkpt>
      <trkpt lat="45.03044" lon="0.73513">
        <ele>131</ele>
        <time>2020-12-27T08:07:34Z</time>
      </trkpt>
      <trkpt lat="45.03047" lon="0.7351">
        <ele>131.39999389648</ele>
        <time>2020-12-27T08:07:36Z</time>
      </trkpt>
      <trkpt lat="45.03051" lon="0.73505">
        <ele>131.19999694824</ele>
        <time>2020-12-27T08:07:38Z</time>
      </trkpt>
      <trkpt lat="45.03061" lon="0.73488">
        <ele>130.60000610352</ele>
        <time>2020-12-27T08:07:44Z</time>
      </trkpt>
      <trkpt lat="45.03082" lon="0.73451">
        <ele>131.19999694824</ele>
        <time>2020-12-27T08:07:56Z</time>
      </trkpt>
      <trkpt lat="45.03095" lon="0.7343">
        <ele>131</ele>
        <time>2020-12-27T08:08:03Z</time>
      </trkpt>
      <trkpt lat="45.03105" lon="0.73413">
        <ele>131.19999694824</ele>
        <time>2020-12-27T08:08:10Z</time>
      </trkpt>
      <trkpt lat="45.03115" lon="0.73394">
        <ele>130.80000305176</ele>
        <time>2020-12-27T08:08:16Z</time>
      </trkpt>
      <trkpt lat="45.03122" lon="0.73379">
        <ele>131</ele>
        <time>2020-12-27T08:08:19Z</time>
      </trkpt>
      <trkpt lat="45.03127" lon="0.73364">
        <ele>131</ele>
        <time>2020-12-27T08:08:22Z</time>
      </trkpt>
      <trkpt lat="45.03132" lon="0.73348">
        <ele>130.39999389648</ele>
        <time>2020-12-27T08:08:25Z</time>
      </trkpt>
      <trkpt lat="45.03137" lon="0.73323">
        <ele>130.39999389648</ele>
        <time>2020-12-27T08:08:30Z</time>
      </trkpt>
      <trkpt lat="45.03138" lon="0.73287">
        <ele>130.60000610352</ele>
        <time>2020-12-27T08:08:37Z</time>
      </trkpt>
      <trkpt lat="45.03135" lon="0.73259">
        <ele>131.39999389648</ele>
        <time>2020-12-27T08:08:42Z</time>
      </trkpt>
      <trkpt lat="45.03131" lon="0.73239">
        <ele>131.19999694824</ele>
        <time>2020-12-27T08:08:46Z</time>
      </trkpt>
      <trkpt lat="45.03124" lon="0.7318">
        <ele>130.60000610352</ele>
        <time>2020-12-27T08:08:56Z</time>
      </trkpt>
      <trkpt lat="45.03123" lon="0.73174">
        <ele>130.39999389648</ele>
        <time>2020-12-27T08:08:57Z</time>
      </trkpt>
      <trkpt lat="45.03115" lon="0.73126">
        <ele>130.19999694824</ele>
        <time>2020-12-27T08:09:05Z</time>
      </trkpt>
      <trkpt lat="45.03112" lon="0.73087">
        <ele>131.80000305176</ele>
        <time>2020-12-27T08:09:12Z</time>
      </trkpt>
      <trkpt lat="45.03111" lon="0.73076">
        <ele>132.60000610352</ele>
        <time>2020-12-27T08:09:14Z</time>
      </trkpt>
      <trkpt lat="45.0311" lon="0.7307">
        <ele>132.80000305176</ele>
        <time>2020-12-27T08:09:15Z</time>
      </trkpt>
      <trkpt lat="45.03102" lon="0.73021">
        <ele>133.39999389648</ele>
        <time>2020-12-27T08:09:24Z</time>
      </trkpt>
      <trkpt lat="45.03094" lon="0.72971">
        <ele>132.80000305176</ele>
        <time>2020-12-27T08:09:33Z</time>
      </trkpt>
      <trkpt lat="45.03093" lon="0.72946">
        <ele>131.80000305176</ele>
        <time>2020-12-27T08:09:37Z</time>
      </trkpt>
      <trkpt lat="45.03094" lon="0.72918">
        <ele>131</ele>
        <time>2020-12-27T08:09:42Z</time>
      </trkpt>
      <trkpt lat="45.03098" lon="0.72889">
        <ele>130.60000610352</ele>
        <time>2020-12-27T08:09:47Z</time>
      </trkpt>
      <trkpt lat="45.03102" lon="0.72868">
        <ele>130.19999694824</ele>
        <time>2020-12-27T08:09:51Z</time>
      </trkpt>
      <trkpt lat="45.03112" lon="0.72813">
        <ele>130</ele>
        <time>2020-12-27T08:10:01Z</time>
      </trkpt>
      <trkpt lat="45.03125" lon="0.72738">
        <ele>130</ele>
        <time>2020-12-27T08:10:14Z</time>
      </trkpt>
      <trkpt lat="45.03134" lon="0.72682">
        <ele>130.19999694824</ele>
        <time>2020-12-27T08:10:24Z</time>
      </trkpt>
      <trkpt lat="45.03146" lon="0.72619">
        <ele>130.80000305176</ele>
        <time>2020-12-27T08:10:35Z</time>
      </trkpt>
      <trkpt lat="45.03153" lon="0.72573">
        <ele>130.39999389648</ele>
        <time>2020-12-27T08:10:44Z</time>
      </trkpt>
      <trkpt lat="45.03158" lon="0.72547">
        <ele>130.60000610352</ele>
        <time>2020-12-27T08:10:51Z</time>
      </trkpt>
      <trkpt lat="45.03168" lon="0.7255">
        <ele>130.80000305176</ele>
        <time>2020-12-27T08:10:55Z</time>
      </trkpt>
      <trkpt lat="45.03174" lon="0.7256">
        <ele>130.80000305176</ele>
        <time>2020-12-27T08:10:58Z</time>
      </trkpt>
      <trkpt lat="45.03179" lon="0.72571">
        <ele>131.60000610352</ele>
        <time>2020-12-27T08:11:01Z</time>
      </trkpt>
      <trkpt lat="45.03185" lon="0.72581">
        <ele>133</ele>
        <time>2020-12-27T08:11:04Z</time>
      </trkpt>
      <trkpt lat="45.03191" lon="0.72591">
        <ele>134</ele>
        <time>2020-12-27T08:11:08Z</time>
      </trkpt>
      <trkpt lat="45.03193" lon="0.72594">
        <ele>134.19999694824</ele>
        <time>2020-12-27T08:11:09Z</time>
      </trkpt>
      <trkpt lat="45.03201" lon="0.72608">
        <ele>135.39999389648</ele>
        <time>2020-12-27T08:11:14Z</time>
      </trkpt>
      <trkpt lat="45.03205" lon="0.72617">
        <ele>135.60000610352</ele>
        <time>2020-12-27T08:11:17Z</time>
      </trkpt>
      <trkpt lat="45.03213" lon="0.72639">
        <ele>136.39999389648</ele>
        <time>2020-12-27T08:11:24Z</time>
      </trkpt>
      <trkpt lat="45.03213" lon="0.72642">
        <ele>136.60000610352</ele>
        <time>2020-12-27T08:11:25Z</time>
      </trkpt>
      <trkpt lat="45.03216" lon="0.72651">
        <ele>137.39999389648</ele>
        <time>2020-12-27T08:11:28Z</time>
      </trkpt>
      <trkpt lat="45.03219" lon="0.7267">
        <ele>138.19999694824</ele>
        <time>2020-12-27T08:11:34Z</time>
      </trkpt>
      <trkpt lat="45.03219" lon="0.72673">
        <ele>138.60000610352</ele>
        <time>2020-12-27T08:11:35Z</time>
      </trkpt>
      <trkpt lat="45.03222" lon="0.72693">
        <ele>139.80000305176</ele>
        <time>2020-12-27T08:11:41Z</time>
      </trkpt>
      <trkpt lat="45.03224" lon="0.727">
        <ele>140</ele>
        <time>2020-12-27T08:11:43Z</time>
      </trkpt>
      <trkpt lat="45.03231" lon="0.72731">
        <ele>140.39999389648</ele>
        <time>2020-12-27T08:11:51Z</time>
      </trkpt>
      <trkpt lat="45.03237" lon="0.72752">
        <ele>141.19999694824</ele>
        <time>2020-12-27T08:11:57Z</time>
      </trkpt>
      <trkpt lat="45.03237" lon="0.72755">
        <ele>141.19999694824</ele>
        <time>2020-12-27T08:11:58Z</time>
      </trkpt>
      <trkpt lat="45.03243" lon="0.7278">
        <ele>141.19999694824</ele>
        <time>2020-12-27T08:12:06Z</time>
      </trkpt>
      <trkpt lat="45.0325" lon="0.72807">
        <ele>142</ele>
        <time>2020-12-27T08:12:14Z</time>
      </trkpt>
      <trkpt lat="45.03251" lon="0.72815">
        <ele>142.39999389648</ele>
        <time>2020-12-27T08:12:16Z</time>
      </trkpt>
      <trkpt lat="45.03257" lon="0.72835">
        <ele>142.80000305176</ele>
        <time>2020-12-27T08:12:21Z</time>
      </trkpt>
      <trkpt lat="45.03259" lon="0.72846">
        <ele>143.39999389648</ele>
        <time>2020-12-27T08:12:24Z</time>
      </trkpt>
      <trkpt lat="45.03264" lon="0.72873">
        <ele>144.60000610352</ele>
        <time>2020-12-27T08:12:31Z</time>
      </trkpt>
      <trkpt lat="45.03268" lon="0.72896">
        <ele>145.80000305176</ele>
        <time>2020-12-27T08:12:37Z</time>
      </trkpt>
      <trkpt lat="45.03268" lon="0.72903">
        <ele>146.19999694824</ele>
        <time>2020-12-27T08:12:39Z</time>
      </trkpt>
      <trkpt lat="45.0327" lon="0.72917">
        <ele>146.80000305176</ele>
        <time>2020-12-27T08:12:43Z</time>
      </trkpt>
      <trkpt lat="45.03274" lon="0.72934">
        <ele>147.80000305176</ele>
        <time>2020-12-27T08:12:48Z</time>
      </trkpt>
      <trkpt lat="45.03274" lon="0.72937">
        <ele>147.80000305176</ele>
        <time>2020-12-27T08:12:49Z</time>
      </trkpt>
      <trkpt lat="45.03277" lon="0.72947">
        <ele>149</ele>
        <time>2020-12-27T08:12:53Z</time>
      </trkpt>
      <trkpt lat="45.03281" lon="0.72955">
        <ele>149.39999389648</ele>
        <time>2020-12-27T08:12:56Z</time>
      </trkpt>
      <trkpt lat="45.03284" lon="0.72962">
        <ele>150.19999694824</ele>
        <time>2020-12-27T08:12:59Z</time>
      </trkpt>
      <trkpt lat="45.03286" lon="0.72971">
        <ele>151.39999389648</ele>
        <time>2020-12-27T08:13:02Z</time>
      </trkpt>
      <trkpt lat="45.03288" lon="0.72977">
        <ele>151.60000610352</ele>
        <time>2020-12-27T08:13:04Z</time>
      </trkpt>
      <trkpt lat="45.03291" lon="0.72991">
        <ele>152.60000610352</ele>
        <time>2020-12-27T08:13:08Z</time>
      </trkpt>
      <trkpt lat="45.03293" lon="0.73">
        <ele>153</ele>
        <time>2020-12-27T08:13:11Z</time>
      </trkpt>
      <trkpt lat="45.03294" lon="0.73007">
        <ele>153.60000610352</ele>
        <time>2020-12-27T08:13:13Z</time>
      </trkpt>
      <trkpt lat="45.03297" lon="0.73021">
        <ele>154</ele>
        <time>2020-12-27T08:13:17Z</time>
      </trkpt>
      <trkpt lat="45.03303" lon="0.73056">
        <ele>154.19999694824</ele>
        <time>2020-12-27T08:13:26Z</time>
      </trkpt>
      <trkpt lat="45.0331" lon="0.73067">
        <ele>154.39999389648</ele>
        <time>2020-12-27T08:13:31Z</time>
      </trkpt>
      <trkpt lat="45.03318" lon="0.73062">
        <ele>154.80000305176</ele>
        <time>2020-12-27T08:13:35Z</time>
      </trkpt>
      <trkpt lat="45.03319" lon="0.73059">
        <ele>154.60000610352</ele>
        <time>2020-12-27T08:13:36Z</time>
      </trkpt>
      <trkpt lat="45.03328" lon="0.7304">
        <ele>154.60000610352</ele>
        <time>2020-12-27T08:13:43Z</time>
      </trkpt>
      <trkpt lat="45.03334" lon="0.73025">
        <ele>155.80000305176</ele>
        <time>2020-12-27T08:13:48Z</time>
      </trkpt>
      <trkpt lat="45.03339" lon="0.73011">
        <ele>156.39999389648</ele>
        <time>2020-12-27T08:13:53Z</time>
      </trkpt>
      <trkpt lat="45.03341" lon="0.73006">
        <ele>156.80000305176</ele>
        <time>2020-12-27T08:13:55Z</time>
      </trkpt>
      <trkpt lat="45.03346" lon="0.72997">
        <ele>158</ele>
        <time>2020-12-27T08:13:59Z</time>
      </trkpt>
      <trkpt lat="45.03348" lon="0.72992">
        <ele>158.60000610352</ele>
        <time>2020-12-27T08:14:01Z</time>
      </trkpt>
      <trkpt lat="45.03351" lon="0.72985">
        <ele>159</ele>
        <time>2020-12-27T08:14:04Z</time>
      </trkpt>
      <trkpt lat="45.03357" lon="0.72974">
        <ele>159.80000305176</ele>
        <time>2020-12-27T08:14:09Z</time>
      </trkpt>
      <trkpt lat="45.03358" lon="0.72972">
        <ele>160.19999694824</ele>
        <time>2020-12-27T08:14:10Z</time>
      </trkpt>
      <trkpt lat="45.03369" lon="0.72956">
        <ele>161.19999694824</ele>
        <time>2020-12-27T08:14:18Z</time>
      </trkpt>
      <trkpt lat="45.03382" lon="0.72941">
        <ele>162</ele>
        <time>2020-12-27T08:14:26Z</time>
      </trkpt>
      <trkpt lat="45.03386" lon="0.72938">
        <ele>162.39999389648</ele>
        <time>2020-12-27T08:14:28Z</time>
      </trkpt>
      <trkpt lat="45.03394" lon="0.72932">
        <ele>163</ele>
        <time>2020-12-27T08:14:32Z</time>
      </trkpt>
      <trkpt lat="45.03401" lon="0.72922">
        <ele>163.60000610352</ele>
        <time>2020-12-27T08:14:37Z</time>
      </trkpt>
      <trkpt lat="45.03405" lon="0.72916">
        <ele>163.80000305176</ele>
        <time>2020-12-27T08:14:40Z</time>
      </trkpt>
      <trkpt lat="45.03411" lon="0.72907">
        <ele>164.80000305176</ele>
        <time>2020-12-27T08:14:44Z</time>
      </trkpt>
      <trkpt lat="45.03417" lon="0.72899">
        <ele>165.60000610352</ele>
        <time>2020-12-27T08:14:49Z</time>
      </trkpt>
      <trkpt lat="45.03418" lon="0.72897">
        <ele>165.80000305176</ele>
        <time>2020-12-27T08:14:50Z</time>
      </trkpt>
      <trkpt lat="45.0342" lon="0.7289">
        <ele>166.60000610352</ele>
        <time>2020-12-27T08:14:54Z</time>
      </trkpt>
      <trkpt lat="45.03427" lon="0.72878">
        <ele>166.19999694824</ele>
        <time>2020-12-27T08:15:01Z</time>
      </trkpt>
      <trkpt lat="45.03432" lon="0.72863">
        <ele>166.80000305176</ele>
        <time>2020-12-27T08:15:08Z</time>
      </trkpt>
      <trkpt lat="45.03438" lon="0.7285">
        <ele>168.19999694824</ele>
        <time>2020-12-27T08:15:14Z</time>
      </trkpt>
      <trkpt lat="45.03439" lon="0.72848">
        <ele>168.39999389648</ele>
        <time>2020-12-27T08:15:15Z</time>
      </trkpt>
      <trkpt lat="45.03443" lon="0.72838">
        <ele>169.19999694824</ele>
        <time>2020-12-27T08:15:19Z</time>
      </trkpt>
      <trkpt lat="45.03447" lon="0.72827">
        <ele>170.39999389648</ele>
        <time>2020-12-27T08:15:23Z</time>
      </trkpt>
      <trkpt lat="45.0345" lon="0.72821">
        <ele>171.39999389648</ele>
        <time>2020-12-27T08:15:26Z</time>
      </trkpt>
      <trkpt lat="45.03452" lon="0.72814">
        <ele>172.39999389648</ele>
        <time>2020-12-27T08:15:29Z</time>
      </trkpt>
      <trkpt lat="45.03453" lon="0.7281">
        <ele>172.80000305176</ele>
        <time>2020-12-27T08:15:31Z</time>
      </trkpt>
      <trkpt lat="45.03455" lon="0.72802">
        <ele>173.60000610352</ele>
        <time>2020-12-27T08:15:34Z</time>
      </trkpt>
      <trkpt lat="45.03458" lon="0.72794">
        <ele>174.80000305176</ele>
        <time>2020-12-27T08:15:38Z</time>
      </trkpt>
      <trkpt lat="45.03462" lon="0.72784">
        <ele>175.80000305176</ele>
        <time>2020-12-27T08:15:43Z</time>
      </trkpt>
      <trkpt lat="45.03465" lon="0.72779">
        <ele>176.39999389648</ele>
        <time>2020-12-27T08:15:46Z</time>
      </trkpt>
      <trkpt lat="45.03468" lon="0.72773">
        <ele>176.80000305176</ele>
        <time>2020-12-27T08:15:49Z</time>
      </trkpt>
      <trkpt lat="45.03471" lon="0.72763">
        <ele>177.80000305176</ele>
        <time>2020-12-27T08:15:54Z</time>
      </trkpt>
      <trkpt lat="45.03472" lon="0.72761">
        <ele>178</ele>
        <time>2020-12-27T08:15:55Z</time>
      </trkpt>
      <trkpt lat="45.03476" lon="0.72749">
        <ele>179</ele>
        <time>2020-12-27T08:16:01Z</time>
      </trkpt>
      <trkpt lat="45.03477" lon="0.72747">
        <ele>179.19999694824</ele>
        <time>2020-12-27T08:16:02Z</time>
      </trkpt>
      <trkpt lat="45.0348" lon="0.72738">
        <ele>180.19999694824</ele>
        <time>2020-12-27T08:16:06Z</time>
      </trkpt>
      <trkpt lat="45.03482" lon="0.72734">
        <ele>181.19999694824</ele>
        <time>2020-12-27T08:16:08Z</time>
      </trkpt>
      <trkpt lat="45.03483" lon="0.7273">
        <ele>182.39999389648</ele>
        <time>2020-12-27T08:16:10Z</time>
      </trkpt>
      <trkpt lat="45.03489" lon="0.72715">
        <ele>183.60000610352</ele>
        <time>2020-12-27T08:16:18Z</time>
      </trkpt>
      <trkpt lat="45.03491" lon="0.72709">
        <ele>184.80000305176</ele>
        <time>2020-12-27T08:16:21Z</time>
      </trkpt>
      <trkpt lat="45.03497" lon="0.72696">
        <ele>185.19999694824</ele>
        <time>2020-12-27T08:16:28Z</time>
      </trkpt>
      <trkpt lat="45.03499" lon="0.72691">
        <ele>185.80000305176</ele>
        <time>2020-12-27T08:16:31Z</time>
      </trkpt>
      <trkpt lat="45.03502" lon="0.72681">
        <ele>187</ele>
        <time>2020-12-27T08:16:36Z</time>
      </trkpt>
      <trkpt lat="45.03504" lon="0.72677">
        <ele>187.80000305176</ele>
        <time>2020-12-27T08:16:38Z</time>
      </trkpt>
      <trkpt lat="45.03505" lon="0.72673">
        <ele>188.19999694824</ele>
        <time>2020-12-27T08:16:40Z</time>
      </trkpt>
      <trkpt lat="45.03508" lon="0.72668">
        <ele>189.39999389648</ele>
        <time>2020-12-27T08:16:43Z</time>
      </trkpt>
      <trkpt lat="45.0351" lon="0.72659">
        <ele>190.19999694824</ele>
        <time>2020-12-27T08:16:48Z</time>
      </trkpt>
      <trkpt lat="45.03511" lon="0.72655">
        <ele>190.60000610352</ele>
        <time>2020-12-27T08:16:50Z</time>
      </trkpt>
      <trkpt lat="45.03514" lon="0.72642">
        <ele>191.39999389648</ele>
        <time>2020-12-27T08:16:56Z</time>
      </trkpt>
      <trkpt lat="45.03514" lon="0.72638">
        <ele>191.60000610352</ele>
        <time>2020-12-27T08:16:58Z</time>
      </trkpt>
      <trkpt lat="45.03514" lon="0.72629">
        <ele>192.19999694824</ele>
        <time>2020-12-27T08:17:02Z</time>
      </trkpt>
      <trkpt lat="45.03516" lon="0.72623">
        <ele>192.60000610352</ele>
        <time>2020-12-27T08:17:05Z</time>
      </trkpt>
      <trkpt lat="45.03519" lon="0.72619">
        <ele>192.19999694824</ele>
        <time>2020-12-27T08:17:08Z</time>
      </trkpt>
      <trkpt lat="45.03522" lon="0.72614">
        <ele>192.19999694824</ele>
        <time>2020-12-27T08:17:11Z</time>
      </trkpt>
      <trkpt lat="45.03526" lon="0.72606">
        <ele>192.60000610352</ele>
        <time>2020-12-27T08:17:15Z</time>
      </trkpt>
      <trkpt lat="45.03526" lon="0.72604">
        <ele>192.60000610352</ele>
        <time>2020-12-27T08:17:16Z</time>
      </trkpt>
      <trkpt lat="45.03533" lon="0.72593">
        <ele>192.19999694824</ele>
        <time>2020-12-27T08:17:24Z</time>
      </trkpt>
      <trkpt lat="45.03537" lon="0.72589">
        <ele>192.80000305176</ele>
        <time>2020-12-27T08:17:27Z</time>
      </trkpt>
      <trkpt lat="45.03543" lon="0.72582">
        <ele>192.39999389648</ele>
        <time>2020-12-27T08:17:32Z</time>
      </trkpt>
      <trkpt lat="45.03552" lon="0.72566">
        <ele>193.60000610352</ele>
        <time>2020-12-27T08:17:40Z</time>
      </trkpt>
      <trkpt lat="45.03555" lon="0.72563">
        <ele>193.80000305176</ele>
        <time>2020-12-27T08:17:42Z</time>
      </trkpt>
      <trkpt lat="45.03562" lon="0.72554">
        <ele>194.80000305176</ele>
        <time>2020-12-27T08:17:47Z</time>
      </trkpt>
      <trkpt lat="45.03572" lon="0.72544">
        <ele>194.80000305176</ele>
        <time>2020-12-27T08:17:53Z</time>
      </trkpt>
      <trkpt lat="45.03575" lon="0.72541">
        <ele>194.80000305176</ele>
        <time>2020-12-27T08:17:55Z</time>
      </trkpt>
      <trkpt lat="45.03589" lon="0.72526">
        <ele>195</ele>
        <time>2020-12-27T08:18:02Z</time>
      </trkpt>
      <trkpt lat="45.03603" lon="0.72509">
        <ele>195.19999694824</ele>
        <time>2020-12-27T08:18:09Z</time>
      </trkpt>
      <trkpt lat="45.03617" lon="0.72491">
        <ele>195</ele>
        <time>2020-12-27T08:18:16Z</time>
      </trkpt>
      <trkpt lat="45.03639" lon="0.72471">
        <ele>193.80000305176</ele>
        <time>2020-12-27T08:18:24Z</time>
      </trkpt>
      <trkpt lat="45.03643" lon="0.72468">
        <ele>193.80000305176</ele>
        <time>2020-12-27T08:18:25Z</time>
      </trkpt>
      <trkpt lat="45.0365" lon="0.72462">
        <ele>193.39999389648</ele>
        <time>2020-12-27T08:18:27Z</time>
      </trkpt>
      <trkpt lat="45.0366" lon="0.72453">
        <ele>193.60000610352</ele>
        <time>2020-12-27T08:18:30Z</time>
      </trkpt>
      <trkpt lat="45.03679" lon="0.72441">
        <ele>192.80000305176</ele>
        <time>2020-12-27T08:18:36Z</time>
      </trkpt>
      <trkpt lat="45.03682" lon="0.72439">
        <ele>192.60000610352</ele>
        <time>2020-12-27T08:18:37Z</time>
      </trkpt>
      <trkpt lat="45.03701" lon="0.72431">
        <ele>192.39999389648</ele>
        <time>2020-12-27T08:18:43Z</time>
      </trkpt>
      <trkpt lat="45.03719" lon="0.72421">
        <ele>192.39999389648</ele>
        <time>2020-12-27T08:18:49Z</time>
      </trkpt>
      <trkpt lat="45.03738" lon="0.7241">
        <ele>193.39999389648</ele>
        <time>2020-12-27T08:18:57Z</time>
      </trkpt>
      <trkpt lat="45.03755" lon="0.72409">
        <ele>193.60000610352</ele>
        <time>2020-12-27T08:19:04Z</time>
      </trkpt>
      <trkpt lat="45.03758" lon="0.72409">
        <ele>193.80000305176</ele>
        <time>2020-12-27T08:19:05Z</time>
      </trkpt>
      <trkpt lat="45.03774" lon="0.72408">
        <ele>194.60000610352</ele>
        <time>2020-12-27T08:19:11Z</time>
      </trkpt>
      <trkpt lat="45.03775" lon="0.72408">
        <ele>194.80000305176</ele>
        <time>2020-12-27T08:19:12Z</time>
      </trkpt>
      <trkpt lat="45.03784" lon="0.72407">
        <ele>196</ele>
        <time>2020-12-27T08:19:17Z</time>
      </trkpt>
      <trkpt lat="45.03801" lon="0.72407">
        <ele>196.80000305176</ele>
        <time>2020-12-27T08:19:23Z</time>
      </trkpt>
      <trkpt lat="45.03804" lon="0.72407">
        <ele>197.19999694824</ele>
        <time>2020-12-27T08:19:24Z</time>
      </trkpt>
      <trkpt lat="45.03817" lon="0.72408">
        <ele>197.60000610352</ele>
        <time>2020-12-27T08:19:29Z</time>
      </trkpt>
      <trkpt lat="45.03828" lon="0.72402">
        <ele>198</ele>
        <time>2020-12-27T08:19:34Z</time>
      </trkpt>
      <trkpt lat="45.03835" lon="0.72399">
        <ele>198.19999694824</ele>
        <time>2020-12-27T08:19:37Z</time>
      </trkpt>
      <trkpt lat="45.0384" lon="0.72399">
        <ele>197.80000305176</ele>
        <time>2020-12-27T08:19:39Z</time>
      </trkpt>
      <trkpt lat="45.03855" lon="0.72394">
        <ele>197.39999389648</ele>
        <time>2020-12-27T08:19:44Z</time>
      </trkpt>
      <trkpt lat="45.03875" lon="0.72385">
        <ele>197.39999389648</ele>
        <time>2020-12-27T08:19:51Z</time>
      </trkpt>
      <trkpt lat="45.03901" lon="0.72376">
        <ele>197.60000610352</ele>
        <time>2020-12-27T08:19:59Z</time>
      </trkpt>
      <trkpt lat="45.0391" lon="0.72374">
        <ele>197</ele>
        <time>2020-12-27T08:20:02Z</time>
      </trkpt>
      <trkpt lat="45.03923" lon="0.72368">
        <ele>196.60000610352</ele>
        <time>2020-12-27T08:20:06Z</time>
      </trkpt>
      <trkpt lat="45.03938" lon="0.72362">
        <ele>196.39999389648</ele>
        <time>2020-12-27T08:20:11Z</time>
      </trkpt>
      <trkpt lat="45.03941" lon="0.72361">
        <ele>196</ele>
        <time>2020-12-27T08:20:12Z</time>
      </trkpt>
      <trkpt lat="45.03965" lon="0.72354">
        <ele>195.60000610352</ele>
        <time>2020-12-27T08:20:19Z</time>
      </trkpt>
      <trkpt lat="45.03976" lon="0.72353">
        <ele>194.80000305176</ele>
        <time>2020-12-27T08:20:23Z</time>
      </trkpt>
      <trkpt lat="45.03979" lon="0.72355">
        <ele>194.60000610352</ele>
        <time>2020-12-27T08:20:24Z</time>
      </trkpt>
      <trkpt lat="45.04" lon="0.72366">
        <ele>194.19999694824</ele>
        <time>2020-12-27T08:20:30Z</time>
      </trkpt>
      <trkpt lat="45.04017" lon="0.72368">
        <ele>193.60000610352</ele>
        <time>2020-12-27T08:20:36Z</time>
      </trkpt>
      <trkpt lat="45.04038" lon="0.72364">
        <ele>193.39999389648</ele>
        <time>2020-12-27T08:20:43Z</time>
      </trkpt>
      <trkpt lat="45.04058" lon="0.72368">
        <ele>193.39999389648</ele>
        <time>2020-12-27T08:20:49Z</time>
      </trkpt>
      <trkpt lat="45.04078" lon="0.72363">
        <ele>193.39999389648</ele>
        <time>2020-12-27T08:20:55Z</time>
      </trkpt>
      <trkpt lat="45.04093" lon="0.72366">
        <ele>194</ele>
        <time>2020-12-27T08:21:00Z</time>
      </trkpt>
      <trkpt lat="45.04106" lon="0.7237">
        <ele>194.80000305176</ele>
        <time>2020-12-27T08:21:04Z</time>
      </trkpt>
      <trkpt lat="45.0411" lon="0.72371">
        <ele>194.80000305176</ele>
        <time>2020-12-27T08:21:05Z</time>
      </trkpt>
      <trkpt lat="45.04128" lon="0.7238">
        <ele>195.60000610352</ele>
        <time>2020-12-27T08:21:11Z</time>
      </trkpt>
      <trkpt lat="45.04131" lon="0.72383">
        <ele>195.80000305176</ele>
        <time>2020-12-27T08:21:12Z</time>
      </trkpt>
      <trkpt lat="45.04141" lon="0.72393">
        <ele>195.80000305176</ele>
        <time>2020-12-27T08:21:16Z</time>
      </trkpt>
      <trkpt lat="45.04156" lon="0.72402">
        <ele>196</ele>
        <time>2020-12-27T08:21:22Z</time>
      </trkpt>
      <trkpt lat="45.04177" lon="0.72409">
        <ele>196.19999694824</ele>
        <time>2020-12-27T08:21:29Z</time>
      </trkpt>
      <trkpt lat="45.04191" lon="0.7241">
        <ele>196.80000305176</ele>
        <time>2020-12-27T08:21:34Z</time>
      </trkpt>
      <trkpt lat="45.04197" lon="0.72411">
        <ele>197.19999694824</ele>
        <time>2020-12-27T08:21:36Z</time>
      </trkpt>
      <trkpt lat="45.04214" lon="0.72407">
        <ele>197.19999694824</ele>
        <time>2020-12-27T08:21:42Z</time>
      </trkpt>
      <trkpt lat="45.04231" lon="0.72408">
        <ele>197.19999694824</ele>
        <time>2020-12-27T08:21:47Z</time>
      </trkpt>
      <trkpt lat="45.04252" lon="0.72412">
        <ele>197.19999694824</ele>
        <time>2020-12-27T08:21:53Z</time>
      </trkpt>
      <trkpt lat="45.0427" lon="0.7242">
        <ele>197.39999389648</ele>
        <time>2020-12-27T08:21:59Z</time>
      </trkpt>
      <trkpt lat="45.04294" lon="0.72428">
        <ele>196.39999389648</ele>
        <time>2020-12-27T08:22:05Z</time>
      </trkpt>
      <trkpt lat="45.04298" lon="0.7243">
        <ele>196.19999694824</ele>
        <time>2020-12-27T08:22:06Z</time>
      </trkpt>
      <trkpt lat="45.04302" lon="0.72431">
        <ele>196.19999694824</ele>
        <time>2020-12-27T08:22:07Z</time>
      </trkpt>
      <trkpt lat="45.04311" lon="0.72432">
        <ele>195.80000305176</ele>
        <time>2020-12-27T08:22:09Z</time>
      </trkpt>
      <trkpt lat="45.04316" lon="0.72432">
        <ele>195.60000610352</ele>
        <time>2020-12-27T08:22:10Z</time>
      </trkpt>
      <trkpt lat="45.0432" lon="0.72433">
        <ele>195.39999389648</ele>
        <time>2020-12-27T08:22:11Z</time>
      </trkpt>
      <trkpt lat="45.04336" lon="0.72436">
        <ele>195</ele>
        <time>2020-12-27T08:22:15Z</time>
      </trkpt>
      <trkpt lat="45.04354" lon="0.72437">
        <ele>195.19999694824</ele>
        <time>2020-12-27T08:22:21Z</time>
      </trkpt>
      <trkpt lat="45.04374" lon="0.72442">
        <ele>195</ele>
        <time>2020-12-27T08:22:27Z</time>
      </trkpt>
      <trkpt lat="45.04389" lon="0.72449">
        <ele>195</ele>
        <time>2020-12-27T08:22:32Z</time>
      </trkpt>
      <trkpt lat="45.0441" lon="0.72455">
        <ele>195.39999389648</ele>
        <time>2020-12-27T08:22:38Z</time>
      </trkpt>
      <trkpt lat="45.04435" lon="0.72462">
        <ele>195.60000610352</ele>
        <time>2020-12-27T08:22:45Z</time>
      </trkpt>
      <trkpt lat="45.04451" lon="0.72466">
        <ele>197</ele>
        <time>2020-12-27T08:22:50Z</time>
      </trkpt>
      <trkpt lat="45.04467" lon="0.72466">
        <ele>197</ele>
        <time>2020-12-27T08:22:55Z</time>
      </trkpt>
      <trkpt lat="45.04483" lon="0.72469">
        <ele>197.19999694824</ele>
        <time>2020-12-27T08:23:00Z</time>
      </trkpt>
      <trkpt lat="45.04499" lon="0.72472">
        <ele>196.80000305176</ele>
        <time>2020-12-27T08:23:04Z</time>
      </trkpt>
      <trkpt lat="45.04517" lon="0.72473">
        <ele>196.60000610352</ele>
        <time>2020-12-27T08:23:09Z</time>
      </trkpt>
      <trkpt lat="45.04534" lon="0.7248">
        <ele>197.19999694824</ele>
        <time>2020-12-27T08:23:14Z</time>
      </trkpt>
      <trkpt lat="45.04549" lon="0.7248">
        <ele>197.60000610352</ele>
        <time>2020-12-27T08:23:19Z</time>
      </trkpt>
      <trkpt lat="45.04554" lon="0.72481">
        <ele>198</ele>
        <time>2020-12-27T08:23:21Z</time>
      </trkpt>
      <trkpt lat="45.04568" lon="0.72489">
        <ele>198</ele>
        <time>2020-12-27T08:23:25Z</time>
      </trkpt>
      <trkpt lat="45.0459" lon="0.72498">
        <ele>197.80000305176</ele>
        <time>2020-12-27T08:23:31Z</time>
      </trkpt>
      <trkpt lat="45.04615" lon="0.72509">
        <ele>198.19999694824</ele>
        <time>2020-12-27T08:23:38Z</time>
      </trkpt>
      <trkpt lat="45.04637" lon="0.72517">
        <ele>199.19999694824</ele>
        <time>2020-12-27T08:23:44Z</time>
      </trkpt>
      <trkpt lat="45.04643" lon="0.72521">
        <ele>199.39999389648</ele>
        <time>2020-12-27T08:23:46Z</time>
      </trkpt>
      <trkpt lat="45.04664" lon="0.72533">
        <ele>200.19999694824</ele>
        <time>2020-12-27T08:23:53Z</time>
      </trkpt>
      <trkpt lat="45.04666" lon="0.72534">
        <ele>200.19999694824</ele>
        <time>2020-12-27T08:23:54Z</time>
      </trkpt>
      <trkpt lat="45.04689" lon="0.72551">
        <ele>201</ele>
        <time>2020-12-27T08:24:03Z</time>
      </trkpt>
      <trkpt lat="45.04691" lon="0.72552">
        <ele>201.19999694824</ele>
        <time>2020-12-27T08:24:04Z</time>
      </trkpt>
      <trkpt lat="45.04702" lon="0.72564">
        <ele>202.19999694824</ele>
        <time>2020-12-27T08:24:09Z</time>
      </trkpt>
      <trkpt lat="45.04704" lon="0.72565">
        <ele>202.39999389648</ele>
        <time>2020-12-27T08:24:10Z</time>
      </trkpt>
      <trkpt lat="45.0472" lon="0.72584">
        <ele>202.80000305176</ele>
        <time>2020-12-27T08:24:17Z</time>
      </trkpt>
      <trkpt lat="45.04733" lon="0.72596">
        <ele>203.39999389648</ele>
        <time>2020-12-27T08:24:22Z</time>
      </trkpt>
      <trkpt lat="45.04737" lon="0.726">
        <ele>203.60000610352</ele>
        <time>2020-12-27T08:24:24Z</time>
      </trkpt>
      <trkpt lat="45.04749" lon="0.72613">
        <ele>204.39999389648</ele>
        <time>2020-12-27T08:24:29Z</time>
      </trkpt>
      <trkpt lat="45.04757" lon="0.7262">
        <ele>204.39999389648</ele>
        <time>2020-12-27T08:24:32Z</time>
      </trkpt>
      <trkpt lat="45.04782" lon="0.72648">
        <ele>205.19999694824</ele>
        <time>2020-12-27T08:24:42Z</time>
      </trkpt>
      <trkpt lat="45.04794" lon="0.7266">
        <ele>205.60000610352</ele>
        <time>2020-12-27T08:24:46Z</time>
      </trkpt>
      <trkpt lat="45.048" lon="0.72668">
        <ele>205.60000610352</ele>
        <time>2020-12-27T08:24:48Z</time>
      </trkpt>
      <trkpt lat="45.0482" lon="0.72695">
        <ele>205.39999389648</ele>
        <time>2020-12-27T08:24:55Z</time>
      </trkpt>
      <trkpt lat="45.04837" lon="0.72715">
        <ele>204.80000305176</ele>
        <time>2020-12-27T08:25:01Z</time>
      </trkpt>
      <trkpt lat="45.04842" lon="0.72719">
        <ele>204.19999694824</ele>
        <time>2020-12-27T08:25:03Z</time>
      </trkpt>
      <trkpt lat="45.04854" lon="0.72726">
        <ele>203</ele>
        <time>2020-12-27T08:25:07Z</time>
      </trkpt>
      <trkpt lat="45.04874" lon="0.72728">
        <ele>202.60000610352</ele>
        <time>2020-12-27T08:25:13Z</time>
      </trkpt>
      <trkpt lat="45.04897" lon="0.72727">
        <ele>202.80000305176</ele>
        <time>2020-12-27T08:25:21Z</time>
      </trkpt>
      <trkpt lat="45.04911" lon="0.7272">
        <ele>202.60000610352</ele>
        <time>2020-12-27T08:25:26Z</time>
      </trkpt>
      <trkpt lat="45.04915" lon="0.72716">
        <ele>202.39999389648</ele>
        <time>2020-12-27T08:25:27Z</time>
      </trkpt>
      <trkpt lat="45.04926" lon="0.72701">
        <ele>202.19999694824</ele>
        <time>2020-12-27T08:25:30Z</time>
      </trkpt>
      <trkpt lat="45.04932" lon="0.72688">
        <ele>202</ele>
        <time>2020-12-27T08:25:32Z</time>
      </trkpt>
      <trkpt lat="45.04942" lon="0.72664">
        <ele>200.80000305176</ele>
        <time>2020-12-27T08:25:35Z</time>
      </trkpt>
      <trkpt lat="45.0495" lon="0.72647">
        <ele>199.80000305176</ele>
        <time>2020-12-27T08:25:37Z</time>
      </trkpt>
      <trkpt lat="45.04955" lon="0.72639">
        <ele>199.39999389648</ele>
        <time>2020-12-27T08:25:38Z</time>
      </trkpt>
      <trkpt lat="45.04959" lon="0.72631">
        <ele>198.80000305176</ele>
        <time>2020-12-27T08:25:39Z</time>
      </trkpt>
      <trkpt lat="45.04962" lon="0.7262">
        <ele>198</ele>
        <time>2020-12-27T08:25:40Z</time>
      </trkpt>
      <trkpt lat="45.04965" lon="0.72596">
        <ele>196.80000305176</ele>
        <time>2020-12-27T08:25:42Z</time>
      </trkpt>
      <trkpt lat="45.04966" lon="0.7257">
        <ele>195.60000610352</ele>
        <time>2020-12-27T08:25:44Z</time>
      </trkpt>
      <trkpt lat="45.04967" lon="0.72546">
        <ele>194.39999389648</ele>
        <time>2020-12-27T08:25:46Z</time>
      </trkpt>
      <trkpt lat="45.04967" lon="0.72538">
        <ele>193.80000305176</ele>
        <time>2020-12-27T08:25:47Z</time>
      </trkpt>
      <trkpt lat="45.04967" lon="0.72532">
        <ele>193.19999694824</ele>
        <time>2020-12-27T08:25:48Z</time>
      </trkpt>
      <trkpt lat="45.04968" lon="0.72523">
        <ele>192.39999389648</ele>
        <time>2020-12-27T08:25:50Z</time>
      </trkpt>
      <trkpt lat="45.04968" lon="0.72519">
        <ele>191.80000305176</ele>
        <time>2020-12-27T08:25:51Z</time>
      </trkpt>
      <trkpt lat="45.04971" lon="0.7251">
        <ele>190.39999389648</ele>
        <time>2020-12-27T08:25:54Z</time>
      </trkpt>
      <trkpt lat="45.04974" lon="0.72506">
        <ele>189.39999389648</ele>
        <time>2020-12-27T08:25:56Z</time>
      </trkpt>
      <trkpt lat="45.04979" lon="0.72502">
        <ele>187.80000305176</ele>
        <time>2020-12-27T08:25:58Z</time>
      </trkpt>
      <trkpt lat="45.04986" lon="0.72499">
        <ele>186</ele>
        <time>2020-12-27T08:26:00Z</time>
      </trkpt>
      <trkpt lat="45.04991" lon="0.72495">
        <ele>184.39999389648</ele>
        <time>2020-12-27T08:26:02Z</time>
      </trkpt>
      <trkpt lat="45.04993" lon="0.72492">
        <ele>183.80000305176</ele>
        <time>2020-12-27T08:26:03Z</time>
      </trkpt>
      <trkpt lat="45.04996" lon="0.72489">
        <ele>183.39999389648</ele>
        <time>2020-12-27T08:26:04Z</time>
      </trkpt>
      <trkpt lat="45.05001" lon="0.72484">
        <ele>181.80000305176</ele>
        <time>2020-12-27T08:26:06Z</time>
      </trkpt>
      <trkpt lat="45.05008" lon="0.72479">
        <ele>180.19999694824</ele>
        <time>2020-12-27T08:26:08Z</time>
      </trkpt>
      <trkpt lat="45.05011" lon="0.72476">
        <ele>179.60000610352</ele>
        <time>2020-12-27T08:26:09Z</time>
      </trkpt>
      <trkpt lat="45.05012" lon="0.72473">
        <ele>179</ele>
        <time>2020-12-27T08:26:10Z</time>
      </trkpt>
      <trkpt lat="45.05016" lon="0.7247">
        <ele>177.39999389648</ele>
        <time>2020-12-27T08:26:12Z</time>
      </trkpt>
      <trkpt lat="45.05022" lon="0.72469">
        <ele>176</ele>
        <time>2020-12-27T08:26:14Z</time>
      </trkpt>
      <trkpt lat="45.05027" lon="0.72468">
        <ele>174.60000610352</ele>
        <time>2020-12-27T08:26:16Z</time>
      </trkpt>
      <trkpt lat="45.05033" lon="0.7246">
        <ele>173</ele>
        <time>2020-12-27T08:26:19Z</time>
      </trkpt>
      <trkpt lat="45.05036" lon="0.72453">
        <ele>171.60000610352</ele>
        <time>2020-12-27T08:26:21Z</time>
      </trkpt>
      <trkpt lat="45.05038" lon="0.72447">
        <ele>170.80000305176</ele>
        <time>2020-12-27T08:26:22Z</time>
      </trkpt>
      <trkpt lat="45.05043" lon="0.72438">
        <ele>169.80000305176</ele>
        <time>2020-12-27T08:26:23Z</time>
      </trkpt>
      <trkpt lat="45.05046" lon="0.72428">
        <ele>168.39999389648</ele>
        <time>2020-12-27T08:26:24Z</time>
      </trkpt>
      <trkpt lat="45.05055" lon="0.72414">
        <ele>166.80000305176</ele>
        <time>2020-12-27T08:26:26Z</time>
      </trkpt>
      <trkpt lat="45.0506" lon="0.7241">
        <ele>166.19999694824</ele>
        <time>2020-12-27T08:26:27Z</time>
      </trkpt>
      <trkpt lat="45.05064" lon="0.72408">
        <ele>165.60000610352</ele>
        <time>2020-12-27T08:26:28Z</time>
      </trkpt>
      <trkpt lat="45.05072" lon="0.72408">
        <ele>165</ele>
        <time>2020-12-27T08:26:30Z</time>
      </trkpt>
      <trkpt lat="45.05076" lon="0.72407">
        <ele>165</ele>
        <time>2020-12-27T08:26:31Z</time>
      </trkpt>
      <trkpt lat="45.05086" lon="0.72401">
        <ele>164.60000610352</ele>
        <time>2020-12-27T08:26:34Z</time>
      </trkpt>
      <trkpt lat="45.05088" lon="0.72399">
        <ele>164.60000610352</ele>
        <time>2020-12-27T08:26:35Z</time>
      </trkpt>
      <trkpt lat="45.05091" lon="0.72397">
        <ele>164.60000610352</ele>
        <time>2020-12-27T08:26:36Z</time>
      </trkpt>
      <trkpt lat="45.051" lon="0.72391">
        <ele>164.19999694824</ele>
        <time>2020-12-27T08:26:41Z</time>
      </trkpt>
      <trkpt lat="45.05116" lon="0.72377">
        <ele>165.19999694824</ele>
        <time>2020-12-27T08:26:50Z</time>
      </trkpt>
      <trkpt lat="45.05135" lon="0.72359">
        <ele>164.80000305176</ele>
        <time>2020-12-27T08:26:59Z</time>
      </trkpt>
      <trkpt lat="45.05148" lon="0.72339">
        <ele>165.39999389648</ele>
        <time>2020-12-27T08:27:08Z</time>
      </trkpt>
      <trkpt lat="45.0515" lon="0.72334">
        <ele>165.60000610352</ele>
        <time>2020-12-27T08:27:10Z</time>
      </trkpt>
      <trkpt lat="45.05153" lon="0.72318">
        <ele>166.60000610352</ele>
        <time>2020-12-27T08:27:17Z</time>
      </trkpt>
      <trkpt lat="45.05154" lon="0.72315">
        <ele>166.80000305176</ele>
        <time>2020-12-27T08:27:18Z</time>
      </trkpt>
      <trkpt lat="45.05156" lon="0.723">
        <ele>167.80000305176</ele>
        <time>2020-12-27T08:27:24Z</time>
      </trkpt>
      <trkpt lat="45.05157" lon="0.72295">
        <ele>168.19999694824</ele>
        <time>2020-12-27T08:27:26Z</time>
      </trkpt>
      <trkpt lat="45.05159" lon="0.72282">
        <ele>169</ele>
        <time>2020-12-27T08:27:30Z</time>
      </trkpt>
      <trkpt lat="45.0516" lon="0.72267">
        <ele>169</ele>
        <time>2020-12-27T08:27:34Z</time>
      </trkpt>
      <trkpt lat="45.05161" lon="0.7225">
        <ele>170</ele>
        <time>2020-12-27T08:27:39Z</time>
      </trkpt>
      <trkpt lat="45.05162" lon="0.72241">
        <ele>170.19999694824</ele>
        <time>2020-12-27T08:27:42Z</time>
      </trkpt>
      <trkpt lat="45.05161" lon="0.72214">
        <ele>169.80000305176</ele>
        <time>2020-12-27T08:27:49Z</time>
      </trkpt>
      <trkpt lat="45.05157" lon="0.72182">
        <ele>170.39999389648</ele>
        <time>2020-12-27T08:27:57Z</time>
      </trkpt>
      <trkpt lat="45.05152" lon="0.72152">
        <ele>171</ele>
        <time>2020-12-27T08:28:05Z</time>
      </trkpt>
      <trkpt lat="45.0515" lon="0.72138">
        <ele>171.19999694824</ele>
        <time>2020-12-27T08:28:09Z</time>
      </trkpt>
      <trkpt lat="45.05148" lon="0.72118">
        <ele>171.60000610352</ele>
        <time>2020-12-27T08:28:14Z</time>
      </trkpt>
      <trkpt lat="45.05145" lon="0.72101">
        <ele>172.19999694824</ele>
        <time>2020-12-27T08:28:19Z</time>
      </trkpt>
      <trkpt lat="45.05144" lon="0.72098">
        <ele>172.39999389648</ele>
        <time>2020-12-27T08:28:20Z</time>
      </trkpt>
      <trkpt lat="45.05139" lon="0.72074">
        <ele>173.19999694824</ele>
        <time>2020-12-27T08:28:27Z</time>
      </trkpt>
      <trkpt lat="45.05132" lon="0.72043">
        <ele>174</ele>
        <time>2020-12-27T08:28:36Z</time>
      </trkpt>
      <trkpt lat="45.05131" lon="0.72037">
        <ele>174.19999694824</ele>
        <time>2020-12-27T08:28:38Z</time>
      </trkpt>
      <trkpt lat="45.05127" lon="0.7202">
        <ele>174.80000305176</ele>
        <time>2020-12-27T08:28:43Z</time>
      </trkpt>
      <trkpt lat="45.05125" lon="0.72009">
        <ele>175.39999389648</ele>
        <time>2020-12-27T08:28:46Z</time>
      </trkpt>
      <trkpt lat="45.05122" lon="0.71992">
        <ele>175.60000610352</ele>
        <time>2020-12-27T08:28:51Z</time>
      </trkpt>
      <trkpt lat="45.05124" lon="0.71961">
        <ele>176.19999694824</ele>
        <time>2020-12-27T08:29:00Z</time>
      </trkpt>
      <trkpt lat="45.05125" lon="0.71953">
        <ele>176.39999389648</ele>
        <time>2020-12-27T08:29:02Z</time>
      </trkpt>
      <trkpt lat="45.05129" lon="0.71932">
        <ele>177.19999694824</ele>
        <time>2020-12-27T08:29:09Z</time>
      </trkpt>
      <trkpt lat="45.05138" lon="0.71908">
        <ele>177.60000610352</ele>
        <time>2020-12-27T08:29:17Z</time>
      </trkpt>
      <trkpt lat="45.05143" lon="0.71896">
        <ele>178.60000610352</ele>
        <time>2020-12-27T08:29:21Z</time>
      </trkpt>
      <trkpt lat="45.05146" lon="0.71891">
        <ele>179.19999694824</ele>
        <time>2020-12-27T08:29:23Z</time>
      </trkpt>
      <trkpt lat="45.05159" lon="0.71868">
        <ele>179.19999694824</ele>
        <time>2020-12-27T08:29:32Z</time>
      </trkpt>
      <trkpt lat="45.05173" lon="0.71848">
        <ele>179.39999389648</ele>
        <time>2020-12-27T08:29:41Z</time>
      </trkpt>
      <trkpt lat="45.05179" lon="0.71838">
        <ele>180</ele>
        <time>2020-12-27T08:29:45Z</time>
      </trkpt>
      <trkpt lat="45.05183" lon="0.7183">
        <ele>180.39999389648</ele>
        <time>2020-12-27T08:29:48Z</time>
      </trkpt>
      <trkpt lat="45.05187" lon="0.71823">
        <ele>181.19999694824</ele>
        <time>2020-12-27T08:29:51Z</time>
      </trkpt>
      <trkpt lat="45.05192" lon="0.71817">
        <ele>182.39999389648</ele>
        <time>2020-12-27T08:29:54Z</time>
      </trkpt>
      <trkpt lat="45.05196" lon="0.71812">
        <ele>182.39999389648</ele>
        <time>2020-12-27T08:29:56Z</time>
      </trkpt>
      <trkpt lat="45.05199" lon="0.71807">
        <ele>183.39999389648</ele>
        <time>2020-12-27T08:29:59Z</time>
      </trkpt>
      <trkpt lat="45.05202" lon="0.71804">
        <ele>184.39999389648</ele>
        <time>2020-12-27T08:30:01Z</time>
      </trkpt>
      <trkpt lat="45.05203" lon="0.71802">
        <ele>184.60000610352</ele>
        <time>2020-12-27T08:30:02Z</time>
      </trkpt>
      <trkpt lat="45.05207" lon="0.71799">
        <ele>185.80000305176</ele>
        <time>2020-12-27T08:30:04Z</time>
      </trkpt>
      <trkpt lat="45.05214" lon="0.71793">
        <ele>187</ele>
        <time>2020-12-27T08:30:08Z</time>
      </trkpt>
      <trkpt lat="45.05218" lon="0.7179">
        <ele>187.80000305176</ele>
        <time>2020-12-27T08:30:10Z</time>
      </trkpt>
      <trkpt lat="45.0522" lon="0.71789">
        <ele>188.19999694824</ele>
        <time>2020-12-27T08:30:11Z</time>
      </trkpt>
      <trkpt lat="45.05232" lon="0.71778">
        <ele>189.19999694824</ele>
        <time>2020-12-27T08:30:17Z</time>
      </trkpt>
      <trkpt lat="45.05233" lon="0.71776">
        <ele>189.60000610352</ele>
        <time>2020-12-27T08:30:18Z</time>
      </trkpt>
      <trkpt lat="45.05241" lon="0.71767">
        <ele>190.60000610352</ele>
        <time>2020-12-27T08:30:23Z</time>
      </trkpt>
      <trkpt lat="45.05246" lon="0.71761">
        <ele>191.60000610352</ele>
        <time>2020-12-27T08:30:26Z</time>
      </trkpt>
      <trkpt lat="45.05253" lon="0.71752">
        <ele>192.60000610352</ele>
        <time>2020-12-27T08:30:30Z</time>
      </trkpt>
      <trkpt lat="45.05259" lon="0.71744">
        <ele>193.60000610352</ele>
        <time>2020-12-27T08:30:34Z</time>
      </trkpt>
      <trkpt lat="45.05262" lon="0.71739">
        <ele>193.80000305176</ele>
        <time>2020-12-27T08:30:36Z</time>
      </trkpt>
      <trkpt lat="45.0527" lon="0.71727">
        <ele>194.19999694824</ele>
        <time>2020-12-27T08:30:41Z</time>
      </trkpt>
      <trkpt lat="45.05277" lon="0.71721">
        <ele>195.19999694824</ele>
        <time>2020-12-27T08:30:45Z</time>
      </trkpt>
      <trkpt lat="45.05286" lon="0.71717">
        <ele>196.39999389648</ele>
        <time>2020-12-27T08:30:49Z</time>
      </trkpt>
      <trkpt lat="45.05297" lon="0.71716">
        <ele>197.80000305176</ele>
        <time>2020-12-27T08:30:54Z</time>
      </trkpt>
      <trkpt lat="45.05303" lon="0.71717">
        <ele>198.39999389648</ele>
        <time>2020-12-27T08:30:56Z</time>
      </trkpt>
      <trkpt lat="45.05308" lon="0.71718">
        <ele>198.80000305176</ele>
        <time>2020-12-27T08:30:58Z</time>
      </trkpt>
      <trkpt lat="45.05322" lon="0.71725">
        <ele>199.80000305176</ele>
        <time>2020-12-27T08:31:04Z</time>
      </trkpt>
      <trkpt lat="45.05327" lon="0.71728">
        <ele>200.80000305176</ele>
        <time>2020-12-27T08:31:06Z</time>
      </trkpt>
      <trkpt lat="45.0534" lon="0.71731">
        <ele>202</ele>
        <time>2020-12-27T08:31:12Z</time>
      </trkpt>
      <trkpt lat="45.05345" lon="0.71731">
        <ele>202</ele>
        <time>2020-12-27T08:31:14Z</time>
      </trkpt>
      <trkpt lat="45.05356" lon="0.71731">
        <ele>203</ele>
        <time>2020-12-27T08:31:19Z</time>
      </trkpt>
      <trkpt lat="45.05362" lon="0.71732">
        <ele>203.39999389648</ele>
        <time>2020-12-27T08:31:21Z</time>
      </trkpt>
      <trkpt lat="45.05375" lon="0.71731">
        <ele>204.39999389648</ele>
        <time>2020-12-27T08:31:25Z</time>
      </trkpt>
      <trkpt lat="45.05394" lon="0.7173">
        <ele>205.39999389648</ele>
        <time>2020-12-27T08:31:31Z</time>
      </trkpt>
      <trkpt lat="45.05413" lon="0.71726">
        <ele>206.60000610352</ele>
        <time>2020-12-27T08:31:38Z</time>
      </trkpt>
      <trkpt lat="45.05423" lon="0.71715">
        <ele>207.39999389648</ele>
        <time>2020-12-27T08:31:42Z</time>
      </trkpt>
      <trkpt lat="45.05426" lon="0.71704">
        <ele>207.39999389648</ele>
        <time>2020-12-27T08:31:44Z</time>
      </trkpt>
      <trkpt lat="45.05429" lon="0.7169">
        <ele>207.60000610352</ele>
        <time>2020-12-27T08:31:46Z</time>
      </trkpt>
      <trkpt lat="45.0543" lon="0.71682">
        <ele>207.80000305176</ele>
        <time>2020-12-27T08:31:47Z</time>
      </trkpt>
      <trkpt lat="45.0543" lon="0.71674">
        <ele>207.80000305176</ele>
        <time>2020-12-27T08:31:48Z</time>
      </trkpt>
      <trkpt lat="45.05426" lon="0.7165">
        <ele>207.80000305176</ele>
        <time>2020-12-27T08:31:51Z</time>
      </trkpt>
      <trkpt lat="45.05418" lon="0.71631">
        <ele>208</ele>
        <time>2020-12-27T08:31:54Z</time>
      </trkpt>
      <trkpt lat="45.05415" lon="0.71626">
        <ele>208.19999694824</ele>
        <time>2020-12-27T08:31:55Z</time>
      </trkpt>
      <trkpt lat="45.05408" lon="0.71609">
        <ele>209</ele>
        <time>2020-12-27T08:31:59Z</time>
      </trkpt>
      <trkpt lat="45.05405" lon="0.71601">
        <ele>209.60000610352</ele>
        <time>2020-12-27T08:32:01Z</time>
      </trkpt>
      <trkpt lat="45.05404" lon="0.71598">
        <ele>210</ele>
        <time>2020-12-27T08:32:02Z</time>
      </trkpt>
      <trkpt lat="45.054" lon="0.71584">
        <ele>211.19999694824</ele>
        <time>2020-12-27T08:32:07Z</time>
      </trkpt>
      <trkpt lat="45.05399" lon="0.71577">
        <ele>211.39999389648</ele>
        <time>2020-12-27T08:37:55Z</time>
      </trkpt>
      <trkpt lat="45.05399" lon="0.71575">
        <ele>211.39999389648</ele>
        <time>2020-12-27T08:37:56Z</time>
      </trkpt>
      <trkpt lat="45.05402" lon="0.7157">
        <ele>211.19999694824</ele>
        <time>2020-12-27T08:37:59Z</time>
      </trkpt>
      <trkpt lat="45.05405" lon="0.71567">
        <ele>210.60000610352</ele>
        <time>2020-12-27T08:38:01Z</time>
      </trkpt>
      <trkpt lat="45.05406" lon="0.71567">
        <ele>210.19999694824</ele>
        <time>2020-12-27T08:38:02Z</time>
      </trkpt>
      <trkpt lat="45.05416" lon="0.7157">
        <ele>210.39999389648</ele>
        <time>2020-12-27T08:38:06Z</time>
      </trkpt>
      <trkpt lat="45.05434" lon="0.7157">
        <ele>210.60000610352</ele>
        <time>2020-12-27T08:38:12Z</time>
      </trkpt>
      <trkpt lat="45.05443" lon="0.7157">
        <ele>210.39999389648</ele>
        <time>2020-12-27T08:38:17Z</time>
      </trkpt>
      <trkpt lat="45.05449" lon="0.7157">
        <ele>210.19999694824</ele>
        <time>2020-12-27T08:38:20Z</time>
      </trkpt>
      <trkpt lat="45.05455" lon="0.7157">
        <ele>210</ele>
        <time>2020-12-27T08:38:22Z</time>
      </trkpt>
      <trkpt lat="45.05465" lon="0.71573">
        <ele>209.80000305176</ele>
        <time>2020-12-27T08:38:27Z</time>
      </trkpt>
      <trkpt lat="45.05493" lon="0.71578">
        <ele>209.60000610352</ele>
        <time>2020-12-27T08:38:37Z</time>
      </trkpt>
      <trkpt lat="45.05513" lon="0.71576">
        <ele>209.19999694824</ele>
        <time>2020-12-27T08:38:43Z</time>
      </trkpt>
      <trkpt lat="45.05519" lon="0.71575">
        <ele>209.19999694824</ele>
        <time>2020-12-27T08:38:45Z</time>
      </trkpt>
      <trkpt lat="45.05531" lon="0.71576">
        <ele>209.80000305176</ele>
        <time>2020-12-27T08:38:50Z</time>
      </trkpt>
      <trkpt lat="45.05539" lon="0.71576">
        <ele>210.19999694824</ele>
        <time>2020-12-27T08:38:53Z</time>
      </trkpt>
      <trkpt lat="45.0555" lon="0.71575">
        <ele>210.60000610352</ele>
        <time>2020-12-27T08:38:58Z</time>
      </trkpt>
      <trkpt lat="45.05556" lon="0.71575">
        <ele>211.19999694824</ele>
        <time>2020-12-27T08:39:00Z</time>
      </trkpt>
      <trkpt lat="45.05565" lon="0.71575">
        <ele>212.39999389648</ele>
        <time>2020-12-27T08:39:04Z</time>
      </trkpt>
      <trkpt lat="45.05569" lon="0.71574">
        <ele>212.80000305176</ele>
        <time>2020-12-27T08:39:06Z</time>
      </trkpt>
      <trkpt lat="45.0558" lon="0.71575">
        <ele>213.60000610352</ele>
        <time>2020-12-27T08:39:11Z</time>
      </trkpt>
      <trkpt lat="45.05589" lon="0.71574">
        <ele>214.19999694824</ele>
        <time>2020-12-27T08:39:15Z</time>
      </trkpt>
      <trkpt lat="45.05595" lon="0.71573">
        <ele>214.80000305176</ele>
        <time>2020-12-27T08:39:18Z</time>
      </trkpt>
      <trkpt lat="45.05609" lon="0.71571">
        <ele>216</ele>
        <time>2020-12-27T08:39:24Z</time>
      </trkpt>
      <trkpt lat="45.05622" lon="0.71569">
        <ele>217</ele>
        <time>2020-12-27T08:39:30Z</time>
      </trkpt>
      <trkpt lat="45.05624" lon="0.71569">
        <ele>217.19999694824</ele>
        <time>2020-12-27T08:39:31Z</time>
      </trkpt>
      <trkpt lat="45.05649" lon="0.71566">
        <ele>217.60000610352</ele>
        <time>2020-12-27T08:39:42Z</time>
      </trkpt>
      <trkpt lat="45.05669" lon="0.71563">
        <ele>217.39999389648</ele>
        <time>2020-12-27T08:39:50Z</time>
      </trkpt>
      <trkpt lat="45.05687" lon="0.71554">
        <ele>217</ele>
        <time>2020-12-27T08:39:56Z</time>
      </trkpt>
      <trkpt lat="45.05702" lon="0.71556">
        <ele>217</ele>
        <time>2020-12-27T08:40:01Z</time>
      </trkpt>
      <trkpt lat="45.05727" lon="0.71559">
        <ele>217</ele>
        <time>2020-12-27T08:40:08Z</time>
      </trkpt>
      <trkpt lat="45.05757" lon="0.71571">
        <ele>216.39999389648</ele>
        <time>2020-12-27T08:40:16Z</time>
      </trkpt>
      <trkpt lat="45.05779" lon="0.71588">
        <ele>217.19999694824</ele>
        <time>2020-12-27T08:40:22Z</time>
      </trkpt>
      <trkpt lat="45.05789" lon="0.71609">
        <ele>217.60000610352</ele>
        <time>2020-12-27T08:40:28Z</time>
      </trkpt>
      <trkpt lat="45.05788" lon="0.71629">
        <ele>217.80000305176</ele>
        <time>2020-12-27T08:40:34Z</time>
      </trkpt>
      <trkpt lat="45.05788" lon="0.71636">
        <ele>218.19999694824</ele>
        <time>2020-12-27T08:40:36Z</time>
      </trkpt>
      <trkpt lat="45.05789" lon="0.7165">
        <ele>219</ele>
        <time>2020-12-27T08:40:40Z</time>
      </trkpt>
      <trkpt lat="45.05789" lon="0.71654">
        <ele>219.19999694824</ele>
        <time>2020-12-27T08:40:41Z</time>
      </trkpt>
      <trkpt lat="45.05791" lon="0.71674">
        <ele>220.60000610352</ele>
        <time>2020-12-27T08:40:46Z</time>
      </trkpt>
      <trkpt lat="45.05792" lon="0.71677">
        <ele>221</ele>
        <time>2020-12-27T08:40:47Z</time>
      </trkpt>
      <trkpt lat="45.05793" lon="0.71681">
        <ele>221.80000305176</ele>
        <time>2020-12-27T08:40:48Z</time>
      </trkpt>
      <trkpt lat="45.05793" lon="0.71689">
        <ele>223</ele>
        <time>2020-12-27T08:40:50Z</time>
      </trkpt>
      <trkpt lat="45.05797" lon="0.71702">
        <ele>223.80000305176</ele>
        <time>2020-12-27T08:40:54Z</time>
      </trkpt>
      <trkpt lat="45.058" lon="0.71709">
        <ele>224.19999694824</ele>
        <time>2020-12-27T08:40:56Z</time>
      </trkpt>
      <trkpt lat="45.05807" lon="0.71727">
        <ele>224.80000305176</ele>
        <time>2020-12-27T08:41:00Z</time>
      </trkpt>
      <trkpt lat="45.05819" lon="0.71765">
        <ele>225</ele>
        <time>2020-12-27T08:41:08Z</time>
      </trkpt>
      <trkpt lat="45.0582" lon="0.71768">
        <ele>225.39999389648</ele>
        <time>2020-12-27T08:41:09Z</time>
      </trkpt>
      <trkpt lat="45.05825" lon="0.71776">
        <ele>228.19999694824</ele>
        <time>2020-12-27T08:43:07Z</time>
      </trkpt>
      <trkpt lat="45.05837" lon="0.71792">
        <ele>228.80000305176</ele>
        <time>2020-12-27T08:43:11Z</time>
      </trkpt>
      <trkpt lat="45.05856" lon="0.71802">
        <ele>227.60000610352</ele>
        <time>2020-12-27T08:43:15Z</time>
      </trkpt>
      <trkpt lat="45.05865" lon="0.71807">
        <ele>227</ele>
        <time>2020-12-27T08:43:17Z</time>
      </trkpt>
      <trkpt lat="45.05872" lon="0.71812">
        <ele>226.39999389648</ele>
        <time>2020-12-27T08:43:20Z</time>
      </trkpt>
      <trkpt lat="45.05874" lon="0.71814">
        <ele>226</ele>
        <time>2020-12-27T08:43:21Z</time>
      </trkpt>
      <trkpt lat="45.05884" lon="0.71821">
        <ele>224.19999694824</ele>
        <time>2020-12-27T08:44:10Z</time>
      </trkpt>
      <trkpt lat="45.05887" lon="0.71823">
        <ele>224</ele>
        <time>2020-12-27T08:44:11Z</time>
      </trkpt>
      <trkpt lat="45.05897" lon="0.71829">
        <ele>222.60000610352</ele>
        <time>2020-12-27T08:44:15Z</time>
      </trkpt>
      <trkpt lat="45.05902" lon="0.71834">
        <ele>221.39999389648</ele>
        <time>2020-12-27T08:44:17Z</time>
      </trkpt>
      <trkpt lat="45.05908" lon="0.71839">
        <ele>219.80000305176</ele>
        <time>2020-12-27T08:44:20Z</time>
      </trkpt>
      <trkpt lat="45.05913" lon="0.7184">
        <ele>218.19999694824</ele>
        <time>2020-12-27T08:44:22Z</time>
      </trkpt>
      <trkpt lat="45.05917" lon="0.71839">
        <ele>217.19999694824</ele>
        <time>2020-12-27T08:44:24Z</time>
      </trkpt>
      <trkpt lat="45.05923" lon="0.71829">
        <ele>216</ele>
        <time>2020-12-27T08:44:27Z</time>
      </trkpt>
      <trkpt lat="45.05925" lon="0.71826">
        <ele>215.19999694824</ele>
        <time>2020-12-27T08:44:28Z</time>
      </trkpt>
      <trkpt lat="45.05926" lon="0.71823">
        <ele>214.80000305176</ele>
        <time>2020-12-27T08:44:29Z</time>
      </trkpt>
      <trkpt lat="45.05932" lon="0.71814">
        <ele>213.60000610352</ele>
        <time>2020-12-27T08:44:32Z</time>
      </trkpt>
      <trkpt lat="45.05935" lon="0.71806">
        <ele>213.39999389648</ele>
        <time>2020-12-27T08:44:34Z</time>
      </trkpt>
      <trkpt lat="45.05944" lon="0.71788">
        <ele>212.39999389648</ele>
        <time>2020-12-27T08:44:38Z</time>
      </trkpt>
      <trkpt lat="45.05952" lon="0.7178">
        <ele>212</ele>
        <time>2020-12-27T08:44:40Z</time>
      </trkpt>
      <trkpt lat="45.05961" lon="0.71775">
        <ele>211.39999389648</ele>
        <time>2020-12-27T08:44:42Z</time>
      </trkpt>
      <trkpt lat="45.0597" lon="0.71771">
        <ele>211.39999389648</ele>
        <time>2020-12-27T08:44:44Z</time>
      </trkpt>
      <trkpt lat="45.05975" lon="0.7177">
        <ele>211.39999389648</ele>
        <time>2020-12-27T08:44:45Z</time>
      </trkpt>
      <trkpt lat="45.05993" lon="0.71764">
        <ele>211.19999694824</ele>
        <time>2020-12-27T08:44:49Z</time>
      </trkpt>
      <trkpt lat="45.06" lon="0.71759">
        <ele>211</ele>
        <time>2020-12-27T08:44:51Z</time>
      </trkpt>
      <trkpt lat="45.06011" lon="0.7174">
        <ele>211.39999389648</ele>
        <time>2020-12-27T08:44:55Z</time>
      </trkpt>
      <trkpt lat="45.0602" lon="0.71723">
        <ele>211.19999694824</ele>
        <time>2020-12-27T08:44:58Z</time>
      </trkpt>
      <trkpt lat="45.06029" lon="0.71718">
        <ele>211</ele>
        <time>2020-12-27T08:45:00Z</time>
      </trkpt>
      <trkpt lat="45.0604" lon="0.7172">
        <ele>210.60000610352</ele>
        <time>2020-12-27T08:45:03Z</time>
      </trkpt>
      <trkpt lat="45.06043" lon="0.71721">
        <ele>210.39999389648</ele>
        <time>2020-12-27T08:45:04Z</time>
      </trkpt>
      <trkpt lat="45.06064" lon="0.71728">
        <ele>210.60000610352</ele>
        <time>2020-12-27T08:45:10Z</time>
      </trkpt>
      <trkpt lat="45.06093" lon="0.71734">
        <ele>211.39999389648</ele>
        <time>2020-12-27T08:45:17Z</time>
      </trkpt>
      <trkpt lat="45.06122" lon="0.71743">
        <ele>211.39999389648</ele>
        <time>2020-12-27T08:45:22Z</time>
      </trkpt>
      <trkpt lat="45.06162" lon="0.71755">
        <ele>211.19999694824</ele>
        <time>2020-12-27T08:45:27Z</time>
      </trkpt>
      <trkpt lat="45.06218" lon="0.71766">
        <ele>211.19999694824</ele>
        <time>2020-12-27T08:45:35Z</time>
      </trkpt>
      <trkpt lat="45.06229" lon="0.71766">
        <ele>211.19999694824</ele>
        <time>2020-12-27T08:45:37Z</time>
      </trkpt>
      <trkpt lat="45.06238" lon="0.71762">
        <ele>211</ele>
        <time>2020-12-27T08:45:39Z</time>
      </trkpt>
      <trkpt lat="45.06247" lon="0.71761">
        <ele>210.60000610352</ele>
        <time>2020-12-27T08:45:41Z</time>
      </trkpt>
      <trkpt lat="45.06252" lon="0.7176">
        <ele>210.39999389648</ele>
        <time>2020-12-27T08:45:42Z</time>
      </trkpt>
      <trkpt lat="45.06265" lon="0.71758">
        <ele>209.80000305176</ele>
        <time>2020-12-27T08:45:45Z</time>
      </trkpt>
      <trkpt lat="45.06276" lon="0.71756">
        <ele>209.39999389648</ele>
        <time>2020-12-27T08:45:49Z</time>
      </trkpt>
      <trkpt lat="45.06279" lon="0.71755">
        <ele>209.39999389648</ele>
        <time>2020-12-27T08:45:50Z</time>
      </trkpt>
      <trkpt lat="45.0629" lon="0.71755">
        <ele>208.19999694824</ele>
        <time>2020-12-27T08:45:55Z</time>
      </trkpt>
      <trkpt lat="45.06298" lon="0.71753">
        <ele>207.19999694824</ele>
        <time>2020-12-27T08:46:02Z</time>
      </trkpt>
      <trkpt lat="45.06302" lon="0.71752">
        <ele>207</ele>
        <time>2020-12-27T08:46:04Z</time>
      </trkpt>
      <trkpt lat="45.0632" lon="0.71749">
        <ele>206.39999389648</ele>
        <time>2020-12-27T08:46:11Z</time>
      </trkpt>
      <trkpt lat="45.06338" lon="0.71748">
        <ele>207.19999694824</ele>
        <time>2020-12-27T08:46:17Z</time>
      </trkpt>
      <trkpt lat="45.06347" lon="0.71747">
        <ele>208.19999694824</ele>
        <time>2020-12-27T08:46:20Z</time>
      </trkpt>
      <trkpt lat="45.06361" lon="0.71745">
        <ele>209.39999389648</ele>
        <time>2020-12-27T08:46:24Z</time>
      </trkpt>
      <trkpt lat="45.06367" lon="0.71744">
        <ele>209.80000305176</ele>
        <time>2020-12-27T08:46:26Z</time>
      </trkpt>
      <trkpt lat="45.06376" lon="0.71744">
        <ele>210.60000610352</ele>
        <time>2020-12-27T08:46:29Z</time>
      </trkpt>
      <trkpt lat="45.0639" lon="0.71741">
        <ele>211.80000305176</ele>
        <time>2020-12-27T08:46:33Z</time>
      </trkpt>
      <trkpt lat="45.06394" lon="0.71741">
        <ele>212</ele>
        <time>2020-12-27T08:46:34Z</time>
      </trkpt>
      <trkpt lat="45.06406" lon="0.7174">
        <ele>212.80000305176</ele>
        <time>2020-12-27T08:46:38Z</time>
      </trkpt>
      <trkpt lat="45.06416" lon="0.7174">
        <ele>213.39999389648</ele>
        <time>2020-12-27T08:46:41Z</time>
      </trkpt>
      <trkpt lat="45.06425" lon="0.71738">
        <ele>214</ele>
        <time>2020-12-27T08:46:44Z</time>
      </trkpt>
      <trkpt lat="45.06432" lon="0.71736">
        <ele>214.19999694824</ele>
        <time>2020-12-27T08:46:46Z</time>
      </trkpt>
      <trkpt lat="45.06452" lon="0.71731">
        <ele>215</ele>
        <time>2020-12-27T08:46:52Z</time>
      </trkpt>
      <trkpt lat="45.06454" lon="0.71731">
        <ele>215.39999389648</ele>
        <time>2020-12-27T08:46:53Z</time>
      </trkpt>
      <trkpt lat="45.06459" lon="0.71729">
        <ele>216.19999694824</ele>
        <time>2020-12-27T08:46:55Z</time>
      </trkpt>
      <trkpt lat="45.06467" lon="0.71727">
        <ele>217.19999694824</ele>
        <time>2020-12-27T08:46:58Z</time>
      </trkpt>
      <trkpt lat="45.06473" lon="0.71726">
        <ele>217.60000610352</ele>
        <time>2020-12-27T08:47:00Z</time>
      </trkpt>
      <trkpt lat="45.06482" lon="0.71726">
        <ele>218.60000610352</ele>
        <time>2020-12-27T08:47:03Z</time>
      </trkpt>
      <trkpt lat="45.0649" lon="0.71725">
        <ele>219.19999694824</ele>
        <time>2020-12-27T08:47:06Z</time>
      </trkpt>
      <trkpt lat="45.06506" lon="0.71722">
        <ele>219.80000305176</ele>
        <time>2020-12-27T08:47:11Z</time>
      </trkpt>
      <trkpt lat="45.06515" lon="0.71721">
        <ele>220.60000610352</ele>
        <time>2020-12-27T08:47:14Z</time>
      </trkpt>
      <trkpt lat="45.06518" lon="0.71721">
        <ele>220.80000305176</ele>
        <time>2020-12-27T08:47:15Z</time>
      </trkpt>
      <trkpt lat="45.06527" lon="0.7172">
        <ele>222</ele>
        <time>2020-12-27T08:47:18Z</time>
      </trkpt>
      <trkpt lat="45.06535" lon="0.7172">
        <ele>222.39999389648</ele>
        <time>2020-12-27T08:47:21Z</time>
      </trkpt>
      <trkpt lat="45.06551" lon="0.71717">
        <ele>223</ele>
        <time>2020-12-27T08:47:27Z</time>
      </trkpt>
      <trkpt lat="45.06554" lon="0.71717">
        <ele>223</ele>
        <time>2020-12-27T08:47:28Z</time>
      </trkpt>
      <trkpt lat="45.06567" lon="0.71715">
        <ele>224.19999694824</ele>
        <time>2020-12-27T08:47:33Z</time>
      </trkpt>
      <trkpt lat="45.06577" lon="0.71712">
        <ele>225</ele>
        <time>2020-12-27T08:47:36Z</time>
      </trkpt>
      <trkpt lat="45.0658" lon="0.71711">
        <ele>225.19999694824</ele>
        <time>2020-12-27T08:47:37Z</time>
      </trkpt>
      <trkpt lat="45.06592" lon="0.71708">
        <ele>225.60000610352</ele>
        <time>2020-12-27T08:47:41Z</time>
      </trkpt>
      <trkpt lat="45.06615" lon="0.71703">
        <ele>225</ele>
        <time>2020-12-27T08:47:48Z</time>
      </trkpt>
      <trkpt lat="45.06628" lon="0.71706">
        <ele>224.80000305176</ele>
        <time>2020-12-27T08:47:52Z</time>
      </trkpt>
      <trkpt lat="45.06636" lon="0.71707">
        <ele>224</ele>
        <time>2020-12-27T08:47:55Z</time>
      </trkpt>
      <trkpt lat="45.06643" lon="0.71708">
        <ele>222.80000305176</ele>
        <time>2020-12-27T08:47:58Z</time>
      </trkpt>
      <trkpt lat="45.06645" lon="0.71708">
        <ele>222.60000610352</ele>
        <time>2020-12-27T08:47:59Z</time>
      </trkpt>
      <trkpt lat="45.06655" lon="0.71707">
        <ele>222.60000610352</ele>
        <time>2020-12-27T08:48:04Z</time>
      </trkpt>
      <trkpt lat="45.06669" lon="0.7171">
        <ele>222</ele>
        <time>2020-12-27T08:48:11Z</time>
      </trkpt>
      <trkpt lat="45.06674" lon="0.7171">
        <ele>221.80000305176</ele>
        <time>2020-12-27T08:48:13Z</time>
      </trkpt>
      <trkpt lat="45.06684" lon="0.71709">
        <ele>221.60000610352</ele>
        <time>2020-12-27T08:48:16Z</time>
      </trkpt>
      <trkpt lat="45.06703" lon="0.71717">
        <ele>221</ele>
        <time>2020-12-27T08:48:21Z</time>
      </trkpt>
      <trkpt lat="45.0671" lon="0.71713">
        <ele>220.80000305176</ele>
        <time>2020-12-27T08:48:23Z</time>
      </trkpt>
      <trkpt lat="45.06714" lon="0.71712">
        <ele>220.80000305176</ele>
        <time>2020-12-27T08:48:24Z</time>
      </trkpt>
      <trkpt lat="45.06718" lon="0.71711">
        <ele>220.80000305176</ele>
        <time>2020-12-27T08:48:25Z</time>
      </trkpt>
      <trkpt lat="45.06732" lon="0.71708">
        <ele>220.19999694824</ele>
        <time>2020-12-27T08:48:29Z</time>
      </trkpt>
      <trkpt lat="45.06752" lon="0.71708">
        <ele>220.39999389648</ele>
        <time>2020-12-27T08:48:35Z</time>
      </trkpt>
      <trkpt lat="45.06775" lon="0.71704">
        <ele>221.60000610352</ele>
        <time>2020-12-27T08:48:43Z</time>
      </trkpt>
      <trkpt lat="45.06787" lon="0.71704">
        <ele>221.80000305176</ele>
        <time>2020-12-27T08:48:47Z</time>
      </trkpt>
      <trkpt lat="45.06796" lon="0.71703">
        <ele>222.19999694824</ele>
        <time>2020-12-27T08:48:50Z</time>
      </trkpt>
      <trkpt lat="45.06816" lon="0.71703">
        <ele>221.80000305176</ele>
        <time>2020-12-27T08:48:57Z</time>
      </trkpt>
      <trkpt lat="45.06835" lon="0.71697">
        <ele>222.19999694824</ele>
        <time>2020-12-27T08:49:04Z</time>
      </trkpt>
      <trkpt lat="45.06855" lon="0.71698">
        <ele>222.60000610352</ele>
        <time>2020-12-27T08:49:11Z</time>
      </trkpt>
      <trkpt lat="45.0686" lon="0.71698">
        <ele>223</ele>
        <time>2020-12-27T08:49:13Z</time>
      </trkpt>
      <trkpt lat="45.06879" lon="0.71699">
        <ele>224.19999694824</ele>
        <time>2020-12-27T08:49:20Z</time>
      </trkpt>
      <trkpt lat="45.069" lon="0.717">
        <ele>225</ele>
        <time>2020-12-27T08:49:28Z</time>
      </trkpt>
      <trkpt lat="45.06903" lon="0.717">
        <ele>225.19999694824</ele>
        <time>2020-12-27T08:49:29Z</time>
      </trkpt>
      <trkpt lat="45.06924" lon="0.71703">
        <ele>226.19999694824</ele>
        <time>2020-12-27T08:49:37Z</time>
      </trkpt>
      <trkpt lat="45.0693" lon="0.71705">
        <ele>226.19999694824</ele>
        <time>2020-12-27T08:49:39Z</time>
      </trkpt>
      <trkpt lat="45.06943" lon="0.7171">
        <ele>226.60000610352</ele>
        <time>2020-12-27T08:49:44Z</time>
      </trkpt>
      <trkpt lat="45.06964" lon="0.71722">
        <ele>227.19999694824</ele>
        <time>2020-12-27T08:49:52Z</time>
      </trkpt>
      <trkpt lat="45.06988" lon="0.71735">
        <ele>227</ele>
        <time>2020-12-27T08:50:00Z</time>
      </trkpt>
      <trkpt lat="45.07004" lon="0.71742">
        <ele>227.19999694824</ele>
        <time>2020-12-27T08:50:05Z</time>
      </trkpt>
      <trkpt lat="45.07015" lon="0.71749">
        <ele>226.80000305176</ele>
        <time>2020-12-27T08:50:08Z</time>
      </trkpt>
      <trkpt lat="45.07036" lon="0.71761">
        <ele>226.19999694824</ele>
        <time>2020-12-27T08:50:12Z</time>
      </trkpt>
      <trkpt lat="45.07041" lon="0.71765">
        <ele>225.80000305176</ele>
        <time>2020-12-27T08:50:13Z</time>
      </trkpt>
      <trkpt lat="45.07066" lon="0.7178">
        <ele>225</ele>
        <time>2020-12-27T08:50:17Z</time>
      </trkpt>
      <trkpt lat="45.0709" lon="0.71796">
        <ele>224.19999694824</ele>
        <time>2020-12-27T08:50:21Z</time>
      </trkpt>
      <trkpt lat="45.0712" lon="0.71818">
        <ele>224.39999389648</ele>
        <time>2020-12-27T08:50:27Z</time>
      </trkpt>
      <trkpt lat="45.07144" lon="0.71837">
        <ele>225.19999694824</ele>
        <time>2020-12-27T08:50:34Z</time>
      </trkpt>
      <trkpt lat="45.07148" lon="0.71842">
        <ele>225.60000610352</ele>
        <time>2020-12-27T08:50:38Z</time>
      </trkpt>
      <trkpt lat="45.07164" lon="0.71853">
        <ele>226</ele>
        <time>2020-12-27T08:50:43Z</time>
      </trkpt>
      <trkpt lat="45.07192" lon="0.71869">
        <ele>226.19999694824</ele>
        <time>2020-12-27T08:50:50Z</time>
      </trkpt>
      <trkpt lat="45.07227" lon="0.71882">
        <ele>225.39999389648</ele>
        <time>2020-12-27T08:50:57Z</time>
      </trkpt>
      <trkpt lat="45.07247" lon="0.71885">
        <ele>224.80000305176</ele>
        <time>2020-12-27T08:51:02Z</time>
      </trkpt>
      <trkpt lat="45.07251" lon="0.71884">
        <ele>224.60000610352</ele>
        <time>2020-12-27T08:51:03Z</time>
      </trkpt>
      <trkpt lat="45.07276" lon="0.7188">
        <ele>223.80000305176</ele>
        <time>2020-12-27T08:51:09Z</time>
      </trkpt>
      <trkpt lat="45.07284" lon="0.71879">
        <ele>223.60000610352</ele>
        <time>2020-12-27T08:51:11Z</time>
      </trkpt>
      <trkpt lat="45.07313" lon="0.71879">
        <ele>223.60000610352</ele>
        <time>2020-12-27T08:51:17Z</time>
      </trkpt>
      <trkpt lat="45.07329" lon="0.71873">
        <ele>223.80000305176</ele>
        <time>2020-12-27T08:51:21Z</time>
      </trkpt>
      <trkpt lat="45.07334" lon="0.71871">
        <ele>223.80000305176</ele>
        <time>2020-12-27T08:51:22Z</time>
      </trkpt>
      <trkpt lat="45.07363" lon="0.71859">
        <ele>224.19999694824</ele>
        <time>2020-12-27T08:51:29Z</time>
      </trkpt>
      <trkpt lat="45.07372" lon="0.71855">
        <ele>224.60000610352</ele>
        <time>2020-12-27T08:51:31Z</time>
      </trkpt>
      <trkpt lat="45.07391" lon="0.71844">
        <ele>224.80000305176</ele>
        <time>2020-12-27T08:51:36Z</time>
      </trkpt>
      <trkpt lat="45.074" lon="0.71843">
        <ele>224.80000305176</ele>
        <time>2020-12-27T08:51:38Z</time>
      </trkpt>
      <trkpt lat="45.07404" lon="0.71843">
        <ele>224.60000610352</ele>
        <time>2020-12-27T08:51:39Z</time>
      </trkpt>
      <trkpt lat="45.07424" lon="0.71841">
        <ele>224.39999389648</ele>
        <time>2020-12-27T08:51:44Z</time>
      </trkpt>
      <trkpt lat="45.07446" lon="0.71843">
        <ele>223.60000610352</ele>
        <time>2020-12-27T08:51:49Z</time>
      </trkpt>
      <trkpt lat="45.0745" lon="0.71841">
        <ele>223.39999389648</ele>
        <time>2020-12-27T08:51:50Z</time>
      </trkpt>
      <trkpt lat="45.07469" lon="0.71845">
        <ele>222.19999694824</ele>
        <time>2020-12-27T08:51:55Z</time>
      </trkpt>
      <trkpt lat="45.07488" lon="0.71846">
        <ele>222.80000305176</ele>
        <time>2020-12-27T08:51:59Z</time>
      </trkpt>
      <trkpt lat="45.07493" lon="0.71845">
        <ele>223</ele>
        <time>2020-12-27T08:52:00Z</time>
      </trkpt>
      <trkpt lat="45.07515" lon="0.71848">
        <ele>222.39999389648</ele>
        <time>2020-12-27T08:52:04Z</time>
      </trkpt>
      <trkpt lat="45.07535" lon="0.71854">
        <ele>222.39999389648</ele>
        <time>2020-12-27T08:52:08Z</time>
      </trkpt>
      <trkpt lat="45.07545" lon="0.71856">
        <ele>223.39999389648</ele>
        <time>2020-12-27T08:52:10Z</time>
      </trkpt>
      <trkpt lat="45.07558" lon="0.71861">
        <ele>223.60000610352</ele>
        <time>2020-12-27T08:52:13Z</time>
      </trkpt>
      <trkpt lat="45.07581" lon="0.71867">
        <ele>223</ele>
        <time>2020-12-27T08:52:18Z</time>
      </trkpt>
      <trkpt lat="45.07587" lon="0.71874">
        <ele>224.39999389648</ele>
        <time>2020-12-27T08:52:21Z</time>
      </trkpt>
      <trkpt lat="45.07589" lon="0.71875">
        <ele>224.80000305176</ele>
        <time>2020-12-27T08:52:22Z</time>
      </trkpt>
      <trkpt lat="45.07593" lon="0.71876">
        <ele>225.19999694824</ele>
        <time>2020-12-27T08:52:24Z</time>
      </trkpt>
      <trkpt lat="45.07598" lon="0.71877">
        <ele>225</ele>
        <time>2020-12-27T08:52:27Z</time>
      </trkpt>
      <trkpt lat="45.076" lon="0.71874">
        <ele>225.19999694824</ele>
        <time>2020-12-27T08:52:30Z</time>
      </trkpt>
      <trkpt lat="45.07599" lon="0.71869">
        <ele>224.80000305176</ele>
        <time>2020-12-27T08:52:33Z</time>
      </trkpt>
      <trkpt lat="45.07597" lon="0.71872">
        <ele>224.60000610352</ele>
        <time>2020-12-27T08:52:42Z</time>
      </trkpt>
      <trkpt lat="45.07597" lon="0.71874">
        <ele>224.80000305176</ele>
        <time>2020-12-27T08:52:43Z</time>
      </trkpt>
      <trkpt lat="45.07603" lon="0.71875">
        <ele>225.19999694824</ele>
        <time>2020-12-27T08:52:46Z</time>
      </trkpt>
      <trkpt lat="45.07609" lon="0.71876">
        <ele>225.39999389648</ele>
        <time>2020-12-27T08:52:48Z</time>
      </trkpt>
      <trkpt lat="45.07611" lon="0.71877">
        <ele>225.60000610352</ele>
        <time>2020-12-27T08:52:49Z</time>
      </trkpt>
      <trkpt lat="45.07614" lon="0.71878">
        <ele>225.60000610352</ele>
        <time>2020-12-27T08:52:50Z</time>
      </trkpt>
      <trkpt lat="45.07616" lon="0.71877">
        <ele>225.60000610352</ele>
        <time>2020-12-27T08:52:51Z</time>
      </trkpt>
      <trkpt lat="45.07622" lon="0.71877">
        <ele>226.39999389648</ele>
        <time>2020-12-27T08:52:54Z</time>
      </trkpt>
      <trkpt lat="45.07627" lon="0.71877">
        <ele>227</ele>
        <time>2020-12-27T08:52:57Z</time>
      </trkpt>
      <trkpt lat="45.07634" lon="0.71878">
        <ele>227.60000610352</ele>
        <time>2020-12-27T08:53:00Z</time>
      </trkpt>
      <trkpt lat="45.07639" lon="0.71878">
        <ele>228</ele>
        <time>2020-12-27T08:53:02Z</time>
      </trkpt>
      <trkpt lat="45.07645" lon="0.71878">
        <ele>228.60000610352</ele>
        <time>2020-12-27T08:53:05Z</time>
      </trkpt>
      <trkpt lat="45.07652" lon="0.71876">
        <ele>229</ele>
        <time>2020-12-27T08:53:08Z</time>
      </trkpt>
      <trkpt lat="45.07667" lon="0.71875">
        <ele>227.60000610352</ele>
        <time>2020-12-27T08:53:16Z</time>
      </trkpt>
      <trkpt lat="45.07683" lon="0.71872">
        <ele>227.19999694824</ele>
        <time>2020-12-27T08:53:23Z</time>
      </trkpt>
      <trkpt lat="45.07711" lon="0.71862">
        <ele>228.39999389648</ele>
        <time>2020-12-27T08:53:33Z</time>
      </trkpt>
      <trkpt lat="45.07724" lon="0.71856">
        <ele>228.60000610352</ele>
        <time>2020-12-27T08:53:37Z</time>
      </trkpt>
      <trkpt lat="45.07738" lon="0.7185">
        <ele>229.19999694824</ele>
        <time>2020-12-27T08:53:41Z</time>
      </trkpt>
      <trkpt lat="45.07764" lon="0.71835">
        <ele>228.80000305176</ele>
        <time>2020-12-27T08:53:48Z</time>
      </trkpt>
      <trkpt lat="45.07788" lon="0.71825">
        <ele>228</ele>
        <time>2020-12-27T08:53:53Z</time>
      </trkpt>
      <trkpt lat="45.07796" lon="0.71821">
        <ele>227.80000305176</ele>
        <time>2020-12-27T08:53:55Z</time>
      </trkpt>
      <trkpt lat="45.078" lon="0.71819">
        <ele>227.60000610352</ele>
        <time>2020-12-27T08:53:56Z</time>
      </trkpt>
      <trkpt lat="45.0783" lon="0.71805">
        <ele>227.19999694824</ele>
        <time>2020-12-27T08:54:04Z</time>
      </trkpt>
      <trkpt lat="45.07848" lon="0.71797">
        <ele>226.60000610352</ele>
        <time>2020-12-27T08:54:10Z</time>
      </trkpt>
      <trkpt lat="45.07863" lon="0.71794">
        <ele>225.60000610352</ele>
        <time>2020-12-27T08:54:16Z</time>
      </trkpt>
      <trkpt lat="45.07866" lon="0.71792">
        <ele>225.39999389648</ele>
        <time>2020-12-27T08:54:17Z</time>
      </trkpt>
      <trkpt lat="45.07886" lon="0.71783">
        <ele>224.60000610352</ele>
        <time>2020-12-27T08:54:23Z</time>
      </trkpt>
      <trkpt lat="45.07889" lon="0.71782">
        <ele>224.39999389648</ele>
        <time>2020-12-27T08:54:24Z</time>
      </trkpt>
      <trkpt lat="45.07908" lon="0.71773">
        <ele>223.39999389648</ele>
        <time>2020-12-27T08:54:30Z</time>
      </trkpt>
      <trkpt lat="45.07911" lon="0.71771">
        <ele>223.39999389648</ele>
        <time>2020-12-27T08:54:31Z</time>
      </trkpt>
      <trkpt lat="45.07935" lon="0.71761">
        <ele>223.19999694824</ele>
        <time>2020-12-27T08:54:38Z</time>
      </trkpt>
      <trkpt lat="45.0795" lon="0.71758">
        <ele>224.39999389648</ele>
        <time>2020-12-27T08:54:42Z</time>
      </trkpt>
      <trkpt lat="45.07961" lon="0.71757">
        <ele>224.39999389648</ele>
        <time>2020-12-27T08:54:45Z</time>
      </trkpt>
      <trkpt lat="45.07969" lon="0.71754">
        <ele>224.39999389648</ele>
        <time>2020-12-27T08:54:48Z</time>
      </trkpt>
      <trkpt lat="45.0797" lon="0.71751">
        <ele>224.60000610352</ele>
        <time>2020-12-27T08:54:49Z</time>
      </trkpt>
      <trkpt lat="45.07969" lon="0.71742">
        <ele>225.80000305176</ele>
        <time>2020-12-27T08:54:52Z</time>
      </trkpt>
      <trkpt lat="45.07969" lon="0.71735">
        <ele>226.80000305176</ele>
        <time>2020-12-27T08:54:54Z</time>
      </trkpt>
      <trkpt lat="45.07966" lon="0.71729">
        <ele>228.39999389648</ele>
        <time>2020-12-27T08:54:56Z</time>
      </trkpt>
      <trkpt lat="45.07965" lon="0.71726">
        <ele>228.60000610352</ele>
        <time>2020-12-27T08:54:57Z</time>
      </trkpt>
      <trkpt lat="45.07962" lon="0.71718">
        <ele>229.39999389648</ele>
        <time>2020-12-27T08:54:59Z</time>
      </trkpt>
      <trkpt lat="45.07954" lon="0.71701">
        <ele>230.39999389648</ele>
        <time>2020-12-27T08:55:03Z</time>
      </trkpt>
      <trkpt lat="45.07951" lon="0.71693">
        <ele>230.60000610352</ele>
        <time>2020-12-27T08:55:05Z</time>
      </trkpt>
      <trkpt lat="45.07945" lon="0.71679">
        <ele>231.60000610352</ele>
        <time>2020-12-27T08:55:08Z</time>
      </trkpt>
      <trkpt lat="45.07935" lon="0.71659">
        <ele>232.60000610352</ele>
        <time>2020-12-27T08:55:12Z</time>
      </trkpt>
      <trkpt lat="45.07922" lon="0.71624">
        <ele>232.80000305176</ele>
        <time>2020-12-27T08:55:17Z</time>
      </trkpt>
      <trkpt lat="45.07913" lon="0.71577">
        <ele>232.39999389648</ele>
        <time>2020-12-27T08:55:24Z</time>
      </trkpt>
      <trkpt lat="45.07908" lon="0.71554">
        <ele>232.19999694824</ele>
        <time>2020-12-27T08:55:28Z</time>
      </trkpt>
      <trkpt lat="45.07902" lon="0.71546">
        <ele>232.39999389648</ele>
        <time>2020-12-27T08:55:30Z</time>
      </trkpt>
      <trkpt lat="45.07881" lon="0.71536">
        <ele>232.80000305176</ele>
        <time>2020-12-27T08:55:35Z</time>
      </trkpt>
      <trkpt lat="45.07848" lon="0.71528">
        <ele>232.19999694824</ele>
        <time>2020-12-27T08:55:41Z</time>
      </trkpt>
      <trkpt lat="45.07812" lon="0.71523">
        <ele>231.60000610352</ele>
        <time>2020-12-27T08:55:46Z</time>
      </trkpt>
      <trkpt lat="45.07804" lon="0.71522">
        <ele>231.60000610352</ele>
        <time>2020-12-27T08:55:47Z</time>
      </trkpt>
      <trkpt lat="45.07783" lon="0.7152">
        <ele>231.39999389648</ele>
        <time>2020-12-27T08:55:50Z</time>
      </trkpt>
      <trkpt lat="45.07771" lon="0.71521">
        <ele>231.19999694824</ele>
        <time>2020-12-27T08:55:52Z</time>
      </trkpt>
      <trkpt lat="45.07766" lon="0.71523">
        <ele>231</ele>
        <time>2020-12-27T08:55:53Z</time>
      </trkpt>
      <trkpt lat="45.07757" lon="0.71529">
        <ele>231</ele>
        <time>2020-12-27T08:55:55Z</time>
      </trkpt>
      <trkpt lat="45.07743" lon="0.71525">
        <ele>230.39999389648</ele>
        <time>2020-12-27T08:55:58Z</time>
      </trkpt>
      <trkpt lat="45.07732" lon="0.715">
        <ele>229.80000305176</ele>
        <time>2020-12-27T08:56:02Z</time>
      </trkpt>
      <trkpt lat="45.0773" lon="0.71493">
        <ele>229.60000610352</ele>
        <time>2020-12-27T08:56:03Z</time>
      </trkpt>
      <trkpt lat="45.07727" lon="0.71486">
        <ele>229.60000610352</ele>
        <time>2020-12-27T08:56:04Z</time>
      </trkpt>
      <trkpt lat="45.07725" lon="0.71478">
        <ele>229.39999389648</ele>
        <time>2020-12-27T08:56:05Z</time>
      </trkpt>
      <trkpt lat="45.07717" lon="0.71454">
        <ele>228.60000610352</ele>
        <time>2020-12-27T08:56:08Z</time>
      </trkpt>
      <trkpt lat="45.07712" lon="0.71438">
        <ele>228.19999694824</ele>
        <time>2020-12-27T08:56:10Z</time>
      </trkpt>
      <trkpt lat="45.07697" lon="0.714">
        <ele>227.60000610352</ele>
        <time>2020-12-27T08:56:15Z</time>
      </trkpt>
      <trkpt lat="45.07684" lon="0.7137">
        <ele>227.19999694824</ele>
        <time>2020-12-27T08:56:19Z</time>
      </trkpt>
      <trkpt lat="45.07681" lon="0.71363">
        <ele>227</ele>
        <time>2020-12-27T08:56:20Z</time>
      </trkpt>
      <trkpt lat="45.07666" lon="0.7135">
        <ele>226.19999694824</ele>
        <time>2020-12-27T08:56:23Z</time>
      </trkpt>
      <trkpt lat="45.07661" lon="0.71345">
        <ele>226.19999694824</ele>
        <time>2020-12-27T08:56:24Z</time>
      </trkpt>
      <trkpt lat="45.07646" lon="0.71331">
        <ele>226</ele>
        <time>2020-12-27T08:56:27Z</time>
      </trkpt>
      <trkpt lat="45.07635" lon="0.71319">
        <ele>225.80000305176</ele>
        <time>2020-12-27T08:56:30Z</time>
      </trkpt>
      <trkpt lat="45.07631" lon="0.7131">
        <ele>225.19999694824</ele>
        <time>2020-12-27T08:56:32Z</time>
      </trkpt>
      <trkpt lat="45.0763" lon="0.71306">
        <ele>225</ele>
        <time>2020-12-27T08:56:33Z</time>
      </trkpt>
      <trkpt lat="45.07626" lon="0.71306">
        <ele>224.80000305176</ele>
        <time>2020-12-27T08:56:35Z</time>
      </trkpt>
      <trkpt lat="45.07624" lon="0.71306">
        <ele>224.80000305176</ele>
        <time>2020-12-27T08:56:36Z</time>
      </trkpt>
      <trkpt lat="45.07621" lon="0.71301">
        <ele>225</ele>
        <time>2020-12-27T08:56:38Z</time>
      </trkpt>
      <trkpt lat="45.07618" lon="0.71295">
        <ele>225.19999694824</ele>
        <time>2020-12-27T08:56:41Z</time>
      </trkpt>
      <trkpt lat="45.07617" lon="0.71292">
        <ele>225.19999694824</ele>
        <time>2020-12-27T08:56:43Z</time>
      </trkpt>
      <trkpt lat="45.07614" lon="0.71289">
        <ele>225.19999694824</ele>
        <time>2020-12-27T08:56:46Z</time>
      </trkpt>
      <trkpt lat="45.07609" lon="0.71286">
        <ele>225.19999694824</ele>
        <time>2020-12-27T08:56:49Z</time>
      </trkpt>
      <trkpt lat="45.07593" lon="0.7127">
        <ele>225.60000610352</ele>
        <time>2020-12-27T08:57:29Z</time>
      </trkpt>
      <trkpt lat="45.07591" lon="0.71267">
        <ele>226.19999694824</ele>
        <time>2020-12-27T08:57:30Z</time>
      </trkpt>
      <trkpt lat="45.07585" lon="0.71262">
        <ele>227.19999694824</ele>
        <time>2020-12-27T08:57:33Z</time>
      </trkpt>
      <trkpt lat="45.07573" lon="0.7125">
        <ele>226.80000305176</ele>
        <time>2020-12-27T08:57:39Z</time>
      </trkpt>
      <trkpt lat="45.07567" lon="0.71243">
        <ele>226.19999694824</ele>
        <time>2020-12-27T08:57:42Z</time>
      </trkpt>
      <trkpt lat="45.07561" lon="0.71236">
        <ele>225.19999694824</ele>
        <time>2020-12-27T08:57:45Z</time>
      </trkpt>
      <trkpt lat="45.07559" lon="0.71234">
        <ele>225</ele>
        <time>2020-12-27T08:57:46Z</time>
      </trkpt>
      <trkpt lat="45.07546" lon="0.71222">
        <ele>224.39999389648</ele>
        <time>2020-12-27T08:57:52Z</time>
      </trkpt>
      <trkpt lat="45.07528" lon="0.71205">
        <ele>224.80000305176</ele>
        <time>2020-12-27T08:57:59Z</time>
      </trkpt>
      <trkpt lat="45.07502" lon="0.71181">
        <ele>225.39999389648</ele>
        <time>2020-12-27T08:58:08Z</time>
      </trkpt>
      <trkpt lat="45.07479" lon="0.71163">
        <ele>226.19999694824</ele>
        <time>2020-12-27T08:58:16Z</time>
      </trkpt>
      <trkpt lat="45.07465" lon="0.71151">
        <ele>227.19999694824</ele>
        <time>2020-12-27T08:58:21Z</time>
      </trkpt>
      <trkpt lat="45.07459" lon="0.71146">
        <ele>227.39999389648</ele>
        <time>2020-12-27T08:58:23Z</time>
      </trkpt>
      <trkpt lat="45.07451" lon="0.71141">
        <ele>228.39999389648</ele>
        <time>2020-12-27T08:58:26Z</time>
      </trkpt>
      <trkpt lat="45.07442" lon="0.71136">
        <ele>229.39999389648</ele>
        <time>2020-12-27T08:58:29Z</time>
      </trkpt>
      <trkpt lat="45.07433" lon="0.71133">
        <ele>230.80000305176</ele>
        <time>2020-12-27T08:58:32Z</time>
      </trkpt>
      <trkpt lat="45.07425" lon="0.71131">
        <ele>231.60000610352</ele>
        <time>2020-12-27T08:58:35Z</time>
      </trkpt>
      <trkpt lat="45.07422" lon="0.71131">
        <ele>231.80000305176</ele>
        <time>2020-12-27T08:58:36Z</time>
      </trkpt>
      <trkpt lat="45.07413" lon="0.7113">
        <ele>233</ele>
        <time>2020-12-27T08:58:40Z</time>
      </trkpt>
      <trkpt lat="45.07408" lon="0.7113">
        <ele>233.60000610352</ele>
        <time>2020-12-27T08:58:42Z</time>
      </trkpt>
      <trkpt lat="45.07403" lon="0.7113">
        <ele>234.19999694824</ele>
        <time>2020-12-27T08:58:44Z</time>
      </trkpt>
      <trkpt lat="45.0739" lon="0.71128">
        <ele>235.19999694824</ele>
        <time>2020-12-27T08:58:49Z</time>
      </trkpt>
      <trkpt lat="45.07385" lon="0.71126">
        <ele>235.19999694824</ele>
        <time>2020-12-27T08:58:51Z</time>
      </trkpt>
      <trkpt lat="45.07369" lon="0.71118">
        <ele>235.80000305176</ele>
        <time>2020-12-27T08:58:57Z</time>
      </trkpt>
      <trkpt lat="45.07364" lon="0.71114">
        <ele>236.19999694824</ele>
        <time>2020-12-27T08:58:59Z</time>
      </trkpt>
      <trkpt lat="45.07354" lon="0.71101">
        <ele>237.19999694824</ele>
        <time>2020-12-27T08:59:04Z</time>
      </trkpt>
      <trkpt lat="45.07332" lon="0.71078">
        <ele>237</ele>
        <time>2020-12-27T08:59:11Z</time>
      </trkpt>
      <trkpt lat="45.07319" lon="0.71066">
        <ele>236.19999694824</ele>
        <time>2020-12-27T08:59:15Z</time>
      </trkpt>
      <trkpt lat="45.0731" lon="0.71058">
        <ele>236.19999694824</ele>
        <time>2020-12-27T08:59:18Z</time>
      </trkpt>
      <trkpt lat="45.07278" lon="0.71029">
        <ele>237.19999694824</ele>
        <time>2020-12-27T08:59:27Z</time>
      </trkpt>
      <trkpt lat="45.07249" lon="0.71004">
        <ele>237.60000610352</ele>
        <time>2020-12-27T08:59:35Z</time>
      </trkpt>
      <trkpt lat="45.07217" lon="0.70973">
        <ele>237.39999389648</ele>
        <time>2020-12-27T08:59:44Z</time>
      </trkpt>
      <trkpt lat="45.072" lon="0.70953">
        <ele>235.80000305176</ele>
        <time>2020-12-27T08:59:49Z</time>
      </trkpt>
      <trkpt lat="45.07198" lon="0.70949">
        <ele>235.60000610352</ele>
        <time>2020-12-27T08:59:50Z</time>
      </trkpt>
      <trkpt lat="45.07185" lon="0.70931">
        <ele>234.60000610352</ele>
        <time>2020-12-27T08:59:54Z</time>
      </trkpt>
      <trkpt lat="45.07178" lon="0.70916">
        <ele>233.39999389648</ele>
        <time>2020-12-27T08:59:57Z</time>
      </trkpt>
      <trkpt lat="45.0716" lon="0.70876">
        <ele>232.60000610352</ele>
        <time>2020-12-27T09:00:04Z</time>
      </trkpt>
      <trkpt lat="45.07154" lon="0.7087">
        <ele>232.19999694824</ele>
        <time>2020-12-27T09:00:05Z</time>
      </trkpt>
      <trkpt lat="45.0714" lon="0.70848">
        <ele>231.60000610352</ele>
        <time>2020-12-27T09:00:08Z</time>
      </trkpt>
      <trkpt lat="45.07133" lon="0.7083">
        <ele>231.39999389648</ele>
        <time>2020-12-27T09:00:10Z</time>
      </trkpt>
      <trkpt lat="45.07129" lon="0.70821">
        <ele>231.19999694824</ele>
        <time>2020-12-27T09:00:11Z</time>
      </trkpt>
      <trkpt lat="45.07121" lon="0.70795">
        <ele>230.80000305176</ele>
        <time>2020-12-27T09:00:14Z</time>
      </trkpt>
      <trkpt lat="45.07106" lon="0.70745">
        <ele>230.19999694824</ele>
        <time>2020-12-27T09:00:20Z</time>
      </trkpt>
      <trkpt lat="45.07104" lon="0.70736">
        <ele>230</ele>
        <time>2020-12-27T09:00:21Z</time>
      </trkpt>
      <trkpt lat="45.07092" lon="0.707">
        <ele>230</ele>
        <time>2020-12-27T09:00:26Z</time>
      </trkpt>
      <trkpt lat="45.0709" lon="0.70693">
        <ele>229.80000305176</ele>
        <time>2020-12-27T09:00:27Z</time>
      </trkpt>
      <trkpt lat="45.07088" lon="0.7068">
        <ele>229.80000305176</ele>
        <time>2020-12-27T09:00:29Z</time>
      </trkpt>
      <trkpt lat="45.07087" lon="0.70674">
        <ele>229.80000305176</ele>
        <time>2020-12-27T09:00:30Z</time>
      </trkpt>
      <trkpt lat="45.0708" lon="0.70653">
        <ele>229.60000610352</ele>
        <time>2020-12-27T09:00:34Z</time>
      </trkpt>
      <trkpt lat="45.07075" lon="0.70635">
        <ele>229.39999389648</ele>
        <time>2020-12-27T09:00:37Z</time>
      </trkpt>
      <trkpt lat="45.07069" lon="0.70613">
        <ele>229.60000610352</ele>
        <time>2020-12-27T09:00:40Z</time>
      </trkpt>
      <trkpt lat="45.07065" lon="0.70598">
        <ele>229.60000610352</ele>
        <time>2020-12-27T09:00:42Z</time>
      </trkpt>
      <trkpt lat="45.07059" lon="0.7057">
        <ele>229.60000610352</ele>
        <time>2020-12-27T09:00:46Z</time>
      </trkpt>
      <trkpt lat="45.07052" lon="0.70529">
        <ele>230</ele>
        <time>2020-12-27T09:00:52Z</time>
      </trkpt>
      <trkpt lat="45.07044" lon="0.70503">
        <ele>229.39999389648</ele>
        <time>2020-12-27T09:00:57Z</time>
      </trkpt>
      <trkpt lat="45.07035" lon="0.70494">
        <ele>229.80000305176</ele>
        <time>2020-12-27T09:01:01Z</time>
      </trkpt>
      <trkpt lat="45.07021" lon="0.70486">
        <ele>230.39999389648</ele>
        <time>2020-12-27T09:01:08Z</time>
      </trkpt>
      <trkpt lat="45.07001" lon="0.70485">
        <ele>230.39999389648</ele>
        <time>2020-12-27T09:01:13Z</time>
      </trkpt>
      <trkpt lat="45.06986" lon="0.70481">
        <ele>230.80000305176</ele>
        <time>2020-12-27T09:01:18Z</time>
      </trkpt>
      <trkpt lat="45.06977" lon="0.70477">
        <ele>230.80000305176</ele>
        <time>2020-12-27T09:01:22Z</time>
      </trkpt>
      <trkpt lat="45.06974" lon="0.70475">
        <ele>231</ele>
        <time>2020-12-27T09:01:24Z</time>
      </trkpt>
      <trkpt lat="45.0697" lon="0.70472">
        <ele>231.19999694824</ele>
        <time>2020-12-27T09:01:26Z</time>
      </trkpt>
      <trkpt lat="45.06958" lon="0.70472">
        <ele>231.19999694824</ele>
        <time>2020-12-27T09:01:30Z</time>
      </trkpt>
      <trkpt lat="45.06955" lon="0.70472">
        <ele>231</ele>
        <time>2020-12-27T09:01:31Z</time>
      </trkpt>
      <trkpt lat="45.06946" lon="0.70472">
        <ele>230.19999694824</ele>
        <time>2020-12-27T09:01:34Z</time>
      </trkpt>
      <trkpt lat="45.06943" lon="0.7047">
        <ele>230</ele>
        <time>2020-12-27T09:01:35Z</time>
      </trkpt>
      <trkpt lat="45.06939" lon="0.70457">
        <ele>230.80000305176</ele>
        <time>2020-12-27T09:01:39Z</time>
      </trkpt>
      <trkpt lat="45.06939" lon="0.7045">
        <ele>231.60000610352</ele>
        <time>2020-12-27T09:01:41Z</time>
      </trkpt>
      <trkpt lat="45.06941" lon="0.70433">
        <ele>232</ele>
        <time>2020-12-27T09:01:45Z</time>
      </trkpt>
      <trkpt lat="45.0694" lon="0.70403">
        <ele>232.19999694824</ele>
        <time>2020-12-27T09:01:51Z</time>
      </trkpt>
      <trkpt lat="45.06937" lon="0.7039">
        <ele>232.80000305176</ele>
        <time>2020-12-27T09:01:53Z</time>
      </trkpt>
      <trkpt lat="45.06931" lon="0.70366">
        <ele>233.39999389648</ele>
        <time>2020-12-27T09:01:57Z</time>
      </trkpt>
      <trkpt lat="45.06928" lon="0.70355">
        <ele>233.80000305176</ele>
        <time>2020-12-27T09:01:59Z</time>
      </trkpt>
      <trkpt lat="45.06923" lon="0.70341">
        <ele>234.39999389648</ele>
        <time>2020-12-27T09:02:02Z</time>
      </trkpt>
      <trkpt lat="45.06921" lon="0.70333">
        <ele>235</ele>
        <time>2020-12-27T09:02:04Z</time>
      </trkpt>
      <trkpt lat="45.06917" lon="0.7031">
        <ele>236.19999694824</ele>
        <time>2020-12-27T09:02:09Z</time>
      </trkpt>
      <trkpt lat="45.06915" lon="0.70299">
        <ele>237.39999389648</ele>
        <time>2020-12-27T09:02:12Z</time>
      </trkpt>
      <trkpt lat="45.06913" lon="0.70289">
        <ele>238.60000610352</ele>
        <time>2020-12-27T09:02:15Z</time>
      </trkpt>
      <trkpt lat="45.06911" lon="0.70276">
        <ele>241.19999694824</ele>
        <time>2020-12-27T09:02:25Z</time>
      </trkpt>
      <trkpt lat="45.0691" lon="0.70268">
        <ele>242.39999389648</ele>
        <time>2020-12-27T09:02:27Z</time>
      </trkpt>
      <trkpt lat="45.0691" lon="0.70259">
        <ele>243.80000305176</ele>
        <time>2020-12-27T09:02:30Z</time>
      </trkpt>
      <trkpt lat="45.06907" lon="0.70236">
        <ele>244.80000305176</ele>
        <time>2020-12-27T09:02:35Z</time>
      </trkpt>
      <trkpt lat="45.06902" lon="0.70209">
        <ele>243.60000610352</ele>
        <time>2020-12-27T09:02:42Z</time>
      </trkpt>
      <trkpt lat="45.06901" lon="0.70201">
        <ele>241.80000305176</ele>
        <time>2020-12-27T09:02:44Z</time>
      </trkpt>
      <trkpt lat="45.06902" lon="0.70196">
        <ele>240.80000305176</ele>
        <time>2020-12-27T09:02:45Z</time>
      </trkpt>
      <trkpt lat="45.06902" lon="0.70191">
        <ele>239.60000610352</ele>
        <time>2020-12-27T09:02:46Z</time>
      </trkpt>
      <trkpt lat="45.06904" lon="0.70181">
        <ele>238.60000610352</ele>
        <time>2020-12-27T09:02:48Z</time>
      </trkpt>
      <trkpt lat="45.06904" lon="0.70169">
        <ele>236.80000305176</ele>
        <time>2020-12-27T09:02:50Z</time>
      </trkpt>
      <trkpt lat="45.06905" lon="0.70156">
        <ele>235.39999389648</ele>
        <time>2020-12-27T09:02:52Z</time>
      </trkpt>
      <trkpt lat="45.06905" lon="0.7015">
        <ele>234.80000305176</ele>
        <time>2020-12-27T09:02:53Z</time>
      </trkpt>
      <trkpt lat="45.06906" lon="0.70139">
        <ele>234.19999694824</ele>
        <time>2020-12-27T09:02:55Z</time>
      </trkpt>
      <trkpt lat="45.06906" lon="0.70128">
        <ele>233</ele>
        <time>2020-12-27T09:02:57Z</time>
      </trkpt>
      <trkpt lat="45.06906" lon="0.70113">
        <ele>232</ele>
        <time>2020-12-27T09:03:00Z</time>
      </trkpt>
      <trkpt lat="45.06907" lon="0.70109">
        <ele>231.19999694824</ele>
        <time>2020-12-27T09:03:01Z</time>
      </trkpt>
      <trkpt lat="45.06908" lon="0.70095">
        <ele>230.19999694824</ele>
        <time>2020-12-27T09:03:04Z</time>
      </trkpt>
      <trkpt lat="45.0691" lon="0.70085">
        <ele>229</ele>
        <time>2020-12-27T09:03:06Z</time>
      </trkpt>
      <trkpt lat="45.06912" lon="0.70076">
        <ele>228.39999389648</ele>
        <time>2020-12-27T09:03:08Z</time>
      </trkpt>
      <trkpt lat="45.06915" lon="0.70068">
        <ele>228</ele>
        <time>2020-12-27T09:03:10Z</time>
      </trkpt>
      <trkpt lat="45.06917" lon="0.70055">
        <ele>226.80000305176</ele>
        <time>2020-12-27T09:03:13Z</time>
      </trkpt>
      <trkpt lat="45.06918" lon="0.70047">
        <ele>225.80000305176</ele>
        <time>2020-12-27T09:03:15Z</time>
      </trkpt>
      <trkpt lat="45.06918" lon="0.70042">
        <ele>225.60000610352</ele>
        <time>2020-12-27T09:03:16Z</time>
      </trkpt>
      <trkpt lat="45.06921" lon="0.70019">
        <ele>224.39999389648</ele>
        <time>2020-12-27T09:03:21Z</time>
      </trkpt>
      <trkpt lat="45.06921" lon="0.70014">
        <ele>224.39999389648</ele>
        <time>2020-12-27T09:03:22Z</time>
      </trkpt>
      <trkpt lat="45.06922" lon="0.69995">
        <ele>223.39999389648</ele>
        <time>2020-12-27T09:03:26Z</time>
      </trkpt>
      <trkpt lat="45.06923" lon="0.6998">
        <ele>222.60000610352</ele>
        <time>2020-12-27T09:03:29Z</time>
      </trkpt>
      <trkpt lat="45.06928" lon="0.69952">
        <ele>222.60000610352</ele>
        <time>2020-12-27T09:03:35Z</time>
      </trkpt>
      <trkpt lat="45.0693" lon="0.69924">
        <ele>223.19999694824</ele>
        <time>2020-12-27T09:03:41Z</time>
      </trkpt>
      <trkpt lat="45.06929" lon="0.69908">
        <ele>224.60000610352</ele>
        <time>2020-12-27T09:03:44Z</time>
      </trkpt>
      <trkpt lat="45.06927" lon="0.69888">
        <ele>225.60000610352</ele>
        <time>2020-12-27T09:03:48Z</time>
      </trkpt>
      <trkpt lat="45.06926" lon="0.69884">
        <ele>225.80000305176</ele>
        <time>2020-12-27T09:03:49Z</time>
      </trkpt>
      <trkpt lat="45.06928" lon="0.6986">
        <ele>225.80000305176</ele>
        <time>2020-12-27T09:03:54Z</time>
      </trkpt>
      <trkpt lat="45.06936" lon="0.69833">
        <ele>225</ele>
        <time>2020-12-27T09:04:00Z</time>
      </trkpt>
      <trkpt lat="45.06939" lon="0.6982">
        <ele>224.60000610352</ele>
        <time>2020-12-27T09:04:03Z</time>
      </trkpt>
      <trkpt lat="45.06942" lon="0.69801">
        <ele>224.60000610352</ele>
        <time>2020-12-27T09:04:07Z</time>
      </trkpt>
      <trkpt lat="45.06941" lon="0.6977">
        <ele>225.60000610352</ele>
        <time>2020-12-27T09:04:13Z</time>
      </trkpt>
      <trkpt lat="45.06941" lon="0.6975">
        <ele>226.60000610352</ele>
        <time>2020-12-27T09:04:17Z</time>
      </trkpt>
      <trkpt lat="45.0694" lon="0.69731">
        <ele>227.80000305176</ele>
        <time>2020-12-27T09:04:21Z</time>
      </trkpt>
      <trkpt lat="45.06938" lon="0.6971">
        <ele>229</ele>
        <time>2020-12-27T09:04:25Z</time>
      </trkpt>
      <trkpt lat="45.06936" lon="0.69695">
        <ele>229.39999389648</ele>
        <time>2020-12-27T09:04:28Z</time>
      </trkpt>
      <trkpt lat="45.06933" lon="0.69673">
        <ele>230.19999694824</ele>
        <time>2020-12-27T09:04:32Z</time>
      </trkpt>
      <trkpt lat="45.06932" lon="0.69655">
        <ele>231.39999389648</ele>
        <time>2020-12-27T09:04:35Z</time>
      </trkpt>
      <trkpt lat="45.06932" lon="0.69633">
        <ele>232.60000610352</ele>
        <time>2020-12-27T09:04:39Z</time>
      </trkpt>
      <trkpt lat="45.06932" lon="0.69624">
        <ele>233</ele>
        <time>2020-12-27T09:04:41Z</time>
      </trkpt>
      <trkpt lat="45.06931" lon="0.6961">
        <ele>233.80000305176</ele>
        <time>2020-12-27T09:04:45Z</time>
      </trkpt>
      <trkpt lat="45.06929" lon="0.69603">
        <ele>234</ele>
        <time>2020-12-27T09:04:47Z</time>
      </trkpt>
      <trkpt lat="45.06919" lon="0.69575">
        <ele>234.39999389648</ele>
        <time>2020-12-27T09:04:53Z</time>
      </trkpt>
      <trkpt lat="45.06912" lon="0.69561">
        <ele>235</ele>
        <time>2020-12-27T09:04:56Z</time>
      </trkpt>
      <trkpt lat="45.06907" lon="0.69551">
        <ele>236</ele>
        <time>2020-12-27T09:04:59Z</time>
      </trkpt>
      <trkpt lat="45.06902" lon="0.69542">
        <ele>236.39999389648</ele>
        <time>2020-12-27T09:05:01Z</time>
      </trkpt>
      <trkpt lat="45.06898" lon="0.69535">
        <ele>237.39999389648</ele>
        <time>2020-12-27T09:05:03Z</time>
      </trkpt>
      <trkpt lat="45.06891" lon="0.69523">
        <ele>238.39999389648</ele>
        <time>2020-12-27T09:05:06Z</time>
      </trkpt>
      <trkpt lat="45.06886" lon="0.69512">
        <ele>239.39999389648</ele>
        <time>2020-12-27T09:05:09Z</time>
      </trkpt>
      <trkpt lat="45.06875" lon="0.69494">
        <ele>240.80000305176</ele>
        <time>2020-12-27T09:05:14Z</time>
      </trkpt>
      <trkpt lat="45.06873" lon="0.69491">
        <ele>241.19999694824</ele>
        <time>2020-12-27T09:05:15Z</time>
      </trkpt>
      <trkpt lat="45.06864" lon="0.69488">
        <ele>242</ele>
        <time>2020-12-27T09:05:18Z</time>
      </trkpt>
      <trkpt lat="45.06862" lon="0.69488">
        <ele>242.39999389648</ele>
        <time>2020-12-27T09:05:19Z</time>
      </trkpt>
      <trkpt lat="45.06846" lon="0.69491">
        <ele>242.60000610352</ele>
        <time>2020-12-27T09:05:25Z</time>
      </trkpt>
      <trkpt lat="45.06821" lon="0.69496">
        <ele>242</ele>
        <time>2020-12-27T09:05:32Z</time>
      </trkpt>
      <trkpt lat="45.06796" lon="0.69501">
        <ele>241</ele>
        <time>2020-12-27T09:05:39Z</time>
      </trkpt>
      <trkpt lat="45.06791" lon="0.69501">
        <ele>240.80000305176</ele>
        <time>2020-12-27T09:05:40Z</time>
      </trkpt>
      <trkpt lat="45.06778" lon="0.69487">
        <ele>241.80000305176</ele>
        <time>2020-12-27T09:05:45Z</time>
      </trkpt>
      <trkpt lat="45.06779" lon="0.69444">
        <ele>241</ele>
        <time>2020-12-27T09:05:52Z</time>
      </trkpt>
      <trkpt lat="45.06778" lon="0.69411">
        <ele>240.60000610352</ele>
        <time>2020-12-27T09:05:58Z</time>
      </trkpt>
      <trkpt lat="45.0677" lon="0.69371">
        <ele>240.60000610352</ele>
        <time>2020-12-27T09:06:05Z</time>
      </trkpt>
      <trkpt lat="45.06766" lon="0.69336">
        <ele>240.39999389648</ele>
        <time>2020-12-27T09:06:11Z</time>
      </trkpt>
      <trkpt lat="45.06764" lon="0.693">
        <ele>240.19999694824</ele>
        <time>2020-12-27T09:06:17Z</time>
      </trkpt>
      <trkpt lat="45.06764" lon="0.69295">
        <ele>240</ele>
        <time>2020-12-27T09:06:18Z</time>
      </trkpt>
      <trkpt lat="45.06761" lon="0.6926">
        <ele>239.39999389648</ele>
        <time>2020-12-27T09:06:24Z</time>
      </trkpt>
      <trkpt lat="45.06759" lon="0.69241">
        <ele>239.39999389648</ele>
        <time>2020-12-27T09:06:27Z</time>
      </trkpt>
      <trkpt lat="45.06758" lon="0.69229">
        <ele>239.39999389648</ele>
        <time>2020-12-27T09:06:29Z</time>
      </trkpt>
      <trkpt lat="45.06757" lon="0.6919">
        <ele>239.60000610352</ele>
        <time>2020-12-27T09:06:36Z</time>
      </trkpt>
      <trkpt lat="45.06756" lon="0.69166">
        <ele>239</ele>
        <time>2020-12-27T09:06:41Z</time>
      </trkpt>
      <trkpt lat="45.06756" lon="0.69161">
        <ele>238.80000305176</ele>
        <time>2020-12-27T09:06:42Z</time>
      </trkpt>
      <trkpt lat="45.06757" lon="0.69141">
        <ele>237.80000305176</ele>
        <time>2020-12-27T09:06:48Z</time>
      </trkpt>
      <trkpt lat="45.0676" lon="0.69138">
        <ele>237.80000305176</ele>
        <time>2020-12-27T09:06:50Z</time>
      </trkpt>
      <trkpt lat="45.06765" lon="0.69136">
        <ele>237.60000610352</ele>
        <time>2020-12-27T09:06:52Z</time>
      </trkpt>
      <trkpt lat="45.06778" lon="0.69135">
        <ele>236.80000305176</ele>
        <time>2020-12-27T09:06:56Z</time>
      </trkpt>
      <trkpt lat="45.06785" lon="0.69134">
        <ele>236</ele>
        <time>2020-12-27T09:06:58Z</time>
      </trkpt>
      <trkpt lat="45.06805" lon="0.69135">
        <ele>236.19999694824</ele>
        <time>2020-12-27T09:07:03Z</time>
      </trkpt>
      <trkpt lat="45.0681" lon="0.69135">
        <ele>236.19999694824</ele>
        <time>2020-12-27T09:07:04Z</time>
      </trkpt>
      <trkpt lat="45.06855" lon="0.69135">
        <ele>236</ele>
        <time>2020-12-27T09:07:12Z</time>
      </trkpt>
      <trkpt lat="45.06898" lon="0.69136">
        <ele>236.39999389648</ele>
        <time>2020-12-27T09:07:20Z</time>
      </trkpt>
      <trkpt lat="45.06937" lon="0.69135">
        <ele>237</ele>
        <time>2020-12-27T09:07:28Z</time>
      </trkpt>
      <trkpt lat="45.06946" lon="0.69134">
        <ele>235.80000305176</ele>
        <time>2020-12-27T09:07:30Z</time>
      </trkpt>
      <trkpt lat="45.06951" lon="0.69133">
        <ele>235.60000610352</ele>
        <time>2020-12-27T09:07:31Z</time>
      </trkpt>
      <trkpt lat="45.06955" lon="0.69131">
        <ele>235.80000305176</ele>
        <time>2020-12-27T09:07:32Z</time>
      </trkpt>
      <trkpt lat="45.06967" lon="0.69122">
        <ele>235.60000610352</ele>
        <time>2020-12-27T09:07:35Z</time>
      </trkpt>
      <trkpt lat="45.06976" lon="0.69111">
        <ele>235.39999389648</ele>
        <time>2020-12-27T09:07:38Z</time>
      </trkpt>
      <trkpt lat="45.06983" lon="0.69098">
        <ele>234.80000305176</ele>
        <time>2020-12-27T09:07:41Z</time>
      </trkpt>
      <trkpt lat="45.06984" lon="0.69094">
        <ele>234.39999389648</ele>
        <time>2020-12-27T09:07:42Z</time>
      </trkpt>
      <trkpt lat="45.06988" lon="0.69079">
        <ele>234</ele>
        <time>2020-12-27T09:07:46Z</time>
      </trkpt>
      <trkpt lat="45.0699" lon="0.6907">
        <ele>233.60000610352</ele>
        <time>2020-12-27T09:08:07Z</time>
      </trkpt>
      <trkpt lat="45.06991" lon="0.69067">
        <ele>233.39999389648</ele>
        <time>2020-12-27T09:08:08Z</time>
      </trkpt>
      <trkpt lat="45.06992" lon="0.69051">
        <ele>232.39999389648</ele>
        <time>2020-12-27T09:08:11Z</time>
      </trkpt>
      <trkpt lat="45.06993" lon="0.69046">
        <ele>232.19999694824</ele>
        <time>2020-12-27T09:08:12Z</time>
      </trkpt>
      <trkpt lat="45.06996" lon="0.6903">
        <ele>231</ele>
        <time>2020-12-27T09:08:15Z</time>
      </trkpt>
      <trkpt lat="45.06997" lon="0.69026">
        <ele>230.80000305176</ele>
        <time>2020-12-27T09:08:16Z</time>
      </trkpt>
      <trkpt lat="45.07001" lon="0.69003">
        <ele>230.60000610352</ele>
        <time>2020-12-27T09:08:22Z</time>
      </trkpt>
      <trkpt lat="45.07008" lon="0.68966">
        <ele>231.19999694824</ele>
        <time>2020-12-27T09:08:31Z</time>
      </trkpt>
      <trkpt lat="45.07014" lon="0.68925">
        <ele>232.19999694824</ele>
        <time>2020-12-27T09:08:41Z</time>
      </trkpt>
      <trkpt lat="45.07019" lon="0.68906">
        <ele>233.19999694824</ele>
        <time>2020-12-27T09:08:46Z</time>
      </trkpt>
      <trkpt lat="45.07021" lon="0.68893">
        <ele>233.60000610352</ele>
        <time>2020-12-27T09:08:49Z</time>
      </trkpt>
      <trkpt lat="45.07024" lon="0.68876">
        <ele>234.60000610352</ele>
        <time>2020-12-27T09:08:53Z</time>
      </trkpt>
      <trkpt lat="45.0703" lon="0.68858">
        <ele>234.60000610352</ele>
        <time>2020-12-27T09:08:57Z</time>
      </trkpt>
      <trkpt lat="45.07039" lon="0.68836">
        <ele>235</ele>
        <time>2020-12-27T09:09:02Z</time>
      </trkpt>
      <trkpt lat="45.07049" lon="0.68815">
        <ele>235.60000610352</ele>
        <time>2020-12-27T09:09:07Z</time>
      </trkpt>
      <trkpt lat="45.07052" lon="0.68807">
        <ele>235.80000305176</ele>
        <time>2020-12-27T09:09:09Z</time>
      </trkpt>
      <trkpt lat="45.07065" lon="0.68779">
        <ele>235.80000305176</ele>
        <time>2020-12-27T09:09:16Z</time>
      </trkpt>
      <trkpt lat="45.07078" lon="0.68747">
        <ele>234.39999389648</ele>
        <time>2020-12-27T09:09:23Z</time>
      </trkpt>
      <trkpt lat="45.07079" lon="0.68743">
        <ele>234.19999694824</ele>
        <time>2020-12-27T09:09:24Z</time>
      </trkpt>
      <trkpt lat="45.07095" lon="0.687">
        <ele>233.19999694824</ele>
        <time>2020-12-27T09:09:33Z</time>
      </trkpt>
      <trkpt lat="45.07109" lon="0.68666">
        <ele>233.19999694824</ele>
        <time>2020-12-27T09:09:40Z</time>
      </trkpt>
      <trkpt lat="45.0712" lon="0.68639">
        <ele>232.39999389648</ele>
        <time>2020-12-27T09:09:45Z</time>
      </trkpt>
      <trkpt lat="45.07122" lon="0.68633">
        <ele>232.39999389648</ele>
        <time>2020-12-27T09:09:46Z</time>
      </trkpt>
      <trkpt lat="45.07126" lon="0.68622">
        <ele>232.19999694824</ele>
        <time>2020-12-27T09:09:48Z</time>
      </trkpt>
      <trkpt lat="45.07136" lon="0.68594">
        <ele>232.19999694824</ele>
        <time>2020-12-27T09:09:53Z</time>
      </trkpt>
      <trkpt lat="45.07158" lon="0.68541">
        <ele>232.19999694824</ele>
        <time>2020-12-27T09:10:03Z</time>
      </trkpt>
      <trkpt lat="45.07183" lon="0.68499">
        <ele>232</ele>
        <time>2020-12-27T09:10:12Z</time>
      </trkpt>
      <trkpt lat="45.07204" lon="0.68463">
        <ele>232.60000610352</ele>
        <time>2020-12-27T09:10:20Z</time>
      </trkpt>
      <trkpt lat="45.07209" lon="0.68452">
        <ele>233</ele>
        <time>2020-12-27T09:10:22Z</time>
      </trkpt>
      <trkpt lat="45.07212" lon="0.68441">
        <ele>233.19999694824</ele>
        <time>2020-12-27T09:10:24Z</time>
      </trkpt>
      <trkpt lat="45.07215" lon="0.6843">
        <ele>233.19999694824</ele>
        <time>2020-12-27T09:10:26Z</time>
      </trkpt>
      <trkpt lat="45.07217" lon="0.68424">
        <ele>233.19999694824</ele>
        <time>2020-12-27T09:10:27Z</time>
      </trkpt>
      <trkpt lat="45.07226" lon="0.6838">
        <ele>233.39999389648</ele>
        <time>2020-12-27T09:10:34Z</time>
      </trkpt>
      <trkpt lat="45.07234" lon="0.68333">
        <ele>233.19999694824</ele>
        <time>2020-12-27T09:10:41Z</time>
      </trkpt>
      <trkpt lat="45.07236" lon="0.68321">
        <ele>233.19999694824</ele>
        <time>2020-12-27T09:10:43Z</time>
      </trkpt>
      <trkpt lat="45.07235" lon="0.68296">
        <ele>233.39999389648</ele>
        <time>2020-12-27T09:10:47Z</time>
      </trkpt>
      <trkpt lat="45.07228" lon="0.68269">
        <ele>233.80000305176</ele>
        <time>2020-12-27T09:10:51Z</time>
      </trkpt>
      <trkpt lat="45.07226" lon="0.68262">
        <ele>233.80000305176</ele>
        <time>2020-12-27T09:10:52Z</time>
      </trkpt>
      <trkpt lat="45.07205" lon="0.68202">
        <ele>234</ele>
        <time>2020-12-27T09:11:00Z</time>
      </trkpt>
      <trkpt lat="45.07189" lon="0.68149">
        <ele>233</ele>
        <time>2020-12-27T09:11:07Z</time>
      </trkpt>
      <trkpt lat="45.07185" lon="0.68121">
        <ele>232.19999694824</ele>
        <time>2020-12-27T09:11:11Z</time>
      </trkpt>
      <trkpt lat="45.0718" lon="0.68105">
        <ele>231.19999694824</ele>
        <time>2020-12-27T09:11:14Z</time>
      </trkpt>
      <trkpt lat="45.07173" lon="0.68103">
        <ele>231</ele>
        <time>2020-12-27T09:11:16Z</time>
      </trkpt>
      <trkpt lat="45.07169" lon="0.68104">
        <ele>231</ele>
        <time>2020-12-27T09:11:17Z</time>
      </trkpt>
      <trkpt lat="45.07165" lon="0.68105">
        <ele>231</ele>
        <time>2020-12-27T09:11:18Z</time>
      </trkpt>
      <trkpt lat="45.07136" lon="0.68112">
        <ele>230.39999389648</ele>
        <time>2020-12-27T09:11:25Z</time>
      </trkpt>
      <trkpt lat="45.07122" lon="0.6811">
        <ele>230</ele>
        <time>2020-12-27T09:11:28Z</time>
      </trkpt>
      <trkpt lat="45.07113" lon="0.68107">
        <ele>229.80000305176</ele>
        <time>2020-12-27T09:11:30Z</time>
      </trkpt>
      <trkpt lat="45.0708" lon="0.68097">
        <ele>229</ele>
        <time>2020-12-27T09:11:37Z</time>
      </trkpt>
      <trkpt lat="45.0706" lon="0.68096">
        <ele>228.60000610352</ele>
        <time>2020-12-27T09:11:41Z</time>
      </trkpt>
      <trkpt lat="45.07045" lon="0.68098">
        <ele>228.60000610352</ele>
        <time>2020-12-27T09:11:44Z</time>
      </trkpt>
      <trkpt lat="45.07035" lon="0.681">
        <ele>228.39999389648</ele>
        <time>2020-12-27T09:11:46Z</time>
      </trkpt>
      <trkpt lat="45.07019" lon="0.68102">
        <ele>228.39999389648</ele>
        <time>2020-12-27T09:11:49Z</time>
      </trkpt>
      <trkpt lat="45.06979" lon="0.68097">
        <ele>228.19999694824</ele>
        <time>2020-12-27T09:11:57Z</time>
      </trkpt>
      <trkpt lat="45.06958" lon="0.6809">
        <ele>228</ele>
        <time>2020-12-27T09:12:01Z</time>
      </trkpt>
      <trkpt lat="45.06942" lon="0.68084">
        <ele>227.60000610352</ele>
        <time>2020-12-27T09:12:04Z</time>
      </trkpt>
      <trkpt lat="45.06936" lon="0.68084">
        <ele>227.60000610352</ele>
        <time>2020-12-27T09:12:05Z</time>
      </trkpt>
      <trkpt lat="45.06919" lon="0.6809">
        <ele>227.39999389648</ele>
        <time>2020-12-27T09:12:08Z</time>
      </trkpt>
      <trkpt lat="45.06883" lon="0.68102">
        <ele>227</ele>
        <time>2020-12-27T09:12:14Z</time>
      </trkpt>
      <trkpt lat="45.06866" lon="0.68108">
        <ele>226.80000305176</ele>
        <time>2020-12-27T09:12:17Z</time>
      </trkpt>
      <trkpt lat="45.0686" lon="0.68106">
        <ele>226.80000305176</ele>
        <time>2020-12-27T09:12:19Z</time>
      </trkpt>
      <trkpt lat="45.06861" lon="0.68095">
        <ele>226.39999389648</ele>
        <time>2020-12-27T09:12:21Z</time>
      </trkpt>
      <trkpt lat="45.06869" lon="0.68078">
        <ele>226</ele>
        <time>2020-12-27T09:12:24Z</time>
      </trkpt>
      <trkpt lat="45.06873" lon="0.68072">
        <ele>226</ele>
        <time>2020-12-27T09:12:25Z</time>
      </trkpt>
      <trkpt lat="45.06882" lon="0.68052">
        <ele>225.80000305176</ele>
        <time>2020-12-27T09:12:28Z</time>
      </trkpt>
      <trkpt lat="45.06891" lon="0.6803">
        <ele>225.80000305176</ele>
        <time>2020-12-27T09:12:31Z</time>
      </trkpt>
      <trkpt lat="45.06909" lon="0.67991">
        <ele>225.39999389648</ele>
        <time>2020-12-27T09:12:36Z</time>
      </trkpt>
      <trkpt lat="45.06922" lon="0.67955">
        <ele>225.19999694824</ele>
        <time>2020-12-27T09:12:40Z</time>
      </trkpt>
      <trkpt lat="45.06923" lon="0.67945">
        <ele>225.19999694824</ele>
        <time>2020-12-27T09:12:41Z</time>
      </trkpt>
      <trkpt lat="45.06918" lon="0.6792">
        <ele>225.39999389648</ele>
        <time>2020-12-27T09:12:44Z</time>
      </trkpt>
      <trkpt lat="45.06904" lon="0.67898">
        <ele>225.39999389648</ele>
        <time>2020-12-27T09:12:48Z</time>
      </trkpt>
      <trkpt lat="45.069" lon="0.67887">
        <ele>225.19999694824</ele>
        <time>2020-12-27T09:12:50Z</time>
      </trkpt>
      <trkpt lat="45.06893" lon="0.67872">
        <ele>225.19999694824</ele>
        <time>2020-12-27T09:12:53Z</time>
      </trkpt>
      <trkpt lat="45.06881" lon="0.67852">
        <ele>225.19999694824</ele>
        <time>2020-12-27T09:12:57Z</time>
      </trkpt>
      <trkpt lat="45.06879" lon="0.67846">
        <ele>225</ele>
        <time>2020-12-27T09:12:58Z</time>
      </trkpt>
      <trkpt lat="45.06866" lon="0.67808">
        <ele>224.80000305176</ele>
        <time>2020-12-27T09:13:05Z</time>
      </trkpt>
      <trkpt lat="45.06863" lon="0.67796">
        <ele>224.80000305176</ele>
        <time>2020-12-27T09:13:07Z</time>
      </trkpt>
      <trkpt lat="45.06858" lon="0.67767">
        <ele>224.60000610352</ele>
        <time>2020-12-27T09:13:11Z</time>
      </trkpt>
      <trkpt lat="45.06857" lon="0.67752">
        <ele>224</ele>
        <time>2020-12-27T09:13:13Z</time>
      </trkpt>
      <trkpt lat="45.06857" lon="0.67743">
        <ele>223.60000610352</ele>
        <time>2020-12-27T09:13:14Z</time>
      </trkpt>
      <trkpt lat="45.06857" lon="0.67735">
        <ele>223.19999694824</ele>
        <time>2020-12-27T09:13:15Z</time>
      </trkpt>
      <trkpt lat="45.06854" lon="0.67718">
        <ele>222.60000610352</ele>
        <time>2020-12-27T09:13:17Z</time>
      </trkpt>
      <trkpt lat="45.06847" lon="0.67705">
        <ele>221.80000305176</ele>
        <time>2020-12-27T09:13:19Z</time>
      </trkpt>
      <trkpt lat="45.06845" lon="0.67698">
        <ele>221.60000610352</ele>
        <time>2020-12-27T09:13:20Z</time>
      </trkpt>
      <trkpt lat="45.06843" lon="0.67679">
        <ele>221</ele>
        <time>2020-12-27T09:13:23Z</time>
      </trkpt>
      <trkpt lat="45.06846" lon="0.67664">
        <ele>220.60000610352</ele>
        <time>2020-12-27T09:13:26Z</time>
      </trkpt>
      <trkpt lat="45.06847" lon="0.67658">
        <ele>220.39999389648</ele>
        <time>2020-12-27T09:13:27Z</time>
      </trkpt>
      <trkpt lat="45.06849" lon="0.67649">
        <ele>220.19999694824</ele>
        <time>2020-12-27T09:13:29Z</time>
      </trkpt>
      <trkpt lat="45.06858" lon="0.67614">
        <ele>219.60000610352</ele>
        <time>2020-12-27T09:13:36Z</time>
      </trkpt>
      <trkpt lat="45.0686" lon="0.67609">
        <ele>219.39999389648</ele>
        <time>2020-12-27T09:13:37Z</time>
      </trkpt>
      <trkpt lat="45.06863" lon="0.67588">
        <ele>218.80000305176</ele>
        <time>2020-12-27T09:13:41Z</time>
      </trkpt>
      <trkpt lat="45.06862" lon="0.67566">
        <ele>218.19999694824</ele>
        <time>2020-12-27T09:13:45Z</time>
      </trkpt>
      <trkpt lat="45.06861" lon="0.67561">
        <ele>218</ele>
        <time>2020-12-27T09:13:46Z</time>
      </trkpt>
      <trkpt lat="45.06856" lon="0.67532">
        <ele>217.19999694824</ele>
        <time>2020-12-27T09:13:52Z</time>
      </trkpt>
      <trkpt lat="45.06851" lon="0.67505">
        <ele>216.80000305176</ele>
        <time>2020-12-27T09:13:58Z</time>
      </trkpt>
      <trkpt lat="45.06845" lon="0.67485">
        <ele>217</ele>
        <time>2020-12-27T09:14:03Z</time>
      </trkpt>
      <trkpt lat="45.06833" lon="0.67459">
        <ele>217.60000610352</ele>
        <time>2020-12-27T09:14:10Z</time>
      </trkpt>
      <trkpt lat="45.06826" lon="0.67439">
        <ele>217.80000305176</ele>
        <time>2020-12-27T09:14:16Z</time>
      </trkpt>
      <trkpt lat="45.06823" lon="0.67426">
        <ele>218.19999694824</ele>
        <time>2020-12-27T09:14:20Z</time>
      </trkpt>
      <trkpt lat="45.0682" lon="0.67418">
        <ele>218.19999694824</ele>
        <time>2020-12-27T09:14:23Z</time>
      </trkpt>
      <trkpt lat="45.06813" lon="0.67397">
        <ele>217.60000610352</ele>
        <time>2020-12-27T09:14:30Z</time>
      </trkpt>
      <trkpt lat="45.06808" lon="0.67381">
        <ele>218.19999694824</ele>
        <time>2020-12-27T09:14:37Z</time>
      </trkpt>
      <trkpt lat="45.06806" lon="0.67365">
        <ele>218.80000305176</ele>
        <time>2020-12-27T09:14:45Z</time>
      </trkpt>
      <trkpt lat="45.06802" lon="0.67358">
        <ele>219.19999694824</ele>
        <time>2020-12-27T09:14:48Z</time>
      </trkpt>
      <trkpt lat="45.06796" lon="0.67349">
        <ele>219.80000305176</ele>
        <time>2020-12-27T09:14:51Z</time>
      </trkpt>
      <trkpt lat="45.06778" lon="0.67327">
        <ele>220</ele>
        <time>2020-12-27T09:14:58Z</time>
      </trkpt>
      <trkpt lat="45.06777" lon="0.67323">
        <ele>220</ele>
        <time>2020-12-27T09:14:59Z</time>
      </trkpt>
      <trkpt lat="45.0678" lon="0.67318">
        <ele>220</ele>
        <time>2020-12-27T09:15:01Z</time>
      </trkpt>
      <trkpt lat="45.06788" lon="0.67319">
        <ele>220</ele>
        <time>2020-12-27T09:15:05Z</time>
      </trkpt>
      <trkpt lat="45.0679" lon="0.6732">
        <ele>220</ele>
        <time>2020-12-27T09:15:06Z</time>
      </trkpt>
      <trkpt lat="45.06799" lon="0.67322">
        <ele>220.19999694824</ele>
        <time>2020-12-27T09:15:10Z</time>
      </trkpt>
      <trkpt lat="45.06804" lon="0.67323">
        <ele>220.60000610352</ele>
        <time>2020-12-27T09:15:12Z</time>
      </trkpt>
      <trkpt lat="45.06822" lon="0.67327">
        <ele>220</ele>
        <time>2020-12-27T09:15:20Z</time>
      </trkpt>
      <trkpt lat="45.06836" lon="0.6733">
        <ele>220.19999694824</ele>
        <time>2020-12-27T09:15:27Z</time>
      </trkpt>
      <trkpt lat="45.06858" lon="0.67334">
        <ele>221</ele>
        <time>2020-12-27T09:15:34Z</time>
      </trkpt>
      <trkpt lat="45.06887" lon="0.67338">
        <ele>220.39999389648</ele>
        <time>2020-12-27T09:15:44Z</time>
      </trkpt>
      <trkpt lat="45.06909" lon="0.67337">
        <ele>221</ele>
        <time>2020-12-27T09:15:51Z</time>
      </trkpt>
      <trkpt lat="45.06916" lon="0.67336">
        <ele>221.19999694824</ele>
        <time>2020-12-27T09:15:53Z</time>
      </trkpt>
      <trkpt lat="45.06937" lon="0.67334">
        <ele>221.60000610352</ele>
        <time>2020-12-27T09:15:58Z</time>
      </trkpt>
      <trkpt lat="45.06965" lon="0.67333">
        <ele>221.19999694824</ele>
        <time>2020-12-27T09:16:05Z</time>
      </trkpt>
      <trkpt lat="45.06985" lon="0.67335">
        <ele>220.19999694824</ele>
        <time>2020-12-27T09:16:10Z</time>
      </trkpt>
      <trkpt lat="45.07001" lon="0.67337">
        <ele>219.19999694824</ele>
        <time>2020-12-27T09:16:14Z</time>
      </trkpt>
      <trkpt lat="45.07006" lon="0.67337">
        <ele>218.80000305176</ele>
        <time>2020-12-27T09:16:15Z</time>
      </trkpt>
      <trkpt lat="45.0702" lon="0.67337">
        <ele>217.80000305176</ele>
        <time>2020-12-27T09:16:18Z</time>
      </trkpt>
      <trkpt lat="45.07032" lon="0.67338">
        <ele>217</ele>
        <time>2020-12-27T09:16:20Z</time>
      </trkpt>
      <trkpt lat="45.07039" lon="0.6734">
        <ele>216.60000610352</ele>
        <time>2020-12-27T09:16:21Z</time>
      </trkpt>
      <trkpt lat="45.07053" lon="0.67349">
        <ele>215.80000305176</ele>
        <time>2020-12-27T09:16:23Z</time>
      </trkpt>
      <trkpt lat="45.0706" lon="0.67354">
        <ele>215.39999389648</ele>
        <time>2020-12-27T09:16:24Z</time>
      </trkpt>
      <trkpt lat="45.07083" lon="0.6737">
        <ele>214</ele>
        <time>2020-12-27T09:16:27Z</time>
      </trkpt>
      <trkpt lat="45.07099" lon="0.6738">
        <ele>213</ele>
        <time>2020-12-27T09:16:29Z</time>
      </trkpt>
      <trkpt lat="45.07107" lon="0.67386">
        <ele>212.60000610352</ele>
        <time>2020-12-27T09:16:30Z</time>
      </trkpt>
      <trkpt lat="45.07115" lon="0.67393">
        <ele>212.19999694824</ele>
        <time>2020-12-27T09:16:31Z</time>
      </trkpt>
      <trkpt lat="45.07131" lon="0.67408">
        <ele>211.19999694824</ele>
        <time>2020-12-27T09:16:33Z</time>
      </trkpt>
      <trkpt lat="45.07139" lon="0.67415">
        <ele>210.80000305176</ele>
        <time>2020-12-27T09:16:34Z</time>
      </trkpt>
      <trkpt lat="45.07156" lon="0.67427">
        <ele>209.80000305176</ele>
        <time>2020-12-27T09:16:36Z</time>
      </trkpt>
      <trkpt lat="45.0718" lon="0.67445">
        <ele>208.39999389648</ele>
        <time>2020-12-27T09:16:39Z</time>
      </trkpt>
      <trkpt lat="45.072" lon="0.67469">
        <ele>207</ele>
        <time>2020-12-27T09:16:42Z</time>
      </trkpt>
      <trkpt lat="45.07207" lon="0.67474">
        <ele>206.80000305176</ele>
        <time>2020-12-27T09:16:43Z</time>
      </trkpt>
      <trkpt lat="45.07217" lon="0.67474">
        <ele>206.39999389648</ele>
        <time>2020-12-27T09:16:45Z</time>
      </trkpt>
      <trkpt lat="45.07226" lon="0.67467">
        <ele>206.39999389648</ele>
        <time>2020-12-27T09:16:48Z</time>
      </trkpt>
      <trkpt lat="45.07228" lon="0.67465">
        <ele>206.39999389648</ele>
        <time>2020-12-27T09:16:49Z</time>
      </trkpt>
      <trkpt lat="45.07237" lon="0.67457">
        <ele>206.80000305176</ele>
        <time>2020-12-27T09:16:53Z</time>
      </trkpt>
      <trkpt lat="45.0725" lon="0.67446">
        <ele>208.39999389648</ele>
        <time>2020-12-27T09:16:58Z</time>
      </trkpt>
      <trkpt lat="45.07263" lon="0.67437">
        <ele>209.39999389648</ele>
        <time>2020-12-27T09:17:03Z</time>
      </trkpt>
      <trkpt lat="45.07276" lon="0.67428">
        <ele>210.60000610352</ele>
        <time>2020-12-27T09:17:08Z</time>
      </trkpt>
      <trkpt lat="45.07281" lon="0.67425">
        <ele>211</ele>
        <time>2020-12-27T09:17:10Z</time>
      </trkpt>
      <trkpt lat="45.07296" lon="0.67414">
        <ele>211.19999694824</ele>
        <time>2020-12-27T09:17:16Z</time>
      </trkpt>
      <trkpt lat="45.07303" lon="0.6741">
        <ele>211.60000610352</ele>
        <time>2020-12-27T09:17:19Z</time>
      </trkpt>
      <trkpt lat="45.07311" lon="0.67405">
        <ele>211.39999389648</ele>
        <time>2020-12-27T09:17:23Z</time>
      </trkpt>
      <trkpt lat="45.07319" lon="0.674">
        <ele>211.19999694824</ele>
        <time>2020-12-27T09:17:29Z</time>
      </trkpt>
      <trkpt lat="45.07319" lon="0.67397">
        <ele>211</ele>
        <time>2020-12-27T09:17:31Z</time>
      </trkpt>
      <trkpt lat="45.07318" lon="0.67395">
        <ele>211.19999694824</ele>
        <time>2020-12-27T09:17:33Z</time>
      </trkpt>
      <trkpt lat="45.07317" lon="0.67396">
        <ele>211.19999694824</ele>
        <time>2020-12-27T09:17:34Z</time>
      </trkpt>
      <trkpt lat="45.07321" lon="0.67399">
        <ele>213.19999694824</ele>
        <time>2020-12-27T09:22:56Z</time>
      </trkpt>
      <trkpt lat="45.07325" lon="0.67395">
        <ele>213.80000305176</ele>
        <time>2020-12-27T09:22:59Z</time>
      </trkpt>
      <trkpt lat="45.07327" lon="0.67394">
        <ele>213.80000305176</ele>
        <time>2020-12-27T09:23:00Z</time>
      </trkpt>
      <trkpt lat="45.07336" lon="0.6739">
        <ele>213.19999694824</ele>
        <time>2020-12-27T09:23:03Z</time>
      </trkpt>
      <trkpt lat="45.07348" lon="0.67386">
        <ele>212</ele>
        <time>2020-12-27T09:23:06Z</time>
      </trkpt>
      <trkpt lat="45.07358" lon="0.6738">
        <ele>211</ele>
        <time>2020-12-27T09:23:08Z</time>
      </trkpt>
      <trkpt lat="45.07364" lon="0.67377">
        <ele>210.60000610352</ele>
        <time>2020-12-27T09:23:09Z</time>
      </trkpt>
      <trkpt lat="45.07377" lon="0.67365">
        <ele>209.19999694824</ele>
        <time>2020-12-27T09:23:12Z</time>
      </trkpt>
      <trkpt lat="45.07386" lon="0.67357">
        <ele>208.39999389648</ele>
        <time>2020-12-27T09:23:14Z</time>
      </trkpt>
      <trkpt lat="45.07391" lon="0.67352">
        <ele>208.19999694824</ele>
        <time>2020-12-27T09:23:15Z</time>
      </trkpt>
      <trkpt lat="45.07405" lon="0.67338">
        <ele>207</ele>
        <time>2020-12-27T09:23:18Z</time>
      </trkpt>
      <trkpt lat="45.07412" lon="0.67327">
        <ele>206.19999694824</ele>
        <time>2020-12-27T09:23:20Z</time>
      </trkpt>
      <trkpt lat="45.07415" lon="0.67322">
        <ele>205.80000305176</ele>
        <time>2020-12-27T09:23:21Z</time>
      </trkpt>
      <trkpt lat="45.07421" lon="0.67311">
        <ele>205</ele>
        <time>2020-12-27T09:23:23Z</time>
      </trkpt>
      <trkpt lat="45.07423" lon="0.67306">
        <ele>204.60000610352</ele>
        <time>2020-12-27T09:23:24Z</time>
      </trkpt>
      <trkpt lat="45.07426" lon="0.67301">
        <ele>204.19999694824</ele>
        <time>2020-12-27T09:23:25Z</time>
      </trkpt>
      <trkpt lat="45.0743" lon="0.67292">
        <ele>203.60000610352</ele>
        <time>2020-12-27T09:23:27Z</time>
      </trkpt>
      <trkpt lat="45.07435" lon="0.67283">
        <ele>202.80000305176</ele>
        <time>2020-12-27T09:23:29Z</time>
      </trkpt>
      <trkpt lat="45.07438" lon="0.67279">
        <ele>202.39999389648</ele>
        <time>2020-12-27T09:23:30Z</time>
      </trkpt>
      <trkpt lat="45.07444" lon="0.67269">
        <ele>201.60000610352</ele>
        <time>2020-12-27T09:23:32Z</time>
      </trkpt>
      <trkpt lat="45.07448" lon="0.67265">
        <ele>201</ele>
        <time>2020-12-27T09:23:33Z</time>
      </trkpt>
      <trkpt lat="45.07459" lon="0.67253">
        <ele>199.80000305176</ele>
        <time>2020-12-27T09:23:36Z</time>
      </trkpt>
      <trkpt lat="45.0747" lon="0.6724">
        <ele>198.60000610352</ele>
        <time>2020-12-27T09:23:39Z</time>
      </trkpt>
      <trkpt lat="45.07473" lon="0.67236">
        <ele>198.19999694824</ele>
        <time>2020-12-27T09:23:40Z</time>
      </trkpt>
      <trkpt lat="45.07483" lon="0.67226">
        <ele>197.39999389648</ele>
        <time>2020-12-27T09:23:43Z</time>
      </trkpt>
      <trkpt lat="45.0749" lon="0.67218">
        <ele>196.39999389648</ele>
        <time>2020-12-27T09:23:46Z</time>
      </trkpt>
      <trkpt lat="45.07491" lon="0.67215">
        <ele>196.19999694824</ele>
        <time>2020-12-27T09:23:47Z</time>
      </trkpt>
      <trkpt lat="45.07488" lon="0.67212">
        <ele>196</ele>
        <time>2020-12-27T09:23:49Z</time>
      </trkpt>
      <trkpt lat="45.07477" lon="0.67202">
        <ele>196</ele>
        <time>2020-12-27T09:23:55Z</time>
      </trkpt>
      <trkpt lat="45.07467" lon="0.67187">
        <ele>197.39999389648</ele>
        <time>2020-12-27T09:24:01Z</time>
      </trkpt>
      <trkpt lat="45.07461" lon="0.67176">
        <ele>198.60000610352</ele>
        <time>2020-12-27T09:24:05Z</time>
      </trkpt>
      <trkpt lat="45.07456" lon="0.67171">
        <ele>199.80000305176</ele>
        <time>2020-12-27T09:24:08Z</time>
      </trkpt>
      <trkpt lat="45.07444" lon="0.67166">
        <ele>200.80000305176</ele>
        <time>2020-12-27T09:24:13Z</time>
      </trkpt>
      <trkpt lat="45.07442" lon="0.67165">
        <ele>200.80000305176</ele>
        <time>2020-12-27T09:24:14Z</time>
      </trkpt>
      <trkpt lat="45.07429" lon="0.67157">
        <ele>201.80000305176</ele>
        <time>2020-12-27T09:24:20Z</time>
      </trkpt>
      <trkpt lat="45.07427" lon="0.67156">
        <ele>202</ele>
        <time>2020-12-27T09:24:21Z</time>
      </trkpt>
      <trkpt lat="45.07423" lon="0.67151">
        <ele>203.19999694824</ele>
        <time>2020-12-27T09:24:23Z</time>
      </trkpt>
      <trkpt lat="45.07419" lon="0.67148">
        <ele>204.80000305176</ele>
        <time>2020-12-27T09:24:25Z</time>
      </trkpt>
      <trkpt lat="45.07415" lon="0.67144">
        <ele>205.60000610352</ele>
        <time>2020-12-27T09:24:27Z</time>
      </trkpt>
      <trkpt lat="45.07413" lon="0.67143">
        <ele>206</ele>
        <time>2020-12-27T09:24:28Z</time>
      </trkpt>
      <trkpt lat="45.07409" lon="0.67139">
        <ele>206.39999389648</ele>
        <time>2020-12-27T09:24:30Z</time>
      </trkpt>
      <trkpt lat="45.07408" lon="0.67137">
        <ele>207.19999694824</ele>
        <time>2020-12-27T09:24:31Z</time>
      </trkpt>
      <trkpt lat="45.07402" lon="0.67131">
        <ele>208.39999389648</ele>
        <time>2020-12-27T09:24:34Z</time>
      </trkpt>
      <trkpt lat="45.07397" lon="0.67126">
        <ele>209.80000305176</ele>
        <time>2020-12-27T09:24:37Z</time>
      </trkpt>
      <trkpt lat="45.07391" lon="0.67121">
        <ele>210.80000305176</ele>
        <time>2020-12-27T09:24:40Z</time>
      </trkpt>
      <trkpt lat="45.07388" lon="0.67119">
        <ele>211.60000610352</ele>
        <time>2020-12-27T09:24:42Z</time>
      </trkpt>
      <trkpt lat="45.07387" lon="0.67118">
        <ele>212</ele>
        <time>2020-12-27T09:24:43Z</time>
      </trkpt>
      <trkpt lat="45.07384" lon="0.67114">
        <ele>213</ele>
        <time>2020-12-27T09:24:45Z</time>
      </trkpt>
      <trkpt lat="45.07383" lon="0.67113">
        <ele>213.60000610352</ele>
        <time>2020-12-27T09:24:46Z</time>
      </trkpt>
      <trkpt lat="45.0738" lon="0.67109">
        <ele>214</ele>
        <time>2020-12-27T09:24:48Z</time>
      </trkpt>
      <trkpt lat="45.07372" lon="0.671">
        <ele>214.60000610352</ele>
        <time>2020-12-27T09:24:52Z</time>
      </trkpt>
      <trkpt lat="45.07367" lon="0.67094">
        <ele>214.80000305176</ele>
        <time>2020-12-27T09:24:55Z</time>
      </trkpt>
      <trkpt lat="45.07361" lon="0.67086">
        <ele>216</ele>
        <time>2020-12-27T09:24:58Z</time>
      </trkpt>
      <trkpt lat="45.07353" lon="0.67075">
        <ele>217</ele>
        <time>2020-12-27T09:25:02Z</time>
      </trkpt>
      <trkpt lat="45.07346" lon="0.6706">
        <ele>218.39999389648</ele>
        <time>2020-12-27T09:25:07Z</time>
      </trkpt>
      <trkpt lat="45.07341" lon="0.67052">
        <ele>219.60000610352</ele>
        <time>2020-12-27T09:25:10Z</time>
      </trkpt>
      <trkpt lat="45.07339" lon="0.67047">
        <ele>220.39999389648</ele>
        <time>2020-12-27T09:25:12Z</time>
      </trkpt>
      <trkpt lat="45.07337" lon="0.67042">
        <ele>221</ele>
        <time>2020-12-27T09:25:14Z</time>
      </trkpt>
      <trkpt lat="45.07333" lon="0.67031">
        <ele>222.39999389648</ele>
        <time>2020-12-27T09:25:18Z</time>
      </trkpt>
      <trkpt lat="45.07329" lon="0.67023">
        <ele>223.39999389648</ele>
        <time>2020-12-27T09:25:21Z</time>
      </trkpt>
      <trkpt lat="45.07328" lon="0.6702">
        <ele>223.60000610352</ele>
        <time>2020-12-27T09:25:22Z</time>
      </trkpt>
      <trkpt lat="45.07318" lon="0.67">
        <ele>224.39999389648</ele>
        <time>2020-12-27T09:25:29Z</time>
      </trkpt>
      <trkpt lat="45.07313" lon="0.66991">
        <ele>224.80000305176</ele>
        <time>2020-12-27T09:25:32Z</time>
      </trkpt>
      <trkpt lat="45.07304" lon="0.66972">
        <ele>224.80000305176</ele>
        <time>2020-12-27T09:25:38Z</time>
      </trkpt>
      <trkpt lat="45.07296" lon="0.66954">
        <ele>225.80000305176</ele>
        <time>2020-12-27T09:25:43Z</time>
      </trkpt>
      <trkpt lat="45.07289" lon="0.66939">
        <ele>226</ele>
        <time>2020-12-27T09:25:47Z</time>
      </trkpt>
      <trkpt lat="45.07282" lon="0.66925">
        <ele>225.80000305176</ele>
        <time>2020-12-27T09:25:52Z</time>
      </trkpt>
      <trkpt lat="45.07279" lon="0.66919">
        <ele>225.19999694824</ele>
        <time>2020-12-27T09:27:49Z</time>
      </trkpt>
      <trkpt lat="45.07278" lon="0.66916">
        <ele>225</ele>
        <time>2020-12-27T09:27:50Z</time>
      </trkpt>
      <trkpt lat="45.07277" lon="0.66914">
        <ele>224.80000305176</ele>
        <time>2020-12-27T09:27:51Z</time>
      </trkpt>
      <trkpt lat="45.07269" lon="0.66899">
        <ele>223.80000305176</ele>
        <time>2020-12-27T09:27:56Z</time>
      </trkpt>
      <trkpt lat="45.07268" lon="0.66896">
        <ele>223.80000305176</ele>
        <time>2020-12-27T09:27:57Z</time>
      </trkpt>
      <trkpt lat="45.07257" lon="0.66875">
        <ele>222.60000610352</ele>
        <time>2020-12-27T09:28:03Z</time>
      </trkpt>
      <trkpt lat="45.07255" lon="0.66871">
        <ele>222.60000610352</ele>
        <time>2020-12-27T09:28:04Z</time>
      </trkpt>
      <trkpt lat="45.07244" lon="0.66845">
        <ele>222</ele>
        <time>2020-12-27T09:28:10Z</time>
      </trkpt>
      <trkpt lat="45.07239" lon="0.66836">
        <ele>221.60000610352</ele>
        <time>2020-12-27T09:28:12Z</time>
      </trkpt>
      <trkpt lat="45.07225" lon="0.66805">
        <ele>220.60000610352</ele>
        <time>2020-12-27T09:28:18Z</time>
      </trkpt>
      <trkpt lat="45.07205" lon="0.66762">
        <ele>219.39999389648</ele>
        <time>2020-12-27T09:28:26Z</time>
      </trkpt>
      <trkpt lat="45.07197" lon="0.66745">
        <ele>219.19999694824</ele>
        <time>2020-12-27T09:28:29Z</time>
      </trkpt>
      <trkpt lat="45.0717" lon="0.66685">
        <ele>218.60000610352</ele>
        <time>2020-12-27T09:28:39Z</time>
      </trkpt>
      <trkpt lat="45.07148" lon="0.66637">
        <ele>219.19999694824</ele>
        <time>2020-12-27T09:28:48Z</time>
      </trkpt>
      <trkpt lat="45.07129" lon="0.66599">
        <ele>220</ele>
        <time>2020-12-27T09:28:56Z</time>
      </trkpt>
      <trkpt lat="45.0712" lon="0.66579">
        <ele>220.39999389648</ele>
        <time>2020-12-27T09:29:00Z</time>
      </trkpt>
      <trkpt lat="45.07108" lon="0.66552">
        <ele>221.60000610352</ele>
        <time>2020-12-27T09:29:05Z</time>
      </trkpt>
      <trkpt lat="45.07096" lon="0.66524">
        <ele>222.80000305176</ele>
        <time>2020-12-27T09:29:10Z</time>
      </trkpt>
      <trkpt lat="45.0709" lon="0.66513">
        <ele>223.19999694824</ele>
        <time>2020-12-27T09:29:12Z</time>
      </trkpt>
      <trkpt lat="45.07065" lon="0.66476">
        <ele>223.60000610352</ele>
        <time>2020-12-27T09:29:19Z</time>
      </trkpt>
      <trkpt lat="45.07034" lon="0.66442">
        <ele>222.60000610352</ele>
        <time>2020-12-27T09:29:25Z</time>
      </trkpt>
      <trkpt lat="45.07014" lon="0.66423">
        <ele>221.60000610352</ele>
        <time>2020-12-27T09:29:28Z</time>
      </trkpt>
      <trkpt lat="45.06993" lon="0.66402">
        <ele>220.39999389648</ele>
        <time>2020-12-27T09:29:31Z</time>
      </trkpt>
      <trkpt lat="45.06978" lon="0.66387">
        <ele>219.19999694824</ele>
        <time>2020-12-27T09:29:33Z</time>
      </trkpt>
      <trkpt lat="45.06964" lon="0.66369">
        <ele>218</ele>
        <time>2020-12-27T09:29:35Z</time>
      </trkpt>
      <trkpt lat="45.06958" lon="0.66359">
        <ele>217.39999389648</ele>
        <time>2020-12-27T09:29:36Z</time>
      </trkpt>
      <trkpt lat="45.06952" lon="0.66347">
        <ele>216.80000305176</ele>
        <time>2020-12-27T09:29:37Z</time>
      </trkpt>
      <trkpt lat="45.06942" lon="0.66323">
        <ele>215.60000610352</ele>
        <time>2020-12-27T09:29:39Z</time>
      </trkpt>
      <trkpt lat="45.06932" lon="0.66298">
        <ele>214.60000610352</ele>
        <time>2020-12-27T09:29:41Z</time>
      </trkpt>
      <trkpt lat="45.06923" lon="0.66273">
        <ele>213.19999694824</ele>
        <time>2020-12-27T09:29:43Z</time>
      </trkpt>
      <trkpt lat="45.06916" lon="0.66252">
        <ele>212</ele>
        <time>2020-12-27T09:29:45Z</time>
      </trkpt>
      <trkpt lat="45.0691" lon="0.66236">
        <ele>210.80000305176</ele>
        <time>2020-12-27T09:29:47Z</time>
      </trkpt>
      <trkpt lat="45.06908" lon="0.66231">
        <ele>210.19999694824</ele>
        <time>2020-12-27T09:29:48Z</time>
      </trkpt>
      <trkpt lat="45.06909" lon="0.66227">
        <ele>209.80000305176</ele>
        <time>2020-12-27T09:29:49Z</time>
      </trkpt>
      <trkpt lat="45.06914" lon="0.66224">
        <ele>208.60000610352</ele>
        <time>2020-12-27T09:29:51Z</time>
      </trkpt>
      <trkpt lat="45.06922" lon="0.6623">
        <ele>207.39999389648</ele>
        <time>2020-12-27T09:29:54Z</time>
      </trkpt>
      <trkpt lat="45.06929" lon="0.66238">
        <ele>206.80000305176</ele>
        <time>2020-12-27T09:29:56Z</time>
      </trkpt>
      <trkpt lat="45.0694" lon="0.66249">
        <ele>206.19999694824</ele>
        <time>2020-12-27T09:29:59Z</time>
      </trkpt>
      <trkpt lat="45.06948" lon="0.66256">
        <ele>205.60000610352</ele>
        <time>2020-12-27T09:30:01Z</time>
      </trkpt>
      <trkpt lat="45.06955" lon="0.66261">
        <ele>205</ele>
        <time>2020-12-27T09:30:03Z</time>
      </trkpt>
      <trkpt lat="45.06978" lon="0.66276">
        <ele>204.39999389648</ele>
        <time>2020-12-27T09:30:09Z</time>
      </trkpt>
      <trkpt lat="45.06992" lon="0.66286">
        <ele>205.60000610352</ele>
        <time>2020-12-27T09:30:14Z</time>
      </trkpt>
      <trkpt lat="45.06996" lon="0.66289">
        <ele>206</ele>
        <time>2020-12-27T09:30:16Z</time>
      </trkpt>
      <trkpt lat="45.07006" lon="0.66299">
        <ele>207</ele>
        <time>2020-12-27T09:30:21Z</time>
      </trkpt>
      <trkpt lat="45.07019" lon="0.66303">
        <ele>208.19999694824</ele>
        <time>2020-12-27T09:30:27Z</time>
      </trkpt>
      <trkpt lat="45.07021" lon="0.66303">
        <ele>208.19999694824</ele>
        <time>2020-12-27T09:30:28Z</time>
      </trkpt>
      <trkpt lat="45.07034" lon="0.66302">
        <ele>209.19999694824</ele>
        <time>2020-12-27T09:30:33Z</time>
      </trkpt>
      <trkpt lat="45.07042" lon="0.66303">
        <ele>209.80000305176</ele>
        <time>2020-12-27T09:30:36Z</time>
      </trkpt>
      <trkpt lat="45.07051" lon="0.66303">
        <ele>210.39999389648</ele>
        <time>2020-12-27T09:30:39Z</time>
      </trkpt>
      <trkpt lat="45.0707" lon="0.66302">
        <ele>211.19999694824</ele>
        <time>2020-12-27T09:30:45Z</time>
      </trkpt>
      <trkpt lat="45.0708" lon="0.66302">
        <ele>211.39999389648</ele>
        <time>2020-12-27T09:30:48Z</time>
      </trkpt>
      <trkpt lat="45.07107" lon="0.66294">
        <ele>212.39999389648</ele>
        <time>2020-12-27T09:30:54Z</time>
      </trkpt>
      <trkpt lat="45.07111" lon="0.66293">
        <ele>212.60000610352</ele>
        <time>2020-12-27T09:30:55Z</time>
      </trkpt>
      <trkpt lat="45.07134" lon="0.66285">
        <ele>213.19999694824</ele>
        <time>2020-12-27T09:31:01Z</time>
      </trkpt>
      <trkpt lat="45.07156" lon="0.6627">
        <ele>213</ele>
        <time>2020-12-27T09:31:07Z</time>
      </trkpt>
      <trkpt lat="45.07166" lon="0.66254">
        <ele>212.39999389648</ele>
        <time>2020-12-27T09:31:12Z</time>
      </trkpt>
      <trkpt lat="45.07175" lon="0.66237">
        <ele>213</ele>
        <time>2020-12-27T09:31:18Z</time>
      </trkpt>
      <trkpt lat="45.0718" lon="0.66227">
        <ele>212</ele>
        <time>2020-12-27T09:31:23Z</time>
      </trkpt>
      <trkpt lat="45.07191" lon="0.66209">
        <ele>211.39999389648</ele>
        <time>2020-12-27T09:31:31Z</time>
      </trkpt>
      <trkpt lat="45.07203" lon="0.66196">
        <ele>212.80000305176</ele>
        <time>2020-12-27T09:31:38Z</time>
      </trkpt>
      <trkpt lat="45.07213" lon="0.66185">
        <ele>213.39999389648</ele>
        <time>2020-12-27T09:31:45Z</time>
      </trkpt>
      <trkpt lat="45.07216" lon="0.66182">
        <ele>213.60000610352</ele>
        <time>2020-12-27T09:31:47Z</time>
      </trkpt>
      <trkpt lat="45.07222" lon="0.66176">
        <ele>213.39999389648</ele>
        <time>2020-12-27T09:31:51Z</time>
      </trkpt>
      <trkpt lat="45.07226" lon="0.66171">
        <ele>212.80000305176</ele>
        <time>2020-12-27T09:31:53Z</time>
      </trkpt>
      <trkpt lat="45.07241" lon="0.66151">
        <ele>211.80000305176</ele>
        <time>2020-12-27T09:32:01Z</time>
      </trkpt>
      <trkpt lat="45.0725" lon="0.6614">
        <ele>210.39999389648</ele>
        <time>2020-12-27T09:32:05Z</time>
      </trkpt>
      <trkpt lat="45.07255" lon="0.66133">
        <ele>209.39999389648</ele>
        <time>2020-12-27T09:32:07Z</time>
      </trkpt>
      <trkpt lat="45.07258" lon="0.66127">
        <ele>208.80000305176</ele>
        <time>2020-12-27T09:32:09Z</time>
      </trkpt>
      <trkpt lat="45.07265" lon="0.66113">
        <ele>208.19999694824</ele>
        <time>2020-12-27T09:32:13Z</time>
      </trkpt>
      <trkpt lat="45.0727" lon="0.66101">
        <ele>206.80000305176</ele>
        <time>2020-12-27T09:32:16Z</time>
      </trkpt>
      <trkpt lat="45.07276" lon="0.66087">
        <ele>205.39999389648</ele>
        <time>2020-12-27T09:32:19Z</time>
      </trkpt>
      <trkpt lat="45.07281" lon="0.66073">
        <ele>204.39999389648</ele>
        <time>2020-12-27T09:32:23Z</time>
      </trkpt>
      <trkpt lat="45.07283" lon="0.66066">
        <ele>203.39999389648</ele>
        <time>2020-12-27T09:32:25Z</time>
      </trkpt>
      <trkpt lat="45.07285" lon="0.66059">
        <ele>202</ele>
        <time>2020-12-27T09:32:27Z</time>
      </trkpt>
      <trkpt lat="45.0729" lon="0.66041">
        <ele>201.19999694824</ele>
        <time>2020-12-27T09:32:31Z</time>
      </trkpt>
      <trkpt lat="45.07291" lon="0.66037">
        <ele>200.80000305176</ele>
        <time>2020-12-27T09:32:32Z</time>
      </trkpt>
      <trkpt lat="45.07299" lon="0.66027">
        <ele>200</ele>
        <time>2020-12-27T09:32:36Z</time>
      </trkpt>
      <trkpt lat="45.07302" lon="0.66026">
        <ele>199.39999389648</ele>
        <time>2020-12-27T09:32:37Z</time>
      </trkpt>
      <trkpt lat="45.07316" lon="0.66011">
        <ele>198</ele>
        <time>2020-12-27T09:32:43Z</time>
      </trkpt>
      <trkpt lat="45.07324" lon="0.66">
        <ele>197</ele>
        <time>2020-12-27T09:32:47Z</time>
      </trkpt>
      <trkpt lat="45.07334" lon="0.65987">
        <ele>195.80000305176</ele>
        <time>2020-12-27T09:32:51Z</time>
      </trkpt>
      <trkpt lat="45.07344" lon="0.65973">
        <ele>194.19999694824</ele>
        <time>2020-12-27T09:32:55Z</time>
      </trkpt>
      <trkpt lat="45.07348" lon="0.65966">
        <ele>193.39999389648</ele>
        <time>2020-12-27T09:32:57Z</time>
      </trkpt>
      <trkpt lat="45.07352" lon="0.65959">
        <ele>193</ele>
        <time>2020-12-27T09:32:59Z</time>
      </trkpt>
      <trkpt lat="45.07367" lon="0.65934">
        <ele>192.80000305176</ele>
        <time>2020-12-27T09:33:05Z</time>
      </trkpt>
      <trkpt lat="45.07384" lon="0.65911">
        <ele>192</ele>
        <time>2020-12-27T09:33:11Z</time>
      </trkpt>
      <trkpt lat="45.07387" lon="0.65908">
        <ele>191.80000305176</ele>
        <time>2020-12-27T09:33:12Z</time>
      </trkpt>
      <trkpt lat="45.07397" lon="0.65897">
        <ele>193.39999389648</ele>
        <time>2020-12-27T09:33:15Z</time>
      </trkpt>
      <trkpt lat="45.07405" lon="0.65889">
        <ele>194.60000610352</ele>
        <time>2020-12-27T09:33:17Z</time>
      </trkpt>
      <trkpt lat="45.07413" lon="0.6588">
        <ele>195.80000305176</ele>
        <time>2020-12-27T09:33:19Z</time>
      </trkpt>
      <trkpt lat="45.07432" lon="0.6586">
        <ele>197.19999694824</ele>
        <time>2020-12-27T09:33:24Z</time>
      </trkpt>
      <trkpt lat="45.07445" lon="0.65848">
        <ele>198.60000610352</ele>
        <time>2020-12-27T09:33:28Z</time>
      </trkpt>
      <trkpt lat="45.07463" lon="0.65844">
        <ele>199.39999389648</ele>
        <time>2020-12-27T09:33:33Z</time>
      </trkpt>
      <trkpt lat="45.0748" lon="0.65846">
        <ele>199.39999389648</ele>
        <time>2020-12-27T09:33:38Z</time>
      </trkpt>
      <trkpt lat="45.07483" lon="0.65846">
        <ele>199.60000610352</ele>
        <time>2020-12-27T09:33:39Z</time>
      </trkpt>
      <trkpt lat="45.07503" lon="0.6585">
        <ele>200.60000610352</ele>
        <time>2020-12-27T09:33:45Z</time>
      </trkpt>
      <trkpt lat="45.07506" lon="0.65851">
        <ele>200.80000305176</ele>
        <time>2020-12-27T09:33:46Z</time>
      </trkpt>
      <trkpt lat="45.07525" lon="0.65852">
        <ele>201.39999389648</ele>
        <time>2020-12-27T09:33:51Z</time>
      </trkpt>
      <trkpt lat="45.07556" lon="0.6585">
        <ele>200.80000305176</ele>
        <time>2020-12-27T09:33:58Z</time>
      </trkpt>
      <trkpt lat="45.0757" lon="0.65849">
        <ele>202</ele>
        <time>2020-12-27T09:34:01Z</time>
      </trkpt>
      <trkpt lat="45.07578" lon="0.65849">
        <ele>203.60000610352</ele>
        <time>2020-12-27T09:34:03Z</time>
      </trkpt>
      <trkpt lat="45.07586" lon="0.65846">
        <ele>205.39999389648</ele>
        <time>2020-12-27T09:34:05Z</time>
      </trkpt>
      <trkpt lat="45.0759" lon="0.65845">
        <ele>206.60000610352</ele>
        <time>2020-12-27T09:34:06Z</time>
      </trkpt>
      <trkpt lat="45.07594" lon="0.65841">
        <ele>208.19999694824</ele>
        <time>2020-12-27T09:34:07Z</time>
      </trkpt>
      <trkpt lat="45.07598" lon="0.65836">
        <ele>209.19999694824</ele>
        <time>2020-12-27T09:34:08Z</time>
      </trkpt>
      <trkpt lat="45.07601" lon="0.65831">
        <ele>209.80000305176</ele>
        <time>2020-12-27T09:34:09Z</time>
      </trkpt>
      <trkpt lat="45.07604" lon="0.65826">
        <ele>210.19999694824</ele>
        <time>2020-12-27T09:34:10Z</time>
      </trkpt>
      <trkpt lat="45.07616" lon="0.65806">
        <ele>211.60000610352</ele>
        <time>2020-12-27T09:34:14Z</time>
      </trkpt>
      <trkpt lat="45.07626" lon="0.65791">
        <ele>211.60000610352</ele>
        <time>2020-12-27T09:34:17Z</time>
      </trkpt>
      <trkpt lat="45.07648" lon="0.65748">
        <ele>210.39999389648</ele>
        <time>2020-12-27T09:34:24Z</time>
      </trkpt>
      <trkpt lat="45.07664" lon="0.6571">
        <ele>209.39999389648</ele>
        <time>2020-12-27T09:34:29Z</time>
      </trkpt>
      <trkpt lat="45.07667" lon="0.65702">
        <ele>209.39999389648</ele>
        <time>2020-12-27T09:34:30Z</time>
      </trkpt>
      <trkpt lat="45.07678" lon="0.65675">
        <ele>208.39999389648</ele>
        <time>2020-12-27T09:34:34Z</time>
      </trkpt>
      <trkpt lat="45.0768" lon="0.65672">
        <ele>208</ele>
        <time>2020-12-27T09:34:35Z</time>
      </trkpt>
      <trkpt lat="45.07683" lon="0.65672">
        <ele>207.80000305176</ele>
        <time>2020-12-27T09:34:36Z</time>
      </trkpt>
      <trkpt lat="45.07689" lon="0.65679">
        <ele>207.39999389648</ele>
        <time>2020-12-27T09:34:38Z</time>
      </trkpt>
      <trkpt lat="45.07694" lon="0.65687">
        <ele>207.19999694824</ele>
        <time>2020-12-27T09:34:40Z</time>
      </trkpt>
      <trkpt lat="45.07708" lon="0.65705">
        <ele>207</ele>
        <time>2020-12-27T09:34:44Z</time>
      </trkpt>
      <trkpt lat="45.07712" lon="0.6571">
        <ele>207</ele>
        <time>2020-12-27T09:34:45Z</time>
      </trkpt>
      <trkpt lat="45.07729" lon="0.6573">
        <ele>206.39999389648</ele>
        <time>2020-12-27T09:34:49Z</time>
      </trkpt>
      <trkpt lat="45.07733" lon="0.65737">
        <ele>206.19999694824</ele>
        <time>2020-12-27T09:34:50Z</time>
      </trkpt>
      <trkpt lat="45.07744" lon="0.65742">
        <ele>206</ele>
        <time>2020-12-27T09:34:52Z</time>
      </trkpt>
      <trkpt lat="45.07753" lon="0.6573">
        <ele>205.19999694824</ele>
        <time>2020-12-27T09:34:55Z</time>
      </trkpt>
      <trkpt lat="45.07757" lon="0.65721">
        <ele>205.19999694824</ele>
        <time>2020-12-27T09:34:56Z</time>
      </trkpt>
      <trkpt lat="45.07762" lon="0.657">
        <ele>205</ele>
        <time>2020-12-27T09:34:58Z</time>
      </trkpt>
      <trkpt lat="45.07774" lon="0.65657">
        <ele>204</ele>
        <time>2020-12-27T09:35:02Z</time>
      </trkpt>
      <trkpt lat="45.07778" lon="0.65636">
        <ele>203.19999694824</ele>
        <time>2020-12-27T09:35:04Z</time>
      </trkpt>
      <trkpt lat="45.07782" lon="0.65624">
        <ele>202.80000305176</ele>
        <time>2020-12-27T09:35:05Z</time>
      </trkpt>
      <trkpt lat="45.07791" lon="0.65591">
        <ele>201.60000610352</ele>
        <time>2020-12-27T09:35:08Z</time>
      </trkpt>
      <trkpt lat="45.07799" lon="0.65562">
        <ele>200.19999694824</ele>
        <time>2020-12-27T09:35:11Z</time>
      </trkpt>
      <trkpt lat="45.07807" lon="0.65554">
        <ele>199.19999694824</ele>
        <time>2020-12-27T09:35:13Z</time>
      </trkpt>
      <trkpt lat="45.07812" lon="0.65554">
        <ele>198.80000305176</ele>
        <time>2020-12-27T09:35:14Z</time>
      </trkpt>
      <trkpt lat="45.07824" lon="0.65554">
        <ele>197.60000610352</ele>
        <time>2020-12-27T09:35:16Z</time>
      </trkpt>
      <trkpt lat="45.07837" lon="0.65556">
        <ele>196.60000610352</ele>
        <time>2020-12-27T09:35:18Z</time>
      </trkpt>
      <trkpt lat="45.07843" lon="0.65557">
        <ele>196.39999389648</ele>
        <time>2020-12-27T09:35:19Z</time>
      </trkpt>
      <trkpt lat="45.07855" lon="0.6556">
        <ele>195.80000305176</ele>
        <time>2020-12-27T09:35:21Z</time>
      </trkpt>
      <trkpt lat="45.07871" lon="0.65561">
        <ele>195.39999389648</ele>
        <time>2020-12-27T09:35:24Z</time>
      </trkpt>
      <trkpt lat="45.07877" lon="0.6556">
        <ele>195.19999694824</ele>
        <time>2020-12-27T09:35:25Z</time>
      </trkpt>
      <trkpt lat="45.07888" lon="0.65556">
        <ele>194.80000305176</ele>
        <time>2020-12-27T09:35:27Z</time>
      </trkpt>
      <trkpt lat="45.07914" lon="0.6555">
        <ele>194.39999389648</ele>
        <time>2020-12-27T09:35:31Z</time>
      </trkpt>
      <trkpt lat="45.07921" lon="0.65547">
        <ele>194.19999694824</ele>
        <time>2020-12-27T09:35:32Z</time>
      </trkpt>
      <trkpt lat="45.07928" lon="0.65544">
        <ele>194.19999694824</ele>
        <time>2020-12-27T09:35:33Z</time>
      </trkpt>
      <trkpt lat="45.0798" lon="0.65521">
        <ele>194.60000610352</ele>
        <time>2020-12-27T09:35:41Z</time>
      </trkpt>
      <trkpt lat="45.08024" lon="0.65501">
        <ele>194.80000305176</ele>
        <time>2020-12-27T09:35:47Z</time>
      </trkpt>
      <trkpt lat="45.08038" lon="0.6549">
        <ele>194.80000305176</ele>
        <time>2020-12-27T09:35:49Z</time>
      </trkpt>
      <trkpt lat="45.0805" lon="0.65476">
        <ele>194.60000610352</ele>
        <time>2020-12-27T09:35:51Z</time>
      </trkpt>
      <trkpt lat="45.08078" lon="0.65446">
        <ele>194.39999389648</ele>
        <time>2020-12-27T09:35:56Z</time>
      </trkpt>
      <trkpt lat="45.08092" lon="0.6542">
        <ele>193.39999389648</ele>
        <time>2020-12-27T09:36:00Z</time>
      </trkpt>
      <trkpt lat="45.08093" lon="0.65416">
        <ele>192.80000305176</ele>
        <time>2020-12-27T09:36:01Z</time>
      </trkpt>
      <trkpt lat="45.08094" lon="0.65415">
        <ele>192.60000610352</ele>
        <time>2020-12-27T09:36:02Z</time>
      </trkpt>
      <trkpt lat="45.08095" lon="0.65415">
        <ele>192.39999389648</ele>
        <time>2020-12-27T09:36:03Z</time>
      </trkpt>
      <trkpt lat="45.08095" lon="0.65417">
        <ele>191.80000305176</ele>
        <time>2020-12-27T09:36:05Z</time>
      </trkpt>
      <trkpt lat="45.08095" lon="0.65423">
        <ele>191</ele>
        <time>2020-12-27T09:36:07Z</time>
      </trkpt>
      <trkpt lat="45.08094" lon="0.65427">
        <ele>190.60000610352</ele>
        <time>2020-12-27T09:36:08Z</time>
      </trkpt>
      <trkpt lat="45.08091" lon="0.65436">
        <ele>189.39999389648</ele>
        <time>2020-12-27T09:36:10Z</time>
      </trkpt>
      <trkpt lat="45.08089" lon="0.65445">
        <ele>188.39999389648</ele>
        <time>2020-12-27T09:36:12Z</time>
      </trkpt>
      <trkpt lat="45.08087" lon="0.65454">
        <ele>187</ele>
        <time>2020-12-27T09:36:15Z</time>
      </trkpt>
      <trkpt lat="45.08085" lon="0.6546">
        <ele>186.60000610352</ele>
        <time>2020-12-27T09:36:17Z</time>
      </trkpt>
      <trkpt lat="45.0808" lon="0.65473">
        <ele>186.19999694824</ele>
        <time>2020-12-27T09:36:23Z</time>
      </trkpt>
      <trkpt lat="45.08077" lon="0.65487">
        <ele>186</ele>
        <time>2020-12-27T09:36:29Z</time>
      </trkpt>
      <trkpt lat="45.08068" lon="0.65525">
        <ele>187.80000305176</ele>
        <time>2020-12-27T09:36:48Z</time>
      </trkpt>
      <trkpt lat="45.08065" lon="0.65535">
        <ele>188.39999389648</ele>
        <time>2020-12-27T09:36:51Z</time>
      </trkpt>
      <trkpt lat="45.08064" lon="0.65539">
        <ele>188.80000305176</ele>
        <time>2020-12-27T09:36:53Z</time>
      </trkpt>
      <trkpt lat="45.0806" lon="0.65568">
        <ele>193.19999694824</ele>
        <time>2020-12-27T09:37:05Z</time>
      </trkpt>
      <trkpt lat="45.08059" lon="0.65575">
        <ele>194.19999694824</ele>
        <time>2020-12-27T09:37:07Z</time>
      </trkpt>
      <trkpt lat="45.08059" lon="0.65578">
        <ele>194.39999389648</ele>
        <time>2020-12-27T09:37:08Z</time>
      </trkpt>
      <trkpt lat="45.08058" lon="0.65589">
        <ele>196.19999694824</ele>
        <time>2020-12-27T09:37:11Z</time>
      </trkpt>
      <trkpt lat="45.08055" lon="0.65597">
        <ele>197.39999389648</ele>
        <time>2020-12-27T09:37:14Z</time>
      </trkpt>
      <trkpt lat="45.08053" lon="0.65607">
        <ele>198.80000305176</ele>
        <time>2020-12-27T09:37:18Z</time>
      </trkpt>
      <trkpt lat="45.08053" lon="0.65614">
        <ele>199.80000305176</ele>
        <time>2020-12-27T09:37:20Z</time>
      </trkpt>
      <trkpt lat="45.08052" lon="0.65617">
        <ele>200.39999389648</ele>
        <time>2020-12-27T09:37:21Z</time>
      </trkpt>
      <trkpt lat="45.08052" lon="0.6562">
        <ele>200.80000305176</ele>
        <time>2020-12-27T09:37:22Z</time>
      </trkpt>
      <trkpt lat="45.0805" lon="0.6563">
        <ele>202.19999694824</ele>
        <time>2020-12-27T09:37:25Z</time>
      </trkpt>
      <trkpt lat="45.08044" lon="0.65642">
        <ele>201.60000610352</ele>
        <time>2020-12-27T09:37:29Z</time>
      </trkpt>
      <trkpt lat="45.08034" lon="0.65664">
        <ele>201.60000610352</ele>
        <time>2020-12-27T09:37:36Z</time>
      </trkpt>
      <trkpt lat="45.08026" lon="0.65683">
        <ele>203.60000610352</ele>
        <time>2020-12-27T09:37:43Z</time>
      </trkpt>
      <trkpt lat="45.08024" lon="0.65686">
        <ele>204</ele>
        <time>2020-12-27T09:37:44Z</time>
      </trkpt>
      <trkpt lat="45.08021" lon="0.65693">
        <ele>204.60000610352</ele>
        <time>2020-12-27T09:37:47Z</time>
      </trkpt>
      <trkpt lat="45.08016" lon="0.65706">
        <ele>204.80000305176</ele>
        <time>2020-12-27T09:37:51Z</time>
      </trkpt>
      <trkpt lat="45.0801" lon="0.65719">
        <ele>205.60000610352</ele>
        <time>2020-12-27T09:37:55Z</time>
      </trkpt>
      <trkpt lat="45.08002" lon="0.65734">
        <ele>204.19999694824</ele>
        <time>2020-12-27T09:38:00Z</time>
      </trkpt>
      <trkpt lat="45.07999" lon="0.65742">
        <ele>202.39999389648</ele>
        <time>2020-12-27T09:38:02Z</time>
      </trkpt>
      <trkpt lat="45.07997" lon="0.65745">
        <ele>201</ele>
        <time>2020-12-27T09:38:03Z</time>
      </trkpt>
      <trkpt lat="45.07995" lon="0.65752">
        <ele>199.39999389648</ele>
        <time>2020-12-27T09:38:05Z</time>
      </trkpt>
      <trkpt lat="45.07994" lon="0.65754">
        <ele>198.80000305176</ele>
        <time>2020-12-27T09:38:06Z</time>
      </trkpt>
      <trkpt lat="45.07991" lon="0.6576">
        <ele>198.19999694824</ele>
        <time>2020-12-27T09:38:08Z</time>
      </trkpt>
      <trkpt lat="45.07987" lon="0.65769">
        <ele>197</ele>
        <time>2020-12-27T09:38:11Z</time>
      </trkpt>
      <trkpt lat="45.07984" lon="0.65776">
        <ele>196.39999389648</ele>
        <time>2020-12-27T09:38:13Z</time>
      </trkpt>
      <trkpt lat="45.07983" lon="0.65779">
        <ele>196</ele>
        <time>2020-12-27T09:38:14Z</time>
      </trkpt>
      <trkpt lat="45.07975" lon="0.65797">
        <ele>196</ele>
        <time>2020-12-27T09:38:21Z</time>
      </trkpt>
      <trkpt lat="45.07968" lon="0.65814">
        <ele>197</ele>
        <time>2020-12-27T09:38:27Z</time>
      </trkpt>
      <trkpt lat="45.07967" lon="0.65816">
        <ele>197.19999694824</ele>
        <time>2020-12-27T09:38:28Z</time>
      </trkpt>
      <trkpt lat="45.07963" lon="0.65826">
        <ele>198.19999694824</ele>
        <time>2020-12-27T09:38:32Z</time>
      </trkpt>
      <trkpt lat="45.07962" lon="0.65833">
        <ele>198.39999389648</ele>
        <time>2020-12-27T09:38:35Z</time>
      </trkpt>
      <trkpt lat="45.07963" lon="0.65845">
        <ele>199.39999389648</ele>
        <time>2020-12-27T09:38:39Z</time>
      </trkpt>
      <trkpt lat="45.07964" lon="0.65852">
        <ele>200</ele>
        <time>2020-12-27T09:38:41Z</time>
      </trkpt>
      <trkpt lat="45.07964" lon="0.65862">
        <ele>200.39999389648</ele>
        <time>2020-12-27T09:38:44Z</time>
      </trkpt>
      <trkpt lat="45.07965" lon="0.65882">
        <ele>201.60000610352</ele>
        <time>2020-12-27T09:38:50Z</time>
      </trkpt>
      <trkpt lat="45.07965" lon="0.65896">
        <ele>202.80000305176</ele>
        <time>2020-12-27T09:38:55Z</time>
      </trkpt>
      <trkpt lat="45.07965" lon="0.65906">
        <ele>203.39999389648</ele>
        <time>2020-12-27T09:38:58Z</time>
      </trkpt>
      <trkpt lat="45.07964" lon="0.65914">
        <ele>203.80000305176</ele>
        <time>2020-12-27T09:39:00Z</time>
      </trkpt>
      <trkpt lat="45.07963" lon="0.65929">
        <ele>204.60000610352</ele>
        <time>2020-12-27T09:39:05Z</time>
      </trkpt>
      <trkpt lat="45.07963" lon="0.65934">
        <ele>205</ele>
        <time>2020-12-27T09:39:07Z</time>
      </trkpt>
      <trkpt lat="45.07959" lon="0.65949">
        <ele>206</ele>
        <time>2020-12-27T09:39:12Z</time>
      </trkpt>
      <trkpt lat="45.07948" lon="0.6596">
        <ele>205.60000610352</ele>
        <time>2020-12-27T09:39:16Z</time>
      </trkpt>
      <trkpt lat="45.07921" lon="0.65976">
        <ele>205.39999389648</ele>
        <time>2020-12-27T09:39:21Z</time>
      </trkpt>
      <trkpt lat="45.07909" lon="0.65986">
        <ele>205.39999389648</ele>
        <time>2020-12-27T09:39:23Z</time>
      </trkpt>
      <trkpt lat="45.07891" lon="0.66">
        <ele>205.60000610352</ele>
        <time>2020-12-27T09:39:27Z</time>
      </trkpt>
      <trkpt lat="45.07866" lon="0.66023">
        <ele>205.60000610352</ele>
        <time>2020-12-27T09:39:34Z</time>
      </trkpt>
      <trkpt lat="45.07853" lon="0.66046">
        <ele>205.39999389648</ele>
        <time>2020-12-27T09:39:39Z</time>
      </trkpt>
      <trkpt lat="45.07842" lon="0.66077">
        <ele>205.39999389648</ele>
        <time>2020-12-27T09:39:44Z</time>
      </trkpt>
      <trkpt lat="45.07846" lon="0.66096">
        <ele>204.60000610352</ele>
        <time>2020-12-27T09:39:46Z</time>
      </trkpt>
      <trkpt lat="45.07848" lon="0.66102">
        <ele>203.80000305176</ele>
        <time>2020-12-27T09:39:47Z</time>
      </trkpt>
      <trkpt lat="45.07852" lon="0.66106">
        <ele>203.39999389648</ele>
        <time>2020-12-27T09:39:48Z</time>
      </trkpt>
      <trkpt lat="45.07864" lon="0.66106">
        <ele>202.19999694824</ele>
        <time>2020-12-27T09:39:50Z</time>
      </trkpt>
      <trkpt lat="45.07878" lon="0.66105">
        <ele>201.19999694824</ele>
        <time>2020-12-27T09:39:54Z</time>
      </trkpt>
      <trkpt lat="45.07884" lon="0.66106">
        <ele>200</ele>
        <time>2020-12-27T09:39:57Z</time>
      </trkpt>
      <trkpt lat="45.07888" lon="0.66107">
        <ele>199</ele>
        <time>2020-12-27T09:39:59Z</time>
      </trkpt>
      <trkpt lat="45.07893" lon="0.66108">
        <ele>197.39999389648</ele>
        <time>2020-12-27T09:40:02Z</time>
      </trkpt>
      <trkpt lat="45.079" lon="0.66109">
        <ele>196</ele>
        <time>2020-12-27T09:40:05Z</time>
      </trkpt>
      <trkpt lat="45.07902" lon="0.66109">
        <ele>195.60000610352</ele>
        <time>2020-12-27T09:40:06Z</time>
      </trkpt>
      <trkpt lat="45.07906" lon="0.66111">
        <ele>194.80000305176</ele>
        <time>2020-12-27T09:40:08Z</time>
      </trkpt>
      <trkpt lat="45.07912" lon="0.66112">
        <ele>193.39999389648</ele>
        <time>2020-12-27T09:40:11Z</time>
      </trkpt>
      <trkpt lat="45.07917" lon="0.66114">
        <ele>192.60000610352</ele>
        <time>2020-12-27T09:40:13Z</time>
      </trkpt>
      <trkpt lat="45.07918" lon="0.66115">
        <ele>192.39999389648</ele>
        <time>2020-12-27T09:40:14Z</time>
      </trkpt>
      <trkpt lat="45.07923" lon="0.66116">
        <ele>191.39999389648</ele>
        <time>2020-12-27T09:40:16Z</time>
      </trkpt>
      <trkpt lat="45.07932" lon="0.66121">
        <ele>190.19999694824</ele>
        <time>2020-12-27T09:40:20Z</time>
      </trkpt>
      <trkpt lat="45.07937" lon="0.66123">
        <ele>188.80000305176</ele>
        <time>2020-12-27T09:40:23Z</time>
      </trkpt>
      <trkpt lat="45.07948" lon="0.66128">
        <ele>187.80000305176</ele>
        <time>2020-12-27T09:40:45Z</time>
      </trkpt>
      <trkpt lat="45.07957" lon="0.66131">
        <ele>188</ele>
        <time>2020-12-27T09:40:48Z</time>
      </trkpt>
      <trkpt lat="45.07966" lon="0.66133">
        <ele>187.80000305176</ele>
        <time>2020-12-27T09:40:51Z</time>
      </trkpt>
      <trkpt lat="45.07978" lon="0.66135">
        <ele>186.39999389648</ele>
        <time>2020-12-27T09:40:55Z</time>
      </trkpt>
      <trkpt lat="45.07982" lon="0.66137">
        <ele>184.80000305176</ele>
        <time>2020-12-27T09:40:57Z</time>
      </trkpt>
      <trkpt lat="45.07985" lon="0.66138">
        <ele>183.60000610352</ele>
        <time>2020-12-27T09:40:59Z</time>
      </trkpt>
      <trkpt lat="45.07989" lon="0.6614">
        <ele>182.60000610352</ele>
        <time>2020-12-27T09:41:01Z</time>
      </trkpt>
      <trkpt lat="45.07992" lon="0.66142">
        <ele>181.80000305176</ele>
        <time>2020-12-27T09:41:03Z</time>
      </trkpt>
      <trkpt lat="45.07994" lon="0.66144">
        <ele>181.39999389648</ele>
        <time>2020-12-27T09:41:04Z</time>
      </trkpt>
      <trkpt lat="45.08001" lon="0.66146">
        <ele>180</ele>
        <time>2020-12-27T09:41:07Z</time>
      </trkpt>
      <trkpt lat="45.08006" lon="0.66147">
        <ele>178.80000305176</ele>
        <time>2020-12-27T09:41:09Z</time>
      </trkpt>
      <trkpt lat="45.0801" lon="0.66147">
        <ele>178.60000610352</ele>
        <time>2020-12-27T09:41:10Z</time>
      </trkpt>
      <trkpt lat="45.08022" lon="0.66151">
        <ele>177.39999389648</ele>
        <time>2020-12-27T09:41:14Z</time>
      </trkpt>
      <trkpt lat="45.08033" lon="0.66152">
        <ele>177</ele>
        <time>2020-12-27T09:41:18Z</time>
      </trkpt>
      <trkpt lat="45.08045" lon="0.6616">
        <ele>185.80000305176</ele>
        <time>2020-12-27T09:42:23Z</time>
      </trkpt>
      <trkpt lat="45.08047" lon="0.6616">
        <ele>186.80000305176</ele>
        <time>2020-12-27T09:42:24Z</time>
      </trkpt>
      <trkpt lat="45.08058" lon="0.66156">
        <ele>194.60000610352</ele>
        <time>2020-12-27T09:48:04Z</time>
      </trkpt>
      <trkpt lat="45.08066" lon="0.66153">
        <ele>195.80000305176</ele>
        <time>2020-12-27T09:48:07Z</time>
      </trkpt>
      <trkpt lat="45.08085" lon="0.66145">
        <ele>196.39999389648</ele>
        <time>2020-12-27T09:48:14Z</time>
      </trkpt>
      <trkpt lat="45.08096" lon="0.66143">
        <ele>196.60000610352</ele>
        <time>2020-12-27T09:48:30Z</time>
      </trkpt>
      <trkpt lat="45.08098" lon="0.66142">
        <ele>196.80000305176</ele>
        <time>2020-12-27T09:48:31Z</time>
      </trkpt>
      <trkpt lat="45.08113" lon="0.66139">
        <ele>198</ele>
        <time>2020-12-27T09:48:38Z</time>
      </trkpt>
      <trkpt lat="45.08136" lon="0.66135">
        <ele>198</ele>
        <time>2020-12-27T09:48:47Z</time>
      </trkpt>
      <trkpt lat="45.0815" lon="0.66133">
        <ele>199.19999694824</ele>
        <time>2020-12-27T09:48:52Z</time>
      </trkpt>
      <trkpt lat="45.08156" lon="0.6613">
        <ele>199.60000610352</ele>
        <time>2020-12-27T09:48:54Z</time>
      </trkpt>
      <trkpt lat="45.08171" lon="0.66125">
        <ele>200.19999694824</ele>
        <time>2020-12-27T09:48:59Z</time>
      </trkpt>
      <trkpt lat="45.08174" lon="0.66124">
        <ele>200.60000610352</ele>
        <time>2020-12-27T09:49:00Z</time>
      </trkpt>
      <trkpt lat="45.08184" lon="0.66122">
        <ele>201.60000610352</ele>
        <time>2020-12-27T09:49:03Z</time>
      </trkpt>
      <trkpt lat="45.08193" lon="0.6612">
        <ele>202.60000610352</ele>
        <time>2020-12-27T09:49:06Z</time>
      </trkpt>
      <trkpt lat="45.08197" lon="0.66119">
        <ele>203</ele>
        <time>2020-12-27T09:49:07Z</time>
      </trkpt>
      <trkpt lat="45.0821" lon="0.66116">
        <ele>203.80000305176</ele>
        <time>2020-12-27T09:49:11Z</time>
      </trkpt>
      <trkpt lat="45.08221" lon="0.66118">
        <ele>204.60000610352</ele>
        <time>2020-12-27T09:49:15Z</time>
      </trkpt>
      <trkpt lat="45.08229" lon="0.66123">
        <ele>205</ele>
        <time>2020-12-27T09:49:18Z</time>
      </trkpt>
      <trkpt lat="45.08237" lon="0.66127">
        <ele>205</ele>
        <time>2020-12-27T09:49:21Z</time>
      </trkpt>
      <trkpt lat="45.08257" lon="0.66134">
        <ele>204.19999694824</ele>
        <time>2020-12-27T09:49:28Z</time>
      </trkpt>
      <trkpt lat="45.08261" lon="0.66134">
        <ele>204</ele>
        <time>2020-12-27T09:49:29Z</time>
      </trkpt>
      <trkpt lat="45.0828" lon="0.66135">
        <ele>203</ele>
        <time>2020-12-27T09:49:32Z</time>
      </trkpt>
      <trkpt lat="45.08292" lon="0.66134">
        <ele>202.39999389648</ele>
        <time>2020-12-27T09:49:34Z</time>
      </trkpt>
      <trkpt lat="45.08303" lon="0.66129">
        <ele>201.80000305176</ele>
        <time>2020-12-27T09:49:36Z</time>
      </trkpt>
      <trkpt lat="45.08314" lon="0.66111">
        <ele>201.39999389648</ele>
        <time>2020-12-27T09:49:39Z</time>
      </trkpt>
      <trkpt lat="45.08319" lon="0.661">
        <ele>201.19999694824</ele>
        <time>2020-12-27T09:49:41Z</time>
      </trkpt>
      <trkpt lat="45.08332" lon="0.66074">
        <ele>201.19999694824</ele>
        <time>2020-12-27T09:49:46Z</time>
      </trkpt>
      <trkpt lat="45.0834" lon="0.66051">
        <ele>201.60000610352</ele>
        <time>2020-12-27T09:49:50Z</time>
      </trkpt>
      <trkpt lat="45.08343" lon="0.6604">
        <ele>201.60000610352</ele>
        <time>2020-12-27T09:49:52Z</time>
      </trkpt>
      <trkpt lat="45.08355" lon="0.66006">
        <ele>201.80000305176</ele>
        <time>2020-12-27T09:49:58Z</time>
      </trkpt>
      <trkpt lat="45.0836" lon="0.65996">
        <ele>201.80000305176</ele>
        <time>2020-12-27T09:50:00Z</time>
      </trkpt>
      <trkpt lat="45.08363" lon="0.6599">
        <ele>201.80000305176</ele>
        <time>2020-12-27T09:50:01Z</time>
      </trkpt>
      <trkpt lat="45.08379" lon="0.65962">
        <ele>201.39999389648</ele>
        <time>2020-12-27T09:50:06Z</time>
      </trkpt>
      <trkpt lat="45.08401" lon="0.65933">
        <ele>201</ele>
        <time>2020-12-27T09:50:11Z</time>
      </trkpt>
      <trkpt lat="45.08417" lon="0.65918">
        <ele>200.80000305176</ele>
        <time>2020-12-27T09:50:14Z</time>
      </trkpt>
      <trkpt lat="45.08433" lon="0.65903">
        <ele>200.39999389648</ele>
        <time>2020-12-27T09:50:17Z</time>
      </trkpt>
      <trkpt lat="45.08451" lon="0.65888">
        <ele>199.60000610352</ele>
        <time>2020-12-27T09:50:20Z</time>
      </trkpt>
      <trkpt lat="45.08469" lon="0.65872">
        <ele>198.80000305176</ele>
        <time>2020-12-27T09:50:23Z</time>
      </trkpt>
      <trkpt lat="45.08474" lon="0.65867">
        <ele>198.39999389648</ele>
        <time>2020-12-27T09:50:24Z</time>
      </trkpt>
      <trkpt lat="45.0848" lon="0.6586">
        <ele>198.19999694824</ele>
        <time>2020-12-27T09:50:25Z</time>
      </trkpt>
      <trkpt lat="45.08489" lon="0.65842">
        <ele>197.80000305176</ele>
        <time>2020-12-27T09:50:27Z</time>
      </trkpt>
      <trkpt lat="45.08493" lon="0.65832">
        <ele>197.39999389648</ele>
        <time>2020-12-27T09:50:28Z</time>
      </trkpt>
      <trkpt lat="45.08501" lon="0.65808">
        <ele>196.19999694824</ele>
        <time>2020-12-27T09:50:31Z</time>
      </trkpt>
      <trkpt lat="45.0851" lon="0.65788">
        <ele>195</ele>
        <time>2020-12-27T09:50:34Z</time>
      </trkpt>
      <trkpt lat="45.08512" lon="0.65779">
        <ele>194.80000305176</ele>
        <time>2020-12-27T09:50:35Z</time>
      </trkpt>
      <trkpt lat="45.08513" lon="0.65752">
        <ele>193.60000610352</ele>
        <time>2020-12-27T09:50:38Z</time>
      </trkpt>
      <trkpt lat="45.08514" lon="0.65734">
        <ele>192.39999389648</ele>
        <time>2020-12-27T09:50:40Z</time>
      </trkpt>
      <trkpt lat="45.08517" lon="0.65716">
        <ele>191</ele>
        <time>2020-12-27T09:50:43Z</time>
      </trkpt>
      <trkpt lat="45.08518" lon="0.65712">
        <ele>190.39999389648</ele>
        <time>2020-12-27T09:50:44Z</time>
      </trkpt>
      <trkpt lat="45.0852" lon="0.6571">
        <ele>189.80000305176</ele>
        <time>2020-12-27T09:50:45Z</time>
      </trkpt>
      <trkpt lat="45.08528" lon="0.6571">
        <ele>189.19999694824</ele>
        <time>2020-12-27T09:50:47Z</time>
      </trkpt>
      <trkpt lat="45.08538" lon="0.65711">
        <ele>188.60000610352</ele>
        <time>2020-12-27T09:50:49Z</time>
      </trkpt>
      <trkpt lat="45.08555" lon="0.65716">
        <ele>187.60000610352</ele>
        <time>2020-12-27T09:50:52Z</time>
      </trkpt>
      <trkpt lat="45.08566" lon="0.65726">
        <ele>186.19999694824</ele>
        <time>2020-12-27T09:50:54Z</time>
      </trkpt>
      <trkpt lat="45.08571" lon="0.65733">
        <ele>185.60000610352</ele>
        <time>2020-12-27T09:50:55Z</time>
      </trkpt>
      <trkpt lat="45.08575" lon="0.65741">
        <ele>185</ele>
        <time>2020-12-27T09:50:56Z</time>
      </trkpt>
      <trkpt lat="45.08578" lon="0.65748">
        <ele>184.39999389648</ele>
        <time>2020-12-27T09:50:57Z</time>
      </trkpt>
      <trkpt lat="45.08581" lon="0.65754">
        <ele>183.80000305176</ele>
        <time>2020-12-27T09:50:58Z</time>
      </trkpt>
      <trkpt lat="45.08588" lon="0.6577">
        <ele>182.39999389648</ele>
        <time>2020-12-27T09:51:00Z</time>
      </trkpt>
      <trkpt lat="45.08595" lon="0.65789">
        <ele>180.80000305176</ele>
        <time>2020-12-27T09:51:02Z</time>
      </trkpt>
      <trkpt lat="45.08598" lon="0.65799">
        <ele>180</ele>
        <time>2020-12-27T09:51:03Z</time>
      </trkpt>
      <trkpt lat="45.08601" lon="0.65808">
        <ele>179.19999694824</ele>
        <time>2020-12-27T09:51:04Z</time>
      </trkpt>
      <trkpt lat="45.08606" lon="0.65825">
        <ele>178</ele>
        <time>2020-12-27T09:51:06Z</time>
      </trkpt>
      <trkpt lat="45.08612" lon="0.65839">
        <ele>177</ele>
        <time>2020-12-27T09:51:08Z</time>
      </trkpt>
      <trkpt lat="45.08618" lon="0.65851">
        <ele>176</ele>
        <time>2020-12-27T09:51:10Z</time>
      </trkpt>
      <trkpt lat="45.08621" lon="0.65857">
        <ele>175.80000305176</ele>
        <time>2020-12-27T09:51:11Z</time>
      </trkpt>
      <trkpt lat="45.08628" lon="0.65866">
        <ele>175.39999389648</ele>
        <time>2020-12-27T09:51:13Z</time>
      </trkpt>
      <trkpt lat="45.08636" lon="0.65877">
        <ele>174.80000305176</ele>
        <time>2020-12-27T09:51:15Z</time>
      </trkpt>
      <trkpt lat="45.08651" lon="0.65897">
        <ele>173.80000305176</ele>
        <time>2020-12-27T09:51:18Z</time>
      </trkpt>
      <trkpt lat="45.08656" lon="0.65905">
        <ele>173.60000610352</ele>
        <time>2020-12-27T09:51:19Z</time>
      </trkpt>
      <trkpt lat="45.08668" lon="0.65933">
        <ele>172.60000610352</ele>
        <time>2020-12-27T09:51:22Z</time>
      </trkpt>
      <trkpt lat="45.08674" lon="0.65957">
        <ele>171.80000305176</ele>
        <time>2020-12-27T09:51:24Z</time>
      </trkpt>
      <trkpt lat="45.08676" lon="0.6597">
        <ele>171.39999389648</ele>
        <time>2020-12-27T09:51:25Z</time>
      </trkpt>
      <trkpt lat="45.08678" lon="0.65984">
        <ele>171</ele>
        <time>2020-12-27T09:51:26Z</time>
      </trkpt>
      <trkpt lat="45.08681" lon="0.66012">
        <ele>170</ele>
        <time>2020-12-27T09:51:28Z</time>
      </trkpt>
      <trkpt lat="45.08685" lon="0.66052">
        <ele>168.80000305176</ele>
        <time>2020-12-27T09:51:31Z</time>
      </trkpt>
      <trkpt lat="45.08686" lon="0.66065">
        <ele>168.60000610352</ele>
        <time>2020-12-27T09:51:32Z</time>
      </trkpt>
      <trkpt lat="45.08689" lon="0.66091">
        <ele>167.80000305176</ele>
        <time>2020-12-27T09:51:34Z</time>
      </trkpt>
      <trkpt lat="45.08696" lon="0.66129">
        <ele>166.60000610352</ele>
        <time>2020-12-27T09:51:37Z</time>
      </trkpt>
      <trkpt lat="45.08705" lon="0.66166">
        <ele>165.60000610352</ele>
        <time>2020-12-27T09:51:40Z</time>
      </trkpt>
      <trkpt lat="45.08715" lon="0.66202">
        <ele>164.60000610352</ele>
        <time>2020-12-27T09:51:43Z</time>
      </trkpt>
      <trkpt lat="45.08718" lon="0.66212">
        <ele>164.19999694824</ele>
        <time>2020-12-27T09:51:44Z</time>
      </trkpt>
      <trkpt lat="45.08724" lon="0.66226">
        <ele>163.60000610352</ele>
        <time>2020-12-27T09:51:46Z</time>
      </trkpt>
      <trkpt lat="45.08727" lon="0.66234">
        <ele>163.19999694824</ele>
        <time>2020-12-27T09:51:48Z</time>
      </trkpt>
      <trkpt lat="45.08728" lon="0.66236">
        <ele>163</ele>
        <time>2020-12-27T09:51:49Z</time>
      </trkpt>
      <trkpt lat="45.08731" lon="0.66238">
        <ele>162.60000610352</ele>
        <time>2020-12-27T09:51:59Z</time>
      </trkpt>
      <trkpt lat="45.08734" lon="0.66241">
        <ele>162.19999694824</ele>
        <time>2020-12-27T09:52:00Z</time>
      </trkpt>
      <trkpt lat="45.08737" lon="0.66244">
        <ele>161.80000305176</ele>
        <time>2020-12-27T09:52:01Z</time>
      </trkpt>
      <trkpt lat="45.08747" lon="0.66253">
        <ele>160.39999389648</ele>
        <time>2020-12-27T09:52:03Z</time>
      </trkpt>
      <trkpt lat="45.08755" lon="0.66265">
        <ele>159</ele>
        <time>2020-12-27T09:52:05Z</time>
      </trkpt>
      <trkpt lat="45.08759" lon="0.66276">
        <ele>157.80000305176</ele>
        <time>2020-12-27T09:52:07Z</time>
      </trkpt>
      <trkpt lat="45.08759" lon="0.66285">
        <ele>156.60000610352</ele>
        <time>2020-12-27T09:52:09Z</time>
      </trkpt>
      <trkpt lat="45.08758" lon="0.6629">
        <ele>155.80000305176</ele>
        <time>2020-12-27T09:52:10Z</time>
      </trkpt>
      <trkpt lat="45.08757" lon="0.66294">
        <ele>155.19999694824</ele>
        <time>2020-12-27T09:52:11Z</time>
      </trkpt>
      <trkpt lat="45.08756" lon="0.66303">
        <ele>153.60000610352</ele>
        <time>2020-12-27T09:52:13Z</time>
      </trkpt>
      <trkpt lat="45.08755" lon="0.66312">
        <ele>152</ele>
        <time>2020-12-27T09:52:15Z</time>
      </trkpt>
      <trkpt lat="45.08754" lon="0.66317">
        <ele>151.39999389648</ele>
        <time>2020-12-27T09:52:16Z</time>
      </trkpt>
      <trkpt lat="45.08753" lon="0.66328">
        <ele>150.80000305176</ele>
        <time>2020-12-27T09:52:18Z</time>
      </trkpt>
      <trkpt lat="45.08751" lon="0.6636">
        <ele>149.39999389648</ele>
        <time>2020-12-27T09:52:24Z</time>
      </trkpt>
      <trkpt lat="45.08748" lon="0.6638">
        <ele>148.39999389648</ele>
        <time>2020-12-27T09:52:28Z</time>
      </trkpt>
      <trkpt lat="45.08746" lon="0.66394">
        <ele>147.60000610352</ele>
        <time>2020-12-27T09:52:31Z</time>
      </trkpt>
      <trkpt lat="45.08742" lon="0.66408">
        <ele>147</ele>
        <time>2020-12-27T09:52:34Z</time>
      </trkpt>
      <trkpt lat="45.08738" lon="0.66426">
        <ele>145.80000305176</ele>
        <time>2020-12-27T09:52:38Z</time>
      </trkpt>
      <trkpt lat="45.08736" lon="0.6643">
        <ele>145.39999389648</ele>
        <time>2020-12-27T09:52:39Z</time>
      </trkpt>
      <trkpt lat="45.08732" lon="0.66451">
        <ele>144.60000610352</ele>
        <time>2020-12-27T09:52:45Z</time>
      </trkpt>
      <trkpt lat="45.08731" lon="0.66464">
        <ele>143.19999694824</ele>
        <time>2020-12-27T09:52:49Z</time>
      </trkpt>
      <trkpt lat="45.08731" lon="0.66468">
        <ele>143.19999694824</ele>
        <time>2020-12-27T09:52:50Z</time>
      </trkpt>
      <trkpt lat="45.08729" lon="0.66475">
        <ele>143</ele>
        <time>2020-12-27T09:52:52Z</time>
      </trkpt>
      <trkpt lat="45.08726" lon="0.66481">
        <ele>143</ele>
        <time>2020-12-27T09:52:54Z</time>
      </trkpt>
      <trkpt lat="45.08722" lon="0.66486">
        <ele>143</ele>
        <time>2020-12-27T09:52:56Z</time>
      </trkpt>
      <trkpt lat="45.08713" lon="0.66497">
        <ele>143</ele>
        <time>2020-12-27T09:53:01Z</time>
      </trkpt>
      <trkpt lat="45.08703" lon="0.66512">
        <ele>143.19999694824</ele>
        <time>2020-12-27T09:53:08Z</time>
      </trkpt>
      <trkpt lat="45.08692" lon="0.66534">
        <ele>143.39999389648</ele>
        <time>2020-12-27T09:53:16Z</time>
      </trkpt>
      <trkpt lat="45.08685" lon="0.66552">
        <ele>141.80000305176</ele>
        <time>2020-12-27T09:53:22Z</time>
      </trkpt>
      <trkpt lat="45.08684" lon="0.66555">
        <ele>141.60000610352</ele>
        <time>2020-12-27T09:53:23Z</time>
      </trkpt>
      <trkpt lat="45.08672" lon="0.66575">
        <ele>143</ele>
        <time>2020-12-27T09:53:31Z</time>
      </trkpt>
      <trkpt lat="45.08671" lon="0.66577">
        <ele>143</ele>
        <time>2020-12-27T09:53:32Z</time>
      </trkpt>
      <trkpt lat="45.08663" lon="0.66585">
        <ele>144</ele>
        <time>2020-12-27T09:53:36Z</time>
      </trkpt>
      <trkpt lat="45.08651" lon="0.66593">
        <ele>143.80000305176</ele>
        <time>2020-12-27T09:53:40Z</time>
      </trkpt>
      <trkpt lat="45.0863" lon="0.66613">
        <ele>143.80000305176</ele>
        <time>2020-12-27T09:53:48Z</time>
      </trkpt>
      <trkpt lat="45.08615" lon="0.66631">
        <ele>144.60000610352</ele>
        <time>2020-12-27T09:53:55Z</time>
      </trkpt>
      <trkpt lat="45.0861" lon="0.66637">
        <ele>145.19999694824</ele>
        <time>2020-12-27T09:53:57Z</time>
      </trkpt>
      <trkpt lat="45.08604" lon="0.66644">
        <ele>146.60000610352</ele>
        <time>2020-12-27T09:54:00Z</time>
      </trkpt>
      <trkpt lat="45.08598" lon="0.6665">
        <ele>147.80000305176</ele>
        <time>2020-12-27T09:54:03Z</time>
      </trkpt>
      <trkpt lat="45.08592" lon="0.66655">
        <ele>148.80000305176</ele>
        <time>2020-12-27T09:54:07Z</time>
      </trkpt>
      <trkpt lat="45.08587" lon="0.66658">
        <ele>150.19999694824</ele>
        <time>2020-12-27T09:54:10Z</time>
      </trkpt>
      <trkpt lat="45.08583" lon="0.66662">
        <ele>151.19999694824</ele>
        <time>2020-12-27T09:54:13Z</time>
      </trkpt>
      <trkpt lat="45.0858" lon="0.66666">
        <ele>152.39999389648</ele>
        <time>2020-12-27T09:54:16Z</time>
      </trkpt>
      <trkpt lat="45.08569" lon="0.6668">
        <ele>154.39999389648</ele>
        <time>2020-12-27T09:54:24Z</time>
      </trkpt>
      <trkpt lat="45.08563" lon="0.66687">
        <ele>155.80000305176</ele>
        <time>2020-12-27T09:54:27Z</time>
      </trkpt>
      <trkpt lat="45.08558" lon="0.66693">
        <ele>156.80000305176</ele>
        <time>2020-12-27T09:54:30Z</time>
      </trkpt>
      <trkpt lat="45.08553" lon="0.66704">
        <ele>157.80000305176</ele>
        <time>2020-12-27T09:54:34Z</time>
      </trkpt>
      <trkpt lat="45.08544" lon="0.66715">
        <ele>158.19999694824</ele>
        <time>2020-12-27T09:54:38Z</time>
      </trkpt>
      <trkpt lat="45.08539" lon="0.66723">
        <ele>158.60000610352</ele>
        <time>2020-12-27T09:54:41Z</time>
      </trkpt>
      <trkpt lat="45.08533" lon="0.66732">
        <ele>159.19999694824</ele>
        <time>2020-12-27T09:54:44Z</time>
      </trkpt>
      <trkpt lat="45.08525" lon="0.66743">
        <ele>160</ele>
        <time>2020-12-27T09:54:48Z</time>
      </trkpt>
      <trkpt lat="45.08523" lon="0.66746">
        <ele>160.39999389648</ele>
        <time>2020-12-27T09:54:49Z</time>
      </trkpt>
      <trkpt lat="45.08516" lon="0.66757">
        <ele>161.39999389648</ele>
        <time>2020-12-27T09:54:54Z</time>
      </trkpt>
      <trkpt lat="45.08512" lon="0.66764">
        <ele>162</ele>
        <time>2020-12-27T09:54:56Z</time>
      </trkpt>
      <trkpt lat="45.08505" lon="0.66773">
        <ele>162.39999389648</ele>
        <time>2020-12-27T09:54:59Z</time>
      </trkpt>
      <trkpt lat="45.08498" lon="0.66785">
        <ele>163.60000610352</ele>
        <time>2020-12-27T09:55:03Z</time>
      </trkpt>
      <trkpt lat="45.08487" lon="0.66806">
        <ele>163.80000305176</ele>
        <time>2020-12-27T09:55:10Z</time>
      </trkpt>
      <trkpt lat="45.08478" lon="0.66828">
        <ele>163.60000610352</ele>
        <time>2020-12-27T09:55:16Z</time>
      </trkpt>
      <trkpt lat="45.08467" lon="0.66846">
        <ele>163.80000305176</ele>
        <time>2020-12-27T09:55:22Z</time>
      </trkpt>
      <trkpt lat="45.08462" lon="0.66857">
        <ele>164.80000305176</ele>
        <time>2020-12-27T09:55:26Z</time>
      </trkpt>
      <trkpt lat="45.08461" lon="0.66865">
        <ele>166</ele>
        <time>2020-12-27T09:55:29Z</time>
      </trkpt>
      <trkpt lat="45.08456" lon="0.66875">
        <ele>166</ele>
        <time>2020-12-27T09:55:31Z</time>
      </trkpt>
      <trkpt lat="45.08449" lon="0.66903">
        <ele>165.39999389648</ele>
        <time>2020-12-27T09:55:37Z</time>
      </trkpt>
      <trkpt lat="45.08446" lon="0.66915">
        <ele>164.60000610352</ele>
        <time>2020-12-27T09:55:39Z</time>
      </trkpt>
      <trkpt lat="45.08441" lon="0.66924">
        <ele>163.60000610352</ele>
        <time>2020-12-27T09:55:41Z</time>
      </trkpt>
      <trkpt lat="45.08436" lon="0.66931">
        <ele>163.19999694824</ele>
        <time>2020-12-27T09:55:42Z</time>
      </trkpt>
      <trkpt lat="45.08427" lon="0.6694">
        <ele>162.19999694824</ele>
        <time>2020-12-27T09:55:44Z</time>
      </trkpt>
      <trkpt lat="45.08418" lon="0.66946">
        <ele>161.60000610352</ele>
        <time>2020-12-27T09:55:46Z</time>
      </trkpt>
      <trkpt lat="45.08414" lon="0.66948">
        <ele>161</ele>
        <time>2020-12-27T09:55:47Z</time>
      </trkpt>
      <trkpt lat="45.08399" lon="0.66954">
        <ele>159.60000610352</ele>
        <time>2020-12-27T09:55:50Z</time>
      </trkpt>
      <trkpt lat="45.08389" lon="0.66957">
        <ele>159.60000610352</ele>
        <time>2020-12-27T09:55:52Z</time>
      </trkpt>
      <trkpt lat="45.08384" lon="0.66959">
        <ele>159</ele>
        <time>2020-12-27T09:55:53Z</time>
      </trkpt>
      <trkpt lat="45.08377" lon="0.66968">
        <ele>158.60000610352</ele>
        <time>2020-12-27T09:55:55Z</time>
      </trkpt>
      <trkpt lat="45.08374" lon="0.66975">
        <ele>158.19999694824</ele>
        <time>2020-12-27T09:55:56Z</time>
      </trkpt>
      <trkpt lat="45.08373" lon="0.66989">
        <ele>157.39999389648</ele>
        <time>2020-12-27T09:55:58Z</time>
      </trkpt>
      <trkpt lat="45.08374" lon="0.66996">
        <ele>157</ele>
        <time>2020-12-27T09:55:59Z</time>
      </trkpt>
      <trkpt lat="45.08377" lon="0.67007">
        <ele>156.19999694824</ele>
        <time>2020-12-27T09:56:01Z</time>
      </trkpt>
      <trkpt lat="45.08381" lon="0.67015">
        <ele>155.39999389648</ele>
        <time>2020-12-27T09:56:03Z</time>
      </trkpt>
      <trkpt lat="45.08384" lon="0.67019">
        <ele>155</ele>
        <time>2020-12-27T09:56:04Z</time>
      </trkpt>
      <trkpt lat="45.08396" lon="0.67034">
        <ele>154</ele>
        <time>2020-12-27T09:56:08Z</time>
      </trkpt>
      <trkpt lat="45.08399" lon="0.67037">
        <ele>153.60000610352</ele>
        <time>2020-12-27T09:56:09Z</time>
      </trkpt>
      <trkpt lat="45.08409" lon="0.67049">
        <ele>152.80000305176</ele>
        <time>2020-12-27T09:56:12Z</time>
      </trkpt>
      <trkpt lat="45.08413" lon="0.67053">
        <ele>152.60000610352</ele>
        <time>2020-12-27T09:56:13Z</time>
      </trkpt>
      <trkpt lat="45.08419" lon="0.67063">
        <ele>152</ele>
        <time>2020-12-27T09:56:15Z</time>
      </trkpt>
      <trkpt lat="45.08421" lon="0.67068">
        <ele>151.60000610352</ele>
        <time>2020-12-27T09:56:16Z</time>
      </trkpt>
      <trkpt lat="45.08425" lon="0.67093">
        <ele>151</ele>
        <time>2020-12-27T09:56:20Z</time>
      </trkpt>
      <trkpt lat="45.08424" lon="0.6711">
        <ele>150.60000610352</ele>
        <time>2020-12-27T09:56:23Z</time>
      </trkpt>
      <trkpt lat="45.08423" lon="0.67121">
        <ele>150.39999389648</ele>
        <time>2020-12-27T09:56:25Z</time>
      </trkpt>
      <trkpt lat="45.0842" lon="0.67159">
        <ele>151</ele>
        <time>2020-12-27T09:56:32Z</time>
      </trkpt>
      <trkpt lat="45.08419" lon="0.67203">
        <ele>150.80000305176</ele>
        <time>2020-12-27T09:56:39Z</time>
      </trkpt>
      <trkpt lat="45.08417" lon="0.67221">
        <ele>150.19999694824</ele>
        <time>2020-12-27T09:56:41Z</time>
      </trkpt>
      <trkpt lat="45.08415" lon="0.67246">
        <ele>149.80000305176</ele>
        <time>2020-12-27T09:56:44Z</time>
      </trkpt>
      <trkpt lat="45.08417" lon="0.67297">
        <ele>150.39999389648</ele>
        <time>2020-12-27T09:56:51Z</time>
      </trkpt>
      <trkpt lat="45.08415" lon="0.67345">
        <ele>151.60000610352</ele>
        <time>2020-12-27T09:56:58Z</time>
      </trkpt>
      <trkpt lat="45.08411" lon="0.67399">
        <ele>151.80000305176</ele>
        <time>2020-12-27T09:57:05Z</time>
      </trkpt>
      <trkpt lat="45.0841" lon="0.6742">
        <ele>153</ele>
        <time>2020-12-27T09:57:08Z</time>
      </trkpt>
      <trkpt lat="45.08408" lon="0.67441">
        <ele>154.19999694824</ele>
        <time>2020-12-27T09:57:11Z</time>
      </trkpt>
      <trkpt lat="45.08407" lon="0.67453">
        <ele>155.39999389648</ele>
        <time>2020-12-27T09:57:13Z</time>
      </trkpt>
      <trkpt lat="45.08406" lon="0.6746">
        <ele>155.80000305176</ele>
        <time>2020-12-27T09:57:14Z</time>
      </trkpt>
      <trkpt lat="45.08406" lon="0.67466">
        <ele>156.80000305176</ele>
        <time>2020-12-27T09:57:15Z</time>
      </trkpt>
      <trkpt lat="45.08404" lon="0.67479">
        <ele>158.39999389648</ele>
        <time>2020-12-27T09:57:17Z</time>
      </trkpt>
      <trkpt lat="45.08403" lon="0.67491">
        <ele>159.60000610352</ele>
        <time>2020-12-27T09:57:19Z</time>
      </trkpt>
      <trkpt lat="45.08403" lon="0.67503">
        <ele>161</ele>
        <time>2020-12-27T09:57:21Z</time>
      </trkpt>
      <trkpt lat="45.08402" lon="0.67515">
        <ele>162.39999389648</ele>
        <time>2020-12-27T09:57:23Z</time>
      </trkpt>
      <trkpt lat="45.08402" lon="0.67526">
        <ele>164</ele>
        <time>2020-12-27T09:57:25Z</time>
      </trkpt>
      <trkpt lat="45.08401" lon="0.67532">
        <ele>164.80000305176</ele>
        <time>2020-12-27T09:57:26Z</time>
      </trkpt>
      <trkpt lat="45.08401" lon="0.67538">
        <ele>165.60000610352</ele>
        <time>2020-12-27T09:57:27Z</time>
      </trkpt>
      <trkpt lat="45.084" lon="0.6755">
        <ele>167.19999694824</ele>
        <time>2020-12-27T09:57:29Z</time>
      </trkpt>
      <trkpt lat="45.084" lon="0.67563">
        <ele>169.19999694824</ele>
        <time>2020-12-27T09:57:31Z</time>
      </trkpt>
      <trkpt lat="45.08401" lon="0.67569">
        <ele>170</ele>
        <time>2020-12-27T09:57:32Z</time>
      </trkpt>
      <trkpt lat="45.08401" lon="0.67575">
        <ele>170.80000305176</ele>
        <time>2020-12-27T09:57:33Z</time>
      </trkpt>
      <trkpt lat="45.08402" lon="0.67587">
        <ele>172.39999389648</ele>
        <time>2020-12-27T09:57:35Z</time>
      </trkpt>
      <trkpt lat="45.08404" lon="0.67596">
        <ele>174.19999694824</ele>
        <time>2020-12-27T09:57:37Z</time>
      </trkpt>
      <trkpt lat="45.08405" lon="0.6761">
        <ele>176</ele>
        <time>2020-12-27T09:57:39Z</time>
      </trkpt>
      <trkpt lat="45.08405" lon="0.67617">
        <ele>176.80000305176</ele>
        <time>2020-12-27T09:57:40Z</time>
      </trkpt>
      <trkpt lat="45.08405" lon="0.67631">
        <ele>177</ele>
        <time>2020-12-27T09:57:42Z</time>
      </trkpt>
      <trkpt lat="45.08405" lon="0.67638">
        <ele>177.19999694824</ele>
        <time>2020-12-27T09:57:43Z</time>
      </trkpt>
      <trkpt lat="45.08405" lon="0.67676">
        <ele>176.39999389648</ele>
        <time>2020-12-27T09:57:48Z</time>
      </trkpt>
      <trkpt lat="45.08405" lon="0.67684">
        <ele>176</ele>
        <time>2020-12-27T09:57:49Z</time>
      </trkpt>
      <trkpt lat="45.08403" lon="0.67708">
        <ele>174.80000305176</ele>
        <time>2020-12-27T09:57:52Z</time>
      </trkpt>
      <trkpt lat="45.084" lon="0.67723">
        <ele>174.39999389648</ele>
        <time>2020-12-27T09:57:54Z</time>
      </trkpt>
      <trkpt lat="45.08387" lon="0.67769">
        <ele>173.60000610352</ele>
        <time>2020-12-27T09:58:00Z</time>
      </trkpt>
      <trkpt lat="45.08384" lon="0.67778">
        <ele>173.19999694824</ele>
        <time>2020-12-27T09:58:01Z</time>
      </trkpt>
      <trkpt lat="45.08378" lon="0.67797">
        <ele>172.19999694824</ele>
        <time>2020-12-27T09:58:03Z</time>
      </trkpt>
      <trkpt lat="45.08376" lon="0.67806">
        <ele>171.60000610352</ele>
        <time>2020-12-27T09:58:04Z</time>
      </trkpt>
      <trkpt lat="45.08375" lon="0.67817">
        <ele>171</ele>
        <time>2020-12-27T09:58:05Z</time>
      </trkpt>
      <trkpt lat="45.08376" lon="0.67826">
        <ele>170.39999389648</ele>
        <time>2020-12-27T09:58:06Z</time>
      </trkpt>
      <trkpt lat="45.08384" lon="0.6784">
        <ele>169.80000305176</ele>
        <time>2020-12-27T09:58:08Z</time>
      </trkpt>
      <trkpt lat="45.08403" lon="0.67855">
        <ele>168.80000305176</ele>
        <time>2020-12-27T09:58:11Z</time>
      </trkpt>
      <trkpt lat="45.0841" lon="0.67859">
        <ele>168.19999694824</ele>
        <time>2020-12-27T09:58:12Z</time>
      </trkpt>
      <trkpt lat="45.08417" lon="0.67861">
        <ele>167.60000610352</ele>
        <time>2020-12-27T09:58:13Z</time>
      </trkpt>
      <trkpt lat="45.08423" lon="0.67863">
        <ele>167</ele>
        <time>2020-12-27T09:58:14Z</time>
      </trkpt>
      <trkpt lat="45.08427" lon="0.67866">
        <ele>166.60000610352</ele>
        <time>2020-12-27T09:58:15Z</time>
      </trkpt>
      <trkpt lat="45.0843" lon="0.67871">
        <ele>166</ele>
        <time>2020-12-27T09:58:16Z</time>
      </trkpt>
      <trkpt lat="45.08431" lon="0.67881">
        <ele>165</ele>
        <time>2020-12-27T09:58:18Z</time>
      </trkpt>
      <trkpt lat="45.08431" lon="0.67886">
        <ele>164.60000610352</ele>
        <time>2020-12-27T09:58:19Z</time>
      </trkpt>
      <trkpt lat="45.0843" lon="0.67891">
        <ele>164.39999389648</ele>
        <time>2020-12-27T09:58:20Z</time>
      </trkpt>
      <trkpt lat="45.08429" lon="0.67908">
        <ele>163.39999389648</ele>
        <time>2020-12-27T09:58:23Z</time>
      </trkpt>
      <trkpt lat="45.08428" lon="0.67915">
        <ele>162.80000305176</ele>
        <time>2020-12-27T09:58:24Z</time>
      </trkpt>
      <trkpt lat="45.08426" lon="0.67928">
        <ele>162.19999694824</ele>
        <time>2020-12-27T09:58:26Z</time>
      </trkpt>
      <trkpt lat="45.08418" lon="0.67954">
        <ele>161.19999694824</ele>
        <time>2020-12-27T09:58:30Z</time>
      </trkpt>
      <trkpt lat="45.08411" lon="0.67977">
        <ele>160</ele>
        <time>2020-12-27T09:58:34Z</time>
      </trkpt>
      <trkpt lat="45.08407" lon="0.67993">
        <ele>159.39999389648</ele>
        <time>2020-12-27T09:58:37Z</time>
      </trkpt>
      <trkpt lat="45.08404" lon="0.68003">
        <ele>158.80000305176</ele>
        <time>2020-12-27T09:58:39Z</time>
      </trkpt>
      <trkpt lat="45.08401" lon="0.6803">
        <ele>158.19999694824</ele>
        <time>2020-12-27T09:58:44Z</time>
      </trkpt>
      <trkpt lat="45.08401" lon="0.68036">
        <ele>157.80000305176</ele>
        <time>2020-12-27T09:58:45Z</time>
      </trkpt>
      <trkpt lat="45.08397" lon="0.68064">
        <ele>156.80000305176</ele>
        <time>2020-12-27T09:58:49Z</time>
      </trkpt>
      <trkpt lat="45.08396" lon="0.68098">
        <ele>156.19999694824</ele>
        <time>2020-12-27T09:58:54Z</time>
      </trkpt>
      <trkpt lat="45.08396" lon="0.68124">
        <ele>155.80000305176</ele>
        <time>2020-12-27T09:58:58Z</time>
      </trkpt>
      <trkpt lat="45.08395" lon="0.68161">
        <ele>155.60000610352</ele>
        <time>2020-12-27T09:59:04Z</time>
      </trkpt>
      <trkpt lat="45.08392" lon="0.68205">
        <ele>155</ele>
        <time>2020-12-27T09:59:10Z</time>
      </trkpt>
      <trkpt lat="45.08391" lon="0.68242">
        <ele>154.60000610352</ele>
        <time>2020-12-27T09:59:15Z</time>
      </trkpt>
      <trkpt lat="45.08391" lon="0.68254">
        <ele>154.39999389648</ele>
        <time>2020-12-27T09:59:17Z</time>
      </trkpt>
      <trkpt lat="45.08396" lon="0.68303">
        <ele>153.80000305176</ele>
        <time>2020-12-27T09:59:25Z</time>
      </trkpt>
      <trkpt lat="45.08405" lon="0.68339">
        <ele>153.60000610352</ele>
        <time>2020-12-27T09:59:31Z</time>
      </trkpt>
      <trkpt lat="45.08417" lon="0.68374">
        <ele>153.39999389648</ele>
        <time>2020-12-27T09:59:37Z</time>
      </trkpt>
      <trkpt lat="45.08421" lon="0.68386">
        <ele>153.39999389648</ele>
        <time>2020-12-27T09:59:39Z</time>
      </trkpt>
      <trkpt lat="45.08435" lon="0.68439">
        <ele>153.39999389648</ele>
        <time>2020-12-27T09:59:48Z</time>
      </trkpt>
      <trkpt lat="45.08437" lon="0.68444">
        <ele>153.39999389648</ele>
        <time>2020-12-27T09:59:49Z</time>
      </trkpt>
      <trkpt lat="45.08446" lon="0.68472">
        <ele>153</ele>
        <time>2020-12-27T09:59:54Z</time>
      </trkpt>
      <trkpt lat="45.0846" lon="0.68511">
        <ele>152.60000610352</ele>
        <time>2020-12-27T10:00:02Z</time>
      </trkpt>
      <trkpt lat="45.08455" lon="0.68516">
        <ele>152.80000305176</ele>
        <time>2020-12-27T10:00:04Z</time>
      </trkpt>
      <trkpt lat="45.08447" lon="0.6852">
        <ele>153.19999694824</ele>
        <time>2020-12-27T10:00:06Z</time>
      </trkpt>
      <trkpt lat="45.08435" lon="0.68525">
        <ele>153.60000610352</ele>
        <time>2020-12-27T10:00:10Z</time>
      </trkpt>
      <trkpt lat="45.08418" lon="0.68534">
        <ele>154.60000610352</ele>
        <time>2020-12-27T10:00:17Z</time>
      </trkpt>
      <trkpt lat="45.08416" lon="0.68536">
        <ele>154.80000305176</ele>
        <time>2020-12-27T10:00:18Z</time>
      </trkpt>
      <trkpt lat="45.08409" lon="0.68541">
        <ele>156</ele>
        <time>2020-12-27T10:00:21Z</time>
      </trkpt>
      <trkpt lat="45.084" lon="0.68551">
        <ele>157.19999694824</ele>
        <time>2020-12-27T10:00:26Z</time>
      </trkpt>
      <trkpt lat="45.08396" lon="0.68554">
        <ele>157.39999389648</ele>
        <time>2020-12-27T10:00:28Z</time>
      </trkpt>
      <trkpt lat="45.08391" lon="0.68558">
        <ele>158.60000610352</ele>
        <time>2020-12-27T10:00:31Z</time>
      </trkpt>
      <trkpt lat="45.08384" lon="0.68564">
        <ele>159.80000305176</ele>
        <time>2020-12-27T10:00:35Z</time>
      </trkpt>
      <trkpt lat="45.08374" lon="0.68574">
        <ele>160.80000305176</ele>
        <time>2020-12-27T10:00:40Z</time>
      </trkpt>
      <trkpt lat="45.0837" lon="0.68583">
        <ele>161.60000610352</ele>
        <time>2020-12-27T10:00:43Z</time>
      </trkpt>
      <trkpt lat="45.08364" lon="0.68611">
        <ele>161.80000305176</ele>
        <time>2020-12-27T10:00:50Z</time>
      </trkpt>
      <trkpt lat="45.08363" lon="0.68615">
        <ele>162.19999694824</ele>
        <time>2020-12-27T10:00:51Z</time>
      </trkpt>
      <trkpt lat="45.08362" lon="0.68639">
        <ele>163</ele>
        <time>2020-12-27T10:00:57Z</time>
      </trkpt>
      <trkpt lat="45.08362" lon="0.68642">
        <ele>163.19999694824</ele>
        <time>2020-12-27T10:00:58Z</time>
      </trkpt>
      <trkpt lat="45.08364" lon="0.68662">
        <ele>164.39999389648</ele>
        <time>2020-12-27T10:01:03Z</time>
      </trkpt>
      <trkpt lat="45.08365" lon="0.6867">
        <ele>164.60000610352</ele>
        <time>2020-12-27T10:01:05Z</time>
      </trkpt>
      <trkpt lat="45.08367" lon="0.68706">
        <ele>164.80000305176</ele>
        <time>2020-12-27T10:01:14Z</time>
      </trkpt>
      <trkpt lat="45.08367" lon="0.68712">
        <ele>165.39999389648</ele>
        <time>2020-12-27T10:01:16Z</time>
      </trkpt>
      <trkpt lat="45.08366" lon="0.68728">
        <ele>166.39999389648</ele>
        <time>2020-12-27T10:01:21Z</time>
      </trkpt>
      <trkpt lat="45.08366" lon="0.68731">
        <ele>166.80000305176</ele>
        <time>2020-12-27T10:01:22Z</time>
      </trkpt>
      <trkpt lat="45.08365" lon="0.6874">
        <ele>167.60000610352</ele>
        <time>2020-12-27T10:01:25Z</time>
      </trkpt>
      <trkpt lat="45.08365" lon="0.68752">
        <ele>168.39999389648</ele>
        <time>2020-12-27T10:01:28Z</time>
      </trkpt>
      <trkpt lat="45.08367" lon="0.68771">
        <ele>168.60000610352</ele>
        <time>2020-12-27T10:01:32Z</time>
      </trkpt>
      <trkpt lat="45.08367" lon="0.68778">
        <ele>169</ele>
        <time>2020-12-27T10:01:34Z</time>
      </trkpt>
      <trkpt lat="45.08367" lon="0.68784">
        <ele>169.60000610352</ele>
        <time>2020-12-27T10:01:36Z</time>
      </trkpt>
      <trkpt lat="45.08366" lon="0.688">
        <ele>170.60000610352</ele>
        <time>2020-12-27T10:01:41Z</time>
      </trkpt>
      <trkpt lat="45.08366" lon="0.68804">
        <ele>170.80000305176</ele>
        <time>2020-12-27T10:01:42Z</time>
      </trkpt>
      <trkpt lat="45.08365" lon="0.68824">
        <ele>171.80000305176</ele>
        <time>2020-12-27T10:01:47Z</time>
      </trkpt>
      <trkpt lat="45.08366" lon="0.68855">
        <ele>170.60000610352</ele>
        <time>2020-12-27T10:01:54Z</time>
      </trkpt>
      <trkpt lat="45.08368" lon="0.68882">
        <ele>169.60000610352</ele>
        <time>2020-12-27T10:01:58Z</time>
      </trkpt>
      <trkpt lat="45.08368" lon="0.68889">
        <ele>169.39999389648</ele>
        <time>2020-12-27T10:01:59Z</time>
      </trkpt>
      <trkpt lat="45.08358" lon="0.68911">
        <ele>168.39999389648</ele>
        <time>2020-12-27T10:02:03Z</time>
      </trkpt>
      <trkpt lat="45.0835" lon="0.68918">
        <ele>167.80000305176</ele>
        <time>2020-12-27T10:02:05Z</time>
      </trkpt>
      <trkpt lat="45.08345" lon="0.68925">
        <ele>167.19999694824</ele>
        <time>2020-12-27T10:02:07Z</time>
      </trkpt>
      <trkpt lat="45.08343" lon="0.68929">
        <ele>167</ele>
        <time>2020-12-27T10:02:08Z</time>
      </trkpt>
      <trkpt lat="45.08341" lon="0.68935">
        <ele>165.39999389648</ele>
        <time>2020-12-27T10:03:04Z</time>
      </trkpt>
      <trkpt lat="45.08342" lon="0.68938">
        <ele>165</ele>
        <time>2020-12-27T10:03:05Z</time>
      </trkpt>
      <trkpt lat="45.08352" lon="0.68946">
        <ele>164.39999389648</ele>
        <time>2020-12-27T10:03:08Z</time>
      </trkpt>
      <trkpt lat="45.08371" lon="0.68956">
        <ele>163</ele>
        <time>2020-12-27T10:03:12Z</time>
      </trkpt>
      <trkpt lat="45.08381" lon="0.68962">
        <ele>162</ele>
        <time>2020-12-27T10:03:14Z</time>
      </trkpt>
      <trkpt lat="45.08398" lon="0.68969">
        <ele>160.60000610352</ele>
        <time>2020-12-27T10:03:17Z</time>
      </trkpt>
      <trkpt lat="45.08417" lon="0.68976">
        <ele>159.39999389648</ele>
        <time>2020-12-27T10:03:20Z</time>
      </trkpt>
      <trkpt lat="45.08444" lon="0.68982">
        <ele>158.19999694824</ele>
        <time>2020-12-27T10:03:24Z</time>
      </trkpt>
      <trkpt lat="45.08464" lon="0.68985">
        <ele>157.39999389648</ele>
        <time>2020-12-27T10:03:27Z</time>
      </trkpt>
      <trkpt lat="45.0847" lon="0.68985">
        <ele>157</ele>
        <time>2020-12-27T10:03:28Z</time>
      </trkpt>
      <trkpt lat="45.08503" lon="0.6898">
        <ele>156</ele>
        <time>2020-12-27T10:03:33Z</time>
      </trkpt>
      <trkpt lat="45.08509" lon="0.68979">
        <ele>156</ele>
        <time>2020-12-27T10:03:34Z</time>
      </trkpt>
      <trkpt lat="45.08552" lon="0.6896">
        <ele>155.80000305176</ele>
        <time>2020-12-27T10:03:41Z</time>
      </trkpt>
      <trkpt lat="45.08588" lon="0.68942">
        <ele>157</ele>
        <time>2020-12-27T10:03:48Z</time>
      </trkpt>
      <trkpt lat="45.08592" lon="0.68944">
        <ele>157.19999694824</ele>
        <time>2020-12-27T10:03:49Z</time>
      </trkpt>
      <trkpt lat="45.08595" lon="0.68948">
        <ele>157.19999694824</ele>
        <time>2020-12-27T10:03:50Z</time>
      </trkpt>
      <trkpt lat="45.08594" lon="0.6896">
        <ele>157.60000610352</ele>
        <time>2020-12-27T10:03:53Z</time>
      </trkpt>
      <trkpt lat="45.08586" lon="0.68973">
        <ele>157.80000305176</ele>
        <time>2020-12-27T10:03:56Z</time>
      </trkpt>
      <trkpt lat="45.08579" lon="0.68984">
        <ele>158</ele>
        <time>2020-12-27T10:03:58Z</time>
      </trkpt>
      <trkpt lat="45.08572" lon="0.68995">
        <ele>158.19999694824</ele>
        <time>2020-12-27T10:04:00Z</time>
      </trkpt>
      <trkpt lat="45.08562" lon="0.69017">
        <ele>158.19999694824</ele>
        <time>2020-12-27T10:04:03Z</time>
      </trkpt>
      <trkpt lat="45.0856" lon="0.69025">
        <ele>158.19999694824</ele>
        <time>2020-12-27T10:04:04Z</time>
      </trkpt>
      <trkpt lat="45.08554" lon="0.69058">
        <ele>158.80000305176</ele>
        <time>2020-12-27T10:04:08Z</time>
      </trkpt>
      <trkpt lat="45.08552" lon="0.69065">
        <ele>158.80000305176</ele>
        <time>2020-12-27T10:04:09Z</time>
      </trkpt>
      <trkpt lat="45.08545" lon="0.69087">
        <ele>159</ele>
        <time>2020-12-27T10:04:13Z</time>
      </trkpt>
      <trkpt lat="45.08538" lon="0.69115">
        <ele>159.19999694824</ele>
        <time>2020-12-27T10:04:18Z</time>
      </trkpt>
      <trkpt lat="45.08536" lon="0.69126">
        <ele>159.19999694824</ele>
        <time>2020-12-27T10:04:20Z</time>
      </trkpt>
      <trkpt lat="45.08527" lon="0.69171">
        <ele>159.60000610352</ele>
        <time>2020-12-27T10:04:28Z</time>
      </trkpt>
      <trkpt lat="45.08523" lon="0.69193">
        <ele>160.39999389648</ele>
        <time>2020-12-27T10:04:32Z</time>
      </trkpt>
      <trkpt lat="45.08518" lon="0.69222">
        <ele>161.19999694824</ele>
        <time>2020-12-27T10:04:37Z</time>
      </trkpt>
      <trkpt lat="45.08518" lon="0.69227">
        <ele>161.60000610352</ele>
        <time>2020-12-27T10:04:38Z</time>
      </trkpt>
      <trkpt lat="45.08516" lon="0.69249">
        <ele>162.60000610352</ele>
        <time>2020-12-27T10:04:42Z</time>
      </trkpt>
      <trkpt lat="45.08515" lon="0.69258">
        <ele>163.19999694824</ele>
        <time>2020-12-27T10:04:44Z</time>
      </trkpt>
      <trkpt lat="45.08514" lon="0.69268">
        <ele>163.80000305176</ele>
        <time>2020-12-27T10:04:46Z</time>
      </trkpt>
      <trkpt lat="45.0851" lon="0.69289">
        <ele>164.80000305176</ele>
        <time>2020-12-27T10:04:50Z</time>
      </trkpt>
      <trkpt lat="45.08509" lon="0.69293">
        <ele>165.19999694824</ele>
        <time>2020-12-27T10:04:51Z</time>
      </trkpt>
      <trkpt lat="45.08506" lon="0.69302">
        <ele>166</ele>
        <time>2020-12-27T10:04:53Z</time>
      </trkpt>
      <trkpt lat="45.08504" lon="0.69316">
        <ele>167</ele>
        <time>2020-12-27T10:04:56Z</time>
      </trkpt>
      <trkpt lat="45.08503" lon="0.6933">
        <ele>168.19999694824</ele>
        <time>2020-12-27T10:04:59Z</time>
      </trkpt>
      <trkpt lat="45.08502" lon="0.69346">
        <ele>169.39999389648</ele>
        <time>2020-12-27T10:05:02Z</time>
      </trkpt>
      <trkpt lat="45.08503" lon="0.69367">
        <ele>170.39999389648</ele>
        <time>2020-12-27T10:05:06Z</time>
      </trkpt>
      <trkpt lat="45.08503" lon="0.69372">
        <ele>170.39999389648</ele>
        <time>2020-12-27T10:05:07Z</time>
      </trkpt>
      <trkpt lat="45.08504" lon="0.69393">
        <ele>171.60000610352</ele>
        <time>2020-12-27T10:05:11Z</time>
      </trkpt>
      <trkpt lat="45.08504" lon="0.69412">
        <ele>172.80000305176</ele>
        <time>2020-12-27T10:05:15Z</time>
      </trkpt>
      <trkpt lat="45.08505" lon="0.69417">
        <ele>173.19999694824</ele>
        <time>2020-12-27T10:05:16Z</time>
      </trkpt>
      <trkpt lat="45.08507" lon="0.69458">
        <ele>172</ele>
        <time>2020-12-27T10:05:23Z</time>
      </trkpt>
      <trkpt lat="45.08507" lon="0.69464">
        <ele>171.80000305176</ele>
        <time>2020-12-27T10:05:24Z</time>
      </trkpt>
      <trkpt lat="45.08505" lon="0.69503">
        <ele>171.19999694824</ele>
        <time>2020-12-27T10:05:30Z</time>
      </trkpt>
      <trkpt lat="45.08505" lon="0.69509">
        <ele>170.80000305176</ele>
        <time>2020-12-27T10:05:31Z</time>
      </trkpt>
      <trkpt lat="45.08504" lon="0.69547">
        <ele>170.39999389648</ele>
        <time>2020-12-27T10:05:37Z</time>
      </trkpt>
      <trkpt lat="45.08504" lon="0.69594">
        <ele>170</ele>
        <time>2020-12-27T10:05:45Z</time>
      </trkpt>
      <trkpt lat="45.08505" lon="0.69629">
        <ele>169.60000610352</ele>
        <time>2020-12-27T10:05:51Z</time>
      </trkpt>
      <trkpt lat="45.08506" lon="0.69636">
        <ele>169.60000610352</ele>
        <time>2020-12-27T10:05:52Z</time>
      </trkpt>
      <trkpt lat="45.08507" lon="0.69657">
        <ele>169.39999389648</ele>
        <time>2020-12-27T10:05:55Z</time>
      </trkpt>
      <trkpt lat="45.08504" lon="0.69662">
        <ele>169.19999694824</ele>
        <time>2020-12-27T10:05:56Z</time>
      </trkpt>
      <trkpt lat="45.0849" lon="0.69667">
        <ele>169</ele>
        <time>2020-12-27T10:05:58Z</time>
      </trkpt>
      <trkpt lat="45.08476" lon="0.69665">
        <ele>168.39999389648</ele>
        <time>2020-12-27T10:06:00Z</time>
      </trkpt>
      <trkpt lat="45.08462" lon="0.69663">
        <ele>167.80000305176</ele>
        <time>2020-12-27T10:06:02Z</time>
      </trkpt>
      <trkpt lat="45.08452" lon="0.69673">
        <ele>167</ele>
        <time>2020-12-27T10:06:04Z</time>
      </trkpt>
      <trkpt lat="45.08445" lon="0.69699">
        <ele>166</ele>
        <time>2020-12-27T10:06:07Z</time>
      </trkpt>
      <trkpt lat="45.08444" lon="0.69708">
        <ele>165.80000305176</ele>
        <time>2020-12-27T10:06:08Z</time>
      </trkpt>
      <trkpt lat="45.08441" lon="0.69731">
        <ele>164.80000305176</ele>
        <time>2020-12-27T10:06:11Z</time>
      </trkpt>
      <trkpt lat="45.08439" lon="0.69737">
        <ele>164.60000610352</ele>
        <time>2020-12-27T10:06:12Z</time>
      </trkpt>
      <trkpt lat="45.08436" lon="0.69757">
        <ele>163.80000305176</ele>
        <time>2020-12-27T10:06:15Z</time>
      </trkpt>
      <trkpt lat="45.0843" lon="0.6979">
        <ele>163.19999694824</ele>
        <time>2020-12-27T10:06:20Z</time>
      </trkpt>
      <trkpt lat="45.08423" lon="0.69815">
        <ele>162.80000305176</ele>
        <time>2020-12-27T10:06:24Z</time>
      </trkpt>
      <trkpt lat="45.0842" lon="0.69834">
        <ele>162.60000610352</ele>
        <time>2020-12-27T10:06:27Z</time>
      </trkpt>
      <trkpt lat="45.0841" lon="0.69887">
        <ele>162.39999389648</ele>
        <time>2020-12-27T10:06:35Z</time>
      </trkpt>
      <trkpt lat="45.08407" lon="0.69905">
        <ele>162.39999389648</ele>
        <time>2020-12-27T10:06:38Z</time>
      </trkpt>
      <trkpt lat="45.08403" lon="0.69928">
        <ele>162.60000610352</ele>
        <time>2020-12-27T10:06:42Z</time>
      </trkpt>
      <trkpt lat="45.08397" lon="0.69978">
        <ele>163.19999694824</ele>
        <time>2020-12-27T10:06:51Z</time>
      </trkpt>
      <trkpt lat="45.08394" lon="0.7003">
        <ele>163.39999389648</ele>
        <time>2020-12-27T10:07:00Z</time>
      </trkpt>
      <trkpt lat="45.08394" lon="0.7007">
        <ele>163.80000305176</ele>
        <time>2020-12-27T10:07:07Z</time>
      </trkpt>
      <trkpt lat="45.08395" lon="0.70081">
        <ele>164</ele>
        <time>2020-12-27T10:07:09Z</time>
      </trkpt>
      <trkpt lat="45.08396" lon="0.7013">
        <ele>165</ele>
        <time>2020-12-27T10:07:18Z</time>
      </trkpt>
      <trkpt lat="45.08397" lon="0.70141">
        <ele>165.39999389648</ele>
        <time>2020-12-27T10:07:20Z</time>
      </trkpt>
      <trkpt lat="45.08397" lon="0.70162">
        <ele>166.19999694824</ele>
        <time>2020-12-27T10:07:24Z</time>
      </trkpt>
      <trkpt lat="45.08397" lon="0.7018">
        <ele>166</ele>
        <time>2020-12-27T10:07:27Z</time>
      </trkpt>
      <trkpt lat="45.08394" lon="0.70215">
        <ele>165.60000610352</ele>
        <time>2020-12-27T10:07:34Z</time>
      </trkpt>
      <trkpt lat="45.08392" lon="0.70234">
        <ele>165</ele>
        <time>2020-12-27T10:07:38Z</time>
      </trkpt>
      <trkpt lat="45.08391" lon="0.70249">
        <ele>165.19999694824</ele>
        <time>2020-12-27T10:07:41Z</time>
      </trkpt>
      <trkpt lat="45.08389" lon="0.70281">
        <ele>165.60000610352</ele>
        <time>2020-12-27T10:07:48Z</time>
      </trkpt>
      <trkpt lat="45.08388" lon="0.70295">
        <ele>166.39999389648</ele>
        <time>2020-12-27T10:07:51Z</time>
      </trkpt>
      <trkpt lat="45.08385" lon="0.70322">
        <ele>167.39999389648</ele>
        <time>2020-12-27T10:07:57Z</time>
      </trkpt>
      <trkpt lat="45.08382" lon="0.70342">
        <ele>168.60000610352</ele>
        <time>2020-12-27T10:08:02Z</time>
      </trkpt>
      <trkpt lat="45.0838" lon="0.70349">
        <ele>169</ele>
        <time>2020-12-27T10:08:04Z</time>
      </trkpt>
      <trkpt lat="45.08372" lon="0.70382">
        <ele>169</ele>
        <time>2020-12-27T10:08:12Z</time>
      </trkpt>
      <trkpt lat="45.08368" lon="0.70398">
        <ele>169.60000610352</ele>
        <time>2020-12-27T10:08:15Z</time>
      </trkpt>
      <trkpt lat="45.08363" lon="0.70428">
        <ele>169</ele>
        <time>2020-12-27T10:08:21Z</time>
      </trkpt>
      <trkpt lat="45.0836" lon="0.70465">
        <ele>170.19999694824</ele>
        <time>2020-12-27T10:08:29Z</time>
      </trkpt>
      <trkpt lat="45.08359" lon="0.70484">
        <ele>170.60000610352</ele>
        <time>2020-12-27T10:08:34Z</time>
      </trkpt>
      <trkpt lat="45.08359" lon="0.70496">
        <ele>171.19999694824</ele>
        <time>2020-12-27T10:08:37Z</time>
      </trkpt>
      <trkpt lat="45.08362" lon="0.7054">
        <ele>171.80000305176</ele>
        <time>2020-12-27T10:08:47Z</time>
      </trkpt>
      <trkpt lat="45.08362" lon="0.70545">
        <ele>171.60000610352</ele>
        <time>2020-12-27T10:08:48Z</time>
      </trkpt>
      <trkpt lat="45.08368" lon="0.70582">
        <ele>171.19999694824</ele>
        <time>2020-12-27T10:08:56Z</time>
      </trkpt>
      <trkpt lat="45.0837" lon="0.70612">
        <ele>172</ele>
        <time>2020-12-27T10:09:03Z</time>
      </trkpt>
      <trkpt lat="45.08362" lon="0.70633">
        <ele>172.19999694824</ele>
        <time>2020-12-27T10:09:09Z</time>
      </trkpt>
      <trkpt lat="45.08354" lon="0.70649">
        <ele>172.80000305176</ele>
        <time>2020-12-27T10:09:14Z</time>
      </trkpt>
      <trkpt lat="45.08348" lon="0.70661">
        <ele>173</ele>
        <time>2020-12-27T10:09:18Z</time>
      </trkpt>
      <trkpt lat="45.08338" lon="0.70667">
        <ele>174</ele>
        <time>2020-12-27T10:09:23Z</time>
      </trkpt>
      <trkpt lat="45.08331" lon="0.70678">
        <ele>174.80000305176</ele>
        <time>2020-12-27T10:09:28Z</time>
      </trkpt>
      <trkpt lat="45.08328" lon="0.70698">
        <ele>175.19999694824</ele>
        <time>2020-12-27T10:09:34Z</time>
      </trkpt>
      <trkpt lat="45.08327" lon="0.70701">
        <ele>175.19999694824</ele>
        <time>2020-12-27T10:09:35Z</time>
      </trkpt>
      <trkpt lat="45.08323" lon="0.70716">
        <ele>175.39999389648</ele>
        <time>2020-12-27T10:09:40Z</time>
      </trkpt>
      <trkpt lat="45.08319" lon="0.70735">
        <ele>176.19999694824</ele>
        <time>2020-12-27T10:09:46Z</time>
      </trkpt>
      <trkpt lat="45.08317" lon="0.70742">
        <ele>176</ele>
        <time>2020-12-27T10:09:48Z</time>
      </trkpt>
      <trkpt lat="45.08313" lon="0.70768">
        <ele>176</ele>
        <time>2020-12-27T10:09:55Z</time>
      </trkpt>
      <trkpt lat="45.08307" lon="0.70794">
        <ele>176.19999694824</ele>
        <time>2020-12-27T10:10:02Z</time>
      </trkpt>
      <trkpt lat="45.08302" lon="0.70813">
        <ele>176.80000305176</ele>
        <time>2020-12-27T10:10:08Z</time>
      </trkpt>
      <trkpt lat="45.08302" lon="0.70816">
        <ele>177.19999694824</ele>
        <time>2020-12-27T10:10:09Z</time>
      </trkpt>
      <trkpt lat="45.08298" lon="0.7083">
        <ele>178.39999389648</ele>
        <time>2020-12-27T10:10:14Z</time>
      </trkpt>
      <trkpt lat="45.08297" lon="0.70835">
        <ele>179.19999694824</ele>
        <time>2020-12-27T10:10:16Z</time>
      </trkpt>
      <trkpt lat="45.08296" lon="0.70838">
        <ele>179.60000610352</ele>
        <time>2020-12-27T10:10:17Z</time>
      </trkpt>
      <trkpt lat="45.08289" lon="0.70855">
        <ele>180.39999389648</ele>
        <time>2020-12-27T10:10:25Z</time>
      </trkpt>
      <trkpt lat="45.08289" lon="0.70857">
        <ele>180.60000610352</ele>
        <time>2020-12-27T10:10:26Z</time>
      </trkpt>
      <trkpt lat="45.08286" lon="0.70868">
        <ele>181.60000610352</ele>
        <time>2020-12-27T10:10:32Z</time>
      </trkpt>
      <trkpt lat="45.08284" lon="0.70879">
        <ele>181.80000305176</ele>
        <time>2020-12-27T10:10:37Z</time>
      </trkpt>
      <trkpt lat="45.08283" lon="0.70883">
        <ele>182.39999389648</ele>
        <time>2020-12-27T10:10:39Z</time>
      </trkpt>
      <trkpt lat="45.08281" lon="0.70888">
        <ele>183</ele>
        <time>2020-12-27T10:10:41Z</time>
      </trkpt>
      <trkpt lat="45.08278" lon="0.70897">
        <ele>184</ele>
        <time>2020-12-27T10:10:46Z</time>
      </trkpt>
      <trkpt lat="45.08271" lon="0.70943">
        <ele>187.19999694824</ele>
        <time>2020-12-27T10:11:04Z</time>
      </trkpt>
      <trkpt lat="45.08249" lon="0.70977">
        <ele>191.60000610352</ele>
        <time>2020-12-27T10:12:45Z</time>
      </trkpt>
      <trkpt lat="45.08237" lon="0.70984">
        <ele>191.80000305176</ele>
        <time>2020-12-27T10:12:51Z</time>
      </trkpt>
      <trkpt lat="45.08225" lon="0.70989">
        <ele>190.60000610352</ele>
        <time>2020-12-27T10:12:54Z</time>
      </trkpt>
      <trkpt lat="45.08216" lon="0.70992">
        <ele>190</ele>
        <time>2020-12-27T10:12:57Z</time>
      </trkpt>
      <trkpt lat="45.08207" lon="0.70992">
        <ele>189.60000610352</ele>
        <time>2020-12-27T10:12:59Z</time>
      </trkpt>
      <trkpt lat="45.082" lon="0.7099">
        <ele>188.60000610352</ele>
        <time>2020-12-27T10:13:01Z</time>
      </trkpt>
      <trkpt lat="45.08195" lon="0.7099">
        <ele>188.19999694824</ele>
        <time>2020-12-27T10:13:02Z</time>
      </trkpt>
      <trkpt lat="45.0818" lon="0.70985">
        <ele>187.60000610352</ele>
        <time>2020-12-27T10:13:06Z</time>
      </trkpt>
      <trkpt lat="45.08167" lon="0.70978">
        <ele>187.80000305176</ele>
        <time>2020-12-27T10:13:11Z</time>
      </trkpt>
      <trkpt lat="45.08149" lon="0.70975">
        <ele>188</ele>
        <time>2020-12-27T10:13:18Z</time>
      </trkpt>
      <trkpt lat="45.08132" lon="0.70983">
        <ele>188.60000610352</ele>
        <time>2020-12-27T10:13:25Z</time>
      </trkpt>
      <trkpt lat="45.08125" lon="0.70987">
        <ele>189.60000610352</ele>
        <time>2020-12-27T10:13:28Z</time>
      </trkpt>
      <trkpt lat="45.08119" lon="0.70989">
        <ele>191</ele>
        <time>2020-12-27T10:13:31Z</time>
      </trkpt>
      <trkpt lat="45.08116" lon="0.7099">
        <ele>191.60000610352</ele>
        <time>2020-12-27T10:13:32Z</time>
      </trkpt>
      <trkpt lat="45.08111" lon="0.70991">
        <ele>192.19999694824</ele>
        <time>2020-12-27T10:13:34Z</time>
      </trkpt>
      <trkpt lat="45.08103" lon="0.70991">
        <ele>193.39999389648</ele>
        <time>2020-12-27T10:13:37Z</time>
      </trkpt>
      <trkpt lat="45.08101" lon="0.70991">
        <ele>194</ele>
        <time>2020-12-27T10:13:38Z</time>
      </trkpt>
      <trkpt lat="45.08095" lon="0.70993">
        <ele>194.60000610352</ele>
        <time>2020-12-27T10:13:40Z</time>
      </trkpt>
      <trkpt lat="45.08083" lon="0.70992">
        <ele>195.80000305176</ele>
        <time>2020-12-27T10:13:44Z</time>
      </trkpt>
      <trkpt lat="45.0807" lon="0.70984">
        <ele>196.39999389648</ele>
        <time>2020-12-27T10:13:49Z</time>
      </trkpt>
      <trkpt lat="45.08068" lon="0.70983">
        <ele>196.80000305176</ele>
        <time>2020-12-27T10:13:50Z</time>
      </trkpt>
      <trkpt lat="45.08064" lon="0.70984">
        <ele>198</ele>
        <time>2020-12-27T10:13:53Z</time>
      </trkpt>
      <trkpt lat="45.08062" lon="0.70985">
        <ele>198.19999694824</ele>
        <time>2020-12-27T10:13:54Z</time>
      </trkpt>
      <trkpt lat="45.08048" lon="0.70992">
        <ele>198.60000610352</ele>
        <time>2020-12-27T10:14:00Z</time>
      </trkpt>
      <trkpt lat="45.0804" lon="0.70994">
        <ele>199</ele>
        <time>2020-12-27T10:14:03Z</time>
      </trkpt>
      <trkpt lat="45.0803" lon="0.70994">
        <ele>199.39999389648</ele>
        <time>2020-12-27T10:14:07Z</time>
      </trkpt>
      <trkpt lat="45.08014" lon="0.70999">
        <ele>199.60000610352</ele>
        <time>2020-12-27T10:14:13Z</time>
      </trkpt>
      <trkpt lat="45.07998" lon="0.71007">
        <ele>200.19999694824</ele>
        <time>2020-12-27T10:14:19Z</time>
      </trkpt>
      <trkpt lat="45.07995" lon="0.71007">
        <ele>200.39999389648</ele>
        <time>2020-12-27T10:14:20Z</time>
      </trkpt>
      <trkpt lat="45.07985" lon="0.71011">
        <ele>201.39999389648</ele>
        <time>2020-12-27T10:14:24Z</time>
      </trkpt>
      <trkpt lat="45.07978" lon="0.71014">
        <ele>202</ele>
        <time>2020-12-27T10:14:27Z</time>
      </trkpt>
      <trkpt lat="45.07973" lon="0.71016">
        <ele>202.80000305176</ele>
        <time>2020-12-27T10:14:29Z</time>
      </trkpt>
      <trkpt lat="45.0796" lon="0.71021">
        <ele>204.19999694824</ele>
        <time>2020-12-27T10:14:34Z</time>
      </trkpt>
      <trkpt lat="45.0794" lon="0.71024">
        <ele>204</ele>
        <time>2020-12-27T10:14:41Z</time>
      </trkpt>
      <trkpt lat="45.07926" lon="0.71025">
        <ele>204.19999694824</ele>
        <time>2020-12-27T10:14:47Z</time>
      </trkpt>
      <trkpt lat="45.07909" lon="0.71033">
        <ele>205.19999694824</ele>
        <time>2020-12-27T10:14:54Z</time>
      </trkpt>
      <trkpt lat="45.07895" lon="0.71045">
        <ele>204.39999389648</ele>
        <time>2020-12-27T10:15:00Z</time>
      </trkpt>
      <trkpt lat="45.07885" lon="0.71051">
        <ele>205.39999389648</ele>
        <time>2020-12-27T10:15:04Z</time>
      </trkpt>
      <trkpt lat="45.0788" lon="0.71056">
        <ele>205.19999694824</ele>
        <time>2020-12-27T10:15:06Z</time>
      </trkpt>
      <trkpt lat="45.07859" lon="0.71079">
        <ele>205.80000305176</ele>
        <time>2020-12-27T10:15:15Z</time>
      </trkpt>
      <trkpt lat="45.07852" lon="0.71088">
        <ele>206.39999389648</ele>
        <time>2020-12-27T10:15:20Z</time>
      </trkpt>
      <trkpt lat="45.0785" lon="0.71089">
        <ele>206.39999389648</ele>
        <time>2020-12-27T10:15:21Z</time>
      </trkpt>
      <trkpt lat="45.07843" lon="0.71107">
        <ele>208</ele>
        <time>2020-12-27T10:16:24Z</time>
      </trkpt>
      <trkpt lat="45.07839" lon="0.71115">
        <ele>208.80000305176</ele>
        <time>2020-12-27T10:16:28Z</time>
      </trkpt>
      <trkpt lat="45.0783" lon="0.71127">
        <ele>209</ele>
        <time>2020-12-27T10:16:34Z</time>
      </trkpt>
      <trkpt lat="45.07825" lon="0.71133">
        <ele>209.39999389648</ele>
        <time>2020-12-27T10:16:37Z</time>
      </trkpt>
      <trkpt lat="45.07811" lon="0.71147">
        <ele>210</ele>
        <time>2020-12-27T10:16:44Z</time>
      </trkpt>
      <trkpt lat="45.07809" lon="0.71148">
        <ele>210.19999694824</ele>
        <time>2020-12-27T10:16:45Z</time>
      </trkpt>
      <trkpt lat="45.07796" lon="0.7116">
        <ele>210</ele>
        <time>2020-12-27T10:16:51Z</time>
      </trkpt>
      <trkpt lat="45.07781" lon="0.71171">
        <ele>210.80000305176</ele>
        <time>2020-12-27T10:16:57Z</time>
      </trkpt>
      <trkpt lat="45.07773" lon="0.71176">
        <ele>211.19999694824</ele>
        <time>2020-12-27T10:17:00Z</time>
      </trkpt>
      <trkpt lat="45.07764" lon="0.71179">
        <ele>212</ele>
        <time>2020-12-27T10:17:03Z</time>
      </trkpt>
      <trkpt lat="45.07761" lon="0.7118">
        <ele>212.39999389648</ele>
        <time>2020-12-27T10:17:04Z</time>
      </trkpt>
      <trkpt lat="45.07748" lon="0.71182">
        <ele>213.60000610352</ele>
        <time>2020-12-27T10:17:09Z</time>
      </trkpt>
      <trkpt lat="45.07745" lon="0.71182">
        <ele>213.80000305176</ele>
        <time>2020-12-27T10:17:10Z</time>
      </trkpt>
      <trkpt lat="45.07731" lon="0.71182">
        <ele>214.80000305176</ele>
        <time>2020-12-27T10:17:15Z</time>
      </trkpt>
      <trkpt lat="45.07723" lon="0.71184">
        <ele>215.19999694824</ele>
        <time>2020-12-27T10:17:18Z</time>
      </trkpt>
      <trkpt lat="45.07709" lon="0.71187">
        <ele>215.80000305176</ele>
        <time>2020-12-27T10:17:23Z</time>
      </trkpt>
      <trkpt lat="45.07704" lon="0.71189">
        <ele>216.19999694824</ele>
        <time>2020-12-27T10:17:25Z</time>
      </trkpt>
      <trkpt lat="45.07685" lon="0.71204">
        <ele>216.80000305176</ele>
        <time>2020-12-27T10:17:33Z</time>
      </trkpt>
      <trkpt lat="45.07668" lon="0.71222">
        <ele>217.39999389648</ele>
        <time>2020-12-27T10:17:41Z</time>
      </trkpt>
      <trkpt lat="45.07656" lon="0.71235">
        <ele>217.60000610352</ele>
        <time>2020-12-27T10:17:48Z</time>
      </trkpt>
      <trkpt lat="45.07652" lon="0.7124">
        <ele>218</ele>
        <time>2020-12-27T10:17:51Z</time>
      </trkpt>
      <trkpt lat="45.07646" lon="0.71247">
        <ele>218.39999389648</ele>
        <time>2020-12-27T10:17:56Z</time>
      </trkpt>
      <trkpt lat="45.07641" lon="0.71248">
        <ele>219</ele>
        <time>2020-12-27T10:19:11Z</time>
      </trkpt>
      <trkpt lat="45.07638" lon="0.7125">
        <ele>219</ele>
        <time>2020-12-27T10:19:13Z</time>
      </trkpt>
      <trkpt lat="45.07624" lon="0.71253">
        <ele>219.80000305176</ele>
        <time>2020-12-27T10:19:20Z</time>
      </trkpt>
      <trkpt lat="45.07612" lon="0.71257">
        <ele>220.19999694824</ele>
        <time>2020-12-27T10:19:26Z</time>
      </trkpt>
      <trkpt lat="45.07608" lon="0.71259">
        <ele>220.19999694824</ele>
        <time>2020-12-27T10:19:28Z</time>
      </trkpt>
      <trkpt lat="45.07589" lon="0.71265">
        <ele>220.80000305176</ele>
        <time>2020-12-27T10:19:35Z</time>
      </trkpt>
      <trkpt lat="45.07579" lon="0.71257">
        <ele>220.80000305176</ele>
        <time>2020-12-27T10:19:39Z</time>
      </trkpt>
      <trkpt lat="45.07568" lon="0.71247">
        <ele>221.19999694824</ele>
        <time>2020-12-27T10:19:43Z</time>
      </trkpt>
      <trkpt lat="45.07559" lon="0.71238">
        <ele>221.60000610352</ele>
        <time>2020-12-27T10:19:47Z</time>
      </trkpt>
      <trkpt lat="45.07551" lon="0.71229">
        <ele>222.19999694824</ele>
        <time>2020-12-27T10:19:51Z</time>
      </trkpt>
      <trkpt lat="45.07547" lon="0.71225">
        <ele>222.80000305176</ele>
        <time>2020-12-27T10:19:53Z</time>
      </trkpt>
      <trkpt lat="45.07545" lon="0.71223">
        <ele>223.19999694824</ele>
        <time>2020-12-27T10:19:54Z</time>
      </trkpt>
      <trkpt lat="45.07528" lon="0.71208">
        <ele>223.80000305176</ele>
        <time>2020-12-27T10:20:00Z</time>
      </trkpt>
      <trkpt lat="45.07505" lon="0.71186">
        <ele>223.39999389648</ele>
        <time>2020-12-27T10:20:09Z</time>
      </trkpt>
      <trkpt lat="45.07487" lon="0.71173">
        <ele>223</ele>
        <time>2020-12-27T10:20:15Z</time>
      </trkpt>
      <trkpt lat="45.07471" lon="0.71158">
        <ele>222.39999389648</ele>
        <time>2020-12-27T10:20:21Z</time>
      </trkpt>
      <trkpt lat="45.07469" lon="0.71155">
        <ele>222</ele>
        <time>2020-12-27T10:20:22Z</time>
      </trkpt>
      <trkpt lat="45.07451" lon="0.71143">
        <ele>222.19999694824</ele>
        <time>2020-12-27T10:20:28Z</time>
      </trkpt>
      <trkpt lat="45.07434" lon="0.71135">
        <ele>222.80000305176</ele>
        <time>2020-12-27T10:20:34Z</time>
      </trkpt>
      <trkpt lat="45.07415" lon="0.71132">
        <ele>222.39999389648</ele>
        <time>2020-12-27T10:20:41Z</time>
      </trkpt>
      <trkpt lat="45.07395" lon="0.71131">
        <ele>221.60000610352</ele>
        <time>2020-12-27T10:20:48Z</time>
      </trkpt>
      <trkpt lat="45.07383" lon="0.71128">
        <ele>222.19999694824</ele>
        <time>2020-12-27T10:20:52Z</time>
      </trkpt>
      <trkpt lat="45.07372" lon="0.71123">
        <ele>223.19999694824</ele>
        <time>2020-12-27T10:20:56Z</time>
      </trkpt>
      <trkpt lat="45.07359" lon="0.71113">
        <ele>223.19999694824</ele>
        <time>2020-12-27T10:21:00Z</time>
      </trkpt>
      <trkpt lat="45.07345" lon="0.71096">
        <ele>224.19999694824</ele>
        <time>2020-12-27T10:21:05Z</time>
      </trkpt>
      <trkpt lat="45.07339" lon="0.71088">
        <ele>224.80000305176</ele>
        <time>2020-12-27T10:21:07Z</time>
      </trkpt>
      <trkpt lat="45.07328" lon="0.71077">
        <ele>225.60000610352</ele>
        <time>2020-12-27T10:21:10Z</time>
      </trkpt>
      <trkpt lat="45.07316" lon="0.71067">
        <ele>226.60000610352</ele>
        <time>2020-12-27T10:21:13Z</time>
      </trkpt>
      <trkpt lat="45.07312" lon="0.71064">
        <ele>226.80000305176</ele>
        <time>2020-12-27T10:21:14Z</time>
      </trkpt>
      <trkpt lat="45.0729" lon="0.71041">
        <ele>227.39999389648</ele>
        <time>2020-12-27T10:21:20Z</time>
      </trkpt>
      <trkpt lat="45.07285" lon="0.71037">
        <ele>227.60000610352</ele>
        <time>2020-12-27T10:21:21Z</time>
      </trkpt>
      <trkpt lat="45.07281" lon="0.71033">
        <ele>228</ele>
        <time>2020-12-27T10:21:22Z</time>
      </trkpt>
      <trkpt lat="45.07269" lon="0.71022">
        <ele>229.19999694824</ele>
        <time>2020-12-27T10:21:25Z</time>
      </trkpt>
      <trkpt lat="45.07257" lon="0.71011">
        <ele>230.19999694824</ele>
        <time>2020-12-27T10:21:28Z</time>
      </trkpt>
      <trkpt lat="45.07253" lon="0.71008">
        <ele>230.19999694824</ele>
        <time>2020-12-27T10:21:29Z</time>
      </trkpt>
      <trkpt lat="45.07225" lon="0.70986">
        <ele>231.19999694824</ele>
        <time>2020-12-27T10:21:36Z</time>
      </trkpt>
      <trkpt lat="45.07198" lon="0.70955">
        <ele>230.60000610352</ele>
        <time>2020-12-27T10:21:43Z</time>
      </trkpt>
      <trkpt lat="45.07181" lon="0.70926">
        <ele>230.19999694824</ele>
        <time>2020-12-27T10:21:48Z</time>
      </trkpt>
      <trkpt lat="45.07163" lon="0.70886">
        <ele>229.19999694824</ele>
        <time>2020-12-27T10:21:54Z</time>
      </trkpt>
      <trkpt lat="45.07151" lon="0.70868">
        <ele>228.80000305176</ele>
        <time>2020-12-27T10:21:57Z</time>
      </trkpt>
      <trkpt lat="45.0714" lon="0.70854">
        <ele>228.60000610352</ele>
        <time>2020-12-27T10:21:59Z</time>
      </trkpt>
      <trkpt lat="45.07136" lon="0.70845">
        <ele>228.39999389648</ele>
        <time>2020-12-27T10:22:00Z</time>
      </trkpt>
      <trkpt lat="45.07132" lon="0.70837">
        <ele>228.19999694824</ele>
        <time>2020-12-27T10:22:01Z</time>
      </trkpt>
      <trkpt lat="45.07126" lon="0.7082">
        <ele>227.80000305176</ele>
        <time>2020-12-27T10:22:03Z</time>
      </trkpt>
      <trkpt lat="45.07111" lon="0.70771">
        <ele>227</ele>
        <time>2020-12-27T10:22:09Z</time>
      </trkpt>
      <trkpt lat="45.07098" lon="0.70727">
        <ele>225.80000305176</ele>
        <time>2020-12-27T10:22:15Z</time>
      </trkpt>
      <trkpt lat="45.0709" lon="0.70692">
        <ele>224.80000305176</ele>
        <time>2020-12-27T10:22:20Z</time>
      </trkpt>
      <trkpt lat="45.07088" lon="0.70686">
        <ele>224.60000610352</ele>
        <time>2020-12-27T10:22:21Z</time>
      </trkpt>
      <trkpt lat="45.07085" lon="0.70668">
        <ele>223.60000610352</ele>
        <time>2020-12-27T10:22:24Z</time>
      </trkpt>
      <trkpt lat="45.07078" lon="0.70647">
        <ele>222.39999389648</ele>
        <time>2020-12-27T10:22:28Z</time>
      </trkpt>
      <trkpt lat="45.07074" lon="0.70629">
        <ele>221.19999694824</ele>
        <time>2020-12-27T10:22:31Z</time>
      </trkpt>
      <trkpt lat="45.0707" lon="0.70611">
        <ele>220</ele>
        <time>2020-12-27T10:22:34Z</time>
      </trkpt>
      <trkpt lat="45.07066" lon="0.70599">
        <ele>219.39999389648</ele>
        <time>2020-12-27T10:22:36Z</time>
      </trkpt>
      <trkpt lat="45.07064" lon="0.70593">
        <ele>219</ele>
        <time>2020-12-27T10:22:37Z</time>
      </trkpt>
      <trkpt lat="45.07057" lon="0.70565">
        <ele>217.60000610352</ele>
        <time>2020-12-27T10:22:42Z</time>
      </trkpt>
      <trkpt lat="45.07056" lon="0.70559">
        <ele>217.39999389648</ele>
        <time>2020-12-27T10:22:43Z</time>
      </trkpt>
      <trkpt lat="45.07051" lon="0.7052">
        <ele>216.60000610352</ele>
        <time>2020-12-27T10:22:50Z</time>
      </trkpt>
      <trkpt lat="45.07051" lon="0.70516">
        <ele>216.60000610352</ele>
        <time>2020-12-27T10:22:51Z</time>
      </trkpt>
      <trkpt lat="45.07044" lon="0.70498">
        <ele>216.19999694824</ele>
        <time>2020-12-27T10:22:56Z</time>
      </trkpt>
      <trkpt lat="45.07029" lon="0.70489">
        <ele>216.60000610352</ele>
        <time>2020-12-27T10:23:01Z</time>
      </trkpt>
      <trkpt lat="45.07007" lon="0.70488">
        <ele>216.39999389648</ele>
        <time>2020-12-27T10:23:07Z</time>
      </trkpt>
      <trkpt lat="45.06995" lon="0.70485">
        <ele>216.60000610352</ele>
        <time>2020-12-27T10:23:12Z</time>
      </trkpt>
      <trkpt lat="45.06988" lon="0.70485">
        <ele>217.80000305176</ele>
        <time>2020-12-27T10:23:15Z</time>
      </trkpt>
      <trkpt lat="45.0698" lon="0.70482">
        <ele>218.80000305176</ele>
        <time>2020-12-27T10:23:19Z</time>
      </trkpt>
      <trkpt lat="45.06978" lon="0.70481">
        <ele>219</ele>
        <time>2020-12-27T10:23:20Z</time>
      </trkpt>
      <trkpt lat="45.06975" lon="0.70477">
        <ele>220.19999694824</ele>
        <time>2020-12-27T10:23:22Z</time>
      </trkpt>
      <trkpt lat="45.06971" lon="0.70477">
        <ele>221.19999694824</ele>
        <time>2020-12-27T10:23:24Z</time>
      </trkpt>
      <trkpt lat="45.06964" lon="0.70478">
        <ele>222.39999389648</ele>
        <time>2020-12-27T10:23:27Z</time>
      </trkpt>
      <trkpt lat="45.06958" lon="0.70477">
        <ele>223.39999389648</ele>
        <time>2020-12-27T10:23:29Z</time>
      </trkpt>
      <trkpt lat="45.06955" lon="0.70477">
        <ele>223.80000305176</ele>
        <time>2020-12-27T10:23:30Z</time>
      </trkpt>
      <trkpt lat="45.06926" lon="0.70469">
        <ele>223.80000305176</ele>
        <time>2020-12-27T10:23:38Z</time>
      </trkpt>
      <trkpt lat="45.069" lon="0.7045">
        <ele>224</ele>
        <time>2020-12-27T10:23:47Z</time>
      </trkpt>
      <trkpt lat="45.06884" lon="0.70442">
        <ele>224.39999389648</ele>
        <time>2020-12-27T10:23:53Z</time>
      </trkpt>
      <trkpt lat="45.06877" lon="0.70434">
        <ele>224.39999389648</ele>
        <time>2020-12-27T10:23:56Z</time>
      </trkpt>
      <trkpt lat="45.06868" lon="0.70427">
        <ele>225</ele>
        <time>2020-12-27T10:24:00Z</time>
      </trkpt>
      <trkpt lat="45.06866" lon="0.70426">
        <ele>225.39999389648</ele>
        <time>2020-12-27T10:24:01Z</time>
      </trkpt>
      <trkpt lat="45.06854" lon="0.70413">
        <ele>225.80000305176</ele>
        <time>2020-12-27T10:24:07Z</time>
      </trkpt>
      <trkpt lat="45.06844" lon="0.70403">
        <ele>226.39999389648</ele>
        <time>2020-12-27T10:24:11Z</time>
      </trkpt>
      <trkpt lat="45.06831" lon="0.70393">
        <ele>227</ele>
        <time>2020-12-27T10:24:15Z</time>
      </trkpt>
      <trkpt lat="45.0682" lon="0.70377">
        <ele>227.60000610352</ele>
        <time>2020-12-27T10:24:19Z</time>
      </trkpt>
      <trkpt lat="45.06816" lon="0.70369">
        <ele>227.60000610352</ele>
        <time>2020-12-27T10:24:21Z</time>
      </trkpt>
      <trkpt lat="45.06801" lon="0.70353">
        <ele>228.60000610352</ele>
        <time>2020-12-27T10:24:27Z</time>
      </trkpt>
      <trkpt lat="45.06798" lon="0.7035">
        <ele>228.60000610352</ele>
        <time>2020-12-27T10:24:28Z</time>
      </trkpt>
      <trkpt lat="45.06786" lon="0.70339">
        <ele>229.19999694824</ele>
        <time>2020-12-27T10:24:33Z</time>
      </trkpt>
      <trkpt lat="45.06778" lon="0.70332">
        <ele>229.80000305176</ele>
        <time>2020-12-27T10:24:36Z</time>
      </trkpt>
      <trkpt lat="45.06766" lon="0.7032">
        <ele>229.60000610352</ele>
        <time>2020-12-27T10:24:41Z</time>
      </trkpt>
      <trkpt lat="45.06757" lon="0.70313">
        <ele>230.60000610352</ele>
        <time>2020-12-27T10:24:46Z</time>
      </trkpt>
      <trkpt lat="45.06755" lon="0.70312">
        <ele>230.80000305176</ele>
        <time>2020-12-27T10:24:47Z</time>
      </trkpt>
      <trkpt lat="45.0675" lon="0.70313">
        <ele>231.19999694824</ele>
        <time>2020-12-27T10:24:50Z</time>
      </trkpt>
      <trkpt lat="45.06749" lon="0.70316">
        <ele>231.39999389648</ele>
        <time>2020-12-27T10:24:51Z</time>
      </trkpt>
      <trkpt lat="45.06744" lon="0.70329">
        <ele>232.80000305176</ele>
        <time>2020-12-27T10:26:39Z</time>
      </trkpt>
      <trkpt lat="45.0674" lon="0.70344">
        <ele>231.60000610352</ele>
        <time>2020-12-27T10:26:42Z</time>
      </trkpt>
      <trkpt lat="45.06738" lon="0.70352">
        <ele>231.19999694824</ele>
        <time>2020-12-27T10:26:43Z</time>
      </trkpt>
      <trkpt lat="45.06731" lon="0.70368">
        <ele>230.19999694824</ele>
        <time>2020-12-27T10:26:45Z</time>
      </trkpt>
      <trkpt lat="45.06728" lon="0.70377">
        <ele>229.60000610352</ele>
        <time>2020-12-27T10:26:46Z</time>
      </trkpt>
      <trkpt lat="45.06726" lon="0.70386">
        <ele>229</ele>
        <time>2020-12-27T10:26:47Z</time>
      </trkpt>
      <trkpt lat="45.06721" lon="0.70405">
        <ele>227.80000305176</ele>
        <time>2020-12-27T10:26:49Z</time>
      </trkpt>
      <trkpt lat="45.06715" lon="0.70424">
        <ele>226.39999389648</ele>
        <time>2020-12-27T10:26:51Z</time>
      </trkpt>
      <trkpt lat="45.06708" lon="0.70442">
        <ele>225</ele>
        <time>2020-12-27T10:26:53Z</time>
      </trkpt>
      <trkpt lat="45.067" lon="0.7046">
        <ele>223.60000610352</ele>
        <time>2020-12-27T10:26:55Z</time>
      </trkpt>
      <trkpt lat="45.06693" lon="0.70477">
        <ele>222.19999694824</ele>
        <time>2020-12-27T10:26:57Z</time>
      </trkpt>
      <trkpt lat="45.06687" lon="0.70486">
        <ele>220.80000305176</ele>
        <time>2020-12-27T10:26:59Z</time>
      </trkpt>
      <trkpt lat="45.06686" lon="0.70488">
        <ele>220.39999389648</ele>
        <time>2020-12-27T10:27:00Z</time>
      </trkpt>
      <trkpt lat="45.06685" lon="0.70489">
        <ele>219.80000305176</ele>
        <time>2020-12-27T10:27:01Z</time>
      </trkpt>
      <trkpt lat="45.06682" lon="0.70494">
        <ele>218.39999389648</ele>
        <time>2020-12-27T10:27:04Z</time>
      </trkpt>
      <trkpt lat="45.06673" lon="0.70498">
        <ele>217.19999694824</ele>
        <time>2020-12-27T10:27:08Z</time>
      </trkpt>
      <trkpt lat="45.0667" lon="0.70498">
        <ele>217</ele>
        <time>2020-12-27T10:27:09Z</time>
      </trkpt>
      <trkpt lat="45.06656" lon="0.70502">
        <ele>216.19999694824</ele>
        <time>2020-12-27T10:27:14Z</time>
      </trkpt>
      <trkpt lat="45.0665" lon="0.70503">
        <ele>216</ele>
        <time>2020-12-27T10:27:16Z</time>
      </trkpt>
      <trkpt lat="45.06623" lon="0.70507">
        <ele>215.60000610352</ele>
        <time>2020-12-27T10:27:24Z</time>
      </trkpt>
      <trkpt lat="45.06596" lon="0.70512">
        <ele>216</ele>
        <time>2020-12-27T10:27:32Z</time>
      </trkpt>
      <trkpt lat="45.06567" lon="0.70523">
        <ele>216.80000305176</ele>
        <time>2020-12-27T10:27:41Z</time>
      </trkpt>
      <trkpt lat="45.06548" lon="0.70529">
        <ele>217</ele>
        <time>2020-12-27T10:27:47Z</time>
      </trkpt>
      <trkpt lat="45.06529" lon="0.70532">
        <ele>217.19999694824</ele>
        <time>2020-12-27T10:27:53Z</time>
      </trkpt>
      <trkpt lat="45.06526" lon="0.70533">
        <ele>217.39999389648</ele>
        <time>2020-12-27T10:27:54Z</time>
      </trkpt>
      <trkpt lat="45.06509" lon="0.70537">
        <ele>218.19999694824</ele>
        <time>2020-12-27T10:27:59Z</time>
      </trkpt>
      <trkpt lat="45.06506" lon="0.70539">
        <ele>219</ele>
        <time>2020-12-27T10:28:00Z</time>
      </trkpt>
      <trkpt lat="45.06502" lon="0.7054">
        <ele>219.80000305176</ele>
        <time>2020-12-27T10:28:01Z</time>
      </trkpt>
      <trkpt lat="45.06494" lon="0.70541">
        <ele>221</ele>
        <time>2020-12-27T10:28:03Z</time>
      </trkpt>
      <trkpt lat="45.06487" lon="0.70541">
        <ele>222.19999694824</ele>
        <time>2020-12-27T10:28:05Z</time>
      </trkpt>
      <trkpt lat="45.06483" lon="0.7054">
        <ele>223</ele>
        <time>2020-12-27T10:28:06Z</time>
      </trkpt>
      <trkpt lat="45.06479" lon="0.70539">
        <ele>223.39999389648</ele>
        <time>2020-12-27T10:28:07Z</time>
      </trkpt>
      <trkpt lat="45.06463" lon="0.70535">
        <ele>223.80000305176</ele>
        <time>2020-12-27T10:28:12Z</time>
      </trkpt>
      <trkpt lat="45.06446" lon="0.7053">
        <ele>224.60000610352</ele>
        <time>2020-12-27T10:28:17Z</time>
      </trkpt>
      <trkpt lat="45.06439" lon="0.70527">
        <ele>225.19999694824</ele>
        <time>2020-12-27T10:28:19Z</time>
      </trkpt>
      <trkpt lat="45.06416" lon="0.70519">
        <ele>225.60000610352</ele>
        <time>2020-12-27T10:28:25Z</time>
      </trkpt>
      <trkpt lat="45.06413" lon="0.70518">
        <ele>226</ele>
        <time>2020-12-27T10:28:26Z</time>
      </trkpt>
      <trkpt lat="45.06398" lon="0.70514">
        <ele>226.80000305176</ele>
        <time>2020-12-27T10:28:30Z</time>
      </trkpt>
      <trkpt lat="45.0638" lon="0.70508">
        <ele>227.39999389648</ele>
        <time>2020-12-27T10:28:35Z</time>
      </trkpt>
      <trkpt lat="45.06374" lon="0.70505">
        <ele>228</ele>
        <time>2020-12-27T10:28:37Z</time>
      </trkpt>
      <trkpt lat="45.06362" lon="0.70499">
        <ele>229.19999694824</ele>
        <time>2020-12-27T10:28:41Z</time>
      </trkpt>
      <trkpt lat="45.06351" lon="0.70484">
        <ele>229.19999694824</ele>
        <time>2020-12-27T10:28:47Z</time>
      </trkpt>
      <trkpt lat="45.0635" lon="0.70469">
        <ele>229.80000305176</ele>
        <time>2020-12-27T10:28:52Z</time>
      </trkpt>
      <trkpt lat="45.06344" lon="0.70455">
        <ele>229.60000610352</ele>
        <time>2020-12-27T10:28:58Z</time>
      </trkpt>
      <trkpt lat="45.0633" lon="0.70441">
        <ele>229.80000305176</ele>
        <time>2020-12-27T10:29:04Z</time>
      </trkpt>
      <trkpt lat="45.06318" lon="0.70428">
        <ele>230</ele>
        <time>2020-12-27T10:29:10Z</time>
      </trkpt>
      <trkpt lat="45.06303" lon="0.70414">
        <ele>229.80000305176</ele>
        <time>2020-12-27T10:29:16Z</time>
      </trkpt>
      <trkpt lat="45.06291" lon="0.70397">
        <ele>228.60000610352</ele>
        <time>2020-12-27T10:29:22Z</time>
      </trkpt>
      <trkpt lat="45.06274" lon="0.70367">
        <ele>229</ele>
        <time>2020-12-27T10:29:31Z</time>
      </trkpt>
      <trkpt lat="45.06266" lon="0.70343">
        <ele>228.80000305176</ele>
        <time>2020-12-27T10:29:37Z</time>
      </trkpt>
      <trkpt lat="45.06255" lon="0.70321">
        <ele>228.19999694824</ele>
        <time>2020-12-27T10:29:42Z</time>
      </trkpt>
      <trkpt lat="45.06249" lon="0.70311">
        <ele>227.80000305176</ele>
        <time>2020-12-27T10:29:44Z</time>
      </trkpt>
      <trkpt lat="45.06233" lon="0.70285">
        <ele>227.19999694824</ele>
        <time>2020-12-27T10:29:50Z</time>
      </trkpt>
      <trkpt lat="45.0623" lon="0.70282">
        <ele>227</ele>
        <time>2020-12-27T10:29:51Z</time>
      </trkpt>
      <trkpt lat="45.06212" lon="0.70261">
        <ele>226.60000610352</ele>
        <time>2020-12-27T10:29:57Z</time>
      </trkpt>
      <trkpt lat="45.06193" lon="0.70231">
        <ele>226.39999389648</ele>
        <time>2020-12-27T10:30:02Z</time>
      </trkpt>
      <trkpt lat="45.06184" lon="0.70219">
        <ele>226</ele>
        <time>2020-12-27T10:30:04Z</time>
      </trkpt>
      <trkpt lat="45.06167" lon="0.70199">
        <ele>225.19999694824</ele>
        <time>2020-12-27T10:30:08Z</time>
      </trkpt>
      <trkpt lat="45.06162" lon="0.70196">
        <ele>225</ele>
        <time>2020-12-27T10:30:09Z</time>
      </trkpt>
      <trkpt lat="45.06156" lon="0.70193">
        <ele>224.80000305176</ele>
        <time>2020-12-27T10:30:10Z</time>
      </trkpt>
      <trkpt lat="45.06144" lon="0.70187">
        <ele>224.19999694824</ele>
        <time>2020-12-27T10:30:12Z</time>
      </trkpt>
      <trkpt lat="45.06132" lon="0.70178">
        <ele>223.60000610352</ele>
        <time>2020-12-27T10:30:14Z</time>
      </trkpt>
      <trkpt lat="45.06108" lon="0.70154">
        <ele>222.39999389648</ele>
        <time>2020-12-27T10:30:18Z</time>
      </trkpt>
      <trkpt lat="45.06103" lon="0.70147">
        <ele>222</ele>
        <time>2020-12-27T10:30:19Z</time>
      </trkpt>
      <trkpt lat="45.06093" lon="0.7013">
        <ele>221.19999694824</ele>
        <time>2020-12-27T10:30:21Z</time>
      </trkpt>
      <trkpt lat="45.06079" lon="0.70107">
        <ele>220</ele>
        <time>2020-12-27T10:30:24Z</time>
      </trkpt>
      <trkpt lat="45.06075" lon="0.701">
        <ele>219.80000305176</ele>
        <time>2020-12-27T10:30:25Z</time>
      </trkpt>
      <trkpt lat="45.06066" lon="0.70085">
        <ele>219</ele>
        <time>2020-12-27T10:30:27Z</time>
      </trkpt>
      <trkpt lat="45.06051" lon="0.70057">
        <ele>217.80000305176</ele>
        <time>2020-12-27T10:30:31Z</time>
      </trkpt>
      <trkpt lat="45.06047" lon="0.7005">
        <ele>217</ele>
        <time>2020-12-27T10:30:32Z</time>
      </trkpt>
      <trkpt lat="45.06041" lon="0.70037">
        <ele>216.60000610352</ele>
        <time>2020-12-27T10:30:34Z</time>
      </trkpt>
      <trkpt lat="45.06035" lon="0.70024">
        <ele>216</ele>
        <time>2020-12-27T10:30:36Z</time>
      </trkpt>
      <trkpt lat="45.06031" lon="0.70019">
        <ele>215.80000305176</ele>
        <time>2020-12-27T10:30:37Z</time>
      </trkpt>
      <trkpt lat="45.06027" lon="0.70014">
        <ele>215.60000610352</ele>
        <time>2020-12-27T10:30:38Z</time>
      </trkpt>
      <trkpt lat="45.06018" lon="0.70003">
        <ele>215.19999694824</ele>
        <time>2020-12-27T10:30:40Z</time>
      </trkpt>
      <trkpt lat="45.06006" lon="0.69989">
        <ele>214.39999389648</ele>
        <time>2020-12-27T10:30:43Z</time>
      </trkpt>
      <trkpt lat="45.06001" lon="0.69986">
        <ele>214</ele>
        <time>2020-12-27T10:30:44Z</time>
      </trkpt>
      <trkpt lat="45.05996" lon="0.69985">
        <ele>213.80000305176</ele>
        <time>2020-12-27T10:30:45Z</time>
      </trkpt>
      <trkpt lat="45.05984" lon="0.69984">
        <ele>213.19999694824</ele>
        <time>2020-12-27T10:30:47Z</time>
      </trkpt>
      <trkpt lat="45.05972" lon="0.69982">
        <ele>212.39999389648</ele>
        <time>2020-12-27T10:30:49Z</time>
      </trkpt>
      <trkpt lat="45.0596" lon="0.69979">
        <ele>211.80000305176</ele>
        <time>2020-12-27T10:30:51Z</time>
      </trkpt>
      <trkpt lat="45.05936" lon="0.69976">
        <ele>210.39999389648</ele>
        <time>2020-12-27T10:30:55Z</time>
      </trkpt>
      <trkpt lat="45.05922" lon="0.69974">
        <ele>209.39999389648</ele>
        <time>2020-12-27T10:30:57Z</time>
      </trkpt>
      <trkpt lat="45.05914" lon="0.69974">
        <ele>208.80000305176</ele>
        <time>2020-12-27T10:30:58Z</time>
      </trkpt>
      <trkpt lat="45.05899" lon="0.69975">
        <ele>207.60000610352</ele>
        <time>2020-12-27T10:31:00Z</time>
      </trkpt>
      <trkpt lat="45.05892" lon="0.69975">
        <ele>206.39999389648</ele>
        <time>2020-12-27T10:31:01Z</time>
      </trkpt>
      <trkpt lat="45.0588" lon="0.69976">
        <ele>205.39999389648</ele>
        <time>2020-12-27T10:31:03Z</time>
      </trkpt>
      <trkpt lat="45.05875" lon="0.69976">
        <ele>205</ele>
        <time>2020-12-27T10:31:04Z</time>
      </trkpt>
      <trkpt lat="45.05868" lon="0.69977">
        <ele>204</ele>
        <time>2020-12-27T10:31:06Z</time>
      </trkpt>
      <trkpt lat="45.05864" lon="0.69979">
        <ele>203.39999389648</ele>
        <time>2020-12-27T10:31:08Z</time>
      </trkpt>
      <trkpt lat="45.05863" lon="0.69984">
        <ele>202.60000610352</ele>
        <time>2020-12-27T10:31:10Z</time>
      </trkpt>
      <trkpt lat="45.05863" lon="0.69986">
        <ele>202.19999694824</ele>
        <time>2020-12-27T10:31:11Z</time>
      </trkpt>
      <trkpt lat="45.05862" lon="0.69995">
        <ele>201.39999389648</ele>
        <time>2020-12-27T10:31:14Z</time>
      </trkpt>
      <trkpt lat="45.05863" lon="0.70002">
        <ele>201.39999389648</ele>
        <time>2020-12-27T10:31:16Z</time>
      </trkpt>
      <trkpt lat="45.05864" lon="0.70008">
        <ele>201.60000610352</ele>
        <time>2020-12-27T10:31:18Z</time>
      </trkpt>
      <trkpt lat="45.05868" lon="0.70034">
        <ele>201.39999389648</ele>
        <time>2020-12-27T10:31:25Z</time>
      </trkpt>
      <trkpt lat="45.05873" lon="0.70059">
        <ele>200.19999694824</ele>
        <time>2020-12-27T10:31:30Z</time>
      </trkpt>
      <trkpt lat="45.05874" lon="0.70064">
        <ele>200</ele>
        <time>2020-12-27T10:31:31Z</time>
      </trkpt>
      <trkpt lat="45.05888" lon="0.70091">
        <ele>199.60000610352</ele>
        <time>2020-12-27T10:31:38Z</time>
      </trkpt>
      <trkpt lat="45.05904" lon="0.701">
        <ele>200</ele>
        <time>2020-12-27T10:31:43Z</time>
      </trkpt>
      <trkpt lat="45.05918" lon="0.70106">
        <ele>200.60000610352</ele>
        <time>2020-12-27T10:31:48Z</time>
      </trkpt>
      <trkpt lat="45.05933" lon="0.70112">
        <ele>201.19999694824</ele>
        <time>2020-12-27T10:31:54Z</time>
      </trkpt>
      <trkpt lat="45.05937" lon="0.70114">
        <ele>201.39999389648</ele>
        <time>2020-12-27T10:31:56Z</time>
      </trkpt>
      <trkpt lat="45.05948" lon="0.70125">
        <ele>202.39999389648</ele>
        <time>2020-12-27T10:32:02Z</time>
      </trkpt>
      <trkpt lat="45.05949" lon="0.70127">
        <ele>202.60000610352</ele>
        <time>2020-12-27T10:32:03Z</time>
      </trkpt>
      <trkpt lat="45.05953" lon="0.70133">
        <ele>203.80000305176</ele>
        <time>2020-12-27T10:32:05Z</time>
      </trkpt>
      <trkpt lat="45.05956" lon="0.70138">
        <ele>205.19999694824</ele>
        <time>2020-12-27T10:32:07Z</time>
      </trkpt>
      <trkpt lat="45.05957" lon="0.70141">
        <ele>205.39999389648</ele>
        <time>2020-12-27T10:32:08Z</time>
      </trkpt>
      <trkpt lat="45.05962" lon="0.70161">
        <ele>206</ele>
        <time>2020-12-27T10:32:15Z</time>
      </trkpt>
      <trkpt lat="45.05963" lon="0.70167">
        <ele>206.39999389648</ele>
        <time>2020-12-27T10:32:17Z</time>
      </trkpt>
      <trkpt lat="45.05968" lon="0.70181">
        <ele>207</ele>
        <time>2020-12-27T10:32:22Z</time>
      </trkpt>
      <trkpt lat="45.05971" lon="0.70186">
        <ele>207.60000610352</ele>
        <time>2020-12-27T10:32:24Z</time>
      </trkpt>
      <trkpt lat="45.05978" lon="0.70199">
        <ele>208.39999389648</ele>
        <time>2020-12-27T10:32:29Z</time>
      </trkpt>
      <trkpt lat="45.05979" lon="0.70202">
        <ele>208.60000610352</ele>
        <time>2020-12-27T10:32:30Z</time>
      </trkpt>
      <trkpt lat="45.0598" lon="0.70218">
        <ele>209.80000305176</ele>
        <time>2020-12-27T10:32:35Z</time>
      </trkpt>
      <trkpt lat="45.05979" lon="0.70221">
        <ele>210</ele>
        <time>2020-12-27T10:32:36Z</time>
      </trkpt>
      <trkpt lat="45.05976" lon="0.70239">
        <ele>210.60000610352</ele>
        <time>2020-12-27T10:32:42Z</time>
      </trkpt>
      <trkpt lat="45.05975" lon="0.70246">
        <ele>210.80000305176</ele>
        <time>2020-12-27T10:32:44Z</time>
      </trkpt>
      <trkpt lat="45.05972" lon="0.70266">
        <ele>211.39999389648</ele>
        <time>2020-12-27T10:32:50Z</time>
      </trkpt>
      <trkpt lat="45.05968" lon="0.70294">
        <ele>211.19999694824</ele>
        <time>2020-12-27T10:32:57Z</time>
      </trkpt>
      <trkpt lat="45.05965" lon="0.70309">
        <ele>209.60000610352</ele>
        <time>2020-12-27T10:33:00Z</time>
      </trkpt>
      <trkpt lat="45.05961" lon="0.7033">
        <ele>208.60000610352</ele>
        <time>2020-12-27T10:33:02Z</time>
      </trkpt>
      <trkpt lat="45.05959" lon="0.70364">
        <ele>208.39999389648</ele>
        <time>2020-12-27T10:33:06Z</time>
      </trkpt>
      <trkpt lat="45.05956" lon="0.70379">
        <ele>207.60000610352</ele>
        <time>2020-12-27T10:33:08Z</time>
      </trkpt>
      <trkpt lat="45.05947" lon="0.70401">
        <ele>206.39999389648</ele>
        <time>2020-12-27T10:33:11Z</time>
      </trkpt>
      <trkpt lat="45.05943" lon="0.70409">
        <ele>206.19999694824</ele>
        <time>2020-12-27T10:33:12Z</time>
      </trkpt>
      <trkpt lat="45.05938" lon="0.70416">
        <ele>205.60000610352</ele>
        <time>2020-12-27T10:33:13Z</time>
      </trkpt>
      <trkpt lat="45.05933" lon="0.70422">
        <ele>205.19999694824</ele>
        <time>2020-12-27T10:33:14Z</time>
      </trkpt>
      <trkpt lat="45.05922" lon="0.70434">
        <ele>204.19999694824</ele>
        <time>2020-12-27T10:33:16Z</time>
      </trkpt>
      <trkpt lat="45.05917" lon="0.7044">
        <ele>203.80000305176</ele>
        <time>2020-12-27T10:33:17Z</time>
      </trkpt>
      <trkpt lat="45.05913" lon="0.70447">
        <ele>203.39999389648</ele>
        <time>2020-12-27T10:33:18Z</time>
      </trkpt>
      <trkpt lat="45.05907" lon="0.70459">
        <ele>202.80000305176</ele>
        <time>2020-12-27T10:33:20Z</time>
      </trkpt>
      <trkpt lat="45.05905" lon="0.70464">
        <ele>202.39999389648</ele>
        <time>2020-12-27T10:33:21Z</time>
      </trkpt>
      <trkpt lat="45.05903" lon="0.7047">
        <ele>202.19999694824</ele>
        <time>2020-12-27T10:33:22Z</time>
      </trkpt>
      <trkpt lat="45.05895" lon="0.70513">
        <ele>203</ele>
        <time>2020-12-27T10:33:30Z</time>
      </trkpt>
      <trkpt lat="45.05892" lon="0.70546">
        <ele>203.80000305176</ele>
        <time>2020-12-27T10:33:36Z</time>
      </trkpt>
      <trkpt lat="45.0589" lon="0.70552">
        <ele>204.19999694824</ele>
        <time>2020-12-27T10:33:37Z</time>
      </trkpt>
      <trkpt lat="45.05882" lon="0.70579">
        <ele>204.60000610352</ele>
        <time>2020-12-27T10:33:43Z</time>
      </trkpt>
      <trkpt lat="45.05882" lon="0.70603">
        <ele>204.60000610352</ele>
        <time>2020-12-27T10:33:48Z</time>
      </trkpt>
      <trkpt lat="45.05884" lon="0.70623">
        <ele>205</ele>
        <time>2020-12-27T10:33:53Z</time>
      </trkpt>
      <trkpt lat="45.05889" lon="0.70648">
        <ele>206</ele>
        <time>2020-12-27T10:33:59Z</time>
      </trkpt>
      <trkpt lat="45.0589" lon="0.70653">
        <ele>206.19999694824</ele>
        <time>2020-12-27T10:34:00Z</time>
      </trkpt>
      <trkpt lat="45.05896" lon="0.7068">
        <ele>205.60000610352</ele>
        <time>2020-12-27T10:34:06Z</time>
      </trkpt>
      <trkpt lat="45.05908" lon="0.70694">
        <ele>205.39999389648</ele>
        <time>2020-12-27T10:34:10Z</time>
      </trkpt>
      <trkpt lat="45.0593" lon="0.70709">
        <ele>205.80000305176</ele>
        <time>2020-12-27T10:34:16Z</time>
      </trkpt>
      <trkpt lat="45.05949" lon="0.70712">
        <ele>207.19999694824</ele>
        <time>2020-12-27T10:34:21Z</time>
      </trkpt>
      <trkpt lat="45.05962" lon="0.70714">
        <ele>208.60000610352</ele>
        <time>2020-12-27T10:34:24Z</time>
      </trkpt>
      <trkpt lat="45.05976" lon="0.70715">
        <ele>209.60000610352</ele>
        <time>2020-12-27T10:34:28Z</time>
      </trkpt>
      <trkpt lat="45.05983" lon="0.70714">
        <ele>209.80000305176</ele>
        <time>2020-12-27T10:34:30Z</time>
      </trkpt>
      <trkpt lat="45.05994" lon="0.70714">
        <ele>210.39999389648</ele>
        <time>2020-12-27T10:34:33Z</time>
      </trkpt>
      <trkpt lat="45.06002" lon="0.70713">
        <ele>211.19999694824</ele>
        <time>2020-12-27T10:34:35Z</time>
      </trkpt>
      <trkpt lat="45.06015" lon="0.70714">
        <ele>210.80000305176</ele>
        <time>2020-12-27T10:34:38Z</time>
      </trkpt>
      <trkpt lat="45.0602" lon="0.70716">
        <ele>210.39999389648</ele>
        <time>2020-12-27T10:34:39Z</time>
      </trkpt>
      <trkpt lat="45.06025" lon="0.7072">
        <ele>210</ele>
        <time>2020-12-27T10:34:40Z</time>
      </trkpt>
      <trkpt lat="45.06031" lon="0.70724">
        <ele>209.60000610352</ele>
        <time>2020-12-27T10:34:41Z</time>
      </trkpt>
      <trkpt lat="45.06035" lon="0.70732">
        <ele>209.19999694824</ele>
        <time>2020-12-27T10:34:42Z</time>
      </trkpt>
      <trkpt lat="45.06042" lon="0.7075">
        <ele>208.60000610352</ele>
        <time>2020-12-27T10:34:44Z</time>
      </trkpt>
      <trkpt lat="45.06044" lon="0.7076">
        <ele>208.39999389648</ele>
        <time>2020-12-27T10:34:45Z</time>
      </trkpt>
      <trkpt lat="45.06045" lon="0.70768">
        <ele>208.19999694824</ele>
        <time>2020-12-27T10:34:46Z</time>
      </trkpt>
      <trkpt lat="45.06048" lon="0.70784">
        <ele>207.19999694824</ele>
        <time>2020-12-27T10:34:48Z</time>
      </trkpt>
      <trkpt lat="45.06049" lon="0.70791">
        <ele>206.80000305176</ele>
        <time>2020-12-27T10:34:49Z</time>
      </trkpt>
      <trkpt lat="45.06057" lon="0.7083">
        <ele>206.60000610352</ele>
        <time>2020-12-27T10:34:55Z</time>
      </trkpt>
      <trkpt lat="45.06058" lon="0.70836">
        <ele>206.80000305176</ele>
        <time>2020-12-27T10:34:56Z</time>
      </trkpt>
      <trkpt lat="45.06062" lon="0.70863">
        <ele>208.19999694824</ele>
        <time>2020-12-27T10:35:02Z</time>
      </trkpt>
      <trkpt lat="45.06063" lon="0.70867">
        <ele>208.39999389648</ele>
        <time>2020-12-27T10:35:03Z</time>
      </trkpt>
      <trkpt lat="45.06069" lon="0.70882">
        <ele>209.19999694824</ele>
        <time>2020-12-27T10:35:07Z</time>
      </trkpt>
      <trkpt lat="45.06072" lon="0.70892">
        <ele>209.60000610352</ele>
        <time>2020-12-27T10:35:10Z</time>
      </trkpt>
      <trkpt lat="45.06082" lon="0.70909">
        <ele>210.19999694824</ele>
        <time>2020-12-27T10:35:15Z</time>
      </trkpt>
      <trkpt lat="45.0609" lon="0.70921">
        <ele>210.60000610352</ele>
        <time>2020-12-27T10:35:19Z</time>
      </trkpt>
      <trkpt lat="45.06094" lon="0.7093">
        <ele>210.60000610352</ele>
        <time>2020-12-27T10:35:21Z</time>
      </trkpt>
      <trkpt lat="45.06106" lon="0.70955">
        <ele>209.19999694824</ele>
        <time>2020-12-27T10:35:25Z</time>
      </trkpt>
      <trkpt lat="45.06116" lon="0.70972">
        <ele>208.19999694824</ele>
        <time>2020-12-27T10:35:27Z</time>
      </trkpt>
      <trkpt lat="45.06121" lon="0.7098">
        <ele>207.60000610352</ele>
        <time>2020-12-27T10:35:28Z</time>
      </trkpt>
      <trkpt lat="45.06128" lon="0.70987">
        <ele>207.19999694824</ele>
        <time>2020-12-27T10:35:29Z</time>
      </trkpt>
      <trkpt lat="45.06145" lon="0.71009">
        <ele>206.39999389648</ele>
        <time>2020-12-27T10:35:32Z</time>
      </trkpt>
      <trkpt lat="45.06159" lon="0.71027">
        <ele>206.19999694824</ele>
        <time>2020-12-27T10:35:35Z</time>
      </trkpt>
      <trkpt lat="45.06175" lon="0.7105">
        <ele>206.19999694824</ele>
        <time>2020-12-27T10:35:40Z</time>
      </trkpt>
      <trkpt lat="45.06187" lon="0.71066">
        <ele>206</ele>
        <time>2020-12-27T10:35:45Z</time>
      </trkpt>
      <trkpt lat="45.06191" lon="0.71077">
        <ele>205.60000610352</ele>
        <time>2020-12-27T10:35:48Z</time>
      </trkpt>
      <trkpt lat="45.06191" lon="0.71081">
        <ele>205.60000610352</ele>
        <time>2020-12-27T10:35:49Z</time>
      </trkpt>
      <trkpt lat="45.06184" lon="0.7109">
        <ele>205.80000305176</ele>
        <time>2020-12-27T10:35:53Z</time>
      </trkpt>
      <trkpt lat="45.0617" lon="0.71105">
        <ele>205.80000305176</ele>
        <time>2020-12-27T10:35:59Z</time>
      </trkpt>
      <trkpt lat="45.06152" lon="0.71128">
        <ele>206.80000305176</ele>
        <time>2020-12-27T10:36:06Z</time>
      </trkpt>
      <trkpt lat="45.06145" lon="0.71157">
        <ele>207.39999389648</ele>
        <time>2020-12-27T10:36:13Z</time>
      </trkpt>
      <trkpt lat="45.06151" lon="0.7119">
        <ele>206.80000305176</ele>
        <time>2020-12-27T10:36:19Z</time>
      </trkpt>
      <trkpt lat="45.06155" lon="0.71222">
        <ele>207.39999389648</ele>
        <time>2020-12-27T10:36:25Z</time>
      </trkpt>
      <trkpt lat="45.06151" lon="0.71248">
        <ele>208.19999694824</ele>
        <time>2020-12-27T10:36:30Z</time>
      </trkpt>
      <trkpt lat="45.06144" lon="0.71274">
        <ele>208.60000610352</ele>
        <time>2020-12-27T10:36:35Z</time>
      </trkpt>
      <trkpt lat="45.06142" lon="0.71284">
        <ele>208.80000305176</ele>
        <time>2020-12-27T10:36:37Z</time>
      </trkpt>
      <trkpt lat="45.06135" lon="0.71309">
        <ele>209.60000610352</ele>
        <time>2020-12-27T10:36:42Z</time>
      </trkpt>
      <trkpt lat="45.06132" lon="0.71314">
        <ele>209.60000610352</ele>
        <time>2020-12-27T10:36:43Z</time>
      </trkpt>
      <trkpt lat="45.06128" lon="0.71318">
        <ele>209.60000610352</ele>
        <time>2020-12-27T10:36:44Z</time>
      </trkpt>
      <trkpt lat="45.0611" lon="0.71329">
        <ele>210.60000610352</ele>
        <time>2020-12-27T10:36:48Z</time>
      </trkpt>
      <trkpt lat="45.06097" lon="0.71337">
        <ele>210.60000610352</ele>
        <time>2020-12-27T10:36:51Z</time>
      </trkpt>
      <trkpt lat="45.0609" lon="0.71349">
        <ele>210.39999389648</ele>
        <time>2020-12-27T10:36:53Z</time>
      </trkpt>
      <trkpt lat="45.06082" lon="0.71379">
        <ele>209.80000305176</ele>
        <time>2020-12-27T10:36:57Z</time>
      </trkpt>
      <trkpt lat="45.06081" lon="0.71387">
        <ele>209.39999389648</ele>
        <time>2020-12-27T10:36:58Z</time>
      </trkpt>
      <trkpt lat="45.06087" lon="0.71407">
        <ele>209</ele>
        <time>2020-12-27T10:37:01Z</time>
      </trkpt>
      <trkpt lat="45.06101" lon="0.71415">
        <ele>209</ele>
        <time>2020-12-27T10:37:04Z</time>
      </trkpt>
      <trkpt lat="45.06118" lon="0.71419">
        <ele>208.80000305176</ele>
        <time>2020-12-27T10:37:07Z</time>
      </trkpt>
      <trkpt lat="45.06123" lon="0.71419">
        <ele>208.80000305176</ele>
        <time>2020-12-27T10:37:08Z</time>
      </trkpt>
      <trkpt lat="45.06129" lon="0.71419">
        <ele>208.80000305176</ele>
        <time>2020-12-27T10:37:09Z</time>
      </trkpt>
      <trkpt lat="45.06134" lon="0.71418">
        <ele>208.60000610352</ele>
        <time>2020-12-27T10:37:10Z</time>
      </trkpt>
      <trkpt lat="45.06139" lon="0.71417">
        <ele>208.60000610352</ele>
        <time>2020-12-27T10:37:11Z</time>
      </trkpt>
      <trkpt lat="45.06159" lon="0.71412">
        <ele>208</ele>
        <time>2020-12-27T10:37:15Z</time>
      </trkpt>
      <trkpt lat="45.06173" lon="0.7141">
        <ele>207.80000305176</ele>
        <time>2020-12-27T10:37:18Z</time>
      </trkpt>
      <trkpt lat="45.06187" lon="0.71412">
        <ele>207.39999389648</ele>
        <time>2020-12-27T10:37:21Z</time>
      </trkpt>
      <trkpt lat="45.0622" lon="0.71417">
        <ele>206.39999389648</ele>
        <time>2020-12-27T10:37:27Z</time>
      </trkpt>
      <trkpt lat="45.06227" lon="0.71416">
        <ele>206.19999694824</ele>
        <time>2020-12-27T10:37:28Z</time>
      </trkpt>
      <trkpt lat="45.0624" lon="0.71411">
        <ele>205</ele>
        <time>2020-12-27T10:37:30Z</time>
      </trkpt>
      <trkpt lat="45.06247" lon="0.7141">
        <ele>204.60000610352</ele>
        <time>2020-12-27T10:37:31Z</time>
      </trkpt>
      <trkpt lat="45.06254" lon="0.71411">
        <ele>204</ele>
        <time>2020-12-27T10:37:32Z</time>
      </trkpt>
      <trkpt lat="45.0626" lon="0.71417">
        <ele>203.19999694824</ele>
        <time>2020-12-27T10:37:33Z</time>
      </trkpt>
      <trkpt lat="45.06266" lon="0.71426">
        <ele>202.19999694824</ele>
        <time>2020-12-27T10:37:34Z</time>
      </trkpt>
      <trkpt lat="45.06274" lon="0.71449">
        <ele>200.39999389648</ele>
        <time>2020-12-27T10:37:36Z</time>
      </trkpt>
      <trkpt lat="45.06278" lon="0.71461">
        <ele>199.80000305176</ele>
        <time>2020-12-27T10:37:37Z</time>
      </trkpt>
      <trkpt lat="45.06281" lon="0.71473">
        <ele>199.19999694824</ele>
        <time>2020-12-27T10:37:38Z</time>
      </trkpt>
      <trkpt lat="45.06289" lon="0.71518">
        <ele>198</ele>
        <time>2020-12-27T10:37:42Z</time>
      </trkpt>
      <trkpt lat="45.06289" lon="0.71544">
        <ele>197.39999389648</ele>
        <time>2020-12-27T10:37:45Z</time>
      </trkpt>
      <trkpt lat="45.06288" lon="0.71553">
        <ele>196.80000305176</ele>
        <time>2020-12-27T10:37:47Z</time>
      </trkpt>
      <trkpt lat="45.06288" lon="0.71555">
        <ele>196.39999389648</ele>
        <time>2020-12-27T10:37:48Z</time>
      </trkpt>
      <trkpt lat="45.06284" lon="0.7156">
        <ele>195.60000610352</ele>
        <time>2020-12-27T10:37:51Z</time>
      </trkpt>
      <trkpt lat="45.06277" lon="0.71566">
        <ele>194.80000305176</ele>
        <time>2020-12-27T10:37:55Z</time>
      </trkpt>
      <trkpt lat="45.06273" lon="0.71569">
        <ele>194.39999389648</ele>
        <time>2020-12-27T10:37:57Z</time>
      </trkpt>
      <trkpt lat="45.06264" lon="0.71578">
        <ele>194.19999694824</ele>
        <time>2020-12-27T10:38:03Z</time>
      </trkpt>
      <trkpt lat="45.06253" lon="0.71595">
        <ele>195</ele>
        <time>2020-12-27T10:38:11Z</time>
      </trkpt>
      <trkpt lat="45.06249" lon="0.71609">
        <ele>195.60000610352</ele>
        <time>2020-12-27T10:38:16Z</time>
      </trkpt>
      <trkpt lat="45.06249" lon="0.71613">
        <ele>195.80000305176</ele>
        <time>2020-12-27T10:38:17Z</time>
      </trkpt>
      <trkpt lat="45.06254" lon="0.71634">
        <ele>196.80000305176</ele>
        <time>2020-12-27T10:38:24Z</time>
      </trkpt>
      <trkpt lat="45.06255" lon="0.71638">
        <ele>196.80000305176</ele>
        <time>2020-12-27T10:38:25Z</time>
      </trkpt>
      <trkpt lat="45.06258" lon="0.71655">
        <ele>197.80000305176</ele>
        <time>2020-12-27T10:38:30Z</time>
      </trkpt>
      <trkpt lat="45.06257" lon="0.71665">
        <ele>198.39999389648</ele>
        <time>2020-12-27T10:38:33Z</time>
      </trkpt>
      <trkpt lat="45.06255" lon="0.71672">
        <ele>199</ele>
        <time>2020-12-27T10:38:35Z</time>
      </trkpt>
      <trkpt lat="45.06252" lon="0.71683">
        <ele>200</ele>
        <time>2020-12-27T10:38:38Z</time>
      </trkpt>
      <trkpt lat="45.06249" lon="0.7169">
        <ele>200.19999694824</ele>
        <time>2020-12-27T10:38:40Z</time>
      </trkpt>
      <trkpt lat="45.06243" lon="0.7172">
        <ele>200.80000305176</ele>
        <time>2020-12-27T10:38:47Z</time>
      </trkpt>
      <trkpt lat="45.06238" lon="0.71744">
        <ele>201.19999694824</ele>
        <time>2020-12-27T10:38:52Z</time>
      </trkpt>
      <trkpt lat="45.06237" lon="0.71748">
        <ele>201.39999389648</ele>
        <time>2020-12-27T10:38:53Z</time>
      </trkpt>
      <trkpt lat="45.06233" lon="0.71758">
        <ele>202.19999694824</ele>
        <time>2020-12-27T10:38:55Z</time>
      </trkpt>
      <trkpt lat="45.06225" lon="0.71766">
        <ele>202.60000610352</ele>
        <time>2020-12-27T10:38:58Z</time>
      </trkpt>
      <trkpt lat="45.06216" lon="0.71764">
        <ele>203.60000610352</ele>
        <time>2020-12-27T10:39:00Z</time>
      </trkpt>
      <trkpt lat="45.06205" lon="0.71763">
        <ele>203.80000305176</ele>
        <time>2020-12-27T10:39:03Z</time>
      </trkpt>
      <trkpt lat="45.06178" lon="0.71755">
        <ele>202.80000305176</ele>
        <time>2020-12-27T10:39:11Z</time>
      </trkpt>
      <trkpt lat="45.06149" lon="0.71747">
        <ele>203</ele>
        <time>2020-12-27T10:39:19Z</time>
      </trkpt>
      <trkpt lat="45.06119" lon="0.71739">
        <ele>203.60000610352</ele>
        <time>2020-12-27T10:39:28Z</time>
      </trkpt>
      <trkpt lat="45.06106" lon="0.71734">
        <ele>204.60000610352</ele>
        <time>2020-12-27T10:39:32Z</time>
      </trkpt>
      <trkpt lat="45.06093" lon="0.71732">
        <ele>205.80000305176</ele>
        <time>2020-12-27T10:39:36Z</time>
      </trkpt>
      <trkpt lat="45.06082" lon="0.71731">
        <ele>207</ele>
        <time>2020-12-27T10:39:40Z</time>
      </trkpt>
      <trkpt lat="45.06073" lon="0.71729">
        <ele>208</ele>
        <time>2020-12-27T10:39:43Z</time>
      </trkpt>
      <trkpt lat="45.06071" lon="0.71729">
        <ele>208.19999694824</ele>
        <time>2020-12-27T10:39:44Z</time>
      </trkpt>
      <trkpt lat="45.06055" lon="0.71724">
        <ele>209</ele>
        <time>2020-12-27T10:39:49Z</time>
      </trkpt>
      <trkpt lat="45.06043" lon="0.7172">
        <ele>209.19999694824</ele>
        <time>2020-12-27T10:39:52Z</time>
      </trkpt>
      <trkpt lat="45.06031" lon="0.7172">
        <ele>209.80000305176</ele>
        <time>2020-12-27T10:39:55Z</time>
      </trkpt>
      <trkpt lat="45.06016" lon="0.71735">
        <ele>210.19999694824</ele>
        <time>2020-12-27T10:39:59Z</time>
      </trkpt>
      <trkpt lat="45.06001" lon="0.71758">
        <ele>211.39999389648</ele>
        <time>2020-12-27T10:40:05Z</time>
      </trkpt>
      <trkpt lat="45.05998" lon="0.71761">
        <ele>211.39999389648</ele>
        <time>2020-12-27T10:40:06Z</time>
      </trkpt>
      <trkpt lat="45.05979" lon="0.71773">
        <ele>211.39999389648</ele>
        <time>2020-12-27T10:40:12Z</time>
      </trkpt>
      <trkpt lat="45.05954" lon="0.71783">
        <ele>212.39999389648</ele>
        <time>2020-12-27T10:40:19Z</time>
      </trkpt>
      <trkpt lat="45.05938" lon="0.71806">
        <ele>213.39999389648</ele>
        <time>2020-12-27T10:40:26Z</time>
      </trkpt>
      <trkpt lat="45.05936" lon="0.71809">
        <ele>213.60000610352</ele>
        <time>2020-12-27T10:40:27Z</time>
      </trkpt>
      <trkpt lat="45.05926" lon="0.7183">
        <ele>214.60000610352</ele>
        <time>2020-12-27T10:40:33Z</time>
      </trkpt>
      <trkpt lat="45.05925" lon="0.71834">
        <ele>214.60000610352</ele>
        <time>2020-12-27T10:40:34Z</time>
      </trkpt>
      <trkpt lat="45.05923" lon="0.71837">
        <ele>214.80000305176</ele>
        <time>2020-12-27T10:40:35Z</time>
      </trkpt>
      <trkpt lat="45.05918" lon="0.7184">
        <ele>214.80000305176</ele>
        <time>2020-12-27T10:40:37Z</time>
      </trkpt>
      <trkpt lat="45.05905" lon="0.71832">
        <ele>214.60000610352</ele>
        <time>2020-12-27T10:40:41Z</time>
      </trkpt>
      <trkpt lat="45.05902" lon="0.71829">
        <ele>214.39999389648</ele>
        <time>2020-12-27T10:40:42Z</time>
      </trkpt>
      <trkpt lat="45.05882" lon="0.71821">
        <ele>213.80000305176</ele>
        <time>2020-12-27T10:40:47Z</time>
      </trkpt>
      <trkpt lat="45.05865" lon="0.71827">
        <ele>214.60000610352</ele>
        <time>2020-12-27T10:40:52Z</time>
      </trkpt>
      <trkpt lat="45.05846" lon="0.71842">
        <ele>215.39999389648</ele>
        <time>2020-12-27T10:40:58Z</time>
      </trkpt>
      <trkpt lat="45.05843" lon="0.71844">
        <ele>216</ele>
        <time>2020-12-27T10:40:59Z</time>
      </trkpt>
      <trkpt lat="45.05819" lon="0.71859">
        <ele>215.39999389648</ele>
        <time>2020-12-27T10:41:05Z</time>
      </trkpt>
      <trkpt lat="45.058" lon="0.71874">
        <ele>214.80000305176</ele>
        <time>2020-12-27T10:41:08Z</time>
      </trkpt>
      <trkpt lat="45.05791" lon="0.71886">
        <ele>214.60000610352</ele>
        <time>2020-12-27T10:41:10Z</time>
      </trkpt>
      <trkpt lat="45.05789" lon="0.71904">
        <ele>213.60000610352</ele>
        <time>2020-12-27T10:41:13Z</time>
      </trkpt>
      <trkpt lat="45.05791" lon="0.7191">
        <ele>213.39999389648</ele>
        <time>2020-12-27T10:41:14Z</time>
      </trkpt>
      <trkpt lat="45.05796" lon="0.71926">
        <ele>212.80000305176</ele>
        <time>2020-12-27T10:41:16Z</time>
      </trkpt>
      <trkpt lat="45.05798" lon="0.71934">
        <ele>212.39999389648</ele>
        <time>2020-12-27T10:41:17Z</time>
      </trkpt>
      <trkpt lat="45.05802" lon="0.71964">
        <ele>211</ele>
        <time>2020-12-27T10:41:20Z</time>
      </trkpt>
      <trkpt lat="45.05803" lon="0.71975">
        <ele>210.19999694824</ele>
        <time>2020-12-27T10:41:21Z</time>
      </trkpt>
      <trkpt lat="45.05805" lon="0.71988">
        <ele>209.39999389648</ele>
        <time>2020-12-27T10:41:22Z</time>
      </trkpt>
      <trkpt lat="45.05809" lon="0.72014">
        <ele>207.60000610352</ele>
        <time>2020-12-27T10:41:24Z</time>
      </trkpt>
      <trkpt lat="45.05815" lon="0.7204">
        <ele>206</ele>
        <time>2020-12-27T10:41:26Z</time>
      </trkpt>
      <trkpt lat="45.05821" lon="0.72066">
        <ele>204.39999389648</ele>
        <time>2020-12-27T10:41:28Z</time>
      </trkpt>
      <trkpt lat="45.05829" lon="0.72093">
        <ele>202.60000610352</ele>
        <time>2020-12-27T10:41:30Z</time>
      </trkpt>
      <trkpt lat="45.05838" lon="0.72117">
        <ele>201.19999694824</ele>
        <time>2020-12-27T10:41:32Z</time>
      </trkpt>
      <trkpt lat="45.0585" lon="0.72141">
        <ele>199.80000305176</ele>
        <time>2020-12-27T10:41:34Z</time>
      </trkpt>
      <trkpt lat="45.05862" lon="0.72164">
        <ele>198.60000610352</ele>
        <time>2020-12-27T10:41:36Z</time>
      </trkpt>
      <trkpt lat="45.05867" lon="0.72175">
        <ele>197.80000305176</ele>
        <time>2020-12-27T10:41:37Z</time>
      </trkpt>
      <trkpt lat="45.05871" lon="0.72188">
        <ele>197</ele>
        <time>2020-12-27T10:41:38Z</time>
      </trkpt>
      <trkpt lat="45.05878" lon="0.72216">
        <ele>195</ele>
        <time>2020-12-27T10:41:40Z</time>
      </trkpt>
      <trkpt lat="45.0588" lon="0.72231">
        <ele>193.80000305176</ele>
        <time>2020-12-27T10:41:41Z</time>
      </trkpt>
      <trkpt lat="45.05883" lon="0.72248">
        <ele>192.80000305176</ele>
        <time>2020-12-27T10:41:42Z</time>
      </trkpt>
      <trkpt lat="45.05885" lon="0.72265">
        <ele>191.80000305176</ele>
        <time>2020-12-27T10:41:43Z</time>
      </trkpt>
      <trkpt lat="45.05888" lon="0.72282">
        <ele>190.60000610352</ele>
        <time>2020-12-27T10:41:44Z</time>
      </trkpt>
      <trkpt lat="45.05891" lon="0.72299">
        <ele>189.60000610352</ele>
        <time>2020-12-27T10:41:45Z</time>
      </trkpt>
      <trkpt lat="45.05896" lon="0.72333">
        <ele>187.80000305176</ele>
        <time>2020-12-27T10:41:47Z</time>
      </trkpt>
      <trkpt lat="45.059" lon="0.72367">
        <ele>185.80000305176</ele>
        <time>2020-12-27T10:41:49Z</time>
      </trkpt>
      <trkpt lat="45.05902" lon="0.72399">
        <ele>184.19999694824</ele>
        <time>2020-12-27T10:41:51Z</time>
      </trkpt>
      <trkpt lat="45.05901" lon="0.72425">
        <ele>182.60000610352</ele>
        <time>2020-12-27T10:41:53Z</time>
      </trkpt>
      <trkpt lat="45.059" lon="0.72435">
        <ele>181.80000305176</ele>
        <time>2020-12-27T10:41:54Z</time>
      </trkpt>
      <trkpt lat="45.05899" lon="0.72445">
        <ele>181</ele>
        <time>2020-12-27T10:41:55Z</time>
      </trkpt>
      <trkpt lat="45.05897" lon="0.72453">
        <ele>180.39999389648</ele>
        <time>2020-12-27T10:41:56Z</time>
      </trkpt>
      <trkpt lat="45.05894" lon="0.72461">
        <ele>179.80000305176</ele>
        <time>2020-12-27T10:41:57Z</time>
      </trkpt>
      <trkpt lat="45.05891" lon="0.72469">
        <ele>179.19999694824</ele>
        <time>2020-12-27T10:41:58Z</time>
      </trkpt>
      <trkpt lat="45.05888" lon="0.72476">
        <ele>178.80000305176</ele>
        <time>2020-12-27T10:41:59Z</time>
      </trkpt>
      <trkpt lat="45.05881" lon="0.7249">
        <ele>177.60000610352</ele>
        <time>2020-12-27T10:42:01Z</time>
      </trkpt>
      <trkpt lat="45.05873" lon="0.72505">
        <ele>176.39999389648</ele>
        <time>2020-12-27T10:42:03Z</time>
      </trkpt>
      <trkpt lat="45.0587" lon="0.72513">
        <ele>176</ele>
        <time>2020-12-27T10:42:04Z</time>
      </trkpt>
      <trkpt lat="45.05867" lon="0.72521">
        <ele>175.39999389648</ele>
        <time>2020-12-27T10:42:05Z</time>
      </trkpt>
      <trkpt lat="45.05861" lon="0.72548">
        <ele>174</ele>
        <time>2020-12-27T10:42:08Z</time>
      </trkpt>
      <trkpt lat="45.05859" lon="0.72558">
        <ele>173.80000305176</ele>
        <time>2020-12-27T10:42:09Z</time>
      </trkpt>
      <trkpt lat="45.05858" lon="0.72577">
        <ele>172.80000305176</ele>
        <time>2020-12-27T10:42:11Z</time>
      </trkpt>
      <trkpt lat="45.05858" lon="0.72605">
        <ele>171.80000305176</ele>
        <time>2020-12-27T10:42:14Z</time>
      </trkpt>
      <trkpt lat="45.05858" lon="0.72611">
        <ele>171.39999389648</ele>
        <time>2020-12-27T10:42:15Z</time>
      </trkpt>
      <trkpt lat="45.05854" lon="0.72626">
        <ele>170.39999389648</ele>
        <time>2020-12-27T10:42:18Z</time>
      </trkpt>
      <trkpt lat="45.0585" lon="0.72628">
        <ele>170.39999389648</ele>
        <time>2020-12-27T10:42:19Z</time>
      </trkpt>
      <trkpt lat="45.05829" lon="0.72633">
        <ele>169.39999389648</ele>
        <time>2020-12-27T10:42:23Z</time>
      </trkpt>
      <trkpt lat="45.05823" lon="0.72634">
        <ele>169.19999694824</ele>
        <time>2020-12-27T10:42:24Z</time>
      </trkpt>
      <trkpt lat="45.05792" lon="0.72639">
        <ele>168.39999389648</ele>
        <time>2020-12-27T10:42:29Z</time>
      </trkpt>
      <trkpt lat="45.05787" lon="0.7264">
        <ele>168.39999389648</ele>
        <time>2020-12-27T10:42:30Z</time>
      </trkpt>
      <trkpt lat="45.05774" lon="0.72653">
        <ele>168.19999694824</ele>
        <time>2020-12-27T10:42:33Z</time>
      </trkpt>
      <trkpt lat="45.05769" lon="0.72676">
        <ele>167.80000305176</ele>
        <time>2020-12-27T10:42:36Z</time>
      </trkpt>
      <trkpt lat="45.05767" lon="0.72684">
        <ele>167.80000305176</ele>
        <time>2020-12-27T10:42:37Z</time>
      </trkpt>
      <trkpt lat="45.05764" lon="0.72691">
        <ele>167.80000305176</ele>
        <time>2020-12-27T10:42:38Z</time>
      </trkpt>
      <trkpt lat="45.05754" lon="0.72707">
        <ele>168</ele>
        <time>2020-12-27T10:42:41Z</time>
      </trkpt>
      <trkpt lat="45.05751" lon="0.72711">
        <ele>168</ele>
        <time>2020-12-27T10:42:42Z</time>
      </trkpt>
      <trkpt lat="45.05744" lon="0.72717">
        <ele>168.19999694824</ele>
        <time>2020-12-27T10:42:45Z</time>
      </trkpt>
      <trkpt lat="45.05734" lon="0.7273">
        <ele>169</ele>
        <time>2020-12-27T10:45:33Z</time>
      </trkpt>
      <trkpt lat="45.05732" lon="0.72733">
        <ele>169.60000610352</ele>
        <time>2020-12-27T10:45:34Z</time>
      </trkpt>
      <trkpt lat="45.05728" lon="0.72738">
        <ele>170.80000305176</ele>
        <time>2020-12-27T10:45:36Z</time>
      </trkpt>
      <trkpt lat="45.05724" lon="0.72744">
        <ele>172</ele>
        <time>2020-12-27T10:45:38Z</time>
      </trkpt>
      <trkpt lat="45.05722" lon="0.72747">
        <ele>172.19999694824</ele>
        <time>2020-12-27T10:45:39Z</time>
      </trkpt>
      <trkpt lat="45.05717" lon="0.72756">
        <ele>173.19999694824</ele>
        <time>2020-12-27T10:45:43Z</time>
      </trkpt>
      <trkpt lat="45.05715" lon="0.72758">
        <ele>173.39999389648</ele>
        <time>2020-12-27T10:45:45Z</time>
      </trkpt>
      <trkpt lat="45.05712" lon="0.72766">
        <ele>174.19999694824</ele>
        <time>2020-12-27T10:45:49Z</time>
      </trkpt>
      <trkpt lat="45.05708" lon="0.72774">
        <ele>174.80000305176</ele>
        <time>2020-12-27T10:45:53Z</time>
      </trkpt>
      <trkpt lat="45.05706" lon="0.72779">
        <ele>175.39999389648</ele>
        <time>2020-12-27T10:45:55Z</time>
      </trkpt>
      <trkpt lat="45.05701" lon="0.7279">
        <ele>176.60000610352</ele>
        <time>2020-12-27T10:46:00Z</time>
      </trkpt>
      <trkpt lat="45.05696" lon="0.728">
        <ele>177.60000610352</ele>
        <time>2020-12-27T10:46:04Z</time>
      </trkpt>
      <trkpt lat="45.0569" lon="0.72811">
        <ele>178.39999389648</ele>
        <time>2020-12-27T10:46:08Z</time>
      </trkpt>
      <trkpt lat="45.05683" lon="0.72827">
        <ele>178.39999389648</ele>
        <time>2020-12-27T10:46:15Z</time>
      </trkpt>
      <trkpt lat="45.0568" lon="0.72835">
        <ele>178.80000305176</ele>
        <time>2020-12-27T10:46:19Z</time>
      </trkpt>
      <trkpt lat="45.05678" lon="0.72843">
        <ele>180</ele>
        <time>2020-12-27T10:46:22Z</time>
      </trkpt>
      <trkpt lat="45.05675" lon="0.7285">
        <ele>180.39999389648</ele>
        <time>2020-12-27T10:46:25Z</time>
      </trkpt>
      <trkpt lat="45.05668" lon="0.72865">
        <ele>181</ele>
        <time>2020-12-27T10:46:31Z</time>
      </trkpt>
      <trkpt lat="45.05667" lon="0.72868">
        <ele>181.19999694824</ele>
        <time>2020-12-27T10:46:32Z</time>
      </trkpt>
      <trkpt lat="45.05659" lon="0.72888">
        <ele>182</ele>
        <time>2020-12-27T10:46:39Z</time>
      </trkpt>
      <trkpt lat="45.05657" lon="0.72893">
        <ele>182.39999389648</ele>
        <time>2020-12-27T10:46:41Z</time>
      </trkpt>
      <trkpt lat="45.05653" lon="0.72901">
        <ele>183.60000610352</ele>
        <time>2020-12-27T10:46:44Z</time>
      </trkpt>
      <trkpt lat="45.05648" lon="0.72913">
        <ele>184</ele>
        <time>2020-12-27T10:46:49Z</time>
      </trkpt>
      <trkpt lat="45.05642" lon="0.72927">
        <ele>184.60000610352</ele>
        <time>2020-12-27T10:46:55Z</time>
      </trkpt>
      <trkpt lat="45.05638" lon="0.72934">
        <ele>184.60000610352</ele>
        <time>2020-12-27T10:46:58Z</time>
      </trkpt>
      <trkpt lat="45.05628" lon="0.72949">
        <ele>185.19999694824</ele>
        <time>2020-12-27T10:47:05Z</time>
      </trkpt>
      <trkpt lat="45.05625" lon="0.72953">
        <ele>185.60000610352</ele>
        <time>2020-12-27T10:47:07Z</time>
      </trkpt>
      <trkpt lat="45.05613" lon="0.72966">
        <ele>185.39999389648</ele>
        <time>2020-12-27T10:47:14Z</time>
      </trkpt>
      <trkpt lat="45.05599" lon="0.7298">
        <ele>186.60000610352</ele>
        <time>2020-12-27T10:47:22Z</time>
      </trkpt>
      <trkpt lat="45.05587" lon="0.72992">
        <ele>186.60000610352</ele>
        <time>2020-12-27T10:47:28Z</time>
      </trkpt>
      <trkpt lat="45.05576" lon="0.73007">
        <ele>186.60000610352</ele>
        <time>2020-12-27T10:47:34Z</time>
      </trkpt>
      <trkpt lat="45.05573" lon="0.73011">
        <ele>187</ele>
        <time>2020-12-27T10:47:36Z</time>
      </trkpt>
      <trkpt lat="45.0557" lon="0.73016">
        <ele>187.60000610352</ele>
        <time>2020-12-27T10:47:38Z</time>
      </trkpt>
      <trkpt lat="45.05561" lon="0.73031">
        <ele>188.60000610352</ele>
        <time>2020-12-27T10:47:44Z</time>
      </trkpt>
      <trkpt lat="45.05558" lon="0.73036">
        <ele>188.80000305176</ele>
        <time>2020-12-27T10:47:46Z</time>
      </trkpt>
      <trkpt lat="45.05554" lon="0.73046">
        <ele>190.19999694824</ele>
        <time>2020-12-27T10:47:50Z</time>
      </trkpt>
      <trkpt lat="45.05553" lon="0.73048">
        <ele>190.39999389648</ele>
        <time>2020-12-27T10:47:51Z</time>
      </trkpt>
      <trkpt lat="45.05548" lon="0.73059">
        <ele>191.39999389648</ele>
        <time>2020-12-27T10:47:55Z</time>
      </trkpt>
      <trkpt lat="45.05544" lon="0.73071">
        <ele>192.60000610352</ele>
        <time>2020-12-27T10:47:59Z</time>
      </trkpt>
      <trkpt lat="45.05537" lon="0.73086">
        <ele>193.80000305176</ele>
        <time>2020-12-27T10:48:04Z</time>
      </trkpt>
      <trkpt lat="45.05536" lon="0.73088">
        <ele>194.19999694824</ele>
        <time>2020-12-27T10:48:05Z</time>
      </trkpt>
      <trkpt lat="45.05533" lon="0.73097">
        <ele>195</ele>
        <time>2020-12-27T10:48:08Z</time>
      </trkpt>
      <trkpt lat="45.05529" lon="0.73105">
        <ele>196.19999694824</ele>
        <time>2020-12-27T10:48:11Z</time>
      </trkpt>
      <trkpt lat="45.05524" lon="0.73113">
        <ele>196.60000610352</ele>
        <time>2020-12-27T10:48:14Z</time>
      </trkpt>
      <trkpt lat="45.05506" lon="0.73134">
        <ele>196.80000305176</ele>
        <time>2020-12-27T10:48:23Z</time>
      </trkpt>
      <trkpt lat="45.05488" lon="0.73151">
        <ele>197</ele>
        <time>2020-12-27T10:48:32Z</time>
      </trkpt>
      <trkpt lat="45.05473" lon="0.73162">
        <ele>197.39999389648</ele>
        <time>2020-12-27T10:48:39Z</time>
      </trkpt>
      <trkpt lat="45.05469" lon="0.73165">
        <ele>198</ele>
        <time>2020-12-27T10:48:41Z</time>
      </trkpt>
      <trkpt lat="45.05464" lon="0.73169">
        <ele>198.39999389648</ele>
        <time>2020-12-27T10:48:43Z</time>
      </trkpt>
      <trkpt lat="45.05453" lon="0.73181">
        <ele>199</ele>
        <time>2020-12-27T10:48:49Z</time>
      </trkpt>
      <trkpt lat="45.05448" lon="0.73192">
        <ele>199.39999389648</ele>
        <time>2020-12-27T10:48:53Z</time>
      </trkpt>
      <trkpt lat="45.05444" lon="0.73197">
        <ele>200.19999694824</ele>
        <time>2020-12-27T10:48:56Z</time>
      </trkpt>
      <trkpt lat="45.05437" lon="0.73187">
        <ele>199.80000305176</ele>
        <time>2020-12-27T10:49:00Z</time>
      </trkpt>
      <trkpt lat="45.05424" lon="0.73165">
        <ele>199.39999389648</ele>
        <time>2020-12-27T10:49:06Z</time>
      </trkpt>
      <trkpt lat="45.05422" lon="0.73162">
        <ele>199.39999389648</ele>
        <time>2020-12-27T10:49:07Z</time>
      </trkpt>
      <trkpt lat="45.05406" lon="0.73134">
        <ele>199</ele>
        <time>2020-12-27T10:49:15Z</time>
      </trkpt>
      <trkpt lat="45.05391" lon="0.73104">
        <ele>199</ele>
        <time>2020-12-27T10:49:23Z</time>
      </trkpt>
      <trkpt lat="45.05373" lon="0.7307">
        <ele>199.39999389648</ele>
        <time>2020-12-27T10:49:33Z</time>
      </trkpt>
      <trkpt lat="45.05362" lon="0.7305">
        <ele>200.80000305176</ele>
        <time>2020-12-27T10:49:40Z</time>
      </trkpt>
      <trkpt lat="45.05359" lon="0.73045">
        <ele>201.39999389648</ele>
        <time>2020-12-27T10:49:42Z</time>
      </trkpt>
      <trkpt lat="45.05355" lon="0.7304">
        <ele>201.80000305176</ele>
        <time>2020-12-27T10:49:44Z</time>
      </trkpt>
      <trkpt lat="45.05343" lon="0.73026">
        <ele>203</ele>
        <time>2020-12-27T10:49:50Z</time>
      </trkpt>
      <trkpt lat="45.05327" lon="0.73015">
        <ele>204.19999694824</ele>
        <time>2020-12-27T10:49:57Z</time>
      </trkpt>
      <trkpt lat="45.05322" lon="0.73013">
        <ele>204.60000610352</ele>
        <time>2020-12-27T10:49:59Z</time>
      </trkpt>
      <trkpt lat="45.05318" lon="0.73011">
        <ele>205.19999694824</ele>
        <time>2020-12-27T10:50:01Z</time>
      </trkpt>
      <trkpt lat="45.05304" lon="0.73005">
        <ele>206</ele>
        <time>2020-12-27T10:50:07Z</time>
      </trkpt>
      <trkpt lat="45.05297" lon="0.73001">
        <ele>206.19999694824</ele>
        <time>2020-12-27T10:50:10Z</time>
      </trkpt>
      <trkpt lat="45.05289" lon="0.72995">
        <ele>207.19999694824</ele>
        <time>2020-12-27T10:50:15Z</time>
      </trkpt>
      <trkpt lat="45.05286" lon="0.72992">
        <ele>207.39999389648</ele>
        <time>2020-12-27T10:50:17Z</time>
      </trkpt>
      <trkpt lat="45.05284" lon="0.72992">
        <ele>207.39999389648</ele>
        <time>2020-12-27T10:50:18Z</time>
      </trkpt>
      <trkpt lat="45.05284" lon="0.72994">
        <ele>207.60000610352</ele>
        <time>2020-12-27T10:50:20Z</time>
      </trkpt>
      <trkpt lat="45.05289" lon="0.73005">
        <ele>208</ele>
        <time>2020-12-27T10:50:25Z</time>
      </trkpt>
      <trkpt lat="45.05288" lon="0.73011">
        <ele>207.60000610352</ele>
        <time>2020-12-27T10:50:27Z</time>
      </trkpt>
      <trkpt lat="45.05285" lon="0.73015">
        <ele>207</ele>
        <time>2020-12-27T10:50:29Z</time>
      </trkpt>
      <trkpt lat="45.05279" lon="0.7302">
        <ele>206.60000610352</ele>
        <time>2020-12-27T10:50:32Z</time>
      </trkpt>
      <trkpt lat="45.05273" lon="0.73024">
        <ele>206.60000610352</ele>
        <time>2020-12-27T10:50:35Z</time>
      </trkpt>
      <trkpt lat="45.05269" lon="0.73026">
        <ele>206.19999694824</ele>
        <time>2020-12-27T10:50:37Z</time>
      </trkpt>
      <trkpt lat="45.05257" lon="0.73032">
        <ele>205.19999694824</ele>
        <time>2020-12-27T10:50:43Z</time>
      </trkpt>
      <trkpt lat="45.05248" lon="0.73035">
        <ele>205.39999389648</ele>
        <time>2020-12-27T10:50:48Z</time>
      </trkpt>
      <trkpt lat="45.05238" lon="0.73042">
        <ele>205.60000610352</ele>
        <time>2020-12-27T10:50:54Z</time>
      </trkpt>
      <trkpt lat="45.05235" lon="0.73046">
        <ele>206.19999694824</ele>
        <time>2020-12-27T10:50:56Z</time>
      </trkpt>
      <trkpt lat="45.05227" lon="0.73055">
        <ele>206.19999694824</ele>
        <time>2020-12-27T10:51:01Z</time>
      </trkpt>
      <trkpt lat="45.0521" lon="0.73072">
        <ele>206.60000610352</ele>
        <time>2020-12-27T10:51:10Z</time>
      </trkpt>
      <trkpt lat="45.05203" lon="0.73078">
        <ele>207.60000610352</ele>
        <time>2020-12-27T10:51:15Z</time>
      </trkpt>
      <trkpt lat="45.05201" lon="0.73079">
        <ele>207.80000305176</ele>
        <time>2020-12-27T10:51:16Z</time>
      </trkpt>
      <trkpt lat="45.05185" lon="0.73095">
        <ele>208.80000305176</ele>
        <time>2020-12-27T10:51:23Z</time>
      </trkpt>
      <trkpt lat="45.05166" lon="0.73109">
        <ele>208.80000305176</ele>
        <time>2020-12-27T10:51:29Z</time>
      </trkpt>
      <trkpt lat="45.05138" lon="0.73133">
        <ele>208.39999389648</ele>
        <time>2020-12-27T10:51:38Z</time>
      </trkpt>
      <trkpt lat="45.05122" lon="0.73135">
        <ele>207.60000610352</ele>
        <time>2020-12-27T10:51:42Z</time>
      </trkpt>
      <trkpt lat="45.05118" lon="0.73135">
        <ele>207.39999389648</ele>
        <time>2020-12-27T10:51:43Z</time>
      </trkpt>
      <trkpt lat="45.05087" lon="0.73126">
        <ele>206.80000305176</ele>
        <time>2020-12-27T10:51:50Z</time>
      </trkpt>
      <trkpt lat="45.05079" lon="0.73121">
        <ele>206.39999389648</ele>
        <time>2020-12-27T10:51:52Z</time>
      </trkpt>
      <trkpt lat="45.05064" lon="0.73113">
        <ele>206</ele>
        <time>2020-12-27T10:51:56Z</time>
      </trkpt>
      <trkpt lat="45.0504" lon="0.73102">
        <ele>207.19999694824</ele>
        <time>2020-12-27T10:52:04Z</time>
      </trkpt>
      <trkpt lat="45.05037" lon="0.73102">
        <ele>207.39999389648</ele>
        <time>2020-12-27T10:52:05Z</time>
      </trkpt>
      <trkpt lat="45.05031" lon="0.73097">
        <ele>208.19999694824</ele>
        <time>2020-12-27T10:52:37Z</time>
      </trkpt>
      <trkpt lat="45.05031" lon="0.73095">
        <ele>208.39999389648</ele>
        <time>2020-12-27T10:52:38Z</time>
      </trkpt>
      <trkpt lat="45.05025" lon="0.7308">
        <ele>209.19999694824</ele>
        <time>2020-12-27T10:52:44Z</time>
      </trkpt>
      <trkpt lat="45.05022" lon="0.73076">
        <ele>208.80000305176</ele>
        <time>2020-12-27T10:52:45Z</time>
      </trkpt>
      <trkpt lat="45.05014" lon="0.73066">
        <ele>208.39999389648</ele>
        <time>2020-12-27T10:52:49Z</time>
      </trkpt>
      <trkpt lat="45.05" lon="0.73045">
        <ele>207.39999389648</ele>
        <time>2020-12-27T10:52:55Z</time>
      </trkpt>
      <trkpt lat="45.04997" lon="0.73041">
        <ele>207.39999389648</ele>
        <time>2020-12-27T10:52:56Z</time>
      </trkpt>
      <trkpt lat="45.04984" lon="0.73013">
        <ele>207</ele>
        <time>2020-12-27T10:53:02Z</time>
      </trkpt>
      <trkpt lat="45.04969" lon="0.7299">
        <ele>207.19999694824</ele>
        <time>2020-12-27T10:53:07Z</time>
      </trkpt>
      <trkpt lat="45.04957" lon="0.72947">
        <ele>207</ele>
        <time>2020-12-27T10:53:14Z</time>
      </trkpt>
      <trkpt lat="45.04948" lon="0.72915">
        <ele>206.39999389648</ele>
        <time>2020-12-27T10:53:20Z</time>
      </trkpt>
      <trkpt lat="45.04944" lon="0.72898">
        <ele>205.39999389648</ele>
        <time>2020-12-27T10:53:24Z</time>
      </trkpt>
      <trkpt lat="45.04942" lon="0.72893">
        <ele>205</ele>
        <time>2020-12-27T10:53:25Z</time>
      </trkpt>
      <trkpt lat="45.04942" lon="0.72887">
        <ele>204.80000305176</ele>
        <time>2020-12-27T10:53:26Z</time>
      </trkpt>
      <trkpt lat="45.04947" lon="0.72879">
        <ele>204.80000305176</ele>
        <time>2020-12-27T10:53:28Z</time>
      </trkpt>
      <trkpt lat="45.04961" lon="0.72865">
        <ele>204.39999389648</ele>
        <time>2020-12-27T10:53:33Z</time>
      </trkpt>
      <trkpt lat="45.04964" lon="0.72862">
        <ele>204.19999694824</ele>
        <time>2020-12-27T10:53:34Z</time>
      </trkpt>
      <trkpt lat="45.04977" lon="0.72839">
        <ele>205.19999694824</ele>
        <time>2020-12-27T10:53:40Z</time>
      </trkpt>
      <trkpt lat="45.04982" lon="0.72833">
        <ele>205.39999389648</ele>
        <time>2020-12-27T10:53:42Z</time>
      </trkpt>
      <trkpt lat="45.04981" lon="0.72821">
        <ele>205.19999694824</ele>
        <time>2020-12-27T10:53:45Z</time>
      </trkpt>
      <trkpt lat="45.04967" lon="0.7281">
        <ele>204.39999389648</ele>
        <time>2020-12-27T10:53:48Z</time>
      </trkpt>
      <trkpt lat="45.04962" lon="0.72805">
        <ele>204</ele>
        <time>2020-12-27T10:53:49Z</time>
      </trkpt>
      <trkpt lat="45.04952" lon="0.72794">
        <ele>203.39999389648</ele>
        <time>2020-12-27T10:53:51Z</time>
      </trkpt>
      <trkpt lat="45.04948" lon="0.72788">
        <ele>203</ele>
        <time>2020-12-27T10:53:52Z</time>
      </trkpt>
      <trkpt lat="45.0494" lon="0.72774">
        <ele>202.39999389648</ele>
        <time>2020-12-27T10:53:54Z</time>
      </trkpt>
      <trkpt lat="45.04936" lon="0.72766">
        <ele>202</ele>
        <time>2020-12-27T10:53:55Z</time>
      </trkpt>
      <trkpt lat="45.04927" lon="0.72752">
        <ele>201.39999389648</ele>
        <time>2020-12-27T10:53:57Z</time>
      </trkpt>
      <trkpt lat="45.04916" lon="0.72741">
        <ele>200.80000305176</ele>
        <time>2020-12-27T10:53:59Z</time>
      </trkpt>
      <trkpt lat="45.0491" lon="0.72737">
        <ele>200.60000610352</ele>
        <time>2020-12-27T10:54:00Z</time>
      </trkpt>
      <trkpt lat="45.04897" lon="0.72734">
        <ele>200.19999694824</ele>
        <time>2020-12-27T10:54:02Z</time>
      </trkpt>
      <trkpt lat="45.04885" lon="0.72732">
        <ele>199.80000305176</ele>
        <time>2020-12-27T10:54:04Z</time>
      </trkpt>
      <trkpt lat="45.0488" lon="0.72732">
        <ele>199.60000610352</ele>
        <time>2020-12-27T10:54:05Z</time>
      </trkpt>
      <trkpt lat="45.04871" lon="0.72731">
        <ele>199.19999694824</ele>
        <time>2020-12-27T10:54:07Z</time>
      </trkpt>
      <trkpt lat="45.04858" lon="0.72726">
        <ele>198.80000305176</ele>
        <time>2020-12-27T10:54:11Z</time>
      </trkpt>
      <trkpt lat="45.04854" lon="0.72725">
        <ele>198.60000610352</ele>
        <time>2020-12-27T10:54:12Z</time>
      </trkpt>
      <trkpt lat="45.04837" lon="0.72715">
        <ele>198.80000305176</ele>
        <time>2020-12-27T10:54:17Z</time>
      </trkpt>
      <trkpt lat="45.04833" lon="0.72713">
        <ele>199</ele>
        <time>2020-12-27T10:54:18Z</time>
      </trkpt>
      <trkpt lat="45.04825" lon="0.72704">
        <ele>199.80000305176</ele>
        <time>2020-12-27T10:54:21Z</time>
      </trkpt>
      <trkpt lat="45.04819" lon="0.72696">
        <ele>200.19999694824</ele>
        <time>2020-12-27T10:54:23Z</time>
      </trkpt>
      <trkpt lat="45.04808" lon="0.7268">
        <ele>200.80000305176</ele>
        <time>2020-12-27T10:54:27Z</time>
      </trkpt>
      <trkpt lat="45.048" lon="0.72667">
        <ele>201.39999389648</ele>
        <time>2020-12-27T10:54:30Z</time>
      </trkpt>
      <trkpt lat="45.04794" lon="0.7266">
        <ele>202</ele>
        <time>2020-12-27T10:54:32Z</time>
      </trkpt>
      <trkpt lat="45.0478" lon="0.72645">
        <ele>203</ele>
        <time>2020-12-27T10:54:36Z</time>
      </trkpt>
      <trkpt lat="45.04774" lon="0.72637">
        <ele>203.60000610352</ele>
        <time>2020-12-27T10:54:38Z</time>
      </trkpt>
      <trkpt lat="45.04763" lon="0.72625">
        <ele>204</ele>
        <time>2020-12-27T10:54:41Z</time>
      </trkpt>
      <trkpt lat="45.04759" lon="0.72621">
        <ele>204.19999694824</ele>
        <time>2020-12-27T10:54:42Z</time>
      </trkpt>
      <trkpt lat="45.0475" lon="0.72613">
        <ele>204.39999389648</ele>
        <time>2020-12-27T10:54:44Z</time>
      </trkpt>
      <trkpt lat="45.04722" lon="0.72585">
        <ele>204.19999694824</ele>
        <time>2020-12-27T10:54:50Z</time>
      </trkpt>
      <trkpt lat="45.04689" lon="0.72553">
        <ele>203.80000305176</ele>
        <time>2020-12-27T10:54:57Z</time>
      </trkpt>
      <trkpt lat="45.04672" lon="0.7254">
        <ele>203.19999694824</ele>
        <time>2020-12-27T10:55:00Z</time>
      </trkpt>
      <trkpt lat="45.04653" lon="0.72528">
        <ele>202.39999389648</ele>
        <time>2020-12-27T10:55:03Z</time>
      </trkpt>
      <trkpt lat="45.04641" lon="0.72521">
        <ele>202</ele>
        <time>2020-12-27T10:55:05Z</time>
      </trkpt>
      <trkpt lat="45.04613" lon="0.72508">
        <ele>201.19999694824</ele>
        <time>2020-12-27T10:55:10Z</time>
      </trkpt>
      <trkpt lat="45.04609" lon="0.72506">
        <ele>200.80000305176</ele>
        <time>2020-12-27T10:55:11Z</time>
      </trkpt>
      <trkpt lat="45.04602" lon="0.72504">
        <ele>199.80000305176</ele>
        <time>2020-12-27T10:55:14Z</time>
      </trkpt>
      <trkpt lat="45.046" lon="0.72502">
        <ele>199.60000610352</ele>
        <time>2020-12-27T10:55:15Z</time>
      </trkpt>
      <trkpt lat="45.04587" lon="0.72497">
        <ele>198.80000305176</ele>
        <time>2020-12-27T10:55:20Z</time>
      </trkpt>
      <trkpt lat="45.04583" lon="0.72496">
        <ele>198.60000610352</ele>
        <time>2020-12-27T10:55:21Z</time>
      </trkpt>
      <trkpt lat="45.04565" lon="0.72488">
        <ele>197.60000610352</ele>
        <time>2020-12-27T10:55:26Z</time>
      </trkpt>
      <trkpt lat="45.04559" lon="0.72484">
        <ele>197.39999389648</ele>
        <time>2020-12-27T10:55:28Z</time>
      </trkpt>
      <trkpt lat="45.04545" lon="0.72481">
        <ele>196.60000610352</ele>
        <time>2020-12-27T10:55:33Z</time>
      </trkpt>
      <trkpt lat="45.04539" lon="0.7248">
        <ele>196.60000610352</ele>
        <time>2020-12-27T10:55:35Z</time>
      </trkpt>
      <trkpt lat="45.04524" lon="0.72478">
        <ele>196.39999389648</ele>
        <time>2020-12-27T10:55:40Z</time>
      </trkpt>
      <trkpt lat="45.04512" lon="0.72474">
        <ele>196.19999694824</ele>
        <time>2020-12-27T10:55:44Z</time>
      </trkpt>
      <trkpt lat="45.04497" lon="0.72473">
        <ele>195.39999389648</ele>
        <time>2020-12-27T10:55:48Z</time>
      </trkpt>
      <trkpt lat="45.04489" lon="0.72472">
        <ele>195.19999694824</ele>
        <time>2020-12-27T10:55:50Z</time>
      </trkpt>
      <trkpt lat="45.0447" lon="0.72467">
        <ele>194.80000305176</ele>
        <time>2020-12-27T10:55:56Z</time>
      </trkpt>
      <trkpt lat="45.04461" lon="0.72468">
        <ele>194.19999694824</ele>
        <time>2020-12-27T10:55:59Z</time>
      </trkpt>
      <trkpt lat="45.04455" lon="0.72466">
        <ele>194.19999694824</ele>
        <time>2020-12-27T10:56:01Z</time>
      </trkpt>
      <trkpt lat="45.04437" lon="0.7246">
        <ele>194.39999389648</ele>
        <time>2020-12-27T10:56:08Z</time>
      </trkpt>
      <trkpt lat="45.0442" lon="0.72455">
        <ele>195.39999389648</ele>
        <time>2020-12-27T10:56:13Z</time>
      </trkpt>
      <trkpt lat="45.04411" lon="0.72452">
        <ele>195.80000305176</ele>
        <time>2020-12-27T10:56:16Z</time>
      </trkpt>
      <trkpt lat="45.04385" lon="0.72444">
        <ele>195.60000610352</ele>
        <time>2020-12-27T10:56:23Z</time>
      </trkpt>
      <trkpt lat="45.0436" lon="0.72436">
        <ele>194.39999389648</ele>
        <time>2020-12-27T10:56:30Z</time>
      </trkpt>
      <trkpt lat="45.04338" lon="0.72434">
        <ele>193.80000305176</ele>
        <time>2020-12-27T10:56:36Z</time>
      </trkpt>
      <trkpt lat="45.04309" lon="0.72427">
        <ele>194.19999694824</ele>
        <time>2020-12-27T10:56:43Z</time>
      </trkpt>
      <trkpt lat="45.04288" lon="0.72417">
        <ele>195.60000610352</ele>
        <time>2020-12-27T10:56:49Z</time>
      </trkpt>
      <trkpt lat="45.04278" lon="0.72414">
        <ele>196.60000610352</ele>
        <time>2020-12-27T10:56:52Z</time>
      </trkpt>
      <trkpt lat="45.04262" lon="0.7241">
        <ele>197.60000610352</ele>
        <time>2020-12-27T10:56:56Z</time>
      </trkpt>
      <trkpt lat="45.04236" lon="0.72405">
        <ele>198.19999694824</ele>
        <time>2020-12-27T10:57:02Z</time>
      </trkpt>
      <trkpt lat="45.04224" lon="0.72406">
        <ele>199.19999694824</ele>
        <time>2020-12-27T10:57:05Z</time>
      </trkpt>
      <trkpt lat="45.04216" lon="0.72407">
        <ele>199.39999389648</ele>
        <time>2020-12-27T10:57:07Z</time>
      </trkpt>
      <trkpt lat="45.04185" lon="0.72412">
        <ele>198.80000305176</ele>
        <time>2020-12-27T10:57:14Z</time>
      </trkpt>
      <trkpt lat="45.04164" lon="0.72406">
        <ele>198</ele>
        <time>2020-12-27T10:57:19Z</time>
      </trkpt>
      <trkpt lat="45.0416" lon="0.72404">
        <ele>197.60000610352</ele>
        <time>2020-12-27T10:57:20Z</time>
      </trkpt>
      <trkpt lat="45.04146" lon="0.72398">
        <ele>197</ele>
        <time>2020-12-27T10:57:23Z</time>
      </trkpt>
      <trkpt lat="45.04138" lon="0.72391">
        <ele>195.60000610352</ele>
        <time>2020-12-27T10:57:25Z</time>
      </trkpt>
      <trkpt lat="45.04128" lon="0.7238">
        <ele>194.39999389648</ele>
        <time>2020-12-27T10:57:28Z</time>
      </trkpt>
      <trkpt lat="45.04119" lon="0.72376">
        <ele>194.39999389648</ele>
        <time>2020-12-27T10:57:30Z</time>
      </trkpt>
      <trkpt lat="45.04092" lon="0.72367">
        <ele>193.19999694824</ele>
        <time>2020-12-27T10:57:36Z</time>
      </trkpt>
      <trkpt lat="45.04082" lon="0.72367">
        <ele>192.60000610352</ele>
        <time>2020-12-27T10:57:38Z</time>
      </trkpt>
      <trkpt lat="45.04066" lon="0.7237">
        <ele>192.60000610352</ele>
        <time>2020-12-27T10:57:41Z</time>
      </trkpt>
      <trkpt lat="45.04051" lon="0.72369">
        <ele>192.60000610352</ele>
        <time>2020-12-27T10:57:44Z</time>
      </trkpt>
      <trkpt lat="45.04039" lon="0.72367">
        <ele>192.80000305176</ele>
        <time>2020-12-27T10:57:47Z</time>
      </trkpt>
      <trkpt lat="45.04019" lon="0.72368">
        <ele>193</ele>
        <time>2020-12-27T10:57:52Z</time>
      </trkpt>
      <trkpt lat="45.03995" lon="0.72362">
        <ele>193.60000610352</ele>
        <time>2020-12-27T10:57:58Z</time>
      </trkpt>
      <trkpt lat="45.03973" lon="0.72356">
        <ele>194.19999694824</ele>
        <time>2020-12-27T10:58:03Z</time>
      </trkpt>
      <trkpt lat="45.03968" lon="0.72358">
        <ele>194.39999389648</ele>
        <time>2020-12-27T10:58:04Z</time>
      </trkpt>
      <trkpt lat="45.0396" lon="0.72359">
        <ele>195.39999389648</ele>
        <time>2020-12-27T10:58:06Z</time>
      </trkpt>
      <trkpt lat="45.03946" lon="0.72363">
        <ele>195.80000305176</ele>
        <time>2020-12-27T10:58:09Z</time>
      </trkpt>
      <trkpt lat="45.03942" lon="0.72364">
        <ele>195.60000610352</ele>
        <time>2020-12-27T10:58:10Z</time>
      </trkpt>
      <trkpt lat="45.03927" lon="0.72368">
        <ele>196.60000610352</ele>
        <time>2020-12-27T10:58:14Z</time>
      </trkpt>
      <trkpt lat="45.03902" lon="0.72375">
        <ele>196.80000305176</ele>
        <time>2020-12-27T10:58:20Z</time>
      </trkpt>
      <trkpt lat="45.03887" lon="0.72379">
        <ele>197.60000610352</ele>
        <time>2020-12-27T10:58:24Z</time>
      </trkpt>
      <trkpt lat="45.03877" lon="0.72384">
        <ele>197.80000305176</ele>
        <time>2020-12-27T10:58:27Z</time>
      </trkpt>
      <trkpt lat="45.03852" lon="0.72396">
        <ele>198</ele>
        <time>2020-12-27T10:58:34Z</time>
      </trkpt>
      <trkpt lat="45.03834" lon="0.72403">
        <ele>198.19999694824</ele>
        <time>2020-12-27T10:58:39Z</time>
      </trkpt>
      <trkpt lat="45.03821" lon="0.72407">
        <ele>198.60000610352</ele>
        <time>2020-12-27T10:58:44Z</time>
      </trkpt>
      <trkpt lat="45.03811" lon="0.72406">
        <ele>198.39999389648</ele>
        <time>2020-12-27T10:58:48Z</time>
      </trkpt>
      <trkpt lat="45.0379" lon="0.72405">
        <ele>197.60000610352</ele>
        <time>2020-12-27T10:58:54Z</time>
      </trkpt>
      <trkpt lat="45.0376" lon="0.72407">
        <ele>196.39999389648</ele>
        <time>2020-12-27T10:59:00Z</time>
      </trkpt>
      <trkpt lat="45.03755" lon="0.72408">
        <ele>196.19999694824</ele>
        <time>2020-12-27T10:59:01Z</time>
      </trkpt>
      <trkpt lat="45.0374" lon="0.72409">
        <ele>195.39999389648</ele>
        <time>2020-12-27T10:59:04Z</time>
      </trkpt>
      <trkpt lat="45.03734" lon="0.72408">
        <ele>195.19999694824</ele>
        <time>2020-12-27T10:59:05Z</time>
      </trkpt>
      <trkpt lat="45.03723" lon="0.72405">
        <ele>195</ele>
        <time>2020-12-27T10:59:07Z</time>
      </trkpt>
      <trkpt lat="45.03707" lon="0.72401">
        <ele>194.19999694824</ele>
        <time>2020-12-27T10:59:10Z</time>
      </trkpt>
      <trkpt lat="45.03685" lon="0.72397">
        <ele>193</ele>
        <time>2020-12-27T10:59:14Z</time>
      </trkpt>
      <trkpt lat="45.03665" lon="0.72389">
        <ele>191.80000305176</ele>
        <time>2020-12-27T10:59:17Z</time>
      </trkpt>
      <trkpt lat="45.03645" lon="0.72384">
        <ele>190.60000610352</ele>
        <time>2020-12-27T10:59:20Z</time>
      </trkpt>
      <trkpt lat="45.03633" lon="0.7238">
        <ele>190</ele>
        <time>2020-12-27T10:59:22Z</time>
      </trkpt>
      <trkpt lat="45.03626" lon="0.72378">
        <ele>189.60000610352</ele>
        <time>2020-12-27T10:59:23Z</time>
      </trkpt>
      <trkpt lat="45.03606" lon="0.72373">
        <ele>188</ele>
        <time>2020-12-27T10:59:26Z</time>
      </trkpt>
      <trkpt lat="45.03586" lon="0.72366">
        <ele>186.80000305176</ele>
        <time>2020-12-27T10:59:29Z</time>
      </trkpt>
      <trkpt lat="45.03557" lon="0.72351">
        <ele>185.39999389648</ele>
        <time>2020-12-27T10:59:33Z</time>
      </trkpt>
      <trkpt lat="45.0355" lon="0.72347">
        <ele>185</ele>
        <time>2020-12-27T10:59:34Z</time>
      </trkpt>
      <trkpt lat="45.03536" lon="0.72339">
        <ele>184.19999694824</ele>
        <time>2020-12-27T10:59:36Z</time>
      </trkpt>
      <trkpt lat="45.03517" lon="0.72324">
        <ele>183</ele>
        <time>2020-12-27T10:59:39Z</time>
      </trkpt>
      <trkpt lat="45.03511" lon="0.7232">
        <ele>182.80000305176</ele>
        <time>2020-12-27T10:59:40Z</time>
      </trkpt>
      <trkpt lat="45.03494" lon="0.72308">
        <ele>182</ele>
        <time>2020-12-27T10:59:43Z</time>
      </trkpt>
      <trkpt lat="45.03478" lon="0.72297">
        <ele>181.19999694824</ele>
        <time>2020-12-27T10:59:46Z</time>
      </trkpt>
      <trkpt lat="45.03468" lon="0.7229">
        <ele>180.80000305176</ele>
        <time>2020-12-27T10:59:48Z</time>
      </trkpt>
      <trkpt lat="45.03442" lon="0.72272">
        <ele>179.80000305176</ele>
        <time>2020-12-27T10:59:53Z</time>
      </trkpt>
      <trkpt lat="45.03438" lon="0.72268">
        <ele>179.60000610352</ele>
        <time>2020-12-27T10:59:54Z</time>
      </trkpt>
      <trkpt lat="45.03421" lon="0.72249">
        <ele>179</ele>
        <time>2020-12-27T10:59:58Z</time>
      </trkpt>
      <trkpt lat="45.03386" lon="0.72209">
        <ele>179</ele>
        <time>2020-12-27T11:00:07Z</time>
      </trkpt>
      <trkpt lat="45.03366" lon="0.72183">
        <ele>180</ele>
        <time>2020-12-27T11:00:13Z</time>
      </trkpt>
      <trkpt lat="45.03355" lon="0.72172">
        <ele>180.80000305176</ele>
        <time>2020-12-27T11:00:16Z</time>
      </trkpt>
      <trkpt lat="45.03347" lon="0.72169">
        <ele>181.60000610352</ele>
        <time>2020-12-27T11:00:18Z</time>
      </trkpt>
      <trkpt lat="45.03343" lon="0.72168">
        <ele>182</ele>
        <time>2020-12-27T11:00:19Z</time>
      </trkpt>
      <trkpt lat="45.03331" lon="0.72166">
        <ele>183</ele>
        <time>2020-12-27T11:00:22Z</time>
      </trkpt>
      <trkpt lat="45.03319" lon="0.72163">
        <ele>183.80000305176</ele>
        <time>2020-12-27T11:00:25Z</time>
      </trkpt>
      <trkpt lat="45.03312" lon="0.72159">
        <ele>184.19999694824</ele>
        <time>2020-12-27T11:00:27Z</time>
      </trkpt>
      <trkpt lat="45.03303" lon="0.72153">
        <ele>184.80000305176</ele>
        <time>2020-12-27T11:00:30Z</time>
      </trkpt>
      <trkpt lat="45.03292" lon="0.72147">
        <ele>185.19999694824</ele>
        <time>2020-12-27T11:00:33Z</time>
      </trkpt>
      <trkpt lat="45.03274" lon="0.72135">
        <ele>186.19999694824</ele>
        <time>2020-12-27T11:00:38Z</time>
      </trkpt>
      <trkpt lat="45.03258" lon="0.72129">
        <ele>186.19999694824</ele>
        <time>2020-12-27T11:00:42Z</time>
      </trkpt>
      <trkpt lat="45.03255" lon="0.72133">
        <ele>186.39999389648</ele>
        <time>2020-12-27T11:00:43Z</time>
      </trkpt>
      <trkpt lat="45.03234" lon="0.72153">
        <ele>186.80000305176</ele>
        <time>2020-12-27T11:00:49Z</time>
      </trkpt>
      <trkpt lat="45.03224" lon="0.72157">
        <ele>187</ele>
        <time>2020-12-27T11:00:53Z</time>
      </trkpt>
      <trkpt lat="45.03214" lon="0.72141">
        <ele>186.60000610352</ele>
        <time>2020-12-27T11:00:58Z</time>
      </trkpt>
      <trkpt lat="45.03196" lon="0.72107">
        <ele>187.19999694824</ele>
        <time>2020-12-27T11:01:06Z</time>
      </trkpt>
      <trkpt lat="45.03191" lon="0.72106">
        <ele>187.39999389648</ele>
        <time>2020-12-27T11:01:08Z</time>
      </trkpt>
      <trkpt lat="45.03188" lon="0.72107">
        <ele>187.39999389648</ele>
        <time>2020-12-27T11:01:09Z</time>
      </trkpt>
      <trkpt lat="45.03167" lon="0.72122">
        <ele>186.80000305176</ele>
        <time>2020-12-27T11:01:14Z</time>
      </trkpt>
      <trkpt lat="45.03144" lon="0.72144">
        <ele>186.60000610352</ele>
        <time>2020-12-27T11:01:19Z</time>
      </trkpt>
      <trkpt lat="45.03129" lon="0.72151">
        <ele>185.19999694824</ele>
        <time>2020-12-27T11:01:23Z</time>
      </trkpt>
      <trkpt lat="45.03123" lon="0.7214">
        <ele>184.19999694824</ele>
        <time>2020-12-27T11:01:26Z</time>
      </trkpt>
      <trkpt lat="45.0312" lon="0.72132">
        <ele>183.39999389648</ele>
        <time>2020-12-27T11:01:28Z</time>
      </trkpt>
      <trkpt lat="45.03119" lon="0.72128">
        <ele>183.19999694824</ele>
        <time>2020-12-27T11:01:29Z</time>
      </trkpt>
      <trkpt lat="45.03114" lon="0.72118">
        <ele>182</ele>
        <time>2020-12-27T11:01:32Z</time>
      </trkpt>
      <trkpt lat="45.03107" lon="0.72105">
        <ele>180.80000305176</ele>
        <time>2020-12-27T11:01:35Z</time>
      </trkpt>
      <trkpt lat="45.031" lon="0.72089">
        <ele>179.60000610352</ele>
        <time>2020-12-27T11:01:39Z</time>
      </trkpt>
      <trkpt lat="45.03097" lon="0.72078">
        <ele>179.19999694824</ele>
        <time>2020-12-27T11:01:43Z</time>
      </trkpt>
      <trkpt lat="45.03089" lon="0.72081">
        <ele>179</ele>
        <time>2020-12-27T11:01:46Z</time>
      </trkpt>
      <trkpt lat="45.03086" lon="0.72083">
        <ele>179</ele>
        <time>2020-12-27T11:01:47Z</time>
      </trkpt>
      <trkpt lat="45.03072" lon="0.72092">
        <ele>178.80000305176</ele>
        <time>2020-12-27T11:01:52Z</time>
      </trkpt>
      <trkpt lat="45.03067" lon="0.7209">
        <ele>178.60000610352</ele>
        <time>2020-12-27T11:01:53Z</time>
      </trkpt>
      <trkpt lat="45.03062" lon="0.72088">
        <ele>178.60000610352</ele>
        <time>2020-12-27T11:01:54Z</time>
      </trkpt>
      <trkpt lat="45.03056" lon="0.72085">
        <ele>178.39999389648</ele>
        <time>2020-12-27T11:01:55Z</time>
      </trkpt>
      <trkpt lat="45.0302" lon="0.72061">
        <ele>177.60000610352</ele>
        <time>2020-12-27T11:02:01Z</time>
      </trkpt>
      <trkpt lat="45.02998" lon="0.72047">
        <ele>176.39999389648</ele>
        <time>2020-12-27T11:02:05Z</time>
      </trkpt>
      <trkpt lat="45.0298" lon="0.72034">
        <ele>175.60000610352</ele>
        <time>2020-12-27T11:02:08Z</time>
      </trkpt>
      <trkpt lat="45.02975" lon="0.7203">
        <ele>175.39999389648</ele>
        <time>2020-12-27T11:02:09Z</time>
      </trkpt>
      <trkpt lat="45.02971" lon="0.72025">
        <ele>174.80000305176</ele>
        <time>2020-12-27T11:02:10Z</time>
      </trkpt>
      <trkpt lat="45.02967" lon="0.7202">
        <ele>174</ele>
        <time>2020-12-27T11:02:11Z</time>
      </trkpt>
      <trkpt lat="45.02959" lon="0.72012">
        <ele>173.19999694824</ele>
        <time>2020-12-27T11:02:13Z</time>
      </trkpt>
      <trkpt lat="45.02956" lon="0.72006">
        <ele>173</ele>
        <time>2020-12-27T11:02:14Z</time>
      </trkpt>
      <trkpt lat="45.02947" lon="0.71989">
        <ele>172</ele>
        <time>2020-12-27T11:02:17Z</time>
      </trkpt>
      <trkpt lat="45.02945" lon="0.71985">
        <ele>171.39999389648</ele>
        <time>2020-12-27T11:02:18Z</time>
      </trkpt>
      <trkpt lat="45.02938" lon="0.71977">
        <ele>170</ele>
        <time>2020-12-27T11:02:20Z</time>
      </trkpt>
      <trkpt lat="45.02931" lon="0.71968">
        <ele>168.39999389648</ele>
        <time>2020-12-27T11:02:22Z</time>
      </trkpt>
      <trkpt lat="45.02928" lon="0.71965">
        <ele>167.19999694824</ele>
        <time>2020-12-27T11:02:23Z</time>
      </trkpt>
      <trkpt lat="45.02925" lon="0.71963">
        <ele>166</ele>
        <time>2020-12-27T11:02:24Z</time>
      </trkpt>
      <trkpt lat="45.02917" lon="0.71963">
        <ele>164.80000305176</ele>
        <time>2020-12-27T11:02:26Z</time>
      </trkpt>
      <trkpt lat="45.02907" lon="0.71964">
        <ele>163.60000610352</ele>
        <time>2020-12-27T11:02:29Z</time>
      </trkpt>
      <trkpt lat="45.029" lon="0.71965">
        <ele>162</ele>
        <time>2020-12-27T11:02:32Z</time>
      </trkpt>
      <trkpt lat="45.02898" lon="0.71966">
        <ele>160.80000305176</ele>
        <time>2020-12-27T11:02:42Z</time>
      </trkpt>
      <trkpt lat="45.02894" lon="0.71973">
        <ele>159.39999389648</ele>
        <time>2020-12-27T11:02:44Z</time>
      </trkpt>
      <trkpt lat="45.02889" lon="0.71977">
        <ele>157.60000610352</ele>
        <time>2020-12-27T11:02:46Z</time>
      </trkpt>
      <trkpt lat="45.02887" lon="0.71975">
        <ele>156</ele>
        <time>2020-12-27T11:02:47Z</time>
      </trkpt>
      <trkpt lat="45.02884" lon="0.71974">
        <ele>154.60000610352</ele>
        <time>2020-12-27T11:02:48Z</time>
      </trkpt>
      <trkpt lat="45.02882" lon="0.71977">
        <ele>153.60000610352</ele>
        <time>2020-12-27T11:02:49Z</time>
      </trkpt>
      <trkpt lat="45.02881" lon="0.71978">
        <ele>152.60000610352</ele>
        <time>2020-12-27T11:02:50Z</time>
      </trkpt>
      <trkpt lat="45.02878" lon="0.71981">
        <ele>151.80000305176</ele>
        <time>2020-12-27T11:02:51Z</time>
      </trkpt>
      <trkpt lat="45.02875" lon="0.71983">
        <ele>151.19999694824</ele>
        <time>2020-12-27T11:02:52Z</time>
      </trkpt>
      <trkpt lat="45.02872" lon="0.71986">
        <ele>150.80000305176</ele>
        <time>2020-12-27T11:02:53Z</time>
      </trkpt>
      <trkpt lat="45.02866" lon="0.71988">
        <ele>149.80000305176</ele>
        <time>2020-12-27T11:02:55Z</time>
      </trkpt>
      <trkpt lat="45.02863" lon="0.71987">
        <ele>149.39999389648</ele>
        <time>2020-12-27T11:02:56Z</time>
      </trkpt>
      <trkpt lat="45.02854" lon="0.71983">
        <ele>148</ele>
        <time>2020-12-27T11:02:59Z</time>
      </trkpt>
      <trkpt lat="45.02852" lon="0.71981">
        <ele>147.39999389648</ele>
        <time>2020-12-27T11:03:00Z</time>
      </trkpt>
      <trkpt lat="45.02849" lon="0.71979">
        <ele>146.39999389648</ele>
        <time>2020-12-27T11:03:01Z</time>
      </trkpt>
      <trkpt lat="45.02845" lon="0.71974">
        <ele>145</ele>
        <time>2020-12-27T11:03:03Z</time>
      </trkpt>
      <trkpt lat="45.0284" lon="0.71969">
        <ele>143.80000305176</ele>
        <time>2020-12-27T11:03:05Z</time>
      </trkpt>
      <trkpt lat="45.02836" lon="0.71963">
        <ele>142.80000305176</ele>
        <time>2020-12-27T11:03:07Z</time>
      </trkpt>
      <trkpt lat="45.02835" lon="0.7196">
        <ele>142.19999694824</ele>
        <time>2020-12-27T11:03:08Z</time>
      </trkpt>
      <trkpt lat="45.02832" lon="0.71957">
        <ele>141.80000305176</ele>
        <time>2020-12-27T11:03:09Z</time>
      </trkpt>
      <trkpt lat="45.02828" lon="0.7195">
        <ele>140.60000610352</ele>
        <time>2020-12-27T11:03:11Z</time>
      </trkpt>
      <trkpt lat="45.02823" lon="0.71944">
        <ele>139.39999389648</ele>
        <time>2020-12-27T11:03:13Z</time>
      </trkpt>
      <trkpt lat="45.02819" lon="0.71936">
        <ele>138.19999694824</ele>
        <time>2020-12-27T11:03:15Z</time>
      </trkpt>
      <trkpt lat="45.02811" lon="0.71924">
        <ele>137</ele>
        <time>2020-12-27T11:03:18Z</time>
      </trkpt>
      <trkpt lat="45.02809" lon="0.71923">
        <ele>136.80000305176</ele>
        <time>2020-12-27T11:03:19Z</time>
      </trkpt>
      <trkpt lat="45.02805" lon="0.71925">
        <ele>136.60000610352</ele>
        <time>2020-12-27T11:03:20Z</time>
      </trkpt>
      <trkpt lat="45.02793" lon="0.71937">
        <ele>136</ele>
        <time>2020-12-27T11:03:23Z</time>
      </trkpt>
      <trkpt lat="45.02789" lon="0.71942">
        <ele>136</ele>
        <time>2020-12-27T11:03:24Z</time>
      </trkpt>
      <trkpt lat="45.02775" lon="0.71963">
        <ele>135.19999694824</ele>
        <time>2020-12-27T11:03:28Z</time>
      </trkpt>
      <trkpt lat="45.02767" lon="0.71973">
        <ele>134.80000305176</ele>
        <time>2020-12-27T11:03:30Z</time>
      </trkpt>
      <trkpt lat="45.0276" lon="0.71983">
        <ele>134.39999389648</ele>
        <time>2020-12-27T11:03:32Z</time>
      </trkpt>
      <trkpt lat="45.0275" lon="0.71996">
        <ele>134</ele>
        <time>2020-12-27T11:03:35Z</time>
      </trkpt>
      <trkpt lat="45.0274" lon="0.71993">
        <ele>133.60000610352</ele>
        <time>2020-12-27T11:03:37Z</time>
      </trkpt>
      <trkpt lat="45.02737" lon="0.71988">
        <ele>133.19999694824</ele>
        <time>2020-12-27T11:03:38Z</time>
      </trkpt>
      <trkpt lat="45.0273" lon="0.71979">
        <ele>132.39999389648</ele>
        <time>2020-12-27T11:03:40Z</time>
      </trkpt>
      <trkpt lat="45.02726" lon="0.71974">
        <ele>132.39999389648</ele>
        <time>2020-12-27T11:03:41Z</time>
      </trkpt>
      <trkpt lat="45.02723" lon="0.71969">
        <ele>132.19999694824</ele>
        <time>2020-12-27T11:03:42Z</time>
      </trkpt>
      <trkpt lat="45.0272" lon="0.71964">
        <ele>131.80000305176</ele>
        <time>2020-12-27T11:03:43Z</time>
      </trkpt>
      <trkpt lat="45.02717" lon="0.7196">
        <ele>131.19999694824</ele>
        <time>2020-12-27T11:03:44Z</time>
      </trkpt>
      <trkpt lat="45.02713" lon="0.71956">
        <ele>131</ele>
        <time>2020-12-27T11:03:45Z</time>
      </trkpt>
      <trkpt lat="45.02699" lon="0.71936">
        <ele>130.19999694824</ele>
        <time>2020-12-27T11:03:49Z</time>
      </trkpt>
      <trkpt lat="45.02696" lon="0.71931">
        <ele>130.19999694824</ele>
        <time>2020-12-27T11:03:50Z</time>
      </trkpt>
      <trkpt lat="45.02682" lon="0.71913">
        <ele>129.80000305176</ele>
        <time>2020-12-27T11:03:54Z</time>
      </trkpt>
      <trkpt lat="45.02676" lon="0.71903">
        <ele>129.39999389648</ele>
        <time>2020-12-27T11:03:56Z</time>
      </trkpt>
      <trkpt lat="45.02672" lon="0.71899">
        <ele>129.39999389648</ele>
        <time>2020-12-27T11:03:57Z</time>
      </trkpt>
      <trkpt lat="45.02659" lon="0.71894">
        <ele>129.19999694824</ele>
        <time>2020-12-27T11:04:00Z</time>
      </trkpt>
      <trkpt lat="45.02654" lon="0.71894">
        <ele>129.19999694824</ele>
        <time>2020-12-27T11:04:01Z</time>
      </trkpt>
      <trkpt lat="45.0265" lon="0.7189">
        <ele>129</ele>
        <time>2020-12-27T11:04:02Z</time>
      </trkpt>
      <trkpt lat="45.02648" lon="0.71883">
        <ele>129</ele>
        <time>2020-12-27T11:04:03Z</time>
      </trkpt>
      <trkpt lat="45.02646" lon="0.71864">
        <ele>129</ele>
        <time>2020-12-27T11:04:06Z</time>
      </trkpt>
      <trkpt lat="45.02634" lon="0.71858">
        <ele>129</ele>
        <time>2020-12-27T11:04:09Z</time>
      </trkpt>
      <trkpt lat="45.0262" lon="0.71866">
        <ele>129.39999389648</ele>
        <time>2020-12-27T11:04:12Z</time>
      </trkpt>
      <trkpt lat="45.02586" lon="0.71879">
        <ele>129.60000610352</ele>
        <time>2020-12-27T11:04:19Z</time>
      </trkpt>
      <trkpt lat="45.02576" lon="0.71861">
        <ele>129.60000610352</ele>
        <time>2020-12-27T11:04:22Z</time>
      </trkpt>
      <trkpt lat="45.02564" lon="0.7184">
        <ele>130.19999694824</ele>
        <time>2020-12-27T11:04:26Z</time>
      </trkpt>
      <trkpt lat="45.02554" lon="0.71825">
        <ele>130</ele>
        <time>2020-12-27T11:04:29Z</time>
      </trkpt>
      <trkpt lat="45.02533" lon="0.71783">
        <ele>129</ele>
        <time>2020-12-27T11:04:36Z</time>
      </trkpt>
      <trkpt lat="45.0253" lon="0.71777">
        <ele>128.80000305176</ele>
        <time>2020-12-27T11:04:37Z</time>
      </trkpt>
      <trkpt lat="45.0252" lon="0.71761">
        <ele>128</ele>
        <time>2020-12-27T11:04:40Z</time>
      </trkpt>
      <trkpt lat="45.02501" lon="0.71727">
        <ele>127.59999847412</ele>
        <time>2020-12-27T11:04:46Z</time>
      </trkpt>
      <trkpt lat="45.02487" lon="0.71703">
        <ele>127</ele>
        <time>2020-12-27T11:04:51Z</time>
      </trkpt>
      <trkpt lat="45.02486" lon="0.71697">
        <ele>127</ele>
        <time>2020-12-27T11:04:52Z</time>
      </trkpt>
      <trkpt lat="45.02489" lon="0.7168">
        <ele>126.80000305176</ele>
        <time>2020-12-27T11:04:55Z</time>
      </trkpt>
      <trkpt lat="45.02491" lon="0.71675">
        <ele>126.80000305176</ele>
        <time>2020-12-27T11:04:56Z</time>
      </trkpt>
      <trkpt lat="45.02489" lon="0.7167">
        <ele>126.40000152588</ele>
        <time>2020-12-27T11:04:58Z</time>
      </trkpt>
      <trkpt lat="45.02487" lon="0.71671">
        <ele>126.40000152588</ele>
        <time>2020-12-27T11:04:59Z</time>
      </trkpt>
      <trkpt lat="45.02485" lon="0.71678">
        <ele>125</ele>
        <time>2020-12-27T11:16:00Z</time>
      </trkpt>
      <trkpt lat="45.02485" lon="0.71683">
        <ele>125</ele>
        <time>2020-12-27T11:16:01Z</time>
      </trkpt>
      <trkpt lat="45.02484" lon="0.71705">
        <ele>125.19999694824</ele>
        <time>2020-12-27T11:16:04Z</time>
      </trkpt>
      <trkpt lat="45.0248" lon="0.71725">
        <ele>125</ele>
        <time>2020-12-27T11:16:06Z</time>
      </trkpt>
      <trkpt lat="45.02476" lon="0.71749">
        <ele>124.59999847412</ele>
        <time>2020-12-27T11:16:08Z</time>
      </trkpt>
      <trkpt lat="45.02471" lon="0.71772">
        <ele>124.40000152588</ele>
        <time>2020-12-27T11:16:10Z</time>
      </trkpt>
      <trkpt lat="45.0246" lon="0.71787">
        <ele>124</ele>
        <time>2020-12-27T11:16:12Z</time>
      </trkpt>
      <trkpt lat="45.02453" lon="0.71789">
        <ele>124</ele>
        <time>2020-12-27T11:16:13Z</time>
      </trkpt>
      <trkpt lat="45.02437" lon="0.71791">
        <ele>124</ele>
        <time>2020-12-27T11:16:15Z</time>
      </trkpt>
      <trkpt lat="45.02431" lon="0.71792">
        <ele>124</ele>
        <time>2020-12-27T11:16:16Z</time>
      </trkpt>
      <trkpt lat="45.0242" lon="0.71795">
        <ele>125.80000305176</ele>
        <time>2020-12-27T11:16:18Z</time>
      </trkpt>
      <trkpt lat="45.02417" lon="0.71796">
        <ele>126.59999847412</ele>
        <time>2020-12-27T11:16:19Z</time>
      </trkpt>
      <trkpt lat="45.02414" lon="0.71796">
        <ele>127.19999694824</ele>
        <time>2020-12-27T11:16:20Z</time>
      </trkpt>
      <trkpt lat="45.02412" lon="0.7179">
        <ele>127.80000305176</ele>
        <time>2020-12-27T11:16:21Z</time>
      </trkpt>
      <trkpt lat="45.0241" lon="0.71783">
        <ele>128.19999694824</ele>
        <time>2020-12-27T11:16:22Z</time>
      </trkpt>
      <trkpt lat="45.02409" lon="0.71772">
        <ele>128.60000610352</ele>
        <time>2020-12-27T11:16:23Z</time>
      </trkpt>
      <trkpt lat="45.02405" lon="0.71744">
        <ele>129.19999694824</ele>
        <time>2020-12-27T11:16:25Z</time>
      </trkpt>
      <trkpt lat="45.02398" lon="0.7171">
        <ele>129.80000305176</ele>
        <time>2020-12-27T11:16:27Z</time>
      </trkpt>
      <trkpt lat="45.02395" lon="0.71689">
        <ele>130</ele>
        <time>2020-12-27T11:16:28Z</time>
      </trkpt>
      <trkpt lat="45.02383" lon="0.71628">
        <ele>130.80000305176</ele>
        <time>2020-12-27T11:16:31Z</time>
      </trkpt>
      <trkpt lat="45.02375" lon="0.7159">
        <ele>131.39999389648</ele>
        <time>2020-12-27T11:16:33Z</time>
      </trkpt>
      <trkpt lat="45.02364" lon="0.71535">
        <ele>132</ele>
        <time>2020-12-27T11:16:36Z</time>
      </trkpt>
      <trkpt lat="45.0235" lon="0.71467">
        <ele>132.60000610352</ele>
        <time>2020-12-27T11:16:40Z</time>
      </trkpt>
      <trkpt lat="45.02334" lon="0.71418">
        <ele>132.80000305176</ele>
        <time>2020-12-27T11:16:43Z</time>
      </trkpt>
      <trkpt lat="45.02326" lon="0.71404">
        <ele>132.80000305176</ele>
        <time>2020-12-27T11:16:44Z</time>
      </trkpt>
      <trkpt lat="45.02291" lon="0.7135">
        <ele>133</ele>
        <time>2020-12-27T11:16:48Z</time>
      </trkpt>
      <trkpt lat="45.02272" lon="0.71294">
        <ele>132.80000305176</ele>
        <time>2020-12-27T11:16:51Z</time>
      </trkpt>
      <trkpt lat="45.02249" lon="0.71219">
        <ele>132.60000610352</ele>
        <time>2020-12-27T11:16:55Z</time>
      </trkpt>
      <trkpt lat="45.02233" lon="0.71165">
        <ele>132.39999389648</ele>
        <time>2020-12-27T11:16:58Z</time>
      </trkpt>
      <trkpt lat="45.02209" lon="0.71093">
        <ele>132.19999694824</ele>
        <time>2020-12-27T11:17:02Z</time>
      </trkpt>
      <trkpt lat="45.02202" lon="0.71074">
        <ele>132.19999694824</ele>
        <time>2020-12-27T11:17:03Z</time>
      </trkpt>
      <trkpt lat="45.02172" lon="0.70999">
        <ele>132</ele>
        <time>2020-12-27T11:17:07Z</time>
      </trkpt>
      <trkpt lat="45.02148" lon="0.70939">
        <ele>132</ele>
        <time>2020-12-27T11:17:10Z</time>
      </trkpt>
      <trkpt lat="45.02121" lon="0.70872">
        <ele>131.80000305176</ele>
        <time>2020-12-27T11:17:13Z</time>
      </trkpt>
      <trkpt lat="45.02103" lon="0.70826">
        <ele>131.60000610352</ele>
        <time>2020-12-27T11:17:15Z</time>
      </trkpt>
      <trkpt lat="45.02076" lon="0.70755">
        <ele>131</ele>
        <time>2020-12-27T11:17:18Z</time>
      </trkpt>
      <trkpt lat="45.02069" lon="0.7073">
        <ele>131</ele>
        <time>2020-12-27T11:17:19Z</time>
      </trkpt>
      <trkpt lat="45.02063" lon="0.70705">
        <ele>130.80000305176</ele>
        <time>2020-12-27T11:17:20Z</time>
      </trkpt>
      <trkpt lat="45.02045" lon="0.70626">
        <ele>130.39999389648</ele>
        <time>2020-12-27T11:17:23Z</time>
      </trkpt>
      <trkpt lat="45.02033" lon="0.70572">
        <ele>130.19999694824</ele>
        <time>2020-12-27T11:17:25Z</time>
      </trkpt>
      <trkpt lat="45.0202" lon="0.70517">
        <ele>129.80000305176</ele>
        <time>2020-12-27T11:17:27Z</time>
      </trkpt>
      <trkpt lat="45.02001" lon="0.70432">
        <ele>129.39999389648</ele>
        <time>2020-12-27T11:17:30Z</time>
      </trkpt>
      <trkpt lat="45.01987" lon="0.70376">
        <ele>129</ele>
        <time>2020-12-27T11:17:32Z</time>
      </trkpt>
      <trkpt lat="45.01975" lon="0.7032">
        <ele>128.80000305176</ele>
        <time>2020-12-27T11:17:34Z</time>
      </trkpt>
      <trkpt lat="45.01956" lon="0.7024">
        <ele>128.19999694824</ele>
        <time>2020-12-27T11:17:37Z</time>
      </trkpt>
      <trkpt lat="45.01951" lon="0.70214">
        <ele>128</ele>
        <time>2020-12-27T11:17:38Z</time>
      </trkpt>
      <trkpt lat="45.01946" lon="0.70187">
        <ele>127.80000305176</ele>
        <time>2020-12-27T11:17:39Z</time>
      </trkpt>
      <trkpt lat="45.01938" lon="0.70107">
        <ele>127.40000152588</ele>
        <time>2020-12-27T11:17:42Z</time>
      </trkpt>
      <trkpt lat="45.01939" lon="0.70025">
        <ele>127.19999694824</ele>
        <time>2020-12-27T11:17:45Z</time>
      </trkpt>
      <trkpt lat="45.01939" lon="0.69997">
        <ele>127.19999694824</ele>
        <time>2020-12-27T11:17:46Z</time>
      </trkpt>
      <trkpt lat="45.0194" lon="0.69914">
        <ele>126.80000305176</ele>
        <time>2020-12-27T11:17:49Z</time>
      </trkpt>
      <trkpt lat="45.01941" lon="0.69833">
        <ele>127</ele>
        <time>2020-12-27T11:17:52Z</time>
      </trkpt>
      <trkpt lat="45.01942" lon="0.6978">
        <ele>127</ele>
        <time>2020-12-27T11:17:54Z</time>
      </trkpt>
      <trkpt lat="45.01945" lon="0.69684">
        <ele>126.80000305176</ele>
        <time>2020-12-27T11:17:58Z</time>
      </trkpt>
      <trkpt lat="45.01946" lon="0.69662">
        <ele>126.80000305176</ele>
        <time>2020-12-27T11:17:59Z</time>
      </trkpt>
      <trkpt lat="45.01947" lon="0.69641">
        <ele>126.80000305176</ele>
        <time>2020-12-27T11:18:00Z</time>
      </trkpt>
      <trkpt lat="45.01947" lon="0.69563">
        <ele>126.59999847412</ele>
        <time>2020-12-27T11:18:04Z</time>
      </trkpt>
      <trkpt lat="45.01932" lon="0.69514">
        <ele>126.59999847412</ele>
        <time>2020-12-27T11:18:07Z</time>
      </trkpt>
      <trkpt lat="45.01904" lon="0.69474">
        <ele>126.40000152588</ele>
        <time>2020-12-27T11:18:10Z</time>
      </trkpt>
      <trkpt lat="45.01868" lon="0.69454">
        <ele>125.59999847412</ele>
        <time>2020-12-27T11:18:13Z</time>
      </trkpt>
      <trkpt lat="45.01838" lon="0.69446">
        <ele>124.80000305176</ele>
        <time>2020-12-27T11:18:16Z</time>
      </trkpt>
      <trkpt lat="45.01829" lon="0.69444">
        <ele>124.59999847412</ele>
        <time>2020-12-27T11:18:17Z</time>
      </trkpt>
      <trkpt lat="45.01821" lon="0.6944">
        <ele>124.19999694824</ele>
        <time>2020-12-27T11:18:18Z</time>
      </trkpt>
      <trkpt lat="45.01809" lon="0.69428">
        <ele>123.59999847412</ele>
        <time>2020-12-27T11:18:20Z</time>
      </trkpt>
      <trkpt lat="45.01803" lon="0.69423">
        <ele>123.40000152588</ele>
        <time>2020-12-27T11:18:21Z</time>
      </trkpt>
      <trkpt lat="45.01796" lon="0.69421">
        <ele>123</ele>
        <time>2020-12-27T11:18:22Z</time>
      </trkpt>
      <trkpt lat="45.01789" lon="0.69423">
        <ele>123</ele>
        <time>2020-12-27T11:18:23Z</time>
      </trkpt>
      <trkpt lat="45.01777" lon="0.69439">
        <ele>122.80000305176</ele>
        <time>2020-12-27T11:18:25Z</time>
      </trkpt>
      <trkpt lat="45.01774" lon="0.69463">
        <ele>122.40000152588</ele>
        <time>2020-12-27T11:18:27Z</time>
      </trkpt>
      <trkpt lat="45.01782" lon="0.69496">
        <ele>121</ele>
        <time>2020-12-27T11:18:30Z</time>
      </trkpt>
      <trkpt lat="45.01779" lon="0.69529">
        <ele>119.80000305176</ele>
        <time>2020-12-27T11:18:33Z</time>
      </trkpt>
      <trkpt lat="45.01761" lon="0.69533">
        <ele>119.19999694824</ele>
        <time>2020-12-27T11:18:35Z</time>
      </trkpt>
      <trkpt lat="45.01738" lon="0.69528">
        <ele>118.59999847412</ele>
        <time>2020-12-27T11:18:37Z</time>
      </trkpt>
      <trkpt lat="45.01726" lon="0.69524">
        <ele>118.59999847412</ele>
        <time>2020-12-27T11:18:38Z</time>
      </trkpt>
      <trkpt lat="45.01665" lon="0.69506">
        <ele>117.80000305176</ele>
        <time>2020-12-27T11:18:43Z</time>
      </trkpt>
      <trkpt lat="45.0161" lon="0.69492">
        <ele>118</ele>
        <time>2020-12-27T11:18:47Z</time>
      </trkpt>
      <trkpt lat="45.01596" lon="0.69492">
        <ele>118.40000152588</ele>
        <time>2020-12-27T11:18:48Z</time>
      </trkpt>
      <trkpt lat="45.01554" lon="0.69505">
        <ele>119</ele>
        <time>2020-12-27T11:18:51Z</time>
      </trkpt>
      <trkpt lat="45.01526" lon="0.69522">
        <ele>119.40000152588</ele>
        <time>2020-12-27T11:18:53Z</time>
      </trkpt>
      <trkpt lat="45.015" lon="0.69538">
        <ele>119.59999847412</ele>
        <time>2020-12-27T11:18:55Z</time>
      </trkpt>
      <trkpt lat="45.01487" lon="0.69546">
        <ele>119.80000305176</ele>
        <time>2020-12-27T11:18:56Z</time>
      </trkpt>
      <trkpt lat="45.01448" lon="0.69576">
        <ele>121.19999694824</ele>
        <time>2020-12-27T11:18:59Z</time>
      </trkpt>
      <trkpt lat="45.01435" lon="0.69588">
        <ele>121.80000305176</ele>
        <time>2020-12-27T11:19:00Z</time>
      </trkpt>
      <trkpt lat="45.01409" lon="0.69615">
        <ele>122.19999694824</ele>
        <time>2020-12-27T11:19:02Z</time>
      </trkpt>
      <trkpt lat="45.01383" lon="0.69646">
        <ele>122.80000305176</ele>
        <time>2020-12-27T11:19:04Z</time>
      </trkpt>
      <trkpt lat="45.01359" lon="0.69681">
        <ele>123.40000152588</ele>
        <time>2020-12-27T11:19:06Z</time>
      </trkpt>
      <trkpt lat="45.01339" lon="0.69719">
        <ele>123.80000305176</ele>
        <time>2020-12-27T11:19:08Z</time>
      </trkpt>
      <trkpt lat="45.01319" lon="0.69781">
        <ele>124.40000152588</ele>
        <time>2020-12-27T11:19:11Z</time>
      </trkpt>
      <trkpt lat="45.01311" lon="0.69848">
        <ele>124.80000305176</ele>
        <time>2020-12-27T11:19:14Z</time>
      </trkpt>
      <trkpt lat="45.01314" lon="0.69918">
        <ele>125.19999694824</ele>
        <time>2020-12-27T11:19:17Z</time>
      </trkpt>
      <trkpt lat="45.01318" lon="0.69967">
        <ele>125.80000305176</ele>
        <time>2020-12-27T11:19:19Z</time>
      </trkpt>
      <trkpt lat="45.01323" lon="0.70044">
        <ele>126.80000305176</ele>
        <time>2020-12-27T11:19:22Z</time>
      </trkpt>
      <trkpt lat="45.01323" lon="0.70069">
        <ele>127</ele>
        <time>2020-12-27T11:19:23Z</time>
      </trkpt>
      <trkpt lat="45.0132" lon="0.70144">
        <ele>127.40000152588</ele>
        <time>2020-12-27T11:19:26Z</time>
      </trkpt>
      <trkpt lat="45.01313" lon="0.70219">
        <ele>128.19999694824</ele>
        <time>2020-12-27T11:19:29Z</time>
      </trkpt>
      <trkpt lat="45.01304" lon="0.70269">
        <ele>128.60000610352</ele>
        <time>2020-12-27T11:19:31Z</time>
      </trkpt>
      <trkpt lat="45.01296" lon="0.70319">
        <ele>129.19999694824</ele>
        <time>2020-12-27T11:19:33Z</time>
      </trkpt>
      <trkpt lat="45.01287" lon="0.70419">
        <ele>130</ele>
        <time>2020-12-27T11:19:37Z</time>
      </trkpt>
      <trkpt lat="45.01285" lon="0.70444">
        <ele>130.19999694824</ele>
        <time>2020-12-27T11:19:38Z</time>
      </trkpt>
      <trkpt lat="45.01274" lon="0.7052">
        <ele>130.60000610352</ele>
        <time>2020-12-27T11:19:41Z</time>
      </trkpt>
      <trkpt lat="45.01269" lon="0.70545">
        <ele>130.80000305176</ele>
        <time>2020-12-27T11:19:42Z</time>
      </trkpt>
      <trkpt lat="45.01254" lon="0.70592">
        <ele>131.19999694824</ele>
        <time>2020-12-27T11:19:44Z</time>
      </trkpt>
      <trkpt lat="45.01246" lon="0.70614">
        <ele>131.39999389648</ele>
        <time>2020-12-27T11:19:45Z</time>
      </trkpt>
      <trkpt lat="45.0121" lon="0.70697">
        <ele>132</ele>
        <time>2020-12-27T11:19:49Z</time>
      </trkpt>
      <trkpt lat="45.01192" lon="0.70735">
        <ele>132.39999389648</ele>
        <time>2020-12-27T11:19:51Z</time>
      </trkpt>
      <trkpt lat="45.01167" lon="0.70791">
        <ele>133.19999694824</ele>
        <time>2020-12-27T11:19:54Z</time>
      </trkpt>
      <trkpt lat="45.01146" lon="0.70851">
        <ele>133.60000610352</ele>
        <time>2020-12-27T11:19:57Z</time>
      </trkpt>
      <trkpt lat="45.01141" lon="0.70873">
        <ele>133.60000610352</ele>
        <time>2020-12-27T11:19:58Z</time>
      </trkpt>
      <trkpt lat="45.01132" lon="0.70944">
        <ele>133.60000610352</ele>
        <time>2020-12-27T11:20:01Z</time>
      </trkpt>
      <trkpt lat="45.01128" lon="0.71032">
        <ele>133.80000305176</ele>
        <time>2020-12-27T11:20:05Z</time>
      </trkpt>
      <trkpt lat="45.01126" lon="0.7106">
        <ele>134.19999694824</ele>
        <time>2020-12-27T11:20:07Z</time>
      </trkpt>
      <trkpt lat="45.01124" lon="0.7108">
        <ele>134.39999389648</ele>
        <time>2020-12-27T11:20:09Z</time>
      </trkpt>
      <trkpt lat="45.01123" lon="0.71087">
        <ele>134.39999389648</ele>
        <time>2020-12-27T11:20:10Z</time>
      </trkpt>
      <trkpt lat="45.01118" lon="0.71096">
        <ele>134.39999389648</ele>
        <time>2020-12-27T11:20:12Z</time>
      </trkpt>
      <trkpt lat="45.01112" lon="0.71096">
        <ele>134.39999389648</ele>
        <time>2020-12-27T11:20:13Z</time>
      </trkpt>
      <trkpt lat="45.01105" lon="0.71095">
        <ele>134.80000305176</ele>
        <time>2020-12-27T11:20:14Z</time>
      </trkpt>
      <trkpt lat="45.01092" lon="0.71093">
        <ele>134.80000305176</ele>
        <time>2020-12-27T11:20:16Z</time>
      </trkpt>
      <trkpt lat="45.01061" lon="0.71095">
        <ele>135.60000610352</ele>
        <time>2020-12-27T11:20:19Z</time>
      </trkpt>
      <trkpt lat="45.0105" lon="0.71097">
        <ele>136</ele>
        <time>2020-12-27T11:20:20Z</time>
      </trkpt>
      <trkpt lat="45.01015" lon="0.71106">
        <ele>137.19999694824</ele>
        <time>2020-12-27T11:20:23Z</time>
      </trkpt>
      <trkpt lat="45.00951" lon="0.71124">
        <ele>138.19999694824</ele>
        <time>2020-12-27T11:20:28Z</time>
      </trkpt>
      <trkpt lat="45.00937" lon="0.71127">
        <ele>138.39999389648</ele>
        <time>2020-12-27T11:20:29Z</time>
      </trkpt>
      <trkpt lat="45.00887" lon="0.7113">
        <ele>139</ele>
        <time>2020-12-27T11:20:33Z</time>
      </trkpt>
      <trkpt lat="45.00862" lon="0.71124">
        <ele>139.19999694824</ele>
        <time>2020-12-27T11:20:35Z</time>
      </trkpt>
      <trkpt lat="45.0085" lon="0.71118">
        <ele>139.39999389648</ele>
        <time>2020-12-27T11:20:36Z</time>
      </trkpt>
      <trkpt lat="45.00804" lon="0.71091">
        <ele>140</ele>
        <time>2020-12-27T11:20:40Z</time>
      </trkpt>
      <trkpt lat="45.00794" lon="0.71087">
        <ele>140.19999694824</ele>
        <time>2020-12-27T11:20:41Z</time>
      </trkpt>
      <trkpt lat="45.00783" lon="0.71084">
        <ele>140.39999389648</ele>
        <time>2020-12-27T11:20:42Z</time>
      </trkpt>
      <trkpt lat="45.00772" lon="0.71083">
        <ele>140.60000610352</ele>
        <time>2020-12-27T11:20:43Z</time>
      </trkpt>
      <trkpt lat="45.00732" lon="0.71066">
        <ele>140.80000305176</ele>
        <time>2020-12-27T11:20:47Z</time>
      </trkpt>
      <trkpt lat="45.00706" lon="0.7103">
        <ele>141</ele>
        <time>2020-12-27T11:20:50Z</time>
      </trkpt>
      <trkpt lat="45.00697" lon="0.71019">
        <ele>141</ele>
        <time>2020-12-27T11:20:51Z</time>
      </trkpt>
      <trkpt lat="45.0067" lon="0.70987">
        <ele>141.39999389648</ele>
        <time>2020-12-27T11:20:54Z</time>
      </trkpt>
      <trkpt lat="45.00661" lon="0.70977">
        <ele>141.60000610352</ele>
        <time>2020-12-27T11:20:55Z</time>
      </trkpt>
      <trkpt lat="45.00653" lon="0.70967">
        <ele>141.60000610352</ele>
        <time>2020-12-27T11:20:56Z</time>
      </trkpt>
      <trkpt lat="45.00646" lon="0.70957">
        <ele>141.80000305176</ele>
        <time>2020-12-27T11:20:57Z</time>
      </trkpt>
      <trkpt lat="45.00627" lon="0.70929">
        <ele>142.19999694824</ele>
        <time>2020-12-27T11:21:00Z</time>
      </trkpt>
      <trkpt lat="45.00621" lon="0.70922">
        <ele>142.19999694824</ele>
        <time>2020-12-27T11:21:01Z</time>
      </trkpt>
      <trkpt lat="45.00614" lon="0.70917">
        <ele>142.39999389648</ele>
        <time>2020-12-27T11:21:02Z</time>
      </trkpt>
      <trkpt lat="45.00607" lon="0.70913">
        <ele>142.60000610352</ele>
        <time>2020-12-27T11:21:03Z</time>
      </trkpt>
      <trkpt lat="45.00601" lon="0.70909">
        <ele>142.80000305176</ele>
        <time>2020-12-27T11:21:04Z</time>
      </trkpt>
      <trkpt lat="45.00595" lon="0.70908">
        <ele>142.80000305176</ele>
        <time>2020-12-27T11:21:05Z</time>
      </trkpt>
      <trkpt lat="45.00586" lon="0.70917">
        <ele>143.39999389648</ele>
        <time>2020-12-27T11:21:06Z</time>
      </trkpt>
      <trkpt lat="45.00564" lon="0.70929">
        <ele>144</ele>
        <time>2020-12-27T11:21:08Z</time>
      </trkpt>
      <trkpt lat="45.00548" lon="0.70932">
        <ele>144.39999389648</ele>
        <time>2020-12-27T11:21:09Z</time>
      </trkpt>
      <trkpt lat="45.00501" lon="0.70926">
        <ele>145.19999694824</ele>
        <time>2020-12-27T11:21:12Z</time>
      </trkpt>
      <trkpt lat="45.00465" lon="0.70911">
        <ele>146.19999694824</ele>
        <time>2020-12-27T11:21:15Z</time>
      </trkpt>
      <trkpt lat="45.00419" lon="0.7089">
        <ele>147.39999389648</ele>
        <time>2020-12-27T11:21:19Z</time>
      </trkpt>
      <trkpt lat="45.00395" lon="0.7088">
        <ele>148.19999694824</ele>
        <time>2020-12-27T11:21:21Z</time>
      </trkpt>
      <trkpt lat="45.00385" lon="0.70876">
        <ele>148.60000610352</ele>
        <time>2020-12-27T11:21:22Z</time>
      </trkpt>
      <trkpt lat="45.00356" lon="0.70862">
        <ele>149.80000305176</ele>
        <time>2020-12-27T11:21:25Z</time>
      </trkpt>
      <trkpt lat="45.00346" lon="0.70858">
        <ele>150.19999694824</ele>
        <time>2020-12-27T11:21:26Z</time>
      </trkpt>
      <trkpt lat="45.00328" lon="0.70851">
        <ele>151.19999694824</ele>
        <time>2020-12-27T11:21:28Z</time>
      </trkpt>
      <trkpt lat="45.00299" lon="0.70846">
        <ele>152.60000610352</ele>
        <time>2020-12-27T11:21:31Z</time>
      </trkpt>
      <trkpt lat="45.00277" lon="0.7085">
        <ele>153.80000305176</ele>
        <time>2020-12-27T11:21:33Z</time>
      </trkpt>
      <trkpt lat="45.00255" lon="0.70859">
        <ele>155</ele>
        <time>2020-12-27T11:21:35Z</time>
      </trkpt>
      <trkpt lat="45.00233" lon="0.70867">
        <ele>156.39999389648</ele>
        <time>2020-12-27T11:21:37Z</time>
      </trkpt>
      <trkpt lat="45.0021" lon="0.70876">
        <ele>157.39999389648</ele>
        <time>2020-12-27T11:21:39Z</time>
      </trkpt>
      <trkpt lat="45.00189" lon="0.70884">
        <ele>158.39999389648</ele>
        <time>2020-12-27T11:21:41Z</time>
      </trkpt>
      <trkpt lat="45.00167" lon="0.70892">
        <ele>159.39999389648</ele>
        <time>2020-12-27T11:21:43Z</time>
      </trkpt>
      <trkpt lat="45.00156" lon="0.70897">
        <ele>160</ele>
        <time>2020-12-27T11:21:44Z</time>
      </trkpt>
      <trkpt lat="45.00123" lon="0.70908">
        <ele>161.19999694824</ele>
        <time>2020-12-27T11:21:47Z</time>
      </trkpt>
      <trkpt lat="45.001" lon="0.70913">
        <ele>161.60000610352</ele>
        <time>2020-12-27T11:21:49Z</time>
      </trkpt>
      <trkpt lat="45.00089" lon="0.70912">
        <ele>161.80000305176</ele>
        <time>2020-12-27T11:21:50Z</time>
      </trkpt>
      <trkpt lat="45.00056" lon="0.70898">
        <ele>162.19999694824</ele>
        <time>2020-12-27T11:21:53Z</time>
      </trkpt>
      <trkpt lat="45.00045" lon="0.70891">
        <ele>162.39999389648</ele>
        <time>2020-12-27T11:21:54Z</time>
      </trkpt>
      <trkpt lat="45.00015" lon="0.70867">
        <ele>163.60000610352</ele>
        <time>2020-12-27T11:21:57Z</time>
      </trkpt>
      <trkpt lat="45.00006" lon="0.70858">
        <ele>164</ele>
        <time>2020-12-27T11:21:58Z</time>
      </trkpt>
      <trkpt lat="44.99987" lon="0.70841">
        <ele>164.80000305176</ele>
        <time>2020-12-27T11:22:00Z</time>
      </trkpt>
      <trkpt lat="44.99954" lon="0.70809">
        <ele>165.80000305176</ele>
        <time>2020-12-27T11:22:04Z</time>
      </trkpt>
      <trkpt lat="44.99946" lon="0.70801">
        <ele>166.19999694824</ele>
        <time>2020-12-27T11:22:05Z</time>
      </trkpt>
      <trkpt lat="44.99931" lon="0.70782">
        <ele>166.80000305176</ele>
        <time>2020-12-27T11:22:07Z</time>
      </trkpt>
      <trkpt lat="44.99926" lon="0.70771">
        <ele>167</ele>
        <time>2020-12-27T11:22:08Z</time>
      </trkpt>
      <trkpt lat="44.99915" lon="0.70732">
        <ele>168</ele>
        <time>2020-12-27T11:22:11Z</time>
      </trkpt>
      <trkpt lat="44.99912" lon="0.70718">
        <ele>168.19999694824</ele>
        <time>2020-12-27T11:22:12Z</time>
      </trkpt>
      <trkpt lat="44.99902" lon="0.70677">
        <ele>169.60000610352</ele>
        <time>2020-12-27T11:22:15Z</time>
      </trkpt>
      <trkpt lat="44.99896" lon="0.7065">
        <ele>170.80000305176</ele>
        <time>2020-12-27T11:22:17Z</time>
      </trkpt>
      <trkpt lat="44.9989" lon="0.70624">
        <ele>171.80000305176</ele>
        <time>2020-12-27T11:22:19Z</time>
      </trkpt>
      <trkpt lat="44.9988" lon="0.70602">
        <ele>173</ele>
        <time>2020-12-27T11:22:21Z</time>
      </trkpt>
      <trkpt lat="44.99873" lon="0.70593">
        <ele>173.60000610352</ele>
        <time>2020-12-27T11:22:22Z</time>
      </trkpt>
      <trkpt lat="44.99865" lon="0.70587">
        <ele>174.39999389648</ele>
        <time>2020-12-27T11:22:23Z</time>
      </trkpt>
      <trkpt lat="44.99848" lon="0.70577">
        <ele>176</ele>
        <time>2020-12-27T11:22:25Z</time>
      </trkpt>
      <trkpt lat="44.99833" lon="0.70568">
        <ele>177.39999389648</ele>
        <time>2020-12-27T11:22:27Z</time>
      </trkpt>
      <trkpt lat="44.99827" lon="0.70563">
        <ele>178.19999694824</ele>
        <time>2020-12-27T11:22:28Z</time>
      </trkpt>
      <trkpt lat="44.99822" lon="0.7056">
        <ele>178.80000305176</ele>
        <time>2020-12-27T11:22:29Z</time>
      </trkpt>
      <trkpt lat="44.99816" lon="0.70558">
        <ele>180</ele>
        <time>2020-12-27T11:22:31Z</time>
      </trkpt>
      <trkpt lat="44.99812" lon="0.70577">
        <ele>180.39999389648</ele>
        <time>2020-12-27T11:22:34Z</time>
      </trkpt>
      <trkpt lat="44.9982" lon="0.70592">
        <ele>180.60000610352</ele>
        <time>2020-12-27T11:22:37Z</time>
      </trkpt>
      <trkpt lat="44.99839" lon="0.706">
        <ele>180.80000305176</ele>
        <time>2020-12-27T11:22:41Z</time>
      </trkpt>
      <trkpt lat="44.99845" lon="0.70603">
        <ele>181</ele>
        <time>2020-12-27T11:22:44Z</time>
      </trkpt>
    </trkseg>
  </trk>
</gpx>